<?xml version="1.0" encoding="UTF-8" standalone="no" ?>
<gpx xmlns="http://www.topografix.com/GPX/1/1" xmlns:xsi="http://www.w3.org/2001/XMLSchema-instance" xsi:schemaLocation="http://www.topografix.com/GPX/1/1 http://www.topografix.com/GPX/1/1/gpx.xsd" version="1.1" creator="VisuGPX - https://www.visugpx.com">
  <metadata>
    <name>lundi 2016 02</name>
    <desc><![CDATA[cumul février 2016]]></desc>
  </metadata>
  <trk>
    <name><![CDATA[lundi 2016 02 29]]></name>
    <extensions>
      <line xmlns="http://www.topografix.com/GPX/gpx_style/0/2">
        <color>0000FF</color>
      </line>
    </extensions>
    <trkseg>
      <trkpt lat="48.85743" lon="2.34737">
        <ele>40.400001525879</ele>
        <time>2016-02-29T19:20:18Z</time>
      </trkpt>
      <trkpt lat="48.85755" lon="2.34748">
        <ele>40.20000076294</ele>
        <time>2016-02-29T19:20:43Z</time>
      </trkpt>
      <trkpt lat="48.8576" lon="2.34756">
        <ele>40</ele>
        <time>2016-02-29T19:20:47Z</time>
      </trkpt>
      <trkpt lat="48.85754" lon="2.34781">
        <ele>39.400001525879</ele>
        <time>2016-02-29T19:20:58Z</time>
      </trkpt>
      <trkpt lat="48.85766" lon="2.34784">
        <ele>39.20000076294</ele>
        <time>2016-02-29T19:21:04Z</time>
      </trkpt>
      <trkpt lat="48.85785" lon="2.3479">
        <ele>40.400001525879</ele>
        <time>2016-02-29T19:21:10Z</time>
      </trkpt>
      <trkpt lat="48.85803" lon="2.348">
        <ele>42.400001525879</ele>
        <time>2016-02-29T19:21:16Z</time>
      </trkpt>
      <trkpt lat="48.85824" lon="2.34811">
        <ele>44.599998474121</ele>
        <time>2016-02-29T19:21:21Z</time>
      </trkpt>
      <trkpt lat="48.85841" lon="2.3482">
        <ele>46.599998474121</ele>
        <time>2016-02-29T19:21:25Z</time>
      </trkpt>
      <trkpt lat="48.8586" lon="2.34829">
        <ele>48</ele>
        <time>2016-02-29T19:21:29Z</time>
      </trkpt>
      <trkpt lat="48.85878" lon="2.34838">
        <ele>48</ele>
        <time>2016-02-29T19:21:33Z</time>
      </trkpt>
      <trkpt lat="48.85895" lon="2.34847">
        <ele>48</ele>
        <time>2016-02-29T19:21:37Z</time>
      </trkpt>
      <trkpt lat="48.85915" lon="2.34856">
        <ele>48</ele>
        <time>2016-02-29T19:21:42Z</time>
      </trkpt>
      <trkpt lat="48.85934" lon="2.34863">
        <ele>48</ele>
        <time>2016-02-29T19:21:47Z</time>
      </trkpt>
      <trkpt lat="48.85955" lon="2.34871">
        <ele>48.20000076294</ele>
        <time>2016-02-29T19:21:53Z</time>
      </trkpt>
      <trkpt lat="48.85967" lon="2.34876">
        <ele>48.400001525879</ele>
        <time>2016-02-29T19:21:56Z</time>
      </trkpt>
      <trkpt lat="48.85985" lon="2.34885">
        <ele>48.599998474121</ele>
        <time>2016-02-29T19:22:01Z</time>
      </trkpt>
      <trkpt lat="48.86003" lon="2.34892">
        <ele>48.79999923706</ele>
        <time>2016-02-29T19:22:06Z</time>
      </trkpt>
      <trkpt lat="48.86021" lon="2.34899">
        <ele>48.79999923706</ele>
        <time>2016-02-29T19:22:10Z</time>
      </trkpt>
      <trkpt lat="48.8604" lon="2.34908">
        <ele>48.599998474121</ele>
        <time>2016-02-29T19:22:14Z</time>
      </trkpt>
      <trkpt lat="48.86053" lon="2.34912">
        <ele>48.20000076294</ele>
        <time>2016-02-29T19:22:17Z</time>
      </trkpt>
      <trkpt lat="48.86071" lon="2.34919">
        <ele>47.79999923706</ele>
        <time>2016-02-29T19:22:21Z</time>
      </trkpt>
      <trkpt lat="48.86093" lon="2.34926">
        <ele>47.20000076294</ele>
        <time>2016-02-29T19:22:26Z</time>
      </trkpt>
      <trkpt lat="48.86114" lon="2.3493">
        <ele>47</ele>
        <time>2016-02-29T19:22:30Z</time>
      </trkpt>
      <trkpt lat="48.86133" lon="2.34937">
        <ele>47</ele>
        <time>2016-02-29T19:22:34Z</time>
      </trkpt>
      <trkpt lat="48.8615" lon="2.34949">
        <ele>46.79999923706</ele>
        <time>2016-02-29T19:22:38Z</time>
      </trkpt>
      <trkpt lat="48.86167" lon="2.34966">
        <ele>46.79999923706</ele>
        <time>2016-02-29T19:22:42Z</time>
      </trkpt>
      <trkpt lat="48.86177" lon="2.34972">
        <ele>46.79999923706</ele>
        <time>2016-02-29T19:22:45Z</time>
      </trkpt>
      <trkpt lat="48.86194" lon="2.34986">
        <ele>47</ele>
        <time>2016-02-29T19:22:50Z</time>
      </trkpt>
      <trkpt lat="48.86206" lon="2.3499">
        <ele>47.20000076294</ele>
        <time>2016-02-29T19:22:53Z</time>
      </trkpt>
      <trkpt lat="48.86224" lon="2.35001">
        <ele>47.400001525879</ele>
        <time>2016-02-29T19:22:57Z</time>
      </trkpt>
      <trkpt lat="48.86227" lon="2.35003">
        <ele>47.599998474121</ele>
        <time>2016-02-29T19:22:58Z</time>
      </trkpt>
      <trkpt lat="48.8624" lon="2.3501">
        <ele>47.79999923706</ele>
        <time>2016-02-29T19:23:02Z</time>
      </trkpt>
      <trkpt lat="48.8625" lon="2.35015">
        <ele>48</ele>
        <time>2016-02-29T19:23:05Z</time>
      </trkpt>
      <trkpt lat="48.86261" lon="2.35019">
        <ele>48.20000076294</ele>
        <time>2016-02-29T19:23:08Z</time>
      </trkpt>
      <trkpt lat="48.86282" lon="2.35027">
        <ele>48.20000076294</ele>
        <time>2016-02-29T19:23:13Z</time>
      </trkpt>
      <trkpt lat="48.86302" lon="2.35038">
        <ele>48.20000076294</ele>
        <time>2016-02-29T19:23:18Z</time>
      </trkpt>
      <trkpt lat="48.86319" lon="2.35056">
        <ele>48.20000076294</ele>
        <time>2016-02-29T19:23:23Z</time>
      </trkpt>
      <trkpt lat="48.8633" lon="2.35066">
        <ele>48.20000076294</ele>
        <time>2016-02-29T19:23:26Z</time>
      </trkpt>
      <trkpt lat="48.86344" lon="2.35073">
        <ele>48</ele>
        <time>2016-02-29T19:23:30Z</time>
      </trkpt>
      <trkpt lat="48.8636" lon="2.35083">
        <ele>48</ele>
        <time>2016-02-29T19:23:35Z</time>
      </trkpt>
      <trkpt lat="48.86377" lon="2.35094">
        <ele>47.599998474121</ele>
        <time>2016-02-29T19:23:40Z</time>
      </trkpt>
      <trkpt lat="48.86395" lon="2.35105">
        <ele>47.400001525879</ele>
        <time>2016-02-29T19:23:46Z</time>
      </trkpt>
      <trkpt lat="48.86416" lon="2.35109">
        <ele>46.79999923706</ele>
        <time>2016-02-29T19:23:51Z</time>
      </trkpt>
      <trkpt lat="48.86435" lon="2.35132">
        <ele>46.79999923706</ele>
        <time>2016-02-29T19:23:56Z</time>
      </trkpt>
      <trkpt lat="48.86451" lon="2.35145">
        <ele>46.400001525879</ele>
        <time>2016-02-29T19:24:00Z</time>
      </trkpt>
      <trkpt lat="48.86468" lon="2.35158">
        <ele>46.20000076294</ele>
        <time>2016-02-29T19:24:04Z</time>
      </trkpt>
      <trkpt lat="48.86485" lon="2.3517">
        <ele>46</ele>
        <time>2016-02-29T19:24:08Z</time>
      </trkpt>
      <trkpt lat="48.86503" lon="2.35173">
        <ele>45.79999923706</ele>
        <time>2016-02-29T19:24:12Z</time>
      </trkpt>
      <trkpt lat="48.86521" lon="2.35183">
        <ele>45.79999923706</ele>
        <time>2016-02-29T19:24:16Z</time>
      </trkpt>
      <trkpt lat="48.86524" lon="2.35187">
        <ele>45.79999923706</ele>
        <time>2016-02-29T19:24:17Z</time>
      </trkpt>
      <trkpt lat="48.86539" lon="2.35204">
        <ele>46.599998474121</ele>
        <time>2016-02-29T19:24:22Z</time>
      </trkpt>
      <trkpt lat="48.86556" lon="2.35218">
        <ele>47.400001525879</ele>
        <time>2016-02-29T19:24:28Z</time>
      </trkpt>
      <trkpt lat="48.86559" lon="2.35219">
        <ele>47.400001525879</ele>
        <time>2016-02-29T19:24:29Z</time>
      </trkpt>
      <trkpt lat="48.86578" lon="2.35221">
        <ele>47.599998474121</ele>
        <time>2016-02-29T19:24:36Z</time>
      </trkpt>
      <trkpt lat="48.86597" lon="2.35224">
        <ele>48.599998474121</ele>
        <time>2016-02-29T19:24:44Z</time>
      </trkpt>
      <trkpt lat="48.86606" lon="2.35224">
        <ele>49</ele>
        <time>2016-02-29T19:24:48Z</time>
      </trkpt>
      <trkpt lat="48.86625" lon="2.35227">
        <ele>49.20000076294</ele>
        <time>2016-02-29T19:24:54Z</time>
      </trkpt>
      <trkpt lat="48.86643" lon="2.35233">
        <ele>49.400001525879</ele>
        <time>2016-02-29T19:25:00Z</time>
      </trkpt>
      <trkpt lat="48.86663" lon="2.35246">
        <ele>49.599998474121</ele>
        <time>2016-02-29T19:25:05Z</time>
      </trkpt>
      <trkpt lat="48.8668" lon="2.35258">
        <ele>49.79999923706</ele>
        <time>2016-02-29T19:25:09Z</time>
      </trkpt>
      <trkpt lat="48.867" lon="2.35272">
        <ele>49.400001525879</ele>
        <time>2016-02-29T19:25:14Z</time>
      </trkpt>
      <trkpt lat="48.86719" lon="2.35285">
        <ele>48.20000076294</ele>
        <time>2016-02-29T19:25:18Z</time>
      </trkpt>
      <trkpt lat="48.86738" lon="2.353">
        <ele>47</ele>
        <time>2016-02-29T19:25:22Z</time>
      </trkpt>
      <trkpt lat="48.86756" lon="2.35313">
        <ele>46</ele>
        <time>2016-02-29T19:25:26Z</time>
      </trkpt>
      <trkpt lat="48.86774" lon="2.35321">
        <ele>45.400001525879</ele>
        <time>2016-02-29T19:25:30Z</time>
      </trkpt>
      <trkpt lat="48.86794" lon="2.3533">
        <ele>45.79999923706</ele>
        <time>2016-02-29T19:25:34Z</time>
      </trkpt>
      <trkpt lat="48.86814" lon="2.35342">
        <ele>46.400001525879</ele>
        <time>2016-02-29T19:25:38Z</time>
      </trkpt>
      <trkpt lat="48.86833" lon="2.35352">
        <ele>47.20000076294</ele>
        <time>2016-02-29T19:25:42Z</time>
      </trkpt>
      <trkpt lat="48.86852" lon="2.35363">
        <ele>47.79999923706</ele>
        <time>2016-02-29T19:25:46Z</time>
      </trkpt>
      <trkpt lat="48.86856" lon="2.35366">
        <ele>48</ele>
        <time>2016-02-29T19:25:47Z</time>
      </trkpt>
      <trkpt lat="48.86874" lon="2.35376">
        <ele>47.79999923706</ele>
        <time>2016-02-29T19:25:51Z</time>
      </trkpt>
      <trkpt lat="48.86891" lon="2.35382">
        <ele>47.599998474121</ele>
        <time>2016-02-29T19:25:55Z</time>
      </trkpt>
      <trkpt lat="48.86905" lon="2.35391">
        <ele>47.400001525879</ele>
        <time>2016-02-29T19:25:59Z</time>
      </trkpt>
      <trkpt lat="48.86913" lon="2.35399">
        <ele>47.400001525879</ele>
        <time>2016-02-29T19:26:04Z</time>
      </trkpt>
      <trkpt lat="48.8692" lon="2.35406">
        <ele>47.20000076294</ele>
        <time>2016-02-29T19:26:08Z</time>
      </trkpt>
      <trkpt lat="48.86922" lon="2.35411">
        <ele>47.20000076294</ele>
        <time>2016-02-29T19:26:10Z</time>
      </trkpt>
      <trkpt lat="48.86925" lon="2.35412">
        <ele>47.20000076294</ele>
        <time>2016-02-29T19:26:14Z</time>
      </trkpt>
      <trkpt lat="48.86946" lon="2.35421">
        <ele>47.20000076294</ele>
        <time>2016-02-29T19:26:30Z</time>
      </trkpt>
      <trkpt lat="48.86964" lon="2.35431">
        <ele>47.79999923706</ele>
        <time>2016-02-29T19:26:35Z</time>
      </trkpt>
      <trkpt lat="48.86981" lon="2.35439">
        <ele>48.400001525879</ele>
        <time>2016-02-29T19:26:39Z</time>
      </trkpt>
      <trkpt lat="48.87" lon="2.35448">
        <ele>48.79999923706</ele>
        <time>2016-02-29T19:26:43Z</time>
      </trkpt>
      <trkpt lat="48.87019" lon="2.35457">
        <ele>49.400001525879</ele>
        <time>2016-02-29T19:26:48Z</time>
      </trkpt>
      <trkpt lat="48.87039" lon="2.35468">
        <ele>49</ele>
        <time>2016-02-29T19:26:54Z</time>
      </trkpt>
      <trkpt lat="48.87059" lon="2.3548">
        <ele>48.400001525879</ele>
        <time>2016-02-29T19:26:59Z</time>
      </trkpt>
      <trkpt lat="48.87078" lon="2.35488">
        <ele>47.79999923706</ele>
        <time>2016-02-29T19:27:03Z</time>
      </trkpt>
      <trkpt lat="48.87099" lon="2.35496">
        <ele>47.20000076294</ele>
        <time>2016-02-29T19:27:07Z</time>
      </trkpt>
      <trkpt lat="48.87114" lon="2.35503">
        <ele>46.79999923706</ele>
        <time>2016-02-29T19:27:10Z</time>
      </trkpt>
      <trkpt lat="48.87136" lon="2.35515">
        <ele>46.400001525879</ele>
        <time>2016-02-29T19:27:14Z</time>
      </trkpt>
      <trkpt lat="48.8714" lon="2.35518">
        <ele>46.400001525879</ele>
        <time>2016-02-29T19:27:15Z</time>
      </trkpt>
      <trkpt lat="48.87156" lon="2.35526">
        <ele>46.20000076294</ele>
        <time>2016-02-29T19:27:18Z</time>
      </trkpt>
      <trkpt lat="48.87175" lon="2.35538">
        <ele>45.79999923706</ele>
        <time>2016-02-29T19:27:22Z</time>
      </trkpt>
      <trkpt lat="48.87193" lon="2.3555">
        <ele>45.599998474121</ele>
        <time>2016-02-29T19:27:26Z</time>
      </trkpt>
      <trkpt lat="48.87213" lon="2.35562">
        <ele>45.400001525879</ele>
        <time>2016-02-29T19:27:31Z</time>
      </trkpt>
      <trkpt lat="48.87229" lon="2.35567">
        <ele>45.400001525879</ele>
        <time>2016-02-29T19:27:35Z</time>
      </trkpt>
      <trkpt lat="48.87244" lon="2.35576">
        <ele>45.20000076294</ele>
        <time>2016-02-29T19:27:38Z</time>
      </trkpt>
      <trkpt lat="48.87253" lon="2.35582">
        <ele>45.20000076294</ele>
        <time>2016-02-29T19:27:40Z</time>
      </trkpt>
      <trkpt lat="48.87271" lon="2.35588">
        <ele>45.20000076294</ele>
        <time>2016-02-29T19:27:44Z</time>
      </trkpt>
      <trkpt lat="48.87291" lon="2.35597">
        <ele>45.20000076294</ele>
        <time>2016-02-29T19:27:49Z</time>
      </trkpt>
      <trkpt lat="48.87309" lon="2.35605">
        <ele>45.400001525879</ele>
        <time>2016-02-29T19:27:54Z</time>
      </trkpt>
      <trkpt lat="48.87329" lon="2.35614">
        <ele>45.599998474121</ele>
        <time>2016-02-29T19:27:59Z</time>
      </trkpt>
      <trkpt lat="48.87347" lon="2.35619">
        <ele>45.79999923706</ele>
        <time>2016-02-29T19:28:03Z</time>
      </trkpt>
      <trkpt lat="48.87367" lon="2.35629">
        <ele>46.20000076294</ele>
        <time>2016-02-29T19:28:08Z</time>
      </trkpt>
      <trkpt lat="48.87387" lon="2.35639">
        <ele>46.79999923706</ele>
        <time>2016-02-29T19:28:13Z</time>
      </trkpt>
      <trkpt lat="48.87404" lon="2.35648">
        <ele>47.20000076294</ele>
        <time>2016-02-29T19:28:17Z</time>
      </trkpt>
      <trkpt lat="48.87425" lon="2.35656">
        <ele>47.599998474121</ele>
        <time>2016-02-29T19:28:22Z</time>
      </trkpt>
      <trkpt lat="48.8744" lon="2.35667">
        <ele>48</ele>
        <time>2016-02-29T19:28:26Z</time>
      </trkpt>
      <trkpt lat="48.87452" lon="2.35679">
        <ele>48</ele>
        <time>2016-02-29T19:28:30Z</time>
      </trkpt>
      <trkpt lat="48.87459" lon="2.35685">
        <ele>48</ele>
        <time>2016-02-29T19:28:33Z</time>
      </trkpt>
      <trkpt lat="48.87463" lon="2.35692">
        <ele>48</ele>
        <time>2016-02-29T19:28:37Z</time>
      </trkpt>
      <trkpt lat="48.87459" lon="2.3572">
        <ele>47.599998474121</ele>
        <time>2016-02-29T19:28:51Z</time>
      </trkpt>
      <trkpt lat="48.87475" lon="2.35732">
        <ele>47.599998474121</ele>
        <time>2016-02-29T19:29:14Z</time>
      </trkpt>
      <trkpt lat="48.87495" lon="2.35742">
        <ele>47.79999923706</ele>
        <time>2016-02-29T19:29:20Z</time>
      </trkpt>
      <trkpt lat="48.87513" lon="2.35749">
        <ele>48</ele>
        <time>2016-02-29T19:29:25Z</time>
      </trkpt>
      <trkpt lat="48.87531" lon="2.35758">
        <ele>48.400001525879</ele>
        <time>2016-02-29T19:29:30Z</time>
      </trkpt>
      <trkpt lat="48.87549" lon="2.35768">
        <ele>49</ele>
        <time>2016-02-29T19:29:36Z</time>
      </trkpt>
      <trkpt lat="48.87569" lon="2.35774">
        <ele>49.79999923706</ele>
        <time>2016-02-29T19:29:42Z</time>
      </trkpt>
      <trkpt lat="48.87586" lon="2.35785">
        <ele>50.599998474121</ele>
        <time>2016-02-29T19:29:48Z</time>
      </trkpt>
      <trkpt lat="48.87602" lon="2.35807">
        <ele>51</ele>
        <time>2016-02-29T19:29:54Z</time>
      </trkpt>
      <trkpt lat="48.8761" lon="2.35834">
        <ele>51</ele>
        <time>2016-02-29T19:29:58Z</time>
      </trkpt>
      <trkpt lat="48.87608" lon="2.35866">
        <ele>51</ele>
        <time>2016-02-29T19:30:02Z</time>
      </trkpt>
      <trkpt lat="48.87605" lon="2.35897">
        <ele>51</ele>
        <time>2016-02-29T19:30:07Z</time>
      </trkpt>
      <trkpt lat="48.87604" lon="2.35928">
        <ele>51</ele>
        <time>2016-02-29T19:30:12Z</time>
      </trkpt>
      <trkpt lat="48.87597" lon="2.35956">
        <ele>51</ele>
        <time>2016-02-29T19:30:17Z</time>
      </trkpt>
      <trkpt lat="48.87591" lon="2.35977">
        <ele>50.79999923706</ele>
        <time>2016-02-29T19:30:21Z</time>
      </trkpt>
      <trkpt lat="48.87582" lon="2.36002">
        <ele>50</ele>
        <time>2016-02-29T19:30:30Z</time>
      </trkpt>
      <trkpt lat="48.87584" lon="2.36005">
        <ele>50.20000076294</ele>
        <time>2016-02-29T19:30:35Z</time>
      </trkpt>
      <trkpt lat="48.87585" lon="2.36005">
        <ele>50.20000076294</ele>
        <time>2016-02-29T19:30:36Z</time>
      </trkpt>
      <trkpt lat="48.8759" lon="2.36033">
        <ele>50.599998474121</ele>
        <time>2016-02-29T19:30:46Z</time>
      </trkpt>
      <trkpt lat="48.87604" lon="2.36053">
        <ele>51.79999923706</ele>
        <time>2016-02-29T19:30:52Z</time>
      </trkpt>
      <trkpt lat="48.87606" lon="2.36064">
        <ele>52</ele>
        <time>2016-02-29T19:30:55Z</time>
      </trkpt>
      <trkpt lat="48.87602" lon="2.36094">
        <ele>51.599998474121</ele>
        <time>2016-02-29T19:31:02Z</time>
      </trkpt>
      <trkpt lat="48.8761" lon="2.36122">
        <ele>51.79999923706</ele>
        <time>2016-02-29T19:31:08Z</time>
      </trkpt>
      <trkpt lat="48.8762" lon="2.36146">
        <ele>52.599998474121</ele>
        <time>2016-02-29T19:31:14Z</time>
      </trkpt>
      <trkpt lat="48.87629" lon="2.36171">
        <ele>52.79999923706</ele>
        <time>2016-02-29T19:31:19Z</time>
      </trkpt>
      <trkpt lat="48.87639" lon="2.36199">
        <ele>52.20000076294</ele>
        <time>2016-02-29T19:31:26Z</time>
      </trkpt>
      <trkpt lat="48.87644" lon="2.36227">
        <ele>52.400001525879</ele>
        <time>2016-02-29T19:31:33Z</time>
      </trkpt>
      <trkpt lat="48.87655" lon="2.36253">
        <ele>52.400001525879</ele>
        <time>2016-02-29T19:31:40Z</time>
      </trkpt>
      <trkpt lat="48.87665" lon="2.36265">
        <ele>52</ele>
        <time>2016-02-29T19:31:45Z</time>
      </trkpt>
      <trkpt lat="48.87675" lon="2.36272">
        <ele>52</ele>
        <time>2016-02-29T19:31:49Z</time>
      </trkpt>
      <trkpt lat="48.87688" lon="2.36298">
        <ele>51</ele>
        <time>2016-02-29T19:31:54Z</time>
      </trkpt>
      <trkpt lat="48.87705" lon="2.36316">
        <ele>50.599998474121</ele>
        <time>2016-02-29T19:32:01Z</time>
      </trkpt>
      <trkpt lat="48.8771" lon="2.36325">
        <ele>50.400001525879</ele>
        <time>2016-02-29T19:32:06Z</time>
      </trkpt>
      <trkpt lat="48.87704" lon="2.36356">
        <ele>49</ele>
        <time>2016-02-29T19:32:13Z</time>
      </trkpt>
      <trkpt lat="48.87704" lon="2.36365">
        <ele>48.599998474121</ele>
        <time>2016-02-29T19:32:15Z</time>
      </trkpt>
      <trkpt lat="48.87711" lon="2.36381">
        <ele>48.400001525879</ele>
        <time>2016-02-29T19:32:19Z</time>
      </trkpt>
      <trkpt lat="48.87721" lon="2.36404">
        <ele>48.20000076294</ele>
        <time>2016-02-29T19:32:24Z</time>
      </trkpt>
      <trkpt lat="48.87736" lon="2.3642">
        <ele>48.599998474121</ele>
        <time>2016-02-29T19:32:30Z</time>
      </trkpt>
      <trkpt lat="48.87754" lon="2.36434">
        <ele>49.20000076294</ele>
        <time>2016-02-29T19:32:36Z</time>
      </trkpt>
      <trkpt lat="48.87771" lon="2.36445">
        <ele>50</ele>
        <time>2016-02-29T19:32:41Z</time>
      </trkpt>
      <trkpt lat="48.87787" lon="2.36462">
        <ele>50</ele>
        <time>2016-02-29T19:32:47Z</time>
      </trkpt>
      <trkpt lat="48.87797" lon="2.36472">
        <ele>50</ele>
        <time>2016-02-29T19:32:55Z</time>
      </trkpt>
      <trkpt lat="48.87792" lon="2.36487">
        <ele>48.79999923706</ele>
        <time>2016-02-29T19:33:01Z</time>
      </trkpt>
      <trkpt lat="48.87779" lon="2.36508">
        <ele>47.20000076294</ele>
        <time>2016-02-29T19:33:07Z</time>
      </trkpt>
      <trkpt lat="48.87773" lon="2.36541">
        <ele>47.599998474121</ele>
        <time>2016-02-29T19:33:17Z</time>
      </trkpt>
      <trkpt lat="48.87757" lon="2.36557">
        <ele>47.79999923706</ele>
        <time>2016-02-29T19:33:25Z</time>
      </trkpt>
      <trkpt lat="48.87758" lon="2.36583">
        <ele>48.20000076294</ele>
        <time>2016-02-29T19:33:33Z</time>
      </trkpt>
      <trkpt lat="48.87773" lon="2.366">
        <ele>48.400001525879</ele>
        <time>2016-02-29T19:33:39Z</time>
      </trkpt>
      <trkpt lat="48.8779" lon="2.36612">
        <ele>49.400001525879</ele>
        <time>2016-02-29T19:33:44Z</time>
      </trkpt>
      <trkpt lat="48.87808" lon="2.36629">
        <ele>50.400001525879</ele>
        <time>2016-02-29T19:33:49Z</time>
      </trkpt>
      <trkpt lat="48.87826" lon="2.36642">
        <ele>51.400001525879</ele>
        <time>2016-02-29T19:33:53Z</time>
      </trkpt>
      <trkpt lat="48.87843" lon="2.36655">
        <ele>52.400001525879</ele>
        <time>2016-02-29T19:33:57Z</time>
      </trkpt>
      <trkpt lat="48.87862" lon="2.36667">
        <ele>53.20000076294</ele>
        <time>2016-02-29T19:34:01Z</time>
      </trkpt>
      <trkpt lat="48.87881" lon="2.36679">
        <ele>54.400001525879</ele>
        <time>2016-02-29T19:34:06Z</time>
      </trkpt>
      <trkpt lat="48.87893" lon="2.36688">
        <ele>55</ele>
        <time>2016-02-29T19:34:09Z</time>
      </trkpt>
      <trkpt lat="48.87914" lon="2.36706">
        <ele>56.20000076294</ele>
        <time>2016-02-29T19:34:13Z</time>
      </trkpt>
      <trkpt lat="48.87933" lon="2.36722">
        <ele>57.400001525879</ele>
        <time>2016-02-29T19:34:17Z</time>
      </trkpt>
      <trkpt lat="48.8794" lon="2.36737">
        <ele>57.79999923706</ele>
        <time>2016-02-29T19:34:19Z</time>
      </trkpt>
      <trkpt lat="48.87949" lon="2.36765">
        <ele>57.599998474121</ele>
        <time>2016-02-29T19:34:24Z</time>
      </trkpt>
      <trkpt lat="48.87953" lon="2.36781">
        <ele>57.400001525879</ele>
        <time>2016-02-29T19:34:34Z</time>
      </trkpt>
      <trkpt lat="48.87959" lon="2.36789">
        <ele>57</ele>
        <time>2016-02-29T19:34:48Z</time>
      </trkpt>
      <trkpt lat="48.87972" lon="2.36807">
        <ele>56.400001525879</ele>
        <time>2016-02-29T19:34:55Z</time>
      </trkpt>
      <trkpt lat="48.87976" lon="2.36809">
        <ele>56.20000076294</ele>
        <time>2016-02-29T19:34:56Z</time>
      </trkpt>
      <trkpt lat="48.87992" lon="2.36825">
        <ele>55.599998474121</ele>
        <time>2016-02-29T19:35:01Z</time>
      </trkpt>
      <trkpt lat="48.8801" lon="2.36837">
        <ele>55</ele>
        <time>2016-02-29T19:35:07Z</time>
      </trkpt>
      <trkpt lat="48.88028" lon="2.36853">
        <ele>55</ele>
        <time>2016-02-29T19:35:13Z</time>
      </trkpt>
      <trkpt lat="48.88045" lon="2.36868">
        <ele>55.20000076294</ele>
        <time>2016-02-29T19:35:18Z</time>
      </trkpt>
      <trkpt lat="48.88067" lon="2.36877">
        <ele>55.20000076294</ele>
        <time>2016-02-29T19:35:25Z</time>
      </trkpt>
      <trkpt lat="48.88085" lon="2.36892">
        <ele>55.400001525879</ele>
        <time>2016-02-29T19:35:32Z</time>
      </trkpt>
      <trkpt lat="48.88102" lon="2.36905">
        <ele>55.599998474121</ele>
        <time>2016-02-29T19:35:36Z</time>
      </trkpt>
      <trkpt lat="48.88119" lon="2.36924">
        <ele>56.20000076294</ele>
        <time>2016-02-29T19:35:40Z</time>
      </trkpt>
      <trkpt lat="48.88134" lon="2.3694">
        <ele>56.400001525879</ele>
        <time>2016-02-29T19:35:44Z</time>
      </trkpt>
      <trkpt lat="48.88141" lon="2.36969">
        <ele>57.400001525879</ele>
        <time>2016-02-29T19:35:50Z</time>
      </trkpt>
      <trkpt lat="48.88146" lon="2.36999">
        <ele>58.599998474121</ele>
        <time>2016-02-29T19:35:57Z</time>
      </trkpt>
      <trkpt lat="48.88164" lon="2.37012">
        <ele>58.400001525879</ele>
        <time>2016-02-29T19:36:02Z</time>
      </trkpt>
      <trkpt lat="48.88182" lon="2.3701">
        <ele>57.599998474121</ele>
        <time>2016-02-29T19:36:07Z</time>
      </trkpt>
      <trkpt lat="48.88201" lon="2.37007">
        <ele>57.400001525879</ele>
        <time>2016-02-29T19:36:14Z</time>
      </trkpt>
      <trkpt lat="48.8822" lon="2.37013">
        <ele>57.400001525879</ele>
        <time>2016-02-29T19:36:19Z</time>
      </trkpt>
      <trkpt lat="48.88239" lon="2.37015">
        <ele>57.20000076294</ele>
        <time>2016-02-29T19:36:23Z</time>
      </trkpt>
      <trkpt lat="48.88259" lon="2.37014">
        <ele>57</ele>
        <time>2016-02-29T19:36:28Z</time>
      </trkpt>
      <trkpt lat="48.88277" lon="2.37014">
        <ele>56.400001525879</ele>
        <time>2016-02-29T19:36:35Z</time>
      </trkpt>
      <trkpt lat="48.88295" lon="2.37021">
        <ele>55.599998474121</ele>
        <time>2016-02-29T19:36:43Z</time>
      </trkpt>
      <trkpt lat="48.88309" lon="2.37043">
        <ele>55.599998474121</ele>
        <time>2016-02-29T19:36:50Z</time>
      </trkpt>
      <trkpt lat="48.88325" lon="2.37059">
        <ele>55.20000076294</ele>
        <time>2016-02-29T19:36:56Z</time>
      </trkpt>
      <trkpt lat="48.88343" lon="2.37069">
        <ele>54.400001525879</ele>
        <time>2016-02-29T19:37:03Z</time>
      </trkpt>
      <trkpt lat="48.88355" lon="2.37089">
        <ele>54.599998474121</ele>
        <time>2016-02-29T19:37:09Z</time>
      </trkpt>
      <trkpt lat="48.88369" lon="2.37113">
        <ele>54.79999923706</ele>
        <time>2016-02-29T19:37:14Z</time>
      </trkpt>
      <trkpt lat="48.88383" lon="2.37133">
        <ele>54.79999923706</ele>
        <time>2016-02-29T19:37:18Z</time>
      </trkpt>
      <trkpt lat="48.88395" lon="2.37155">
        <ele>55.20000076294</ele>
        <time>2016-02-29T19:37:22Z</time>
      </trkpt>
      <trkpt lat="48.88406" lon="2.37182">
        <ele>55.400001525879</ele>
        <time>2016-02-29T19:37:26Z</time>
      </trkpt>
      <trkpt lat="48.88416" lon="2.37209">
        <ele>55.599998474121</ele>
        <time>2016-02-29T19:37:30Z</time>
      </trkpt>
      <trkpt lat="48.88425" lon="2.37235">
        <ele>55.599998474121</ele>
        <time>2016-02-29T19:37:34Z</time>
      </trkpt>
      <trkpt lat="48.88436" lon="2.37262">
        <ele>55.599998474121</ele>
        <time>2016-02-29T19:37:38Z</time>
      </trkpt>
      <trkpt lat="48.88449" lon="2.37283">
        <ele>55.79999923706</ele>
        <time>2016-02-29T19:37:42Z</time>
      </trkpt>
      <trkpt lat="48.88461" lon="2.37308">
        <ele>56.400001525879</ele>
        <time>2016-02-29T19:37:46Z</time>
      </trkpt>
      <trkpt lat="48.88472" lon="2.37332">
        <ele>57</ele>
        <time>2016-02-29T19:37:50Z</time>
      </trkpt>
      <trkpt lat="48.88483" lon="2.37355">
        <ele>56.400001525879</ele>
        <time>2016-02-29T19:37:54Z</time>
      </trkpt>
      <trkpt lat="48.88494" lon="2.37375">
        <ele>56</ele>
        <time>2016-02-29T19:37:58Z</time>
      </trkpt>
      <trkpt lat="48.88499" lon="2.37386">
        <ele>55.599998474121</ele>
        <time>2016-02-29T19:38:00Z</time>
      </trkpt>
      <trkpt lat="48.88508" lon="2.37404">
        <ele>55.400001525879</ele>
        <time>2016-02-29T19:38:03Z</time>
      </trkpt>
      <trkpt lat="48.88521" lon="2.37426">
        <ele>55.400001525879</ele>
        <time>2016-02-29T19:38:07Z</time>
      </trkpt>
      <trkpt lat="48.88528" lon="2.37443">
        <ele>55.400001525879</ele>
        <time>2016-02-29T19:38:10Z</time>
      </trkpt>
      <trkpt lat="48.88537" lon="2.37467">
        <ele>55.400001525879</ele>
        <time>2016-02-29T19:38:14Z</time>
      </trkpt>
      <trkpt lat="48.88543" lon="2.37479">
        <ele>55.400001525879</ele>
        <time>2016-02-29T19:38:16Z</time>
      </trkpt>
      <trkpt lat="48.88555" lon="2.37504">
        <ele>55.400001525879</ele>
        <time>2016-02-29T19:38:20Z</time>
      </trkpt>
      <trkpt lat="48.88569" lon="2.37532">
        <ele>55.400001525879</ele>
        <time>2016-02-29T19:38:25Z</time>
      </trkpt>
      <trkpt lat="48.8858" lon="2.37554">
        <ele>55.599998474121</ele>
        <time>2016-02-29T19:38:29Z</time>
      </trkpt>
      <trkpt lat="48.88594" lon="2.37578">
        <ele>55.599998474121</ele>
        <time>2016-02-29T19:38:34Z</time>
      </trkpt>
      <trkpt lat="48.88608" lon="2.37602">
        <ele>55.79999923706</ele>
        <time>2016-02-29T19:38:39Z</time>
      </trkpt>
      <trkpt lat="48.88623" lon="2.37627">
        <ele>56.599998474121</ele>
        <time>2016-02-29T19:38:44Z</time>
      </trkpt>
      <trkpt lat="48.88635" lon="2.37653">
        <ele>57.599998474121</ele>
        <time>2016-02-29T19:38:48Z</time>
      </trkpt>
      <trkpt lat="48.88647" lon="2.37674">
        <ele>58.20000076294</ele>
        <time>2016-02-29T19:38:52Z</time>
      </trkpt>
      <trkpt lat="48.88658" lon="2.37697">
        <ele>58.400001525879</ele>
        <time>2016-02-29T19:38:57Z</time>
      </trkpt>
      <trkpt lat="48.88671" lon="2.37723">
        <ele>58.599998474121</ele>
        <time>2016-02-29T19:39:02Z</time>
      </trkpt>
      <trkpt lat="48.88678" lon="2.37738">
        <ele>59</ele>
        <time>2016-02-29T19:39:05Z</time>
      </trkpt>
      <trkpt lat="48.8869" lon="2.37757">
        <ele>58.79999923706</ele>
        <time>2016-02-29T19:39:09Z</time>
      </trkpt>
      <trkpt lat="48.88704" lon="2.37778">
        <ele>58</ele>
        <time>2016-02-29T19:39:14Z</time>
      </trkpt>
      <trkpt lat="48.88721" lon="2.378">
        <ele>57</ele>
        <time>2016-02-29T19:39:19Z</time>
      </trkpt>
      <trkpt lat="48.88724" lon="2.37813">
        <ele>56.599998474121</ele>
        <time>2016-02-29T19:39:21Z</time>
      </trkpt>
      <trkpt lat="48.88727" lon="2.37836">
        <ele>56.20000076294</ele>
        <time>2016-02-29T19:39:25Z</time>
      </trkpt>
      <trkpt lat="48.88736" lon="2.37852">
        <ele>56.20000076294</ele>
        <time>2016-02-29T19:39:29Z</time>
      </trkpt>
      <trkpt lat="48.88738" lon="2.37856">
        <ele>56.20000076294</ele>
        <time>2016-02-29T19:39:30Z</time>
      </trkpt>
      <trkpt lat="48.88744" lon="2.37877">
        <ele>56.20000076294</ele>
        <time>2016-02-29T19:39:34Z</time>
      </trkpt>
      <trkpt lat="48.88756" lon="2.37898">
        <ele>56.20000076294</ele>
        <time>2016-02-29T19:39:39Z</time>
      </trkpt>
      <trkpt lat="48.88768" lon="2.3792">
        <ele>56.20000076294</ele>
        <time>2016-02-29T19:39:44Z</time>
      </trkpt>
      <trkpt lat="48.88779" lon="2.37941">
        <ele>56.400001525879</ele>
        <time>2016-02-29T19:39:49Z</time>
      </trkpt>
      <trkpt lat="48.88781" lon="2.37949">
        <ele>56.400001525879</ele>
        <time>2016-02-29T19:39:51Z</time>
      </trkpt>
      <trkpt lat="48.88788" lon="2.37963">
        <ele>56.400001525879</ele>
        <time>2016-02-29T19:39:55Z</time>
      </trkpt>
      <trkpt lat="48.88805" lon="2.37969">
        <ele>55.79999923706</ele>
        <time>2016-02-29T19:40:10Z</time>
      </trkpt>
      <trkpt lat="48.88815" lon="2.37967">
        <ele>55.20000076294</ele>
        <time>2016-02-29T19:40:17Z</time>
      </trkpt>
      <trkpt lat="48.88825" lon="2.37956">
        <ele>54.599998474121</ele>
        <time>2016-02-29T19:40:34Z</time>
      </trkpt>
      <trkpt lat="48.8884" lon="2.37978">
        <ele>54.400001525879</ele>
        <time>2016-02-29T19:40:48Z</time>
      </trkpt>
      <trkpt lat="48.88853" lon="2.38003">
        <ele>54.400001525879</ele>
        <time>2016-02-29T19:40:53Z</time>
      </trkpt>
      <trkpt lat="48.88861" lon="2.38019">
        <ele>55</ele>
        <time>2016-02-29T19:40:56Z</time>
      </trkpt>
      <trkpt lat="48.88876" lon="2.38044">
        <ele>56</ele>
        <time>2016-02-29T19:41:01Z</time>
      </trkpt>
      <trkpt lat="48.88889" lon="2.3807">
        <ele>57.20000076294</ele>
        <time>2016-02-29T19:41:06Z</time>
      </trkpt>
      <trkpt lat="48.88901" lon="2.38093">
        <ele>58</ele>
        <time>2016-02-29T19:41:11Z</time>
      </trkpt>
      <trkpt lat="48.88912" lon="2.38116">
        <ele>58.599998474121</ele>
        <time>2016-02-29T19:41:16Z</time>
      </trkpt>
      <trkpt lat="48.88924" lon="2.38138">
        <ele>59.400001525879</ele>
        <time>2016-02-29T19:41:20Z</time>
      </trkpt>
      <trkpt lat="48.88936" lon="2.38161">
        <ele>60</ele>
        <time>2016-02-29T19:41:24Z</time>
      </trkpt>
      <trkpt lat="48.88949" lon="2.38187">
        <ele>60.20000076294</ele>
        <time>2016-02-29T19:41:28Z</time>
      </trkpt>
      <trkpt lat="48.88963" lon="2.38215">
        <ele>60</ele>
        <time>2016-02-29T19:41:32Z</time>
      </trkpt>
      <trkpt lat="48.88975" lon="2.38238">
        <ele>60</ele>
        <time>2016-02-29T19:41:35Z</time>
      </trkpt>
      <trkpt lat="48.88989" lon="2.38266">
        <ele>59.599998474121</ele>
        <time>2016-02-29T19:41:39Z</time>
      </trkpt>
      <trkpt lat="48.89" lon="2.3829">
        <ele>59.20000076294</ele>
        <time>2016-02-29T19:41:42Z</time>
      </trkpt>
      <trkpt lat="48.8901" lon="2.3831">
        <ele>58.599998474121</ele>
        <time>2016-02-29T19:41:45Z</time>
      </trkpt>
      <trkpt lat="48.89022" lon="2.38337">
        <ele>58</ele>
        <time>2016-02-29T19:41:48Z</time>
      </trkpt>
      <trkpt lat="48.89034" lon="2.38363">
        <ele>57.400001525879</ele>
        <time>2016-02-29T19:41:51Z</time>
      </trkpt>
      <trkpt lat="48.89044" lon="2.38386">
        <ele>56.79999923706</ele>
        <time>2016-02-29T19:41:54Z</time>
      </trkpt>
      <trkpt lat="48.89055" lon="2.38409">
        <ele>56.400001525879</ele>
        <time>2016-02-29T19:41:57Z</time>
      </trkpt>
      <trkpt lat="48.89058" lon="2.38416">
        <ele>56.20000076294</ele>
        <time>2016-02-29T19:41:58Z</time>
      </trkpt>
      <trkpt lat="48.89071" lon="2.38444">
        <ele>56.20000076294</ele>
        <time>2016-02-29T19:42:02Z</time>
      </trkpt>
      <trkpt lat="48.89081" lon="2.38464">
        <ele>56.20000076294</ele>
        <time>2016-02-29T19:42:05Z</time>
      </trkpt>
      <trkpt lat="48.8909" lon="2.38483">
        <ele>56.20000076294</ele>
        <time>2016-02-29T19:42:08Z</time>
      </trkpt>
      <trkpt lat="48.89103" lon="2.38509">
        <ele>56.599998474121</ele>
        <time>2016-02-29T19:42:12Z</time>
      </trkpt>
      <trkpt lat="48.89115" lon="2.38535">
        <ele>57</ele>
        <time>2016-02-29T19:42:16Z</time>
      </trkpt>
      <trkpt lat="48.89127" lon="2.3856">
        <ele>57.400001525879</ele>
        <time>2016-02-29T19:42:20Z</time>
      </trkpt>
      <trkpt lat="48.8913" lon="2.38566">
        <ele>57.599998474121</ele>
        <time>2016-02-29T19:42:21Z</time>
      </trkpt>
      <trkpt lat="48.8914" lon="2.38589">
        <ele>57.599998474121</ele>
        <time>2016-02-29T19:42:25Z</time>
      </trkpt>
      <trkpt lat="48.89149" lon="2.38606">
        <ele>56.79999923706</ele>
        <time>2016-02-29T19:42:29Z</time>
      </trkpt>
      <trkpt lat="48.89156" lon="2.3863">
        <ele>56</ele>
        <time>2016-02-29T19:42:31Z</time>
      </trkpt>
      <trkpt lat="48.89162" lon="2.38649">
        <ele>55.79999923706</ele>
        <time>2016-02-29T19:42:34Z</time>
      </trkpt>
      <trkpt lat="48.89171" lon="2.38671">
        <ele>55.400001525879</ele>
        <time>2016-02-29T19:42:40Z</time>
      </trkpt>
      <trkpt lat="48.89172" lon="2.38672">
        <ele>55.20000076294</ele>
        <time>2016-02-29T19:42:41Z</time>
      </trkpt>
      <trkpt lat="48.89181" lon="2.38673">
        <ele>54.599998474121</ele>
        <time>2016-02-29T19:43:09Z</time>
      </trkpt>
      <trkpt lat="48.89187" lon="2.38678">
        <ele>54.20000076294</ele>
        <time>2016-02-29T19:43:16Z</time>
      </trkpt>
      <trkpt lat="48.89192" lon="2.38688">
        <ele>54</ele>
        <time>2016-02-29T19:43:26Z</time>
      </trkpt>
      <trkpt lat="48.89205" lon="2.3871">
        <ele>54.20000076294</ele>
        <time>2016-02-29T19:43:41Z</time>
      </trkpt>
      <trkpt lat="48.8921" lon="2.38736">
        <ele>54.20000076294</ele>
        <time>2016-02-29T19:43:48Z</time>
      </trkpt>
      <trkpt lat="48.89217" lon="2.38749">
        <ele>54.400001525879</ele>
        <time>2016-02-29T19:43:52Z</time>
      </trkpt>
      <trkpt lat="48.89231" lon="2.38773">
        <ele>53.79999923706</ele>
        <time>2016-02-29T19:43:57Z</time>
      </trkpt>
      <trkpt lat="48.89239" lon="2.38791">
        <ele>53.599998474121</ele>
        <time>2016-02-29T19:44:00Z</time>
      </trkpt>
      <trkpt lat="48.89246" lon="2.38811">
        <ele>53.20000076294</ele>
        <time>2016-02-29T19:44:05Z</time>
      </trkpt>
      <trkpt lat="48.89245" lon="2.38821">
        <ele>53</ele>
        <time>2016-02-29T19:44:11Z</time>
      </trkpt>
      <trkpt lat="48.89245" lon="2.38824">
        <ele>52.79999923706</ele>
        <time>2016-02-29T19:44:13Z</time>
      </trkpt>
      <trkpt lat="48.89258" lon="2.3883">
        <ele>52.79999923706</ele>
        <time>2016-02-29T19:44:21Z</time>
      </trkpt>
      <trkpt lat="48.89261" lon="2.38834">
        <ele>52.79999923706</ele>
        <time>2016-02-29T19:44:26Z</time>
      </trkpt>
      <trkpt lat="48.89276" lon="2.38856">
        <ele>52.79999923706</ele>
        <time>2016-02-29T19:44:33Z</time>
      </trkpt>
      <trkpt lat="48.89289" lon="2.3888">
        <ele>52.79999923706</ele>
        <time>2016-02-29T19:44:39Z</time>
      </trkpt>
      <trkpt lat="48.89303" lon="2.38901">
        <ele>52.79999923706</ele>
        <time>2016-02-29T19:44:45Z</time>
      </trkpt>
      <trkpt lat="48.89315" lon="2.38924">
        <ele>53</ele>
        <time>2016-02-29T19:44:50Z</time>
      </trkpt>
      <trkpt lat="48.89328" lon="2.38949">
        <ele>53.400001525879</ele>
        <time>2016-02-29T19:44:55Z</time>
      </trkpt>
      <trkpt lat="48.89339" lon="2.38971">
        <ele>53.599998474121</ele>
        <time>2016-02-29T19:44:59Z</time>
      </trkpt>
      <trkpt lat="48.8935" lon="2.38994">
        <ele>53.79999923706</ele>
        <time>2016-02-29T19:45:03Z</time>
      </trkpt>
      <trkpt lat="48.89362" lon="2.3902">
        <ele>53.79999923706</ele>
        <time>2016-02-29T19:45:08Z</time>
      </trkpt>
      <trkpt lat="48.89376" lon="2.39048">
        <ele>53.599998474121</ele>
        <time>2016-02-29T19:45:13Z</time>
      </trkpt>
      <trkpt lat="48.89389" lon="2.39072">
        <ele>53.400001525879</ele>
        <time>2016-02-29T19:45:17Z</time>
      </trkpt>
      <trkpt lat="48.894" lon="2.39093">
        <ele>53.599998474121</ele>
        <time>2016-02-29T19:45:21Z</time>
      </trkpt>
      <trkpt lat="48.89403" lon="2.39099">
        <ele>53.79999923706</ele>
        <time>2016-02-29T19:45:22Z</time>
      </trkpt>
      <trkpt lat="48.89414" lon="2.39123">
        <ele>54.20000076294</ele>
        <time>2016-02-29T19:45:26Z</time>
      </trkpt>
      <trkpt lat="48.89426" lon="2.39149">
        <ele>54.599998474121</ele>
        <time>2016-02-29T19:45:31Z</time>
      </trkpt>
      <trkpt lat="48.89431" lon="2.39161">
        <ele>54.79999923706</ele>
        <time>2016-02-29T19:45:34Z</time>
      </trkpt>
      <trkpt lat="48.89436" lon="2.39185">
        <ele>54.20000076294</ele>
        <time>2016-02-29T19:45:49Z</time>
      </trkpt>
      <trkpt lat="48.89432" lon="2.39192">
        <ele>53.79999923706</ele>
        <time>2016-02-29T19:45:58Z</time>
      </trkpt>
      <trkpt lat="48.89437" lon="2.39196">
        <ele>53.79999923706</ele>
        <time>2016-02-29T19:46:08Z</time>
      </trkpt>
      <trkpt lat="48.89436" lon="2.392">
        <ele>53.599998474121</ele>
        <time>2016-02-29T19:46:38Z</time>
      </trkpt>
      <trkpt lat="48.89438" lon="2.39199">
        <ele>53.599998474121</ele>
        <time>2016-02-29T19:46:40Z</time>
      </trkpt>
      <trkpt lat="48.89451" lon="2.39178">
        <ele>54.599998474121</ele>
        <time>2016-02-29T19:46:53Z</time>
      </trkpt>
      <trkpt lat="48.89467" lon="2.39163">
        <ele>54.400001525879</ele>
        <time>2016-02-29T19:47:05Z</time>
      </trkpt>
      <trkpt lat="48.89476" lon="2.39155">
        <ele>54</ele>
        <time>2016-02-29T19:47:13Z</time>
      </trkpt>
      <trkpt lat="48.89485" lon="2.39149">
        <ele>53.79999923706</ele>
        <time>2016-02-29T19:47:20Z</time>
      </trkpt>
      <trkpt lat="48.89488" lon="2.39148">
        <ele>53.599998474121</ele>
        <time>2016-02-29T19:47:23Z</time>
      </trkpt>
      <trkpt lat="48.89491" lon="2.39146">
        <ele>53.599998474121</ele>
        <time>2016-02-29T19:47:27Z</time>
      </trkpt>
      <trkpt lat="48.89504" lon="2.39141">
        <ele>53.20000076294</ele>
        <time>2016-02-29T19:47:39Z</time>
      </trkpt>
      <trkpt lat="48.89512" lon="2.3914">
        <ele>52.79999923706</ele>
        <time>2016-02-29T19:47:48Z</time>
      </trkpt>
      <trkpt lat="48.89517" lon="2.39136">
        <ele>52.599998474121</ele>
        <time>2016-02-29T19:48:27Z</time>
      </trkpt>
      <trkpt lat="48.8951" lon="2.39143">
        <ele>53</ele>
        <time>2016-02-29T19:48:47Z</time>
      </trkpt>
      <trkpt lat="48.89521" lon="2.39155">
        <ele>52.79999923706</ele>
        <time>2016-02-29T19:49:18Z</time>
      </trkpt>
      <trkpt lat="48.89519" lon="2.39173">
        <ele>53</ele>
        <time>2016-02-29T19:49:27Z</time>
      </trkpt>
      <trkpt lat="48.89504" lon="2.39156">
        <ele>53.400001525879</ele>
        <time>2016-02-29T19:49:37Z</time>
      </trkpt>
      <trkpt lat="48.89499" lon="2.39156">
        <ele>53.400001525879</ele>
        <time>2016-02-29T19:49:40Z</time>
      </trkpt>
      <trkpt lat="48.8949" lon="2.39161">
        <ele>53.79999923706</ele>
        <time>2016-02-29T19:49:48Z</time>
      </trkpt>
      <trkpt lat="48.89486" lon="2.39165">
        <ele>53.79999923706</ele>
        <time>2016-02-29T19:49:53Z</time>
      </trkpt>
      <trkpt lat="48.89484" lon="2.39171">
        <ele>53.79999923706</ele>
        <time>2016-02-29T19:49:59Z</time>
      </trkpt>
      <trkpt lat="48.89493" lon="2.39195">
        <ele>53.400001525879</ele>
        <time>2016-02-29T19:50:07Z</time>
      </trkpt>
      <trkpt lat="48.89502" lon="2.3921">
        <ele>53</ele>
        <time>2016-02-29T19:50:14Z</time>
      </trkpt>
      <trkpt lat="48.89514" lon="2.39208">
        <ele>52.79999923706</ele>
        <time>2016-02-29T19:50:20Z</time>
      </trkpt>
      <trkpt lat="48.89525" lon="2.39232">
        <ele>52.20000076294</ele>
        <time>2016-02-29T19:50:26Z</time>
      </trkpt>
      <trkpt lat="48.89536" lon="2.3926">
        <ele>51.79999923706</ele>
        <time>2016-02-29T19:50:32Z</time>
      </trkpt>
      <trkpt lat="48.89548" lon="2.39284">
        <ele>51.20000076294</ele>
        <time>2016-02-29T19:50:37Z</time>
      </trkpt>
      <trkpt lat="48.8956" lon="2.39312">
        <ele>50.79999923706</ele>
        <time>2016-02-29T19:50:42Z</time>
      </trkpt>
      <trkpt lat="48.8957" lon="2.39338">
        <ele>50.599998474121</ele>
        <time>2016-02-29T19:50:47Z</time>
      </trkpt>
      <trkpt lat="48.89574" lon="2.39353">
        <ele>50.599998474121</ele>
        <time>2016-02-29T19:50:51Z</time>
      </trkpt>
      <trkpt lat="48.89567" lon="2.39361">
        <ele>50.79999923706</ele>
        <time>2016-02-29T19:50:55Z</time>
      </trkpt>
      <trkpt lat="48.8955" lon="2.39373">
        <ele>51</ele>
        <time>2016-02-29T19:51:02Z</time>
      </trkpt>
      <trkpt lat="48.8955" lon="2.39382">
        <ele>51</ele>
        <time>2016-02-29T19:51:05Z</time>
      </trkpt>
      <trkpt lat="48.89559" lon="2.39411">
        <ele>51</ele>
        <time>2016-02-29T19:51:11Z</time>
      </trkpt>
      <trkpt lat="48.89573" lon="2.39433">
        <ele>51.400001525879</ele>
        <time>2016-02-29T19:51:18Z</time>
      </trkpt>
      <trkpt lat="48.89586" lon="2.39458">
        <ele>52</ele>
        <time>2016-02-29T19:51:23Z</time>
      </trkpt>
      <trkpt lat="48.89592" lon="2.39485">
        <ele>52.79999923706</ele>
        <time>2016-02-29T19:51:28Z</time>
      </trkpt>
      <trkpt lat="48.89603" lon="2.39508">
        <ele>53</ele>
        <time>2016-02-29T19:51:34Z</time>
      </trkpt>
      <trkpt lat="48.89609" lon="2.3954">
        <ele>52.599998474121</ele>
        <time>2016-02-29T19:51:39Z</time>
      </trkpt>
      <trkpt lat="48.89613" lon="2.39571">
        <ele>52.20000076294</ele>
        <time>2016-02-29T19:51:44Z</time>
      </trkpt>
      <trkpt lat="48.8962" lon="2.39601">
        <ele>52</ele>
        <time>2016-02-29T19:51:49Z</time>
      </trkpt>
      <trkpt lat="48.89621" lon="2.3963">
        <ele>51.599998474121</ele>
        <time>2016-02-29T19:51:54Z</time>
      </trkpt>
      <trkpt lat="48.89623" lon="2.3966">
        <ele>51.20000076294</ele>
        <time>2016-02-29T19:52:00Z</time>
      </trkpt>
      <trkpt lat="48.8962" lon="2.3969">
        <ele>52.20000076294</ele>
        <time>2016-02-29T19:52:06Z</time>
      </trkpt>
      <trkpt lat="48.89623" lon="2.39721">
        <ele>52.599998474121</ele>
        <time>2016-02-29T19:52:11Z</time>
      </trkpt>
      <trkpt lat="48.89623" lon="2.39751">
        <ele>53</ele>
        <time>2016-02-29T19:52:16Z</time>
      </trkpt>
      <trkpt lat="48.89624" lon="2.39782">
        <ele>52.79999923706</ele>
        <time>2016-02-29T19:52:22Z</time>
      </trkpt>
      <trkpt lat="48.89621" lon="2.39811">
        <ele>53</ele>
        <time>2016-02-29T19:52:27Z</time>
      </trkpt>
      <trkpt lat="48.89618" lon="2.39818">
        <ele>53.20000076294</ele>
        <time>2016-02-29T19:52:29Z</time>
      </trkpt>
      <trkpt lat="48.89608" lon="2.39842">
        <ele>53.20000076294</ele>
        <time>2016-02-29T19:52:46Z</time>
      </trkpt>
      <trkpt lat="48.89613" lon="2.39842">
        <ele>53.20000076294</ele>
        <time>2016-02-29T19:52:52Z</time>
      </trkpt>
      <trkpt lat="48.89634" lon="2.39835">
        <ele>53.599998474121</ele>
        <time>2016-02-29T19:53:03Z</time>
      </trkpt>
      <trkpt lat="48.89633" lon="2.3983">
        <ele>53.599998474121</ele>
        <time>2016-02-29T19:53:07Z</time>
      </trkpt>
      <trkpt lat="48.89631" lon="2.3983">
        <ele>53.599998474121</ele>
        <time>2016-02-29T19:53:08Z</time>
      </trkpt>
      <trkpt lat="48.89617" lon="2.398">
        <ele>52.79999923706</ele>
        <time>2016-02-29T19:53:20Z</time>
      </trkpt>
      <trkpt lat="48.89617" lon="2.39771">
        <ele>52.599998474121</ele>
        <time>2016-02-29T19:53:26Z</time>
      </trkpt>
      <trkpt lat="48.89616" lon="2.39741">
        <ele>52.400001525879</ele>
        <time>2016-02-29T19:53:32Z</time>
      </trkpt>
      <trkpt lat="48.89615" lon="2.39711">
        <ele>52</ele>
        <time>2016-02-29T19:53:38Z</time>
      </trkpt>
      <trkpt lat="48.89621" lon="2.39681">
        <ele>52</ele>
        <time>2016-02-29T19:53:44Z</time>
      </trkpt>
      <trkpt lat="48.89636" lon="2.3966">
        <ele>51.400001525879</ele>
        <time>2016-02-29T19:53:51Z</time>
      </trkpt>
      <trkpt lat="48.89654" lon="2.39645">
        <ele>51.79999923706</ele>
        <time>2016-02-29T19:53:57Z</time>
      </trkpt>
      <trkpt lat="48.89669" lon="2.3963">
        <ele>52.400001525879</ele>
        <time>2016-02-29T19:54:03Z</time>
      </trkpt>
      <trkpt lat="48.89685" lon="2.39611">
        <ele>53.20000076294</ele>
        <time>2016-02-29T19:54:10Z</time>
      </trkpt>
      <trkpt lat="48.89698" lon="2.396">
        <ele>53.599998474121</ele>
        <time>2016-02-29T19:54:15Z</time>
      </trkpt>
      <trkpt lat="48.89708" lon="2.39593">
        <ele>53.599998474121</ele>
        <time>2016-02-29T19:54:20Z</time>
      </trkpt>
      <trkpt lat="48.89725" lon="2.39603">
        <ele>53.20000076294</ele>
        <time>2016-02-29T19:54:25Z</time>
      </trkpt>
      <trkpt lat="48.89733" lon="2.39602">
        <ele>53</ele>
        <time>2016-02-29T19:54:29Z</time>
      </trkpt>
      <trkpt lat="48.89743" lon="2.39606">
        <ele>52.79999923706</ele>
        <time>2016-02-29T19:54:38Z</time>
      </trkpt>
      <trkpt lat="48.8975" lon="2.39634">
        <ele>52.599998474121</ele>
        <time>2016-02-29T19:54:45Z</time>
      </trkpt>
      <trkpt lat="48.89754" lon="2.39664">
        <ele>52</ele>
        <time>2016-02-29T19:54:51Z</time>
      </trkpt>
      <trkpt lat="48.89758" lon="2.3969">
        <ele>52.599998474121</ele>
        <time>2016-02-29T19:54:55Z</time>
      </trkpt>
      <trkpt lat="48.89761" lon="2.39718">
        <ele>53.20000076294</ele>
        <time>2016-02-29T19:54:59Z</time>
      </trkpt>
      <trkpt lat="48.89764" lon="2.39745">
        <ele>54.20000076294</ele>
        <time>2016-02-29T19:55:03Z</time>
      </trkpt>
      <trkpt lat="48.89767" lon="2.39779">
        <ele>55.400001525879</ele>
        <time>2016-02-29T19:55:08Z</time>
      </trkpt>
      <trkpt lat="48.8977" lon="2.39812">
        <ele>56.400001525879</ele>
        <time>2016-02-29T19:55:13Z</time>
      </trkpt>
      <trkpt lat="48.89774" lon="2.39839">
        <ele>57</ele>
        <time>2016-02-29T19:55:17Z</time>
      </trkpt>
      <trkpt lat="48.89775" lon="2.39868">
        <ele>56.400001525879</ele>
        <time>2016-02-29T19:55:22Z</time>
      </trkpt>
      <trkpt lat="48.89773" lon="2.39894">
        <ele>56.20000076294</ele>
        <time>2016-02-29T19:55:31Z</time>
      </trkpt>
      <trkpt lat="48.89775" lon="2.39893">
        <ele>56.20000076294</ele>
        <time>2016-02-29T19:55:38Z</time>
      </trkpt>
      <trkpt lat="48.8977" lon="2.39911">
        <ele>56</ele>
        <time>2016-02-29T19:55:57Z</time>
      </trkpt>
      <trkpt lat="48.89754" lon="2.3993">
        <ele>55.400001525879</ele>
        <time>2016-02-29T19:56:03Z</time>
      </trkpt>
      <trkpt lat="48.8974" lon="2.39946">
        <ele>54.79999923706</ele>
        <time>2016-02-29T19:56:09Z</time>
      </trkpt>
      <trkpt lat="48.89724" lon="2.39967">
        <ele>54.79999923706</ele>
        <time>2016-02-29T19:56:14Z</time>
      </trkpt>
      <trkpt lat="48.8971" lon="2.3999">
        <ele>55.400001525879</ele>
        <time>2016-02-29T19:56:19Z</time>
      </trkpt>
      <trkpt lat="48.89695" lon="2.40006">
        <ele>56</ele>
        <time>2016-02-29T19:56:23Z</time>
      </trkpt>
      <trkpt lat="48.89678" lon="2.40028">
        <ele>56.400001525879</ele>
        <time>2016-02-29T19:56:28Z</time>
      </trkpt>
      <trkpt lat="48.89663" lon="2.40052">
        <ele>57</ele>
        <time>2016-02-29T19:56:33Z</time>
      </trkpt>
      <trkpt lat="48.89655" lon="2.40079">
        <ele>56.20000076294</ele>
        <time>2016-02-29T19:56:39Z</time>
      </trkpt>
      <trkpt lat="48.89641" lon="2.40099">
        <ele>55.599998474121</ele>
        <time>2016-02-29T19:56:54Z</time>
      </trkpt>
      <trkpt lat="48.8965" lon="2.40126">
        <ele>55.599998474121</ele>
        <time>2016-02-29T19:57:01Z</time>
      </trkpt>
      <trkpt lat="48.89655" lon="2.40156">
        <ele>55.79999923706</ele>
        <time>2016-02-29T19:57:05Z</time>
      </trkpt>
      <trkpt lat="48.89661" lon="2.40185">
        <ele>55.599998474121</ele>
        <time>2016-02-29T19:57:09Z</time>
      </trkpt>
      <trkpt lat="48.89666" lon="2.40215">
        <ele>54.79999923706</ele>
        <time>2016-02-29T19:57:13Z</time>
      </trkpt>
      <trkpt lat="48.89672" lon="2.40247">
        <ele>55</ele>
        <time>2016-02-29T19:57:17Z</time>
      </trkpt>
      <trkpt lat="48.89677" lon="2.40276">
        <ele>54.400001525879</ele>
        <time>2016-02-29T19:57:21Z</time>
      </trkpt>
      <trkpt lat="48.89683" lon="2.40308">
        <ele>53.599998474121</ele>
        <time>2016-02-29T19:57:25Z</time>
      </trkpt>
      <trkpt lat="48.89691" lon="2.40341">
        <ele>53.20000076294</ele>
        <time>2016-02-29T19:57:29Z</time>
      </trkpt>
      <trkpt lat="48.89699" lon="2.40366">
        <ele>53.20000076294</ele>
        <time>2016-02-29T19:57:32Z</time>
      </trkpt>
      <trkpt lat="48.8971" lon="2.40389">
        <ele>53</ele>
        <time>2016-02-29T19:57:35Z</time>
      </trkpt>
      <trkpt lat="48.89723" lon="2.40419">
        <ele>52.79999923706</ele>
        <time>2016-02-29T19:57:39Z</time>
      </trkpt>
      <trkpt lat="48.89735" lon="2.4044">
        <ele>52.599998474121</ele>
        <time>2016-02-29T19:57:42Z</time>
      </trkpt>
      <trkpt lat="48.89744" lon="2.40465">
        <ele>52.79999923706</ele>
        <time>2016-02-29T19:57:45Z</time>
      </trkpt>
      <trkpt lat="48.89758" lon="2.40488">
        <ele>52.599998474121</ele>
        <time>2016-02-29T19:57:48Z</time>
      </trkpt>
      <trkpt lat="48.8977" lon="2.40513">
        <ele>52.400001525879</ele>
        <time>2016-02-29T19:57:51Z</time>
      </trkpt>
      <trkpt lat="48.89782" lon="2.40537">
        <ele>52</ele>
        <time>2016-02-29T19:57:54Z</time>
      </trkpt>
      <trkpt lat="48.89791" lon="2.40562">
        <ele>51.79999923706</ele>
        <time>2016-02-29T19:57:57Z</time>
      </trkpt>
      <trkpt lat="48.89803" lon="2.40594">
        <ele>51</ele>
        <time>2016-02-29T19:58:01Z</time>
      </trkpt>
      <trkpt lat="48.89814" lon="2.40625">
        <ele>50</ele>
        <time>2016-02-29T19:58:05Z</time>
      </trkpt>
      <trkpt lat="48.89824" lon="2.40656">
        <ele>49</ele>
        <time>2016-02-29T19:58:09Z</time>
      </trkpt>
      <trkpt lat="48.89833" lon="2.40682">
        <ele>48.599998474121</ele>
        <time>2016-02-29T19:58:13Z</time>
      </trkpt>
      <trkpt lat="48.89836" lon="2.40698">
        <ele>48.599998474121</ele>
        <time>2016-02-29T19:58:16Z</time>
      </trkpt>
      <trkpt lat="48.89832" lon="2.40729">
        <ele>49</ele>
        <time>2016-02-29T19:58:21Z</time>
      </trkpt>
      <trkpt lat="48.8983" lon="2.40762">
        <ele>48.20000076294</ele>
        <time>2016-02-29T19:58:26Z</time>
      </trkpt>
      <trkpt lat="48.8983" lon="2.40795">
        <ele>47.79999923706</ele>
        <time>2016-02-29T19:58:31Z</time>
      </trkpt>
      <trkpt lat="48.89828" lon="2.40822">
        <ele>47.599998474121</ele>
        <time>2016-02-29T19:58:35Z</time>
      </trkpt>
      <trkpt lat="48.89823" lon="2.4085">
        <ele>47.79999923706</ele>
        <time>2016-02-29T19:58:39Z</time>
      </trkpt>
      <trkpt lat="48.89814" lon="2.40875">
        <ele>48</ele>
        <time>2016-02-29T19:58:42Z</time>
      </trkpt>
      <trkpt lat="48.8981" lon="2.40892">
        <ele>48.400001525879</ele>
        <time>2016-02-29T19:58:44Z</time>
      </trkpt>
      <trkpt lat="48.89804" lon="2.40926">
        <ele>48.79999923706</ele>
        <time>2016-02-29T19:58:48Z</time>
      </trkpt>
      <trkpt lat="48.89793" lon="2.40953">
        <ele>49.20000076294</ele>
        <time>2016-02-29T19:58:51Z</time>
      </trkpt>
      <trkpt lat="48.89785" lon="2.40979">
        <ele>49.599998474121</ele>
        <time>2016-02-29T19:58:54Z</time>
      </trkpt>
      <trkpt lat="48.89779" lon="2.41006">
        <ele>50</ele>
        <time>2016-02-29T19:58:57Z</time>
      </trkpt>
      <trkpt lat="48.89774" lon="2.41037">
        <ele>50</ele>
        <time>2016-02-29T19:59:01Z</time>
      </trkpt>
      <trkpt lat="48.89768" lon="2.41064">
        <ele>50.20000076294</ele>
        <time>2016-02-29T19:59:05Z</time>
      </trkpt>
      <trkpt lat="48.8976" lon="2.41093">
        <ele>50.400001525879</ele>
        <time>2016-02-29T19:59:10Z</time>
      </trkpt>
      <trkpt lat="48.89755" lon="2.41124">
        <ele>50.599998474121</ele>
        <time>2016-02-29T19:59:15Z</time>
      </trkpt>
      <trkpt lat="48.89748" lon="2.41156">
        <ele>50.599998474121</ele>
        <time>2016-02-29T19:59:20Z</time>
      </trkpt>
      <trkpt lat="48.89745" lon="2.41163">
        <ele>50.400001525879</ele>
        <time>2016-02-29T19:59:21Z</time>
      </trkpt>
      <trkpt lat="48.89739" lon="2.41191">
        <ele>49.79999923706</ele>
        <time>2016-02-29T19:59:25Z</time>
      </trkpt>
      <trkpt lat="48.89734" lon="2.41225">
        <ele>49.20000076294</ele>
        <time>2016-02-29T19:59:30Z</time>
      </trkpt>
      <trkpt lat="48.89728" lon="2.41255">
        <ele>49</ele>
        <time>2016-02-29T19:59:34Z</time>
      </trkpt>
      <trkpt lat="48.89721" lon="2.41281">
        <ele>49.20000076294</ele>
        <time>2016-02-29T19:59:38Z</time>
      </trkpt>
      <trkpt lat="48.8971" lon="2.41305">
        <ele>49.599998474121</ele>
        <time>2016-02-29T19:59:42Z</time>
      </trkpt>
      <trkpt lat="48.89705" lon="2.41323">
        <ele>49.599998474121</ele>
        <time>2016-02-29T19:59:45Z</time>
      </trkpt>
      <trkpt lat="48.89697" lon="2.41357">
        <ele>49.79999923706</ele>
        <time>2016-02-29T19:59:50Z</time>
      </trkpt>
      <trkpt lat="48.89689" lon="2.41385">
        <ele>50</ele>
        <time>2016-02-29T19:59:54Z</time>
      </trkpt>
      <trkpt lat="48.89681" lon="2.41415">
        <ele>50.20000076294</ele>
        <time>2016-02-29T19:59:58Z</time>
      </trkpt>
      <trkpt lat="48.89673" lon="2.41441">
        <ele>49.79999923706</ele>
        <time>2016-02-29T20:00:01Z</time>
      </trkpt>
      <trkpt lat="48.89663" lon="2.41467">
        <ele>49.79999923706</ele>
        <time>2016-02-29T20:00:04Z</time>
      </trkpt>
      <trkpt lat="48.89654" lon="2.415">
        <ele>50.79999923706</ele>
        <time>2016-02-29T20:00:08Z</time>
      </trkpt>
      <trkpt lat="48.89649" lon="2.41523">
        <ele>50.599998474121</ele>
        <time>2016-02-29T20:00:11Z</time>
      </trkpt>
      <trkpt lat="48.89647" lon="2.41539">
        <ele>50.599998474121</ele>
        <time>2016-02-29T20:00:13Z</time>
      </trkpt>
      <trkpt lat="48.89649" lon="2.41573">
        <ele>51.20000076294</ele>
        <time>2016-02-29T20:00:17Z</time>
      </trkpt>
      <trkpt lat="48.89651" lon="2.41601">
        <ele>51.599998474121</ele>
        <time>2016-02-29T20:00:20Z</time>
      </trkpt>
      <trkpt lat="48.8965" lon="2.4163">
        <ele>52</ele>
        <time>2016-02-29T20:00:23Z</time>
      </trkpt>
      <trkpt lat="48.89656" lon="2.41662">
        <ele>51.79999923706</ele>
        <time>2016-02-29T20:00:26Z</time>
      </trkpt>
      <trkpt lat="48.89656" lon="2.41694">
        <ele>51.79999923706</ele>
        <time>2016-02-29T20:00:29Z</time>
      </trkpt>
      <trkpt lat="48.89657" lon="2.41726">
        <ele>51.79999923706</ele>
        <time>2016-02-29T20:00:32Z</time>
      </trkpt>
      <trkpt lat="48.89656" lon="2.41759">
        <ele>51.79999923706</ele>
        <time>2016-02-29T20:00:35Z</time>
      </trkpt>
      <trkpt lat="48.89657" lon="2.41792">
        <ele>51.20000076294</ele>
        <time>2016-02-29T20:00:38Z</time>
      </trkpt>
      <trkpt lat="48.89656" lon="2.41824">
        <ele>50.599998474121</ele>
        <time>2016-02-29T20:00:41Z</time>
      </trkpt>
      <trkpt lat="48.89657" lon="2.41855">
        <ele>50.400001525879</ele>
        <time>2016-02-29T20:00:44Z</time>
      </trkpt>
      <trkpt lat="48.89656" lon="2.41887">
        <ele>50.400001525879</ele>
        <time>2016-02-29T20:00:47Z</time>
      </trkpt>
      <trkpt lat="48.8966" lon="2.41917">
        <ele>49.400001525879</ele>
        <time>2016-02-29T20:00:50Z</time>
      </trkpt>
      <trkpt lat="48.89661" lon="2.41945">
        <ele>49.400001525879</ele>
        <time>2016-02-29T20:00:54Z</time>
      </trkpt>
      <trkpt lat="48.8966" lon="2.4195">
        <ele>49.400001525879</ele>
        <time>2016-02-29T20:00:55Z</time>
      </trkpt>
      <trkpt lat="48.89655" lon="2.4198">
        <ele>49.599998474121</ele>
        <time>2016-02-29T20:01:00Z</time>
      </trkpt>
      <trkpt lat="48.89655" lon="2.41992">
        <ele>49.599998474121</ele>
        <time>2016-02-29T20:01:02Z</time>
      </trkpt>
      <trkpt lat="48.89654" lon="2.41997">
        <ele>49.79999923706</ele>
        <time>2016-02-29T20:01:03Z</time>
      </trkpt>
      <trkpt lat="48.89653" lon="2.42025">
        <ele>49.79999923706</ele>
        <time>2016-02-29T20:01:07Z</time>
      </trkpt>
      <trkpt lat="48.89653" lon="2.42053">
        <ele>49.79999923706</ele>
        <time>2016-02-29T20:01:11Z</time>
      </trkpt>
      <trkpt lat="48.89655" lon="2.42082">
        <ele>49.599998474121</ele>
        <time>2016-02-29T20:01:15Z</time>
      </trkpt>
      <trkpt lat="48.89657" lon="2.4209">
        <ele>49.599998474121</ele>
        <time>2016-02-29T20:01:16Z</time>
      </trkpt>
      <trkpt lat="48.89658" lon="2.42118">
        <ele>49.599998474121</ele>
        <time>2016-02-29T20:01:20Z</time>
      </trkpt>
      <trkpt lat="48.89659" lon="2.42148">
        <ele>49.400001525879</ele>
        <time>2016-02-29T20:01:25Z</time>
      </trkpt>
      <trkpt lat="48.89659" lon="2.42153">
        <ele>49.400001525879</ele>
        <time>2016-02-29T20:01:26Z</time>
      </trkpt>
      <trkpt lat="48.89659" lon="2.42157">
        <ele>49.400001525879</ele>
        <time>2016-02-29T20:01:27Z</time>
      </trkpt>
      <trkpt lat="48.8966" lon="2.42167">
        <ele>49.400001525879</ele>
        <time>2016-02-29T20:01:30Z</time>
      </trkpt>
      <trkpt lat="48.8966" lon="2.42175">
        <ele>49.400001525879</ele>
        <time>2016-02-29T20:01:33Z</time>
      </trkpt>
      <trkpt lat="48.89663" lon="2.42181">
        <ele>49.400001525879</ele>
        <time>2016-02-29T20:01:37Z</time>
      </trkpt>
      <trkpt lat="48.89663" lon="2.42176">
        <ele>49.20000076294</ele>
        <time>2016-02-29T20:01:42Z</time>
      </trkpt>
      <trkpt lat="48.89664" lon="2.42175">
        <ele>49.20000076294</ele>
        <time>2016-02-29T20:01:43Z</time>
      </trkpt>
      <trkpt lat="48.89666" lon="2.42162">
        <ele>49.20000076294</ele>
        <time>2016-02-29T20:01:50Z</time>
      </trkpt>
      <trkpt lat="48.89666" lon="2.42156">
        <ele>49.20000076294</ele>
        <time>2016-02-29T20:01:54Z</time>
      </trkpt>
      <trkpt lat="48.89667" lon="2.42154">
        <ele>49</ele>
        <time>2016-02-29T20:01:56Z</time>
      </trkpt>
      <trkpt lat="48.89669" lon="2.42175">
        <ele>49</ele>
        <time>2016-02-29T20:02:44Z</time>
      </trkpt>
      <trkpt lat="48.89669" lon="2.42187">
        <ele>49</ele>
        <time>2016-02-29T20:02:57Z</time>
      </trkpt>
      <trkpt lat="48.89668" lon="2.42216">
        <ele>49</ele>
        <time>2016-02-29T20:03:15Z</time>
      </trkpt>
      <trkpt lat="48.89668" lon="2.42249">
        <ele>49</ele>
        <time>2016-02-29T20:03:20Z</time>
      </trkpt>
      <trkpt lat="48.89668" lon="2.42281">
        <ele>49.79999923706</ele>
        <time>2016-02-29T20:03:24Z</time>
      </trkpt>
      <trkpt lat="48.89667" lon="2.42313">
        <ele>50.599998474121</ele>
        <time>2016-02-29T20:03:28Z</time>
      </trkpt>
      <trkpt lat="48.89668" lon="2.42346">
        <ele>50.400001525879</ele>
        <time>2016-02-29T20:03:32Z</time>
      </trkpt>
      <trkpt lat="48.8967" lon="2.42377">
        <ele>50</ele>
        <time>2016-02-29T20:03:36Z</time>
      </trkpt>
      <trkpt lat="48.89668" lon="2.42405">
        <ele>49.79999923706</ele>
        <time>2016-02-29T20:03:40Z</time>
      </trkpt>
      <trkpt lat="48.89665" lon="2.42433">
        <ele>50.400001525879</ele>
        <time>2016-02-29T20:03:44Z</time>
      </trkpt>
      <trkpt lat="48.89664" lon="2.42461">
        <ele>51</ele>
        <time>2016-02-29T20:03:48Z</time>
      </trkpt>
      <trkpt lat="48.89665" lon="2.42491">
        <ele>51.400001525879</ele>
        <time>2016-02-29T20:03:52Z</time>
      </trkpt>
      <trkpt lat="48.89665" lon="2.42497">
        <ele>51.20000076294</ele>
        <time>2016-02-29T20:03:53Z</time>
      </trkpt>
      <trkpt lat="48.89666" lon="2.42523">
        <ele>51.599998474121</ele>
        <time>2016-02-29T20:04:00Z</time>
      </trkpt>
      <trkpt lat="48.89664" lon="2.42527">
        <ele>51.599998474121</ele>
        <time>2016-02-29T20:04:03Z</time>
      </trkpt>
      <trkpt lat="48.89663" lon="2.42529">
        <ele>51.599998474121</ele>
        <time>2016-02-29T20:04:05Z</time>
      </trkpt>
      <trkpt lat="48.89665" lon="2.42519">
        <ele>51.599998474121</ele>
        <time>2016-02-29T20:04:16Z</time>
      </trkpt>
      <trkpt lat="48.89665" lon="2.42494">
        <ele>51.20000076294</ele>
        <time>2016-02-29T20:04:25Z</time>
      </trkpt>
      <trkpt lat="48.89662" lon="2.42464">
        <ele>51.20000076294</ele>
        <time>2016-02-29T20:04:33Z</time>
      </trkpt>
      <trkpt lat="48.89658" lon="2.42436">
        <ele>50.599998474121</ele>
        <time>2016-02-29T20:04:41Z</time>
      </trkpt>
      <trkpt lat="48.89654" lon="2.42408">
        <ele>50.400001525879</ele>
        <time>2016-02-29T20:04:51Z</time>
      </trkpt>
      <trkpt lat="48.89653" lon="2.42407">
        <ele>50.400001525879</ele>
        <time>2016-02-29T20:04:53Z</time>
      </trkpt>
      <trkpt lat="48.89656" lon="2.42408">
        <ele>50.20000076294</ele>
        <time>2016-02-29T20:05:02Z</time>
      </trkpt>
      <trkpt lat="48.89644" lon="2.42405">
        <ele>50.599998474121</ele>
        <time>2016-02-29T20:05:41Z</time>
      </trkpt>
      <trkpt lat="48.89624" lon="2.42406">
        <ele>51.400001525879</ele>
        <time>2016-02-29T20:05:48Z</time>
      </trkpt>
      <trkpt lat="48.89605" lon="2.42412">
        <ele>52</ele>
        <time>2016-02-29T20:05:55Z</time>
      </trkpt>
      <trkpt lat="48.89603" lon="2.42437">
        <ele>52</ele>
        <time>2016-02-29T20:06:06Z</time>
      </trkpt>
      <trkpt lat="48.8961" lon="2.42459">
        <ele>52</ele>
        <time>2016-02-29T20:06:21Z</time>
      </trkpt>
      <trkpt lat="48.89618" lon="2.42489">
        <ele>51.79999923706</ele>
        <time>2016-02-29T20:06:27Z</time>
      </trkpt>
      <trkpt lat="48.89621" lon="2.42517">
        <ele>52</ele>
        <time>2016-02-29T20:06:32Z</time>
      </trkpt>
      <trkpt lat="48.89624" lon="2.42547">
        <ele>52.400001525879</ele>
        <time>2016-02-29T20:06:39Z</time>
      </trkpt>
      <trkpt lat="48.89621" lon="2.42566">
        <ele>52.599998474121</ele>
        <time>2016-02-29T20:06:48Z</time>
      </trkpt>
      <trkpt lat="48.89623" lon="2.4257">
        <ele>52.599998474121</ele>
        <time>2016-02-29T20:07:44Z</time>
      </trkpt>
      <trkpt lat="48.89608" lon="2.42575">
        <ele>52.79999923706</ele>
        <time>2016-02-29T20:08:08Z</time>
      </trkpt>
      <trkpt lat="48.89589" lon="2.42582">
        <ele>53</ele>
        <time>2016-02-29T20:08:14Z</time>
      </trkpt>
      <trkpt lat="48.89578" lon="2.42582">
        <ele>53</ele>
        <time>2016-02-29T20:08:17Z</time>
      </trkpt>
      <trkpt lat="48.89559" lon="2.42577">
        <ele>53</ele>
        <time>2016-02-29T20:08:27Z</time>
      </trkpt>
      <trkpt lat="48.89556" lon="2.42577">
        <ele>53</ele>
        <time>2016-02-29T20:08:30Z</time>
      </trkpt>
      <trkpt lat="48.89555" lon="2.42577">
        <ele>53</ele>
        <time>2016-02-29T20:08:31Z</time>
      </trkpt>
      <trkpt lat="48.89542" lon="2.42574">
        <ele>53</ele>
        <time>2016-02-29T20:08:52Z</time>
      </trkpt>
      <trkpt lat="48.89524" lon="2.42565">
        <ele>53.20000076294</ele>
        <time>2016-02-29T20:08:57Z</time>
      </trkpt>
      <trkpt lat="48.89504" lon="2.42553">
        <ele>54</ele>
        <time>2016-02-29T20:09:02Z</time>
      </trkpt>
      <trkpt lat="48.89486" lon="2.4254">
        <ele>54.79999923706</ele>
        <time>2016-02-29T20:09:07Z</time>
      </trkpt>
      <trkpt lat="48.8947" lon="2.42523">
        <ele>55.599998474121</ele>
        <time>2016-02-29T20:09:12Z</time>
      </trkpt>
      <trkpt lat="48.89452" lon="2.42503">
        <ele>56.599998474121</ele>
        <time>2016-02-29T20:09:18Z</time>
      </trkpt>
      <trkpt lat="48.89433" lon="2.42493">
        <ele>57.400001525879</ele>
        <time>2016-02-29T20:09:22Z</time>
      </trkpt>
      <trkpt lat="48.89413" lon="2.42484">
        <ele>58.400001525879</ele>
        <time>2016-02-29T20:09:26Z</time>
      </trkpt>
      <trkpt lat="48.89393" lon="2.42476">
        <ele>59.599998474121</ele>
        <time>2016-02-29T20:09:30Z</time>
      </trkpt>
      <trkpt lat="48.89372" lon="2.4247">
        <ele>60.599998474121</ele>
        <time>2016-02-29T20:09:34Z</time>
      </trkpt>
      <trkpt lat="48.89354" lon="2.42452">
        <ele>61.79999923706</ele>
        <time>2016-02-29T20:09:38Z</time>
      </trkpt>
      <trkpt lat="48.89336" lon="2.42438">
        <ele>62.79999923706</ele>
        <time>2016-02-29T20:09:42Z</time>
      </trkpt>
      <trkpt lat="48.8932" lon="2.42422">
        <ele>63.599998474121</ele>
        <time>2016-02-29T20:09:46Z</time>
      </trkpt>
      <trkpt lat="48.89301" lon="2.42404">
        <ele>64.599998474121</ele>
        <time>2016-02-29T20:09:50Z</time>
      </trkpt>
      <trkpt lat="48.89284" lon="2.42391">
        <ele>65.400001525879</ele>
        <time>2016-02-29T20:09:53Z</time>
      </trkpt>
      <trkpt lat="48.89265" lon="2.42379">
        <ele>66.599998474121</ele>
        <time>2016-02-29T20:09:56Z</time>
      </trkpt>
      <trkpt lat="48.89261" lon="2.42373">
        <ele>66.800003051758</ele>
        <time>2016-02-29T20:09:57Z</time>
      </trkpt>
      <trkpt lat="48.89241" lon="2.4236">
        <ele>68.400001525879</ele>
        <time>2016-02-29T20:10:01Z</time>
      </trkpt>
      <trkpt lat="48.89222" lon="2.42349">
        <ele>69.599998474121</ele>
        <time>2016-02-29T20:10:04Z</time>
      </trkpt>
      <trkpt lat="48.89209" lon="2.42341">
        <ele>70.599998474121</ele>
        <time>2016-02-29T20:10:06Z</time>
      </trkpt>
      <trkpt lat="48.89191" lon="2.4233">
        <ele>71.800003051758</ele>
        <time>2016-02-29T20:10:09Z</time>
      </trkpt>
      <trkpt lat="48.89187" lon="2.42325">
        <ele>71.800003051758</ele>
        <time>2016-02-29T20:10:10Z</time>
      </trkpt>
      <trkpt lat="48.89171" lon="2.42311">
        <ele>72.400001525879</ele>
        <time>2016-02-29T20:10:14Z</time>
      </trkpt>
      <trkpt lat="48.89161" lon="2.42303">
        <ele>72.800003051758</ele>
        <time>2016-02-29T20:10:17Z</time>
      </trkpt>
      <trkpt lat="48.89155" lon="2.42293">
        <ele>72.599998474121</ele>
        <time>2016-02-29T20:10:21Z</time>
      </trkpt>
      <trkpt lat="48.89154" lon="2.42288">
        <ele>72.199996948242</ele>
        <time>2016-02-29T20:10:24Z</time>
      </trkpt>
      <trkpt lat="48.89157" lon="2.42289">
        <ele>72</ele>
        <time>2016-02-29T20:10:30Z</time>
      </trkpt>
      <trkpt lat="48.89161" lon="2.4229">
        <ele>71.800003051758</ele>
        <time>2016-02-29T20:10:36Z</time>
      </trkpt>
      <trkpt lat="48.89164" lon="2.42292">
        <ele>71.599998474121</ele>
        <time>2016-02-29T20:10:53Z</time>
      </trkpt>
      <trkpt lat="48.89159" lon="2.42291">
        <ele>72</ele>
        <time>2016-02-29T20:11:04Z</time>
      </trkpt>
      <trkpt lat="48.89158" lon="2.42291">
        <ele>72.199996948242</ele>
        <time>2016-02-29T20:11:07Z</time>
      </trkpt>
      <trkpt lat="48.89154" lon="2.42287">
        <ele>72.199996948242</ele>
        <time>2016-02-29T20:11:22Z</time>
      </trkpt>
      <trkpt lat="48.89167" lon="2.42292">
        <ele>71.400001525879</ele>
        <time>2016-02-29T20:11:39Z</time>
      </trkpt>
      <trkpt lat="48.89162" lon="2.42286">
        <ele>71.400001525879</ele>
        <time>2016-02-29T20:11:59Z</time>
      </trkpt>
      <trkpt lat="48.89152" lon="2.4227">
        <ele>71.199996948242</ele>
        <time>2016-02-29T20:12:23Z</time>
      </trkpt>
      <trkpt lat="48.89135" lon="2.42255">
        <ele>71.800003051758</ele>
        <time>2016-02-29T20:12:29Z</time>
      </trkpt>
      <trkpt lat="48.89117" lon="2.42239">
        <ele>72.800003051758</ele>
        <time>2016-02-29T20:12:34Z</time>
      </trkpt>
      <trkpt lat="48.89102" lon="2.42222">
        <ele>73.599998474121</ele>
        <time>2016-02-29T20:12:39Z</time>
      </trkpt>
      <trkpt lat="48.89088" lon="2.422">
        <ele>73.800003051758</ele>
        <time>2016-02-29T20:12:44Z</time>
      </trkpt>
      <trkpt lat="48.89072" lon="2.42176">
        <ele>74</ele>
        <time>2016-02-29T20:12:49Z</time>
      </trkpt>
      <trkpt lat="48.89057" lon="2.42153">
        <ele>74</ele>
        <time>2016-02-29T20:12:54Z</time>
      </trkpt>
      <trkpt lat="48.89043" lon="2.42135">
        <ele>74.400001525879</ele>
        <time>2016-02-29T20:12:59Z</time>
      </trkpt>
      <trkpt lat="48.89029" lon="2.42116">
        <ele>74.599998474121</ele>
        <time>2016-02-29T20:13:05Z</time>
      </trkpt>
      <trkpt lat="48.89015" lon="2.42094">
        <ele>74.800003051758</ele>
        <time>2016-02-29T20:13:11Z</time>
      </trkpt>
      <trkpt lat="48.88999" lon="2.42078">
        <ele>76</ele>
        <time>2016-02-29T20:13:16Z</time>
      </trkpt>
      <trkpt lat="48.88981" lon="2.42059">
        <ele>77.800003051758</ele>
        <time>2016-02-29T20:13:21Z</time>
      </trkpt>
      <trkpt lat="48.88966" lon="2.42039">
        <ele>79.599998474121</ele>
        <time>2016-02-29T20:13:26Z</time>
      </trkpt>
      <trkpt lat="48.8895" lon="2.42019">
        <ele>81.599998474121</ele>
        <time>2016-02-29T20:13:31Z</time>
      </trkpt>
      <trkpt lat="48.88941" lon="2.41995">
        <ele>82.599998474121</ele>
        <time>2016-02-29T20:13:36Z</time>
      </trkpt>
      <trkpt lat="48.88934" lon="2.41966">
        <ele>81.800003051758</ele>
        <time>2016-02-29T20:13:41Z</time>
      </trkpt>
      <trkpt lat="48.88933" lon="2.41938">
        <ele>80.599998474121</ele>
        <time>2016-02-29T20:13:45Z</time>
      </trkpt>
      <trkpt lat="48.88931" lon="2.41909">
        <ele>79</ele>
        <time>2016-02-29T20:13:49Z</time>
      </trkpt>
      <trkpt lat="48.88931" lon="2.41894">
        <ele>77.800003051758</ele>
        <time>2016-02-29T20:13:51Z</time>
      </trkpt>
      <trkpt lat="48.8893" lon="2.41871">
        <ele>76.199996948242</ele>
        <time>2016-02-29T20:13:54Z</time>
      </trkpt>
      <trkpt lat="48.88927" lon="2.41839">
        <ele>74</ele>
        <time>2016-02-29T20:13:58Z</time>
      </trkpt>
      <trkpt lat="48.88926" lon="2.41806">
        <ele>73.199996948242</ele>
        <time>2016-02-29T20:14:02Z</time>
      </trkpt>
      <trkpt lat="48.88924" lon="2.41775">
        <ele>73</ele>
        <time>2016-02-29T20:14:06Z</time>
      </trkpt>
      <trkpt lat="48.88923" lon="2.41747">
        <ele>72.599998474121</ele>
        <time>2016-02-29T20:14:10Z</time>
      </trkpt>
      <trkpt lat="48.88923" lon="2.41722">
        <ele>72.800003051758</ele>
        <time>2016-02-29T20:14:14Z</time>
      </trkpt>
      <trkpt lat="48.88923" lon="2.41708">
        <ele>73.199996948242</ele>
        <time>2016-02-29T20:14:17Z</time>
      </trkpt>
      <trkpt lat="48.88924" lon="2.41695">
        <ele>73.400001525879</ele>
        <time>2016-02-29T20:14:21Z</time>
      </trkpt>
      <trkpt lat="48.88913" lon="2.4168">
        <ele>74</ele>
        <time>2016-02-29T20:14:34Z</time>
      </trkpt>
      <trkpt lat="48.8891" lon="2.41681">
        <ele>74</ele>
        <time>2016-02-29T20:14:35Z</time>
      </trkpt>
      <trkpt lat="48.88891" lon="2.41685">
        <ele>74.199996948242</ele>
        <time>2016-02-29T20:14:44Z</time>
      </trkpt>
      <trkpt lat="48.8887" lon="2.41691">
        <ele>74.599998474121</ele>
        <time>2016-02-29T20:14:49Z</time>
      </trkpt>
      <trkpt lat="48.8886" lon="2.41696">
        <ele>74.800003051758</ele>
        <time>2016-02-29T20:14:51Z</time>
      </trkpt>
      <trkpt lat="48.8884" lon="2.41704">
        <ele>75.199996948242</ele>
        <time>2016-02-29T20:14:56Z</time>
      </trkpt>
      <trkpt lat="48.88818" lon="2.41712">
        <ele>75.400001525879</ele>
        <time>2016-02-29T20:15:02Z</time>
      </trkpt>
      <trkpt lat="48.88797" lon="2.4172">
        <ele>75.800003051758</ele>
        <time>2016-02-29T20:15:07Z</time>
      </trkpt>
      <trkpt lat="48.88778" lon="2.41733">
        <ele>76</ele>
        <time>2016-02-29T20:15:11Z</time>
      </trkpt>
      <trkpt lat="48.88758" lon="2.41747">
        <ele>76.800003051758</ele>
        <time>2016-02-29T20:15:15Z</time>
      </trkpt>
      <trkpt lat="48.88737" lon="2.41762">
        <ele>78.199996948242</ele>
        <time>2016-02-29T20:15:19Z</time>
      </trkpt>
      <trkpt lat="48.88718" lon="2.41775">
        <ele>79.599998474121</ele>
        <time>2016-02-29T20:15:23Z</time>
      </trkpt>
      <trkpt lat="48.88709" lon="2.4178">
        <ele>80</ele>
        <time>2016-02-29T20:15:25Z</time>
      </trkpt>
      <trkpt lat="48.88698" lon="2.41785">
        <ele>80.599998474121</ele>
        <time>2016-02-29T20:15:29Z</time>
      </trkpt>
      <trkpt lat="48.88689" lon="2.41787">
        <ele>81</ele>
        <time>2016-02-29T20:15:34Z</time>
      </trkpt>
      <trkpt lat="48.88683" lon="2.41783">
        <ele>81.199996948242</ele>
        <time>2016-02-29T20:15:39Z</time>
      </trkpt>
      <trkpt lat="48.88676" lon="2.4177">
        <ele>81.400001525879</ele>
        <time>2016-02-29T20:16:21Z</time>
      </trkpt>
      <trkpt lat="48.8866" lon="2.41758">
        <ele>82</ele>
        <time>2016-02-29T20:16:27Z</time>
      </trkpt>
      <trkpt lat="48.88647" lon="2.41736">
        <ele>82.199996948242</ele>
        <time>2016-02-29T20:16:33Z</time>
      </trkpt>
      <trkpt lat="48.88639" lon="2.41711">
        <ele>81.599998474121</ele>
        <time>2016-02-29T20:16:37Z</time>
      </trkpt>
      <trkpt lat="48.88632" lon="2.4168">
        <ele>81.199996948242</ele>
        <time>2016-02-29T20:16:41Z</time>
      </trkpt>
      <trkpt lat="48.88626" lon="2.41646">
        <ele>80.800003051758</ele>
        <time>2016-02-29T20:16:45Z</time>
      </trkpt>
      <trkpt lat="48.8862" lon="2.4162">
        <ele>80.400001525879</ele>
        <time>2016-02-29T20:16:48Z</time>
      </trkpt>
      <trkpt lat="48.88612" lon="2.41586">
        <ele>79.800003051758</ele>
        <time>2016-02-29T20:16:52Z</time>
      </trkpt>
      <trkpt lat="48.88611" lon="2.41568">
        <ele>80</ele>
        <time>2016-02-29T20:16:54Z</time>
      </trkpt>
      <trkpt lat="48.88606" lon="2.41532">
        <ele>80.599998474121</ele>
        <time>2016-02-29T20:16:58Z</time>
      </trkpt>
      <trkpt lat="48.88601" lon="2.41504">
        <ele>81.199996948242</ele>
        <time>2016-02-29T20:17:01Z</time>
      </trkpt>
      <trkpt lat="48.88598" lon="2.41474">
        <ele>80.199996948242</ele>
        <time>2016-02-29T20:17:04Z</time>
      </trkpt>
      <trkpt lat="48.88593" lon="2.41445">
        <ele>78.800003051758</ele>
        <time>2016-02-29T20:17:07Z</time>
      </trkpt>
      <trkpt lat="48.88589" lon="2.41418">
        <ele>77.400001525879</ele>
        <time>2016-02-29T20:17:11Z</time>
      </trkpt>
      <trkpt lat="48.88586" lon="2.41397">
        <ele>78.599998474121</ele>
        <time>2016-02-29T20:17:16Z</time>
      </trkpt>
      <trkpt lat="48.88583" lon="2.41391">
        <ele>79.199996948242</ele>
        <time>2016-02-29T20:17:19Z</time>
      </trkpt>
      <trkpt lat="48.88583" lon="2.41391">
        <ele>79</ele>
        <time>2016-02-29T20:17:21Z</time>
      </trkpt>
      <trkpt lat="48.88585" lon="2.41376">
        <ele>78.800003051758</ele>
        <time>2016-02-29T20:17:47Z</time>
      </trkpt>
      <trkpt lat="48.88582" lon="2.41349">
        <ele>79.199996948242</ele>
        <time>2016-02-29T20:17:51Z</time>
      </trkpt>
      <trkpt lat="48.8858" lon="2.41318">
        <ele>79.199996948242</ele>
        <time>2016-02-29T20:17:55Z</time>
      </trkpt>
      <trkpt lat="48.88577" lon="2.41284">
        <ele>79.400001525879</ele>
        <time>2016-02-29T20:17:59Z</time>
      </trkpt>
      <trkpt lat="48.88574" lon="2.41253">
        <ele>80</ele>
        <time>2016-02-29T20:18:03Z</time>
      </trkpt>
      <trkpt lat="48.88571" lon="2.41219">
        <ele>79.400001525879</ele>
        <time>2016-02-29T20:18:07Z</time>
      </trkpt>
      <trkpt lat="48.88565" lon="2.4119">
        <ele>79.599998474121</ele>
        <time>2016-02-29T20:18:11Z</time>
      </trkpt>
      <trkpt lat="48.88562" lon="2.4116">
        <ele>80</ele>
        <time>2016-02-29T20:18:15Z</time>
      </trkpt>
      <trkpt lat="48.8856" lon="2.4113">
        <ele>79</ele>
        <time>2016-02-29T20:18:19Z</time>
      </trkpt>
      <trkpt lat="48.88554" lon="2.41103">
        <ele>78.199996948242</ele>
        <time>2016-02-29T20:18:23Z</time>
      </trkpt>
      <trkpt lat="48.88546" lon="2.41074">
        <ele>77.199996948242</ele>
        <time>2016-02-29T20:18:27Z</time>
      </trkpt>
      <trkpt lat="48.88543" lon="2.41042">
        <ele>76</ele>
        <time>2016-02-29T20:18:32Z</time>
      </trkpt>
      <trkpt lat="48.88543" lon="2.41027">
        <ele>75.199996948242</ele>
        <time>2016-02-29T20:18:34Z</time>
      </trkpt>
      <trkpt lat="48.8854" lon="2.40994">
        <ele>73.800003051758</ele>
        <time>2016-02-29T20:18:38Z</time>
      </trkpt>
      <trkpt lat="48.88531" lon="2.40961">
        <ele>72.199996948242</ele>
        <time>2016-02-29T20:18:42Z</time>
      </trkpt>
      <trkpt lat="48.88519" lon="2.40939">
        <ele>71.800003051758</ele>
        <time>2016-02-29T20:18:45Z</time>
      </trkpt>
      <trkpt lat="48.88516" lon="2.40931">
        <ele>71.400001525879</ele>
        <time>2016-02-29T20:18:46Z</time>
      </trkpt>
      <trkpt lat="48.88505" lon="2.40903">
        <ele>71.199996948242</ele>
        <time>2016-02-29T20:18:50Z</time>
      </trkpt>
      <trkpt lat="48.88498" lon="2.40877">
        <ele>71.599998474121</ele>
        <time>2016-02-29T20:18:54Z</time>
      </trkpt>
      <trkpt lat="48.88494" lon="2.4085">
        <ele>72.199996948242</ele>
        <time>2016-02-29T20:18:58Z</time>
      </trkpt>
      <trkpt lat="48.88492" lon="2.40828">
        <ele>72.400001525879</ele>
        <time>2016-02-29T20:19:02Z</time>
      </trkpt>
      <trkpt lat="48.88489" lon="2.40802">
        <ele>72.599998474121</ele>
        <time>2016-02-29T20:19:08Z</time>
      </trkpt>
      <trkpt lat="48.88478" lon="2.40797">
        <ele>73.199996948242</ele>
        <time>2016-02-29T20:19:17Z</time>
      </trkpt>
      <trkpt lat="48.88459" lon="2.40802">
        <ele>74</ele>
        <time>2016-02-29T20:19:22Z</time>
      </trkpt>
      <trkpt lat="48.8844" lon="2.40807">
        <ele>75</ele>
        <time>2016-02-29T20:19:27Z</time>
      </trkpt>
      <trkpt lat="48.8842" lon="2.40816">
        <ele>75</ele>
        <time>2016-02-29T20:19:31Z</time>
      </trkpt>
      <trkpt lat="48.884" lon="2.40824">
        <ele>75.800003051758</ele>
        <time>2016-02-29T20:19:35Z</time>
      </trkpt>
      <trkpt lat="48.88382" lon="2.4083">
        <ele>76.400001525879</ele>
        <time>2016-02-29T20:19:38Z</time>
      </trkpt>
      <trkpt lat="48.88364" lon="2.40836">
        <ele>76.800003051758</ele>
        <time>2016-02-29T20:19:41Z</time>
      </trkpt>
      <trkpt lat="48.88346" lon="2.40842">
        <ele>78.400001525879</ele>
        <time>2016-02-29T20:19:44Z</time>
      </trkpt>
      <trkpt lat="48.88326" lon="2.40846">
        <ele>80.199996948242</ele>
        <time>2016-02-29T20:19:47Z</time>
      </trkpt>
      <trkpt lat="48.88308" lon="2.40851">
        <ele>81.800003051758</ele>
        <time>2016-02-29T20:19:50Z</time>
      </trkpt>
      <trkpt lat="48.88302" lon="2.40852">
        <ele>82.400001525879</ele>
        <time>2016-02-29T20:19:51Z</time>
      </trkpt>
      <trkpt lat="48.88284" lon="2.40851">
        <ele>83</ele>
        <time>2016-02-29T20:19:55Z</time>
      </trkpt>
      <trkpt lat="48.88266" lon="2.40853">
        <ele>83.800003051758</ele>
        <time>2016-02-29T20:19:59Z</time>
      </trkpt>
      <trkpt lat="48.88249" lon="2.40854">
        <ele>85.199996948242</ele>
        <time>2016-02-29T20:20:04Z</time>
      </trkpt>
      <trkpt lat="48.88247" lon="2.40854">
        <ele>85.400001525879</ele>
        <time>2016-02-29T20:20:06Z</time>
      </trkpt>
      <trkpt lat="48.88246" lon="2.40853">
        <ele>85.599998474121</ele>
        <time>2016-02-29T20:20:11Z</time>
      </trkpt>
      <trkpt lat="48.88246" lon="2.40853">
        <ele>85.599998474121</ele>
        <time>2016-02-29T20:20:12Z</time>
      </trkpt>
      <trkpt lat="48.88237" lon="2.40847">
        <ele>86.199996948242</ele>
        <time>2016-02-29T20:20:48Z</time>
      </trkpt>
      <trkpt lat="48.88219" lon="2.40847">
        <ele>87.800003051758</ele>
        <time>2016-02-29T20:20:54Z</time>
      </trkpt>
      <trkpt lat="48.882" lon="2.40842">
        <ele>89.199996948242</ele>
        <time>2016-02-29T20:21:01Z</time>
      </trkpt>
      <trkpt lat="48.88181" lon="2.40833">
        <ele>90.800003051758</ele>
        <time>2016-02-29T20:21:05Z</time>
      </trkpt>
      <trkpt lat="48.88163" lon="2.40832">
        <ele>92.599998474121</ele>
        <time>2016-02-29T20:21:09Z</time>
      </trkpt>
      <trkpt lat="48.88149" lon="2.40833">
        <ele>94</ele>
        <time>2016-02-29T20:21:12Z</time>
      </trkpt>
      <trkpt lat="48.88127" lon="2.40835">
        <ele>96</ele>
        <time>2016-02-29T20:21:17Z</time>
      </trkpt>
      <trkpt lat="48.88109" lon="2.4083">
        <ele>97.599998474121</ele>
        <time>2016-02-29T20:21:22Z</time>
      </trkpt>
      <trkpt lat="48.88103" lon="2.40829">
        <ele>98.199996948242</ele>
        <time>2016-02-29T20:21:24Z</time>
      </trkpt>
      <trkpt lat="48.88084" lon="2.40827">
        <ele>99.400001525879</ele>
        <time>2016-02-29T20:21:33Z</time>
      </trkpt>
      <trkpt lat="48.8808" lon="2.40826">
        <ele>99.599998474121</ele>
        <time>2016-02-29T20:21:37Z</time>
      </trkpt>
      <trkpt lat="48.88059" lon="2.40824">
        <ele>100.80000305176</ele>
        <time>2016-02-29T20:21:45Z</time>
      </trkpt>
      <trkpt lat="48.88041" lon="2.40824">
        <ele>102</ele>
        <time>2016-02-29T20:21:48Z</time>
      </trkpt>
      <trkpt lat="48.88023" lon="2.40817">
        <ele>103</ele>
        <time>2016-02-29T20:22:15Z</time>
      </trkpt>
      <trkpt lat="48.88023" lon="2.40826">
        <ele>103</ele>
        <time>2016-02-29T20:22:28Z</time>
      </trkpt>
      <trkpt lat="48.88026" lon="2.40824">
        <ele>102.80000305176</ele>
        <time>2016-02-29T20:23:00Z</time>
      </trkpt>
      <trkpt lat="48.88014" lon="2.4083">
        <ele>103.40000152588</ele>
        <time>2016-02-29T20:23:28Z</time>
      </trkpt>
      <trkpt lat="48.87995" lon="2.40826">
        <ele>104</ele>
        <time>2016-02-29T20:23:39Z</time>
      </trkpt>
      <trkpt lat="48.87974" lon="2.4083">
        <ele>104.19999694824</ele>
        <time>2016-02-29T20:23:46Z</time>
      </trkpt>
      <trkpt lat="48.87965" lon="2.40824">
        <ele>104.80000305176</ele>
        <time>2016-02-29T20:23:52Z</time>
      </trkpt>
      <trkpt lat="48.87962" lon="2.40825">
        <ele>104.80000305176</ele>
        <time>2016-02-29T20:24:33Z</time>
      </trkpt>
      <trkpt lat="48.87954" lon="2.40849">
        <ele>105.80000305176</ele>
        <time>2016-02-29T20:24:39Z</time>
      </trkpt>
      <trkpt lat="48.87936" lon="2.40865">
        <ele>106.40000152588</ele>
        <time>2016-02-29T20:24:44Z</time>
      </trkpt>
      <trkpt lat="48.87916" lon="2.4088">
        <ele>107.59999847412</ele>
        <time>2016-02-29T20:24:49Z</time>
      </trkpt>
      <trkpt lat="48.87896" lon="2.40896">
        <ele>108.59999847412</ele>
        <time>2016-02-29T20:24:54Z</time>
      </trkpt>
      <trkpt lat="48.87879" lon="2.40907">
        <ele>109.19999694824</ele>
        <time>2016-02-29T20:24:58Z</time>
      </trkpt>
      <trkpt lat="48.87862" lon="2.40917">
        <ele>110.19999694824</ele>
        <time>2016-02-29T20:25:03Z</time>
      </trkpt>
      <trkpt lat="48.87852" lon="2.40924">
        <ele>110.40000152588</ele>
        <time>2016-02-29T20:25:08Z</time>
      </trkpt>
      <trkpt lat="48.87846" lon="2.40923">
        <ele>110.40000152588</ele>
        <time>2016-02-29T20:25:19Z</time>
      </trkpt>
      <trkpt lat="48.87841" lon="2.40916">
        <ele>110.40000152588</ele>
        <time>2016-02-29T20:25:26Z</time>
      </trkpt>
      <trkpt lat="48.87823" lon="2.40913">
        <ele>110.80000305176</ele>
        <time>2016-02-29T20:25:50Z</time>
      </trkpt>
      <trkpt lat="48.87815" lon="2.40906">
        <ele>111</ele>
        <time>2016-02-29T20:26:07Z</time>
      </trkpt>
      <trkpt lat="48.87816" lon="2.40874">
        <ele>111.40000152588</ele>
        <time>2016-02-29T20:26:18Z</time>
      </trkpt>
      <trkpt lat="48.87814" lon="2.40846">
        <ele>110.80000305176</ele>
        <time>2016-02-29T20:26:27Z</time>
      </trkpt>
      <trkpt lat="48.87803" lon="2.40821">
        <ele>111.40000152588</ele>
        <time>2016-02-29T20:26:35Z</time>
      </trkpt>
      <trkpt lat="48.8779" lon="2.40804">
        <ele>112.40000152588</ele>
        <time>2016-02-29T20:26:42Z</time>
      </trkpt>
      <trkpt lat="48.87785" lon="2.40793">
        <ele>112.80000305176</ele>
        <time>2016-02-29T20:27:16Z</time>
      </trkpt>
      <trkpt lat="48.8777" lon="2.40772">
        <ele>114</ele>
        <time>2016-02-29T20:27:23Z</time>
      </trkpt>
      <trkpt lat="48.87757" lon="2.40749">
        <ele>115.19999694824</ele>
        <time>2016-02-29T20:27:29Z</time>
      </trkpt>
      <trkpt lat="48.87748" lon="2.40724">
        <ele>115.59999847412</ele>
        <time>2016-02-29T20:27:35Z</time>
      </trkpt>
      <trkpt lat="48.87738" lon="2.40698">
        <ele>116.19999694824</ele>
        <time>2016-02-29T20:27:43Z</time>
      </trkpt>
      <trkpt lat="48.8773" lon="2.40672">
        <ele>117</ele>
        <time>2016-02-29T20:27:52Z</time>
      </trkpt>
      <trkpt lat="48.87715" lon="2.40656">
        <ele>117.59999847412</ele>
        <time>2016-02-29T20:28:02Z</time>
      </trkpt>
      <trkpt lat="48.87714" lon="2.40656">
        <ele>117.80000305176</ele>
        <time>2016-02-29T20:28:03Z</time>
      </trkpt>
      <trkpt lat="48.87695" lon="2.40642">
        <ele>118.40000152588</ele>
        <time>2016-02-29T20:28:27Z</time>
      </trkpt>
      <trkpt lat="48.87674" lon="2.40635">
        <ele>119.19999694824</ele>
        <time>2016-02-29T20:28:32Z</time>
      </trkpt>
      <trkpt lat="48.87654" lon="2.40629">
        <ele>119.80000305176</ele>
        <time>2016-02-29T20:28:36Z</time>
      </trkpt>
      <trkpt lat="48.87634" lon="2.40621">
        <ele>120.40000152588</ele>
        <time>2016-02-29T20:28:40Z</time>
      </trkpt>
      <trkpt lat="48.87616" lon="2.40617">
        <ele>121</ele>
        <time>2016-02-29T20:28:43Z</time>
      </trkpt>
      <trkpt lat="48.87598" lon="2.40613">
        <ele>121.40000152588</ele>
        <time>2016-02-29T20:28:46Z</time>
      </trkpt>
      <trkpt lat="48.87577" lon="2.40606">
        <ele>121.59999847412</ele>
        <time>2016-02-29T20:28:50Z</time>
      </trkpt>
      <trkpt lat="48.87551" lon="2.40595">
        <ele>121.80000305176</ele>
        <time>2016-02-29T20:28:54Z</time>
      </trkpt>
      <trkpt lat="48.87537" lon="2.4059">
        <ele>122</ele>
        <time>2016-02-29T20:28:57Z</time>
      </trkpt>
      <trkpt lat="48.87517" lon="2.40588">
        <ele>122.19999694824</ele>
        <time>2016-02-29T20:29:01Z</time>
      </trkpt>
      <trkpt lat="48.87509" lon="2.4059">
        <ele>122.19999694824</ele>
        <time>2016-02-29T20:29:03Z</time>
      </trkpt>
      <trkpt lat="48.87502" lon="2.40591">
        <ele>122.40000152588</ele>
        <time>2016-02-29T20:29:07Z</time>
      </trkpt>
      <trkpt lat="48.87502" lon="2.40591">
        <ele>122.40000152588</ele>
        <time>2016-02-29T20:29:09Z</time>
      </trkpt>
      <trkpt lat="48.87497" lon="2.40584">
        <ele>122.40000152588</ele>
        <time>2016-02-29T20:29:13Z</time>
      </trkpt>
      <trkpt lat="48.87499" lon="2.40575">
        <ele>122.19999694824</ele>
        <time>2016-02-29T20:29:19Z</time>
      </trkpt>
      <trkpt lat="48.87498" lon="2.40575">
        <ele>122.19999694824</ele>
        <time>2016-02-29T20:29:20Z</time>
      </trkpt>
      <trkpt lat="48.87485" lon="2.40563">
        <ele>122.40000152588</ele>
        <time>2016-02-29T20:29:46Z</time>
      </trkpt>
      <trkpt lat="48.87464" lon="2.40555">
        <ele>122.80000305176</ele>
        <time>2016-02-29T20:29:52Z</time>
      </trkpt>
      <trkpt lat="48.87442" lon="2.40547">
        <ele>123</ele>
        <time>2016-02-29T20:29:56Z</time>
      </trkpt>
      <trkpt lat="48.87429" lon="2.40543">
        <ele>122.80000305176</ele>
        <time>2016-02-29T20:29:58Z</time>
      </trkpt>
      <trkpt lat="48.87414" lon="2.40539">
        <ele>122.59999847412</ele>
        <time>2016-02-29T20:30:01Z</time>
      </trkpt>
      <trkpt lat="48.87396" lon="2.40528">
        <ele>122.40000152588</ele>
        <time>2016-02-29T20:30:05Z</time>
      </trkpt>
      <trkpt lat="48.87377" lon="2.40517">
        <ele>122.19999694824</ele>
        <time>2016-02-29T20:30:09Z</time>
      </trkpt>
      <trkpt lat="48.87359" lon="2.40508">
        <ele>121.80000305176</ele>
        <time>2016-02-29T20:30:11Z</time>
      </trkpt>
      <trkpt lat="48.87341" lon="2.40497">
        <ele>121.19999694824</ele>
        <time>2016-02-29T20:30:14Z</time>
      </trkpt>
      <trkpt lat="48.87322" lon="2.40485">
        <ele>120.19999694824</ele>
        <time>2016-02-29T20:30:18Z</time>
      </trkpt>
      <trkpt lat="48.87303" lon="2.40479">
        <ele>119.19999694824</ele>
        <time>2016-02-29T20:30:21Z</time>
      </trkpt>
      <trkpt lat="48.87281" lon="2.40471">
        <ele>118.19999694824</ele>
        <time>2016-02-29T20:30:25Z</time>
      </trkpt>
      <trkpt lat="48.87267" lon="2.40465">
        <ele>117.59999847412</ele>
        <time>2016-02-29T20:30:28Z</time>
      </trkpt>
      <trkpt lat="48.87248" lon="2.40464">
        <ele>116.59999847412</ele>
        <time>2016-02-29T20:30:31Z</time>
      </trkpt>
      <trkpt lat="48.87224" lon="2.40456">
        <ele>115.80000305176</ele>
        <time>2016-02-29T20:30:34Z</time>
      </trkpt>
      <trkpt lat="48.87208" lon="2.40454">
        <ele>115.40000152588</ele>
        <time>2016-02-29T20:30:36Z</time>
      </trkpt>
      <trkpt lat="48.87188" lon="2.40451">
        <ele>115</ele>
        <time>2016-02-29T20:30:39Z</time>
      </trkpt>
      <trkpt lat="48.87174" lon="2.40441">
        <ele>114.19999694824</ele>
        <time>2016-02-29T20:30:42Z</time>
      </trkpt>
      <trkpt lat="48.87157" lon="2.40429">
        <ele>113.40000152588</ele>
        <time>2016-02-29T20:30:47Z</time>
      </trkpt>
      <trkpt lat="48.8715" lon="2.40423">
        <ele>113</ele>
        <time>2016-02-29T20:30:49Z</time>
      </trkpt>
      <trkpt lat="48.87133" lon="2.40409">
        <ele>112.40000152588</ele>
        <time>2016-02-29T20:30:53Z</time>
      </trkpt>
      <trkpt lat="48.87119" lon="2.40399">
        <ele>112</ele>
        <time>2016-02-29T20:30:58Z</time>
      </trkpt>
      <trkpt lat="48.87112" lon="2.40388">
        <ele>112</ele>
        <time>2016-02-29T20:31:01Z</time>
      </trkpt>
      <trkpt lat="48.87103" lon="2.40372">
        <ele>112</ele>
        <time>2016-02-29T20:31:06Z</time>
      </trkpt>
      <trkpt lat="48.87062" lon="2.40348">
        <ele>112.59999847412</ele>
        <time>2016-02-29T20:31:13Z</time>
      </trkpt>
      <trkpt lat="48.87044" lon="2.4033">
        <ele>113</ele>
        <time>2016-02-29T20:31:17Z</time>
      </trkpt>
      <trkpt lat="48.87025" lon="2.40313">
        <ele>112.59999847412</ele>
        <time>2016-02-29T20:31:21Z</time>
      </trkpt>
      <trkpt lat="48.87017" lon="2.40304">
        <ele>112.40000152588</ele>
        <time>2016-02-29T20:31:23Z</time>
      </trkpt>
      <trkpt lat="48.87004" lon="2.40281">
        <ele>112.19999694824</ele>
        <time>2016-02-29T20:31:27Z</time>
      </trkpt>
      <trkpt lat="48.86985" lon="2.40259">
        <ele>112.19999694824</ele>
        <time>2016-02-29T20:31:31Z</time>
      </trkpt>
      <trkpt lat="48.86963" lon="2.4024">
        <ele>112.40000152588</ele>
        <time>2016-02-29T20:31:34Z</time>
      </trkpt>
      <trkpt lat="48.86945" lon="2.40225">
        <ele>112.59999847412</ele>
        <time>2016-02-29T20:31:37Z</time>
      </trkpt>
      <trkpt lat="48.86928" lon="2.40214">
        <ele>112</ele>
        <time>2016-02-29T20:31:40Z</time>
      </trkpt>
      <trkpt lat="48.86908" lon="2.40201">
        <ele>110.59999847412</ele>
        <time>2016-02-29T20:31:43Z</time>
      </trkpt>
      <trkpt lat="48.86881" lon="2.40189">
        <ele>108.80000305176</ele>
        <time>2016-02-29T20:31:45Z</time>
      </trkpt>
      <trkpt lat="48.86863" lon="2.40177">
        <ele>107.19999694824</ele>
        <time>2016-02-29T20:31:47Z</time>
      </trkpt>
      <trkpt lat="48.86843" lon="2.40166">
        <ele>104.80000305176</ele>
        <time>2016-02-29T20:31:49Z</time>
      </trkpt>
      <trkpt lat="48.86832" lon="2.40145">
        <ele>104</ele>
        <time>2016-02-29T20:31:57Z</time>
      </trkpt>
      <trkpt lat="48.86829" lon="2.40142">
        <ele>103.80000305176</ele>
        <time>2016-02-29T20:32:01Z</time>
      </trkpt>
      <trkpt lat="48.86829" lon="2.40143">
        <ele>103.80000305176</ele>
        <time>2016-02-29T20:32:02Z</time>
      </trkpt>
      <trkpt lat="48.86816" lon="2.40127">
        <ele>102.40000152588</ele>
        <time>2016-02-29T20:32:13Z</time>
      </trkpt>
      <trkpt lat="48.86798" lon="2.40111">
        <ele>100.40000152588</ele>
        <time>2016-02-29T20:32:18Z</time>
      </trkpt>
      <trkpt lat="48.86782" lon="2.40089">
        <ele>99</ele>
        <time>2016-02-29T20:32:22Z</time>
      </trkpt>
      <trkpt lat="48.86766" lon="2.40069">
        <ele>98.199996948242</ele>
        <time>2016-02-29T20:32:25Z</time>
      </trkpt>
      <trkpt lat="48.86752" lon="2.40045">
        <ele>98.800003051758</ele>
        <time>2016-02-29T20:32:28Z</time>
      </trkpt>
      <trkpt lat="48.86741" lon="2.40033">
        <ele>98.599998474121</ele>
        <time>2016-02-29T20:32:30Z</time>
      </trkpt>
      <trkpt lat="48.86722" lon="2.40018">
        <ele>98.199996948242</ele>
        <time>2016-02-29T20:32:33Z</time>
      </trkpt>
      <trkpt lat="48.86702" lon="2.39998">
        <ele>97.800003051758</ele>
        <time>2016-02-29T20:32:37Z</time>
      </trkpt>
      <trkpt lat="48.86677" lon="2.39979">
        <ele>97.400001525879</ele>
        <time>2016-02-29T20:32:40Z</time>
      </trkpt>
      <trkpt lat="48.86655" lon="2.39961">
        <ele>97.599998474121</ele>
        <time>2016-02-29T20:32:43Z</time>
      </trkpt>
      <trkpt lat="48.86637" lon="2.39949">
        <ele>97.400001525879</ele>
        <time>2016-02-29T20:32:46Z</time>
      </trkpt>
      <trkpt lat="48.86619" lon="2.39943">
        <ele>97</ele>
        <time>2016-02-29T20:32:48Z</time>
      </trkpt>
      <trkpt lat="48.86602" lon="2.39929">
        <ele>97.199996948242</ele>
        <time>2016-02-29T20:32:51Z</time>
      </trkpt>
      <trkpt lat="48.86585" lon="2.39918">
        <ele>97</ele>
        <time>2016-02-29T20:32:54Z</time>
      </trkpt>
      <trkpt lat="48.8658" lon="2.39914">
        <ele>97</ele>
        <time>2016-02-29T20:32:55Z</time>
      </trkpt>
      <trkpt lat="48.86556" lon="2.39903">
        <ele>96.400001525879</ele>
        <time>2016-02-29T20:32:58Z</time>
      </trkpt>
      <trkpt lat="48.86536" lon="2.39896">
        <ele>95.599998474121</ele>
        <time>2016-02-29T20:33:02Z</time>
      </trkpt>
      <trkpt lat="48.86521" lon="2.39887">
        <ele>95.400001525879</ele>
        <time>2016-02-29T20:33:04Z</time>
      </trkpt>
      <trkpt lat="48.86518" lon="2.39877">
        <ele>95.400001525879</ele>
        <time>2016-02-29T20:33:06Z</time>
      </trkpt>
      <trkpt lat="48.86515" lon="2.39857">
        <ele>95.599998474121</ele>
        <time>2016-02-29T20:33:09Z</time>
      </trkpt>
      <trkpt lat="48.86504" lon="2.39835">
        <ele>95.599998474121</ele>
        <time>2016-02-29T20:33:14Z</time>
      </trkpt>
      <trkpt lat="48.86502" lon="2.39836">
        <ele>95.400001525879</ele>
        <time>2016-02-29T20:33:15Z</time>
      </trkpt>
      <trkpt lat="48.86492" lon="2.39826">
        <ele>95.400001525879</ele>
        <time>2016-02-29T20:33:23Z</time>
      </trkpt>
      <trkpt lat="48.86492" lon="2.39826">
        <ele>95.400001525879</ele>
        <time>2016-02-29T20:33:24Z</time>
      </trkpt>
      <trkpt lat="48.86487" lon="2.39825">
        <ele>95.400001525879</ele>
        <time>2016-02-29T20:33:32Z</time>
      </trkpt>
      <trkpt lat="48.86472" lon="2.39833">
        <ele>94.800003051758</ele>
        <time>2016-02-29T20:34:01Z</time>
      </trkpt>
      <trkpt lat="48.86456" lon="2.39852">
        <ele>94.199996948242</ele>
        <time>2016-02-29T20:34:07Z</time>
      </trkpt>
      <trkpt lat="48.86441" lon="2.39869">
        <ele>93.599998474121</ele>
        <time>2016-02-29T20:34:13Z</time>
      </trkpt>
      <trkpt lat="48.86424" lon="2.39883">
        <ele>93.599998474121</ele>
        <time>2016-02-29T20:34:19Z</time>
      </trkpt>
      <trkpt lat="48.86407" lon="2.39901">
        <ele>93.400001525879</ele>
        <time>2016-02-29T20:34:25Z</time>
      </trkpt>
      <trkpt lat="48.86389" lon="2.39923">
        <ele>93</ele>
        <time>2016-02-29T20:34:31Z</time>
      </trkpt>
      <trkpt lat="48.86375" lon="2.39943">
        <ele>92.599998474121</ele>
        <time>2016-02-29T20:34:36Z</time>
      </trkpt>
      <trkpt lat="48.86362" lon="2.39963">
        <ele>92</ele>
        <time>2016-02-29T20:34:40Z</time>
      </trkpt>
      <trkpt lat="48.86354" lon="2.39992">
        <ele>91.199996948242</ele>
        <time>2016-02-29T20:34:45Z</time>
      </trkpt>
      <trkpt lat="48.86331" lon="2.40006">
        <ele>91.400001525879</ele>
        <time>2016-02-29T20:34:49Z</time>
      </trkpt>
      <trkpt lat="48.86308" lon="2.40004">
        <ele>92</ele>
        <time>2016-02-29T20:34:52Z</time>
      </trkpt>
      <trkpt lat="48.86277" lon="2.39999">
        <ele>92.800003051758</ele>
        <time>2016-02-29T20:34:55Z</time>
      </trkpt>
      <trkpt lat="48.86248" lon="2.39997">
        <ele>92.400001525879</ele>
        <time>2016-02-29T20:34:57Z</time>
      </trkpt>
      <trkpt lat="48.86223" lon="2.39999">
        <ele>91.800003051758</ele>
        <time>2016-02-29T20:34:59Z</time>
      </trkpt>
      <trkpt lat="48.86201" lon="2.40006">
        <ele>91.199996948242</ele>
        <time>2016-02-29T20:35:02Z</time>
      </trkpt>
      <trkpt lat="48.86196" lon="2.40009">
        <ele>91</ele>
        <time>2016-02-29T20:35:03Z</time>
      </trkpt>
      <trkpt lat="48.86174" lon="2.40015">
        <ele>90.199996948242</ele>
        <time>2016-02-29T20:35:07Z</time>
      </trkpt>
      <trkpt lat="48.86151" lon="2.40016">
        <ele>89.199996948242</ele>
        <time>2016-02-29T20:35:11Z</time>
      </trkpt>
      <trkpt lat="48.8613" lon="2.40019">
        <ele>88.199996948242</ele>
        <time>2016-02-29T20:35:15Z</time>
      </trkpt>
      <trkpt lat="48.86107" lon="2.40029">
        <ele>86.400001525879</ele>
        <time>2016-02-29T20:35:19Z</time>
      </trkpt>
      <trkpt lat="48.86088" lon="2.40034">
        <ele>84.599998474121</ele>
        <time>2016-02-29T20:35:22Z</time>
      </trkpt>
      <trkpt lat="48.86068" lon="2.40043">
        <ele>82.800003051758</ele>
        <time>2016-02-29T20:35:25Z</time>
      </trkpt>
      <trkpt lat="48.86059" lon="2.40048">
        <ele>81.599998474121</ele>
        <time>2016-02-29T20:35:26Z</time>
      </trkpt>
      <trkpt lat="48.86034" lon="2.4006">
        <ele>78.800003051758</ele>
        <time>2016-02-29T20:35:29Z</time>
      </trkpt>
      <trkpt lat="48.86011" lon="2.40073">
        <ele>76.599998474121</ele>
        <time>2016-02-29T20:35:32Z</time>
      </trkpt>
      <trkpt lat="48.85991" lon="2.40091">
        <ele>75</ele>
        <time>2016-02-29T20:35:35Z</time>
      </trkpt>
      <trkpt lat="48.85976" lon="2.40108">
        <ele>73.400001525879</ele>
        <time>2016-02-29T20:35:38Z</time>
      </trkpt>
      <trkpt lat="48.85959" lon="2.40129">
        <ele>73</ele>
        <time>2016-02-29T20:35:42Z</time>
      </trkpt>
      <trkpt lat="48.85943" lon="2.40157">
        <ele>73</ele>
        <time>2016-02-29T20:35:46Z</time>
      </trkpt>
      <trkpt lat="48.8593" lon="2.40179">
        <ele>72.599998474121</ele>
        <time>2016-02-29T20:35:49Z</time>
      </trkpt>
      <trkpt lat="48.85912" lon="2.40198">
        <ele>72</ele>
        <time>2016-02-29T20:35:52Z</time>
      </trkpt>
      <trkpt lat="48.85895" lon="2.40217">
        <ele>71.199996948242</ele>
        <time>2016-02-29T20:35:56Z</time>
      </trkpt>
      <trkpt lat="48.85878" lon="2.40236">
        <ele>70</ele>
        <time>2016-02-29T20:35:59Z</time>
      </trkpt>
      <trkpt lat="48.8586" lon="2.40261">
        <ele>69</ele>
        <time>2016-02-29T20:36:02Z</time>
      </trkpt>
      <trkpt lat="48.85846" lon="2.40277">
        <ele>69.400001525879</ele>
        <time>2016-02-29T20:36:05Z</time>
      </trkpt>
      <trkpt lat="48.85832" lon="2.40298">
        <ele>69.800003051758</ele>
        <time>2016-02-29T20:36:08Z</time>
      </trkpt>
      <trkpt lat="48.85825" lon="2.40323">
        <ele>69.599998474121</ele>
        <time>2016-02-29T20:36:11Z</time>
      </trkpt>
      <trkpt lat="48.8581" lon="2.40347">
        <ele>69.199996948242</ele>
        <time>2016-02-29T20:36:14Z</time>
      </trkpt>
      <trkpt lat="48.85796" lon="2.40366">
        <ele>69</ele>
        <time>2016-02-29T20:36:17Z</time>
      </trkpt>
      <trkpt lat="48.8578" lon="2.40388">
        <ele>69.199996948242</ele>
        <time>2016-02-29T20:36:21Z</time>
      </trkpt>
      <trkpt lat="48.85765" lon="2.40404">
        <ele>69.199996948242</ele>
        <time>2016-02-29T20:36:24Z</time>
      </trkpt>
      <trkpt lat="48.85745" lon="2.4042">
        <ele>68.199996948242</ele>
        <time>2016-02-29T20:36:28Z</time>
      </trkpt>
      <trkpt lat="48.85726" lon="2.40436">
        <ele>67.599998474121</ele>
        <time>2016-02-29T20:36:32Z</time>
      </trkpt>
      <trkpt lat="48.85702" lon="2.4045">
        <ele>66.800003051758</ele>
        <time>2016-02-29T20:36:36Z</time>
      </trkpt>
      <trkpt lat="48.85682" lon="2.40462">
        <ele>66.400001525879</ele>
        <time>2016-02-29T20:36:39Z</time>
      </trkpt>
      <trkpt lat="48.85664" lon="2.40473">
        <ele>66</ele>
        <time>2016-02-29T20:36:42Z</time>
      </trkpt>
      <trkpt lat="48.85646" lon="2.40482">
        <ele>66</ele>
        <time>2016-02-29T20:36:45Z</time>
      </trkpt>
      <trkpt lat="48.85627" lon="2.40489">
        <ele>66</ele>
        <time>2016-02-29T20:36:48Z</time>
      </trkpt>
      <trkpt lat="48.85605" lon="2.40499">
        <ele>66</ele>
        <time>2016-02-29T20:36:52Z</time>
      </trkpt>
      <trkpt lat="48.85586" lon="2.40509">
        <ele>65.199996948242</ele>
        <time>2016-02-29T20:36:55Z</time>
      </trkpt>
      <trkpt lat="48.85567" lon="2.40514">
        <ele>64.599998474121</ele>
        <time>2016-02-29T20:36:58Z</time>
      </trkpt>
      <trkpt lat="48.85544" lon="2.40522">
        <ele>63.599998474121</ele>
        <time>2016-02-29T20:37:02Z</time>
      </trkpt>
      <trkpt lat="48.8552" lon="2.40528">
        <ele>63.400001525879</ele>
        <time>2016-02-29T20:37:06Z</time>
      </trkpt>
      <trkpt lat="48.855" lon="2.40534">
        <ele>64.199996948242</ele>
        <time>2016-02-29T20:37:09Z</time>
      </trkpt>
      <trkpt lat="48.85481" lon="2.40542">
        <ele>65</ele>
        <time>2016-02-29T20:37:12Z</time>
      </trkpt>
      <trkpt lat="48.8546" lon="2.40548">
        <ele>64.599998474121</ele>
        <time>2016-02-29T20:37:15Z</time>
      </trkpt>
      <trkpt lat="48.85442" lon="2.40555">
        <ele>64</ele>
        <time>2016-02-29T20:37:18Z</time>
      </trkpt>
      <trkpt lat="48.85429" lon="2.40556">
        <ele>63.79999923706</ele>
        <time>2016-02-29T20:37:20Z</time>
      </trkpt>
      <trkpt lat="48.85408" lon="2.40558">
        <ele>63.599998474121</ele>
        <time>2016-02-29T20:37:23Z</time>
      </trkpt>
      <trkpt lat="48.85389" lon="2.40559">
        <ele>63.400001525879</ele>
        <time>2016-02-29T20:37:26Z</time>
      </trkpt>
      <trkpt lat="48.85373" lon="2.40568">
        <ele>63.20000076294</ele>
        <time>2016-02-29T20:37:28Z</time>
      </trkpt>
      <trkpt lat="48.85354" lon="2.4057">
        <ele>63</ele>
        <time>2016-02-29T20:37:31Z</time>
      </trkpt>
      <trkpt lat="48.85334" lon="2.40571">
        <ele>62.79999923706</ele>
        <time>2016-02-29T20:37:34Z</time>
      </trkpt>
      <trkpt lat="48.85313" lon="2.4058">
        <ele>62.400001525879</ele>
        <time>2016-02-29T20:37:38Z</time>
      </trkpt>
      <trkpt lat="48.85293" lon="2.4059">
        <ele>62</ele>
        <time>2016-02-29T20:37:43Z</time>
      </trkpt>
      <trkpt lat="48.85275" lon="2.40591">
        <ele>61.79999923706</ele>
        <time>2016-02-29T20:37:49Z</time>
      </trkpt>
      <trkpt lat="48.8527" lon="2.40599">
        <ele>61.79999923706</ele>
        <time>2016-02-29T20:37:50Z</time>
      </trkpt>
      <trkpt lat="48.85253" lon="2.40612">
        <ele>62.400001525879</ele>
        <time>2016-02-29T20:38:03Z</time>
      </trkpt>
      <trkpt lat="48.85234" lon="2.40614">
        <ele>63</ele>
        <time>2016-02-29T20:38:10Z</time>
      </trkpt>
      <trkpt lat="48.85215" lon="2.40613">
        <ele>63.400001525879</ele>
        <time>2016-02-29T20:38:15Z</time>
      </trkpt>
      <trkpt lat="48.85195" lon="2.40618">
        <ele>62.79999923706</ele>
        <time>2016-02-29T20:38:20Z</time>
      </trkpt>
      <trkpt lat="48.85175" lon="2.40622">
        <ele>62</ele>
        <time>2016-02-29T20:38:25Z</time>
      </trkpt>
      <trkpt lat="48.85155" lon="2.40626">
        <ele>60.79999923706</ele>
        <time>2016-02-29T20:38:31Z</time>
      </trkpt>
      <trkpt lat="48.85137" lon="2.40634">
        <ele>59.79999923706</ele>
        <time>2016-02-29T20:38:37Z</time>
      </trkpt>
      <trkpt lat="48.85119" lon="2.40641">
        <ele>59.20000076294</ele>
        <time>2016-02-29T20:38:42Z</time>
      </trkpt>
      <trkpt lat="48.85099" lon="2.40652">
        <ele>58.599998474121</ele>
        <time>2016-02-29T20:38:47Z</time>
      </trkpt>
      <trkpt lat="48.8508" lon="2.40658">
        <ele>58</ele>
        <time>2016-02-29T20:38:52Z</time>
      </trkpt>
      <trkpt lat="48.85061" lon="2.4065">
        <ele>58</ele>
        <time>2016-02-29T20:38:56Z</time>
      </trkpt>
      <trkpt lat="48.85043" lon="2.40646">
        <ele>57.79999923706</ele>
        <time>2016-02-29T20:39:01Z</time>
      </trkpt>
      <trkpt lat="48.85023" lon="2.40656">
        <ele>56.599998474121</ele>
        <time>2016-02-29T20:39:08Z</time>
      </trkpt>
      <trkpt lat="48.85002" lon="2.40661">
        <ele>55.599998474121</ele>
        <time>2016-02-29T20:39:13Z</time>
      </trkpt>
      <trkpt lat="48.84981" lon="2.40659">
        <ele>55.20000076294</ele>
        <time>2016-02-29T20:39:17Z</time>
      </trkpt>
      <trkpt lat="48.84961" lon="2.4066">
        <ele>54.20000076294</ele>
        <time>2016-02-29T20:39:21Z</time>
      </trkpt>
      <trkpt lat="48.84943" lon="2.40662">
        <ele>53.400001525879</ele>
        <time>2016-02-29T20:39:24Z</time>
      </trkpt>
      <trkpt lat="48.84924" lon="2.40664">
        <ele>53.20000076294</ele>
        <time>2016-02-29T20:39:27Z</time>
      </trkpt>
      <trkpt lat="48.84902" lon="2.40666">
        <ele>53.400001525879</ele>
        <time>2016-02-29T20:39:31Z</time>
      </trkpt>
      <trkpt lat="48.84878" lon="2.40663">
        <ele>53.79999923706</ele>
        <time>2016-02-29T20:39:35Z</time>
      </trkpt>
      <trkpt lat="48.84856" lon="2.40658">
        <ele>54.400001525879</ele>
        <time>2016-02-29T20:39:39Z</time>
      </trkpt>
      <trkpt lat="48.84835" lon="2.40653">
        <ele>53.79999923706</ele>
        <time>2016-02-29T20:39:43Z</time>
      </trkpt>
      <trkpt lat="48.84816" lon="2.40649">
        <ele>53.400001525879</ele>
        <time>2016-02-29T20:39:47Z</time>
      </trkpt>
      <trkpt lat="48.84799" lon="2.40644">
        <ele>53.20000076294</ele>
        <time>2016-02-29T20:39:51Z</time>
      </trkpt>
      <trkpt lat="48.84787" lon="2.40641">
        <ele>53</ele>
        <time>2016-02-29T20:39:54Z</time>
      </trkpt>
      <trkpt lat="48.84775" lon="2.40637">
        <ele>52.79999923706</ele>
        <time>2016-02-29T20:39:58Z</time>
      </trkpt>
      <trkpt lat="48.8477" lon="2.40633">
        <ele>52.79999923706</ele>
        <time>2016-02-29T20:40:00Z</time>
      </trkpt>
      <trkpt lat="48.84764" lon="2.4063">
        <ele>53</ele>
        <time>2016-02-29T20:40:03Z</time>
      </trkpt>
      <trkpt lat="48.8475" lon="2.4062">
        <ele>53.599998474121</ele>
        <time>2016-02-29T20:40:33Z</time>
      </trkpt>
      <trkpt lat="48.84733" lon="2.40628">
        <ele>53.79999923706</ele>
        <time>2016-02-29T20:40:41Z</time>
      </trkpt>
      <trkpt lat="48.84728" lon="2.4065">
        <ele>53.79999923706</ele>
        <time>2016-02-29T20:40:45Z</time>
      </trkpt>
      <trkpt lat="48.84727" lon="2.40685">
        <ele>53.79999923706</ele>
        <time>2016-02-29T20:40:50Z</time>
      </trkpt>
      <trkpt lat="48.84726" lon="2.40716">
        <ele>53.79999923706</ele>
        <time>2016-02-29T20:40:54Z</time>
      </trkpt>
      <trkpt lat="48.84727" lon="2.4075">
        <ele>53</ele>
        <time>2016-02-29T20:40:58Z</time>
      </trkpt>
      <trkpt lat="48.84728" lon="2.40778">
        <ele>53</ele>
        <time>2016-02-29T20:41:01Z</time>
      </trkpt>
      <trkpt lat="48.84727" lon="2.40807">
        <ele>52.79999923706</ele>
        <time>2016-02-29T20:41:04Z</time>
      </trkpt>
      <trkpt lat="48.84723" lon="2.40837">
        <ele>52.599998474121</ele>
        <time>2016-02-29T20:41:07Z</time>
      </trkpt>
      <trkpt lat="48.84718" lon="2.40864">
        <ele>53.599998474121</ele>
        <time>2016-02-29T20:41:10Z</time>
      </trkpt>
      <trkpt lat="48.84715" lon="2.40897">
        <ele>55.599998474121</ele>
        <time>2016-02-29T20:41:14Z</time>
      </trkpt>
      <trkpt lat="48.84713" lon="2.40932">
        <ele>56</ele>
        <time>2016-02-29T20:41:18Z</time>
      </trkpt>
      <trkpt lat="48.84711" lon="2.40968">
        <ele>55.20000076294</ele>
        <time>2016-02-29T20:41:22Z</time>
      </trkpt>
      <trkpt lat="48.8471" lon="2.40976">
        <ele>55</ele>
        <time>2016-02-29T20:41:23Z</time>
      </trkpt>
      <trkpt lat="48.84704" lon="2.41008">
        <ele>54.79999923706</ele>
        <time>2016-02-29T20:41:27Z</time>
      </trkpt>
      <trkpt lat="48.84704" lon="2.41039">
        <ele>54.599998474121</ele>
        <time>2016-02-29T20:41:31Z</time>
      </trkpt>
      <trkpt lat="48.84699" lon="2.4106">
        <ele>54.400001525879</ele>
        <time>2016-02-29T20:41:34Z</time>
      </trkpt>
      <trkpt lat="48.84695" lon="2.41082">
        <ele>54</ele>
        <time>2016-02-29T20:41:39Z</time>
      </trkpt>
      <trkpt lat="48.84685" lon="2.41106">
        <ele>54.20000076294</ele>
        <time>2016-02-29T20:41:47Z</time>
      </trkpt>
      <trkpt lat="48.84685" lon="2.41121">
        <ele>54.20000076294</ele>
        <time>2016-02-29T20:41:51Z</time>
      </trkpt>
      <trkpt lat="48.84688" lon="2.4114">
        <ele>54</ele>
        <time>2016-02-29T20:41:55Z</time>
      </trkpt>
      <trkpt lat="48.84689" lon="2.41168">
        <ele>54</ele>
        <time>2016-02-29T20:42:00Z</time>
      </trkpt>
      <trkpt lat="48.8469" lon="2.41199">
        <ele>54</ele>
        <time>2016-02-29T20:42:05Z</time>
      </trkpt>
      <trkpt lat="48.84687" lon="2.41226">
        <ele>54.20000076294</ele>
        <time>2016-02-29T20:42:09Z</time>
      </trkpt>
      <trkpt lat="48.84683" lon="2.41253">
        <ele>54.20000076294</ele>
        <time>2016-02-29T20:42:13Z</time>
      </trkpt>
      <trkpt lat="48.84679" lon="2.41281">
        <ele>53.79999923706</ele>
        <time>2016-02-29T20:42:17Z</time>
      </trkpt>
      <trkpt lat="48.84681" lon="2.41309">
        <ele>53</ele>
        <time>2016-02-29T20:42:21Z</time>
      </trkpt>
      <trkpt lat="48.8468" lon="2.41323">
        <ele>52.599998474121</ele>
        <time>2016-02-29T20:42:23Z</time>
      </trkpt>
      <trkpt lat="48.84676" lon="2.41348">
        <ele>51</ele>
        <time>2016-02-29T20:42:27Z</time>
      </trkpt>
      <trkpt lat="48.84667" lon="2.41374">
        <ele>49.20000076294</ele>
        <time>2016-02-29T20:42:32Z</time>
      </trkpt>
      <trkpt lat="48.84656" lon="2.41396">
        <ele>48.400001525879</ele>
        <time>2016-02-29T20:42:37Z</time>
      </trkpt>
      <trkpt lat="48.84644" lon="2.41421">
        <ele>48.79999923706</ele>
        <time>2016-02-29T20:42:42Z</time>
      </trkpt>
      <trkpt lat="48.84639" lon="2.4145">
        <ele>50.20000076294</ele>
        <time>2016-02-29T20:42:48Z</time>
      </trkpt>
      <trkpt lat="48.84638" lon="2.41454">
        <ele>50.400001525879</ele>
        <time>2016-02-29T20:42:49Z</time>
      </trkpt>
      <trkpt lat="48.84641" lon="2.41482">
        <ele>51.79999923706</ele>
        <time>2016-02-29T20:42:59Z</time>
      </trkpt>
      <trkpt lat="48.84642" lon="2.41482">
        <ele>51.79999923706</ele>
        <time>2016-02-29T20:43:00Z</time>
      </trkpt>
      <trkpt lat="48.84644" lon="2.41498">
        <ele>52.599998474121</ele>
        <time>2016-02-29T20:43:18Z</time>
      </trkpt>
      <trkpt lat="48.84655" lon="2.41521">
        <ele>52.79999923706</ele>
        <time>2016-02-29T20:43:24Z</time>
      </trkpt>
      <trkpt lat="48.84659" lon="2.4155">
        <ele>53.599998474121</ele>
        <time>2016-02-29T20:43:29Z</time>
      </trkpt>
      <trkpt lat="48.84659" lon="2.41578">
        <ele>56.400001525879</ele>
        <time>2016-02-29T20:43:33Z</time>
      </trkpt>
      <trkpt lat="48.84657" lon="2.4161">
        <ele>55.79999923706</ele>
        <time>2016-02-29T20:43:37Z</time>
      </trkpt>
      <trkpt lat="48.84656" lon="2.41638">
        <ele>55.20000076294</ele>
        <time>2016-02-29T20:43:41Z</time>
      </trkpt>
      <trkpt lat="48.84651" lon="2.4167">
        <ele>56.20000076294</ele>
        <time>2016-02-29T20:43:46Z</time>
      </trkpt>
      <trkpt lat="48.84643" lon="2.41696">
        <ele>58.599998474121</ele>
        <time>2016-02-29T20:43:51Z</time>
      </trkpt>
      <trkpt lat="48.8464" lon="2.41714">
        <ele>58.400001525879</ele>
        <time>2016-02-29T20:43:55Z</time>
      </trkpt>
      <trkpt lat="48.84633" lon="2.4174">
        <ele>57.20000076294</ele>
        <time>2016-02-29T20:44:01Z</time>
      </trkpt>
      <trkpt lat="48.8463" lon="2.41743">
        <ele>57.20000076294</ele>
        <time>2016-02-29T20:44:02Z</time>
      </trkpt>
      <trkpt lat="48.8461" lon="2.41749">
        <ele>57.79999923706</ele>
        <time>2016-02-29T20:44:06Z</time>
      </trkpt>
      <trkpt lat="48.84591" lon="2.41752">
        <ele>58</ele>
        <time>2016-02-29T20:44:12Z</time>
      </trkpt>
      <trkpt lat="48.84569" lon="2.41752">
        <ele>58</ele>
        <time>2016-02-29T20:44:17Z</time>
      </trkpt>
      <trkpt lat="48.84548" lon="2.41749">
        <ele>58</ele>
        <time>2016-02-29T20:44:21Z</time>
      </trkpt>
      <trkpt lat="48.8453" lon="2.41748">
        <ele>58</ele>
        <time>2016-02-29T20:44:25Z</time>
      </trkpt>
      <trkpt lat="48.84507" lon="2.41751">
        <ele>57.400001525879</ele>
        <time>2016-02-29T20:44:29Z</time>
      </trkpt>
      <trkpt lat="48.84489" lon="2.41756">
        <ele>56.599998474121</ele>
        <time>2016-02-29T20:44:32Z</time>
      </trkpt>
      <trkpt lat="48.84471" lon="2.4176">
        <ele>55.79999923706</ele>
        <time>2016-02-29T20:44:35Z</time>
      </trkpt>
      <trkpt lat="48.84465" lon="2.4176">
        <ele>55.599998474121</ele>
        <time>2016-02-29T20:44:36Z</time>
      </trkpt>
      <trkpt lat="48.84445" lon="2.41759">
        <ele>54.599998474121</ele>
        <time>2016-02-29T20:44:39Z</time>
      </trkpt>
      <trkpt lat="48.84427" lon="2.4176">
        <ele>53.79999923706</ele>
        <time>2016-02-29T20:44:42Z</time>
      </trkpt>
      <trkpt lat="48.84405" lon="2.41763">
        <ele>53.20000076294</ele>
        <time>2016-02-29T20:44:46Z</time>
      </trkpt>
      <trkpt lat="48.84386" lon="2.41763">
        <ele>52.400001525879</ele>
        <time>2016-02-29T20:44:51Z</time>
      </trkpt>
      <trkpt lat="48.84368" lon="2.41769">
        <ele>52</ele>
        <time>2016-02-29T20:44:59Z</time>
      </trkpt>
      <trkpt lat="48.84365" lon="2.41769">
        <ele>51.79999923706</ele>
        <time>2016-02-29T20:45:00Z</time>
      </trkpt>
      <trkpt lat="48.8436" lon="2.4177">
        <ele>51.599998474121</ele>
        <time>2016-02-29T20:45:02Z</time>
      </trkpt>
      <trkpt lat="48.84351" lon="2.4177">
        <ele>51.599998474121</ele>
        <time>2016-02-29T20:45:06Z</time>
      </trkpt>
      <trkpt lat="48.84344" lon="2.4177">
        <ele>51.599998474121</ele>
        <time>2016-02-29T20:45:08Z</time>
      </trkpt>
      <trkpt lat="48.84321" lon="2.41768">
        <ele>51.79999923706</ele>
        <time>2016-02-29T20:45:13Z</time>
      </trkpt>
      <trkpt lat="48.84315" lon="2.41766">
        <ele>52</ele>
        <time>2016-02-29T20:45:14Z</time>
      </trkpt>
      <trkpt lat="48.84292" lon="2.41766">
        <ele>52.20000076294</ele>
        <time>2016-02-29T20:45:18Z</time>
      </trkpt>
      <trkpt lat="48.84267" lon="2.41765">
        <ele>52</ele>
        <time>2016-02-29T20:45:21Z</time>
      </trkpt>
      <trkpt lat="48.84246" lon="2.41764">
        <ele>51.599998474121</ele>
        <time>2016-02-29T20:45:24Z</time>
      </trkpt>
      <trkpt lat="48.84223" lon="2.41764">
        <ele>51</ele>
        <time>2016-02-29T20:45:27Z</time>
      </trkpt>
      <trkpt lat="48.84204" lon="2.41766">
        <ele>50.599998474121</ele>
        <time>2016-02-29T20:45:30Z</time>
      </trkpt>
      <trkpt lat="48.84184" lon="2.41766">
        <ele>50.20000076294</ele>
        <time>2016-02-29T20:45:33Z</time>
      </trkpt>
      <trkpt lat="48.84163" lon="2.41767">
        <ele>51.20000076294</ele>
        <time>2016-02-29T20:45:36Z</time>
      </trkpt>
      <trkpt lat="48.84144" lon="2.41763">
        <ele>52.20000076294</ele>
        <time>2016-02-29T20:45:39Z</time>
      </trkpt>
      <trkpt lat="48.84124" lon="2.41761">
        <ele>53.20000076294</ele>
        <time>2016-02-29T20:45:42Z</time>
      </trkpt>
      <trkpt lat="48.84103" lon="2.4176">
        <ele>53.79999923706</ele>
        <time>2016-02-29T20:45:45Z</time>
      </trkpt>
      <trkpt lat="48.84084" lon="2.4176">
        <ele>53.79999923706</ele>
        <time>2016-02-29T20:45:48Z</time>
      </trkpt>
      <trkpt lat="48.84066" lon="2.4176">
        <ele>53.79999923706</ele>
        <time>2016-02-29T20:45:51Z</time>
      </trkpt>
      <trkpt lat="48.84042" lon="2.41756">
        <ele>54</ele>
        <time>2016-02-29T20:45:55Z</time>
      </trkpt>
      <trkpt lat="48.84023" lon="2.41755">
        <ele>54</ele>
        <time>2016-02-29T20:45:58Z</time>
      </trkpt>
      <trkpt lat="48.84001" lon="2.41755">
        <ele>54.400001525879</ele>
        <time>2016-02-29T20:46:02Z</time>
      </trkpt>
      <trkpt lat="48.83982" lon="2.41759">
        <ele>54.599998474121</ele>
        <time>2016-02-29T20:46:05Z</time>
      </trkpt>
      <trkpt lat="48.83963" lon="2.4176">
        <ele>54.79999923706</ele>
        <time>2016-02-29T20:46:08Z</time>
      </trkpt>
      <trkpt lat="48.83943" lon="2.41759">
        <ele>55</ele>
        <time>2016-02-29T20:46:12Z</time>
      </trkpt>
      <trkpt lat="48.8392" lon="2.41756">
        <ele>55.400001525879</ele>
        <time>2016-02-29T20:46:15Z</time>
      </trkpt>
      <trkpt lat="48.83901" lon="2.41753">
        <ele>56</ele>
        <time>2016-02-29T20:46:18Z</time>
      </trkpt>
      <trkpt lat="48.83884" lon="2.41752">
        <ele>56.400001525879</ele>
        <time>2016-02-29T20:46:21Z</time>
      </trkpt>
      <trkpt lat="48.83864" lon="2.4176">
        <ele>56.79999923706</ele>
        <time>2016-02-29T20:46:25Z</time>
      </trkpt>
      <trkpt lat="48.83858" lon="2.41762">
        <ele>57</ele>
        <time>2016-02-29T20:46:26Z</time>
      </trkpt>
      <trkpt lat="48.8384" lon="2.41767">
        <ele>56.79999923706</ele>
        <time>2016-02-29T20:46:29Z</time>
      </trkpt>
      <trkpt lat="48.83816" lon="2.41774">
        <ele>56.599998474121</ele>
        <time>2016-02-29T20:46:33Z</time>
      </trkpt>
      <trkpt lat="48.83802" lon="2.41778">
        <ele>56.400001525879</ele>
        <time>2016-02-29T20:46:36Z</time>
      </trkpt>
      <trkpt lat="48.83793" lon="2.41782">
        <ele>56.400001525879</ele>
        <time>2016-02-29T20:46:38Z</time>
      </trkpt>
      <trkpt lat="48.83779" lon="2.41788">
        <ele>56.400001525879</ele>
        <time>2016-02-29T20:46:41Z</time>
      </trkpt>
      <trkpt lat="48.83758" lon="2.41797">
        <ele>56.599998474121</ele>
        <time>2016-02-29T20:46:46Z</time>
      </trkpt>
      <trkpt lat="48.8375" lon="2.41801">
        <ele>56.599998474121</ele>
        <time>2016-02-29T20:46:48Z</time>
      </trkpt>
      <trkpt lat="48.83734" lon="2.41812">
        <ele>57</ele>
        <time>2016-02-29T20:46:54Z</time>
      </trkpt>
      <trkpt lat="48.83723" lon="2.41817">
        <ele>57.20000076294</ele>
        <time>2016-02-29T20:46:58Z</time>
      </trkpt>
      <trkpt lat="48.83697" lon="2.41833">
        <ele>58</ele>
        <time>2016-02-29T20:47:03Z</time>
      </trkpt>
      <trkpt lat="48.83676" lon="2.41846">
        <ele>57.79999923706</ele>
        <time>2016-02-29T20:47:07Z</time>
      </trkpt>
      <trkpt lat="48.83655" lon="2.41857">
        <ele>57.599998474121</ele>
        <time>2016-02-29T20:47:09Z</time>
      </trkpt>
      <trkpt lat="48.83636" lon="2.41873">
        <ele>57.400001525879</ele>
        <time>2016-02-29T20:47:12Z</time>
      </trkpt>
      <trkpt lat="48.8361" lon="2.41895">
        <ele>57</ele>
        <time>2016-02-29T20:47:17Z</time>
      </trkpt>
      <trkpt lat="48.83587" lon="2.41909">
        <ele>56.20000076294</ele>
        <time>2016-02-29T20:47:21Z</time>
      </trkpt>
      <trkpt lat="48.83568" lon="2.41918">
        <ele>55.599998474121</ele>
        <time>2016-02-29T20:47:23Z</time>
      </trkpt>
      <trkpt lat="48.8355" lon="2.41932">
        <ele>55</ele>
        <time>2016-02-29T20:47:26Z</time>
      </trkpt>
      <trkpt lat="48.83532" lon="2.41946">
        <ele>54.599998474121</ele>
        <time>2016-02-29T20:47:28Z</time>
      </trkpt>
      <trkpt lat="48.83513" lon="2.41958">
        <ele>54.599998474121</ele>
        <time>2016-02-29T20:47:33Z</time>
      </trkpt>
      <trkpt lat="48.83505" lon="2.41962">
        <ele>54.599998474121</ele>
        <time>2016-02-29T20:47:36Z</time>
      </trkpt>
      <trkpt lat="48.835" lon="2.41959">
        <ele>54.599998474121</ele>
        <time>2016-02-29T20:47:40Z</time>
      </trkpt>
      <trkpt lat="48.83513" lon="2.41955">
        <ele>54.400001525879</ele>
        <time>2016-02-29T20:48:08Z</time>
      </trkpt>
      <trkpt lat="48.83504" lon="2.41971">
        <ele>54.599998474121</ele>
        <time>2016-02-29T20:48:33Z</time>
      </trkpt>
      <trkpt lat="48.83489" lon="2.41987">
        <ele>54.79999923706</ele>
        <time>2016-02-29T20:48:42Z</time>
      </trkpt>
      <trkpt lat="48.83477" lon="2.41999">
        <ele>55</ele>
        <time>2016-02-29T20:48:46Z</time>
      </trkpt>
      <trkpt lat="48.83456" lon="2.42014">
        <ele>54.79999923706</ele>
        <time>2016-02-29T20:48:51Z</time>
      </trkpt>
      <trkpt lat="48.83442" lon="2.42024">
        <ele>54.20000076294</ele>
        <time>2016-02-29T20:48:54Z</time>
      </trkpt>
      <trkpt lat="48.83424" lon="2.42034">
        <ele>53.599998474121</ele>
        <time>2016-02-29T20:48:58Z</time>
      </trkpt>
      <trkpt lat="48.83405" lon="2.42039">
        <ele>53.20000076294</ele>
        <time>2016-02-29T20:49:02Z</time>
      </trkpt>
      <trkpt lat="48.83382" lon="2.4204">
        <ele>53.20000076294</ele>
        <time>2016-02-29T20:49:06Z</time>
      </trkpt>
      <trkpt lat="48.8336" lon="2.42039">
        <ele>53.400001525879</ele>
        <time>2016-02-29T20:49:10Z</time>
      </trkpt>
      <trkpt lat="48.83337" lon="2.42038">
        <ele>53</ele>
        <time>2016-02-29T20:49:14Z</time>
      </trkpt>
      <trkpt lat="48.83317" lon="2.42038">
        <ele>52.599998474121</ele>
        <time>2016-02-29T20:49:17Z</time>
      </trkpt>
      <trkpt lat="48.83297" lon="2.42036">
        <ele>52.20000076294</ele>
        <time>2016-02-29T20:49:20Z</time>
      </trkpt>
      <trkpt lat="48.83276" lon="2.42037">
        <ele>52</ele>
        <time>2016-02-29T20:49:23Z</time>
      </trkpt>
      <trkpt lat="48.83256" lon="2.42041">
        <ele>52.20000076294</ele>
        <time>2016-02-29T20:49:26Z</time>
      </trkpt>
      <trkpt lat="48.83235" lon="2.42043">
        <ele>52.400001525879</ele>
        <time>2016-02-29T20:49:28Z</time>
      </trkpt>
      <trkpt lat="48.83212" lon="2.42047">
        <ele>53.599998474121</ele>
        <time>2016-02-29T20:49:32Z</time>
      </trkpt>
      <trkpt lat="48.8319" lon="2.42051">
        <ele>54.79999923706</ele>
        <time>2016-02-29T20:49:35Z</time>
      </trkpt>
      <trkpt lat="48.83166" lon="2.42055">
        <ele>55</ele>
        <time>2016-02-29T20:49:38Z</time>
      </trkpt>
      <trkpt lat="48.83141" lon="2.42056">
        <ele>54.79999923706</ele>
        <time>2016-02-29T20:49:41Z</time>
      </trkpt>
      <trkpt lat="48.83116" lon="2.42057">
        <ele>54.599998474121</ele>
        <time>2016-02-29T20:49:44Z</time>
      </trkpt>
      <trkpt lat="48.83091" lon="2.42056">
        <ele>54.400001525879</ele>
        <time>2016-02-29T20:49:47Z</time>
      </trkpt>
      <trkpt lat="48.83065" lon="2.42053">
        <ele>54.20000076294</ele>
        <time>2016-02-29T20:49:50Z</time>
      </trkpt>
      <trkpt lat="48.83047" lon="2.4205">
        <ele>54</ele>
        <time>2016-02-29T20:49:52Z</time>
      </trkpt>
      <trkpt lat="48.83021" lon="2.42042">
        <ele>53.599998474121</ele>
        <time>2016-02-29T20:49:55Z</time>
      </trkpt>
      <trkpt lat="48.82996" lon="2.42034">
        <ele>53.400001525879</ele>
        <time>2016-02-29T20:49:58Z</time>
      </trkpt>
      <trkpt lat="48.82971" lon="2.42024">
        <ele>53.400001525879</ele>
        <time>2016-02-29T20:50:01Z</time>
      </trkpt>
      <trkpt lat="48.82948" lon="2.42011">
        <ele>53.20000076294</ele>
        <time>2016-02-29T20:50:04Z</time>
      </trkpt>
      <trkpt lat="48.82926" lon="2.41997">
        <ele>53.20000076294</ele>
        <time>2016-02-29T20:50:07Z</time>
      </trkpt>
      <trkpt lat="48.82906" lon="2.41983">
        <ele>53</ele>
        <time>2016-02-29T20:50:10Z</time>
      </trkpt>
      <trkpt lat="48.82888" lon="2.41971">
        <ele>53</ele>
        <time>2016-02-29T20:50:13Z</time>
      </trkpt>
      <trkpt lat="48.82872" lon="2.41956">
        <ele>52.79999923706</ele>
        <time>2016-02-29T20:50:17Z</time>
      </trkpt>
      <trkpt lat="48.82868" lon="2.41929">
        <ele>52.20000076294</ele>
        <time>2016-02-29T20:50:23Z</time>
      </trkpt>
      <trkpt lat="48.82872" lon="2.41923">
        <ele>52</ele>
        <time>2016-02-29T20:50:27Z</time>
      </trkpt>
      <trkpt lat="48.82872" lon="2.41922">
        <ele>52</ele>
        <time>2016-02-29T20:50:28Z</time>
      </trkpt>
      <trkpt lat="48.8287" lon="2.41921">
        <ele>52</ele>
        <time>2016-02-29T20:50:50Z</time>
      </trkpt>
      <trkpt lat="48.82857" lon="2.4192">
        <ele>52</ele>
        <time>2016-02-29T20:50:55Z</time>
      </trkpt>
      <trkpt lat="48.82838" lon="2.41921">
        <ele>52.400001525879</ele>
        <time>2016-02-29T20:51:02Z</time>
      </trkpt>
      <trkpt lat="48.82816" lon="2.41924">
        <ele>52.599998474121</ele>
        <time>2016-02-29T20:51:08Z</time>
      </trkpt>
      <trkpt lat="48.82793" lon="2.41926">
        <ele>53</ele>
        <time>2016-02-29T20:51:13Z</time>
      </trkpt>
      <trkpt lat="48.82772" lon="2.41928">
        <ele>53.400001525879</ele>
        <time>2016-02-29T20:51:17Z</time>
      </trkpt>
      <trkpt lat="48.8275" lon="2.41932">
        <ele>52.599998474121</ele>
        <time>2016-02-29T20:51:21Z</time>
      </trkpt>
      <trkpt lat="48.82726" lon="2.41941">
        <ele>52</ele>
        <time>2016-02-29T20:51:25Z</time>
      </trkpt>
      <trkpt lat="48.82708" lon="2.41948">
        <ele>51.400001525879</ele>
        <time>2016-02-29T20:51:28Z</time>
      </trkpt>
      <trkpt lat="48.82688" lon="2.41957">
        <ele>51</ele>
        <time>2016-02-29T20:51:31Z</time>
      </trkpt>
      <trkpt lat="48.82668" lon="2.41965">
        <ele>51.599998474121</ele>
        <time>2016-02-29T20:51:34Z</time>
      </trkpt>
      <trkpt lat="48.82646" lon="2.4197">
        <ele>52.20000076294</ele>
        <time>2016-02-29T20:51:37Z</time>
      </trkpt>
      <trkpt lat="48.82625" lon="2.41975">
        <ele>52.400001525879</ele>
        <time>2016-02-29T20:51:40Z</time>
      </trkpt>
      <trkpt lat="48.82602" lon="2.41981">
        <ele>53</ele>
        <time>2016-02-29T20:51:43Z</time>
      </trkpt>
      <trkpt lat="48.82578" lon="2.41983">
        <ele>53.599998474121</ele>
        <time>2016-02-29T20:51:46Z</time>
      </trkpt>
      <trkpt lat="48.82553" lon="2.41986">
        <ele>53.79999923706</ele>
        <time>2016-02-29T20:51:49Z</time>
      </trkpt>
      <trkpt lat="48.8253" lon="2.4199">
        <ele>54</ele>
        <time>2016-02-29T20:51:52Z</time>
      </trkpt>
      <trkpt lat="48.82509" lon="2.41991">
        <ele>54.400001525879</ele>
        <time>2016-02-29T20:51:55Z</time>
      </trkpt>
      <trkpt lat="48.82488" lon="2.41992">
        <ele>54.79999923706</ele>
        <time>2016-02-29T20:51:58Z</time>
      </trkpt>
      <trkpt lat="48.82467" lon="2.41992">
        <ele>55.400001525879</ele>
        <time>2016-02-29T20:52:01Z</time>
      </trkpt>
      <trkpt lat="48.82449" lon="2.41991">
        <ele>55.79999923706</ele>
        <time>2016-02-29T20:52:04Z</time>
      </trkpt>
      <trkpt lat="48.82427" lon="2.41987">
        <ele>56.400001525879</ele>
        <time>2016-02-29T20:52:08Z</time>
      </trkpt>
      <trkpt lat="48.82422" lon="2.41986">
        <ele>56.400001525879</ele>
        <time>2016-02-29T20:52:09Z</time>
      </trkpt>
      <trkpt lat="48.82409" lon="2.41979">
        <ele>56.79999923706</ele>
        <time>2016-02-29T20:52:14Z</time>
      </trkpt>
      <trkpt lat="48.82399" lon="2.41985">
        <ele>57.20000076294</ele>
        <time>2016-02-29T20:52:40Z</time>
      </trkpt>
      <trkpt lat="48.82378" lon="2.41987">
        <ele>58</ele>
        <time>2016-02-29T20:52:45Z</time>
      </trkpt>
      <trkpt lat="48.82357" lon="2.41987">
        <ele>58.79999923706</ele>
        <time>2016-02-29T20:52:49Z</time>
      </trkpt>
      <trkpt lat="48.82333" lon="2.41987">
        <ele>58.599998474121</ele>
        <time>2016-02-29T20:52:53Z</time>
      </trkpt>
      <trkpt lat="48.82311" lon="2.41986">
        <ele>58.400001525879</ele>
        <time>2016-02-29T20:52:57Z</time>
      </trkpt>
      <trkpt lat="48.82288" lon="2.41983">
        <ele>58</ele>
        <time>2016-02-29T20:53:01Z</time>
      </trkpt>
      <trkpt lat="48.82268" lon="2.41979">
        <ele>57.79999923706</ele>
        <time>2016-02-29T20:53:05Z</time>
      </trkpt>
      <trkpt lat="48.82257" lon="2.41978">
        <ele>57.599998474121</ele>
        <time>2016-02-29T20:53:07Z</time>
      </trkpt>
      <trkpt lat="48.82236" lon="2.41977">
        <ele>57.20000076294</ele>
        <time>2016-02-29T20:53:11Z</time>
      </trkpt>
      <trkpt lat="48.82215" lon="2.41972">
        <ele>56.599998474121</ele>
        <time>2016-02-29T20:53:15Z</time>
      </trkpt>
      <trkpt lat="48.82189" lon="2.41968">
        <ele>56</ele>
        <time>2016-02-29T20:53:19Z</time>
      </trkpt>
      <trkpt lat="48.8217" lon="2.41969">
        <ele>56</ele>
        <time>2016-02-29T20:53:24Z</time>
      </trkpt>
      <trkpt lat="48.82147" lon="2.41968">
        <ele>55.79999923706</ele>
        <time>2016-02-29T20:53:28Z</time>
      </trkpt>
      <trkpt lat="48.82126" lon="2.41962">
        <ele>55.599998474121</ele>
        <time>2016-02-29T20:53:32Z</time>
      </trkpt>
      <trkpt lat="48.82107" lon="2.41957">
        <ele>55.599998474121</ele>
        <time>2016-02-29T20:53:38Z</time>
      </trkpt>
      <trkpt lat="48.82101" lon="2.41957">
        <ele>55.400001525879</ele>
        <time>2016-02-29T20:53:40Z</time>
      </trkpt>
      <trkpt lat="48.82079" lon="2.41957">
        <ele>55.400001525879</ele>
        <time>2016-02-29T20:53:47Z</time>
      </trkpt>
      <trkpt lat="48.82072" lon="2.41956">
        <ele>55.599998474121</ele>
        <time>2016-02-29T20:53:50Z</time>
      </trkpt>
      <trkpt lat="48.82053" lon="2.41959">
        <ele>55.400001525879</ele>
        <time>2016-02-29T20:53:56Z</time>
      </trkpt>
      <trkpt lat="48.82031" lon="2.41954">
        <ele>55.599998474121</ele>
        <time>2016-02-29T20:54:00Z</time>
      </trkpt>
      <trkpt lat="48.82014" lon="2.41946">
        <ele>55.20000076294</ele>
        <time>2016-02-29T20:54:04Z</time>
      </trkpt>
      <trkpt lat="48.82004" lon="2.41923">
        <ele>55</ele>
        <time>2016-02-29T20:54:08Z</time>
      </trkpt>
      <trkpt lat="48.82004" lon="2.41895">
        <ele>55.599998474121</ele>
        <time>2016-02-29T20:54:12Z</time>
      </trkpt>
      <trkpt lat="48.82005" lon="2.41862">
        <ele>55.20000076294</ele>
        <time>2016-02-29T20:54:16Z</time>
      </trkpt>
      <trkpt lat="48.82004" lon="2.41848">
        <ele>55</ele>
        <time>2016-02-29T20:54:18Z</time>
      </trkpt>
      <trkpt lat="48.82002" lon="2.4182">
        <ele>54.79999923706</ele>
        <time>2016-02-29T20:54:22Z</time>
      </trkpt>
      <trkpt lat="48.81995" lon="2.4179">
        <ele>55</ele>
        <time>2016-02-29T20:54:26Z</time>
      </trkpt>
      <trkpt lat="48.81984" lon="2.4177">
        <ele>55.20000076294</ele>
        <time>2016-02-29T20:54:30Z</time>
      </trkpt>
      <trkpt lat="48.81974" lon="2.41746">
        <ele>55.20000076294</ele>
        <time>2016-02-29T20:54:36Z</time>
      </trkpt>
      <trkpt lat="48.81966" lon="2.41717">
        <ele>54.599998474121</ele>
        <time>2016-02-29T20:54:41Z</time>
      </trkpt>
      <trkpt lat="48.81956" lon="2.41691">
        <ele>54</ele>
        <time>2016-02-29T20:54:44Z</time>
      </trkpt>
      <trkpt lat="48.8195" lon="2.4166">
        <ele>53.20000076294</ele>
        <time>2016-02-29T20:54:49Z</time>
      </trkpt>
      <trkpt lat="48.81943" lon="2.41641">
        <ele>52.599998474121</ele>
        <time>2016-02-29T20:54:53Z</time>
      </trkpt>
      <trkpt lat="48.81937" lon="2.41628">
        <ele>52</ele>
        <time>2016-02-29T20:54:57Z</time>
      </trkpt>
      <trkpt lat="48.81933" lon="2.41632">
        <ele>51.599998474121</ele>
        <time>2016-02-29T20:55:05Z</time>
      </trkpt>
      <trkpt lat="48.81936" lon="2.41616">
        <ele>51.599998474121</ele>
        <time>2016-02-29T20:55:45Z</time>
      </trkpt>
      <trkpt lat="48.81928" lon="2.41603">
        <ele>50.400001525879</ele>
        <time>2016-02-29T20:55:59Z</time>
      </trkpt>
      <trkpt lat="48.8193" lon="2.41588">
        <ele>50.20000076294</ele>
        <time>2016-02-29T20:56:35Z</time>
      </trkpt>
      <trkpt lat="48.81926" lon="2.41559">
        <ele>48.79999923706</ele>
        <time>2016-02-29T20:56:44Z</time>
      </trkpt>
      <trkpt lat="48.81925" lon="2.41535">
        <ele>48</ele>
        <time>2016-02-29T20:56:52Z</time>
      </trkpt>
      <trkpt lat="48.81915" lon="2.41528">
        <ele>46.599998474121</ele>
        <time>2016-02-29T20:57:04Z</time>
      </trkpt>
      <trkpt lat="48.81911" lon="2.41526">
        <ele>46</ele>
        <time>2016-02-29T20:57:08Z</time>
      </trkpt>
      <trkpt lat="48.81908" lon="2.41527">
        <ele>45.599998474121</ele>
        <time>2016-02-29T20:57:13Z</time>
      </trkpt>
      <trkpt lat="48.81904" lon="2.41528">
        <ele>45</ele>
        <time>2016-02-29T20:57:21Z</time>
      </trkpt>
      <trkpt lat="48.81899" lon="2.41518">
        <ele>44.20000076294</ele>
        <time>2016-02-29T20:58:06Z</time>
      </trkpt>
      <trkpt lat="48.8189" lon="2.41524">
        <ele>43.20000076294</ele>
        <time>2016-02-29T20:58:22Z</time>
      </trkpt>
      <trkpt lat="48.81878" lon="2.41532">
        <ele>42</ele>
        <time>2016-02-29T20:59:49Z</time>
      </trkpt>
      <trkpt lat="48.81878" lon="2.4153">
        <ele>42</ele>
        <time>2016-02-29T21:00:44Z</time>
      </trkpt>
      <trkpt lat="48.81879" lon="2.41519">
        <ele>41.599998474121</ele>
        <time>2016-02-29T21:01:50Z</time>
      </trkpt>
      <trkpt lat="48.81869" lon="2.41506">
        <ele>40</ele>
        <time>2016-02-29T21:02:29Z</time>
      </trkpt>
      <trkpt lat="48.81869" lon="2.41513">
        <ele>40.20000076294</ele>
        <time>2016-02-29T21:03:07Z</time>
      </trkpt>
      <trkpt lat="48.81848" lon="2.41517">
        <ele>38.599998474121</ele>
        <time>2016-02-29T21:03:16Z</time>
      </trkpt>
      <trkpt lat="48.81833" lon="2.41518">
        <ele>38.400001525879</ele>
        <time>2016-02-29T21:03:22Z</time>
      </trkpt>
      <trkpt lat="48.81828" lon="2.41526">
        <ele>38.599998474121</ele>
        <time>2016-02-29T21:03:28Z</time>
      </trkpt>
      <trkpt lat="48.81827" lon="2.41527">
        <ele>38.599998474121</ele>
        <time>2016-02-29T21:03:30Z</time>
      </trkpt>
      <trkpt lat="48.81832" lon="2.41514">
        <ele>38.20000076294</ele>
        <time>2016-02-29T21:03:42Z</time>
      </trkpt>
      <trkpt lat="48.81831" lon="2.41516">
        <ele>38.20000076294</ele>
        <time>2016-02-29T21:04:51Z</time>
      </trkpt>
      <trkpt lat="48.81815" lon="2.41525">
        <ele>38.400001525879</ele>
        <time>2016-02-29T21:05:14Z</time>
      </trkpt>
      <trkpt lat="48.81803" lon="2.41518">
        <ele>37.599998474121</ele>
        <time>2016-02-29T21:05:25Z</time>
      </trkpt>
      <trkpt lat="48.81799" lon="2.41502">
        <ele>36.79999923706</ele>
        <time>2016-02-29T21:05:29Z</time>
      </trkpt>
      <trkpt lat="48.81797" lon="2.41457">
        <ele>35.599998474121</ele>
        <time>2016-02-29T21:05:37Z</time>
      </trkpt>
      <trkpt lat="48.81797" lon="2.41429">
        <ele>35.20000076294</ele>
        <time>2016-02-29T21:05:42Z</time>
      </trkpt>
      <trkpt lat="48.81804" lon="2.414">
        <ele>35.400001525879</ele>
        <time>2016-02-29T21:05:50Z</time>
      </trkpt>
      <trkpt lat="48.81806" lon="2.41373">
        <ele>35.20000076294</ele>
        <time>2016-02-29T21:05:54Z</time>
      </trkpt>
      <trkpt lat="48.81808" lon="2.41353">
        <ele>34.79999923706</ele>
        <time>2016-02-29T21:05:57Z</time>
      </trkpt>
      <trkpt lat="48.81813" lon="2.41319">
        <ele>34.400001525879</ele>
        <time>2016-02-29T21:06:01Z</time>
      </trkpt>
      <trkpt lat="48.81817" lon="2.41285">
        <ele>34</ele>
        <time>2016-02-29T21:06:07Z</time>
      </trkpt>
      <trkpt lat="48.8182" lon="2.41252">
        <ele>33.79999923706</ele>
        <time>2016-02-29T21:06:12Z</time>
      </trkpt>
      <trkpt lat="48.81824" lon="2.4122">
        <ele>35.599998474121</ele>
        <time>2016-02-29T21:06:16Z</time>
      </trkpt>
      <trkpt lat="48.81827" lon="2.4119">
        <ele>35.599998474121</ele>
        <time>2016-02-29T21:06:20Z</time>
      </trkpt>
      <trkpt lat="48.81828" lon="2.41178">
        <ele>35.599998474121</ele>
        <time>2016-02-29T21:06:22Z</time>
      </trkpt>
      <trkpt lat="48.8183" lon="2.41162">
        <ele>35.599998474121</ele>
        <time>2016-02-29T21:06:25Z</time>
      </trkpt>
      <trkpt lat="48.8183" lon="2.41156">
        <ele>35.20000076294</ele>
        <time>2016-02-29T21:06:27Z</time>
      </trkpt>
      <trkpt lat="48.81824" lon="2.4117">
        <ele>35.79999923706</ele>
        <time>2016-02-29T21:06:36Z</time>
      </trkpt>
      <trkpt lat="48.8182" lon="2.41199">
        <ele>35.79999923706</ele>
        <time>2016-02-29T21:06:42Z</time>
      </trkpt>
      <trkpt lat="48.81814" lon="2.41228">
        <ele>34.79999923706</ele>
        <time>2016-02-29T21:06:48Z</time>
      </trkpt>
      <trkpt lat="48.81803" lon="2.41241">
        <ele>33.599998474121</ele>
        <time>2016-02-29T21:06:56Z</time>
      </trkpt>
      <trkpt lat="48.81785" lon="2.41237">
        <ele>33.20000076294</ele>
        <time>2016-02-29T21:07:19Z</time>
      </trkpt>
      <trkpt lat="48.81769" lon="2.41224">
        <ele>33.20000076294</ele>
        <time>2016-02-29T21:07:27Z</time>
      </trkpt>
      <trkpt lat="48.81768" lon="2.41195">
        <ele>35</ele>
        <time>2016-02-29T21:07:34Z</time>
      </trkpt>
      <trkpt lat="48.81773" lon="2.41169">
        <ele>36.79999923706</ele>
        <time>2016-02-29T21:07:39Z</time>
      </trkpt>
      <trkpt lat="48.81781" lon="2.41137">
        <ele>35.79999923706</ele>
        <time>2016-02-29T21:07:44Z</time>
      </trkpt>
      <trkpt lat="48.81787" lon="2.4111">
        <ele>34.599998474121</ele>
        <time>2016-02-29T21:07:48Z</time>
      </trkpt>
      <trkpt lat="48.81792" lon="2.41084">
        <ele>34.20000076294</ele>
        <time>2016-02-29T21:07:52Z</time>
      </trkpt>
      <trkpt lat="48.81798" lon="2.41056">
        <ele>33</ele>
        <time>2016-02-29T21:07:56Z</time>
      </trkpt>
      <trkpt lat="48.81805" lon="2.41026">
        <ele>32</ele>
        <time>2016-02-29T21:08:00Z</time>
      </trkpt>
      <trkpt lat="48.81811" lon="2.40997">
        <ele>32.79999923706</ele>
        <time>2016-02-29T21:08:04Z</time>
      </trkpt>
      <trkpt lat="48.81817" lon="2.40976">
        <ele>32.400001525879</ele>
        <time>2016-02-29T21:08:07Z</time>
      </trkpt>
      <trkpt lat="48.81823" lon="2.40948">
        <ele>32</ele>
        <time>2016-02-29T21:08:11Z</time>
      </trkpt>
      <trkpt lat="48.81828" lon="2.40923">
        <ele>31.39999961853</ele>
        <time>2016-02-29T21:08:15Z</time>
      </trkpt>
      <trkpt lat="48.81834" lon="2.40893">
        <ele>32.20000076294</ele>
        <time>2016-02-29T21:08:20Z</time>
      </trkpt>
      <trkpt lat="48.81836" lon="2.40888">
        <ele>32.20000076294</ele>
        <time>2016-02-29T21:08:21Z</time>
      </trkpt>
      <trkpt lat="48.8184" lon="2.40861">
        <ele>31.60000038147</ele>
        <time>2016-02-29T21:08:26Z</time>
      </trkpt>
      <trkpt lat="48.81848" lon="2.40836">
        <ele>31</ele>
        <time>2016-02-29T21:08:31Z</time>
      </trkpt>
      <trkpt lat="48.81849" lon="2.40827">
        <ele>31</ele>
        <time>2016-02-29T21:08:33Z</time>
      </trkpt>
      <trkpt lat="48.81849" lon="2.40823">
        <ele>31</ele>
        <time>2016-02-29T21:08:34Z</time>
      </trkpt>
      <trkpt lat="48.81854" lon="2.40792">
        <ele>32.400001525879</ele>
        <time>2016-02-29T21:08:40Z</time>
      </trkpt>
      <trkpt lat="48.81859" lon="2.40761">
        <ele>34</ele>
        <time>2016-02-29T21:08:45Z</time>
      </trkpt>
      <trkpt lat="48.81865" lon="2.4073">
        <ele>33.79999923706</ele>
        <time>2016-02-29T21:08:50Z</time>
      </trkpt>
      <trkpt lat="48.81874" lon="2.40705">
        <ele>33.20000076294</ele>
        <time>2016-02-29T21:08:54Z</time>
      </trkpt>
      <trkpt lat="48.81882" lon="2.4068">
        <ele>32.400001525879</ele>
        <time>2016-02-29T21:08:58Z</time>
      </trkpt>
      <trkpt lat="48.8189" lon="2.4065">
        <ele>31.60000038147</ele>
        <time>2016-02-29T21:09:03Z</time>
      </trkpt>
      <trkpt lat="48.81897" lon="2.40621">
        <ele>31.799999237061</ele>
        <time>2016-02-29T21:09:08Z</time>
      </trkpt>
      <trkpt lat="48.81898" lon="2.40615">
        <ele>31.39999961853</ele>
        <time>2016-02-29T21:09:09Z</time>
      </trkpt>
      <trkpt lat="48.81906" lon="2.40587">
        <ele>29.799999237061</ele>
        <time>2016-02-29T21:09:14Z</time>
      </trkpt>
      <trkpt lat="48.81915" lon="2.40561">
        <ele>29.200000762939</ele>
        <time>2016-02-29T21:09:19Z</time>
      </trkpt>
      <trkpt lat="48.81923" lon="2.40533">
        <ele>29.200000762939</ele>
        <time>2016-02-29T21:09:24Z</time>
      </trkpt>
      <trkpt lat="48.81925" lon="2.40524">
        <ele>29.200000762939</ele>
        <time>2016-02-29T21:09:26Z</time>
      </trkpt>
      <trkpt lat="48.81927" lon="2.40514">
        <ele>29.200000762939</ele>
        <time>2016-02-29T21:09:28Z</time>
      </trkpt>
      <trkpt lat="48.81933" lon="2.40487">
        <ele>29.39999961853</ele>
        <time>2016-02-29T21:09:34Z</time>
      </trkpt>
      <trkpt lat="48.8194" lon="2.40459">
        <ele>30.200000762939</ele>
        <time>2016-02-29T21:09:40Z</time>
      </trkpt>
      <trkpt lat="48.81941" lon="2.40436">
        <ele>30.799999237061</ele>
        <time>2016-02-29T21:09:46Z</time>
      </trkpt>
      <trkpt lat="48.81947" lon="2.40406">
        <ele>32.20000076294</ele>
        <time>2016-02-29T21:09:53Z</time>
      </trkpt>
      <trkpt lat="48.81954" lon="2.40381">
        <ele>34.20000076294</ele>
        <time>2016-02-29T21:09:58Z</time>
      </trkpt>
      <trkpt lat="48.81961" lon="2.40355">
        <ele>36.20000076294</ele>
        <time>2016-02-29T21:10:02Z</time>
      </trkpt>
      <trkpt lat="48.81967" lon="2.40329">
        <ele>35.599998474121</ele>
        <time>2016-02-29T21:10:06Z</time>
      </trkpt>
      <trkpt lat="48.81976" lon="2.40302">
        <ele>34.79999923706</ele>
        <time>2016-02-29T21:10:10Z</time>
      </trkpt>
      <trkpt lat="48.81984" lon="2.40276">
        <ele>34.20000076294</ele>
        <time>2016-02-29T21:10:14Z</time>
      </trkpt>
      <trkpt lat="48.81992" lon="2.40248">
        <ele>33.400001525879</ele>
        <time>2016-02-29T21:10:18Z</time>
      </trkpt>
      <trkpt lat="48.81999" lon="2.40221">
        <ele>32.20000076294</ele>
        <time>2016-02-29T21:10:22Z</time>
      </trkpt>
      <trkpt lat="48.82007" lon="2.40195">
        <ele>32.400001525879</ele>
        <time>2016-02-29T21:10:26Z</time>
      </trkpt>
      <trkpt lat="48.82015" lon="2.40168">
        <ele>32.79999923706</ele>
        <time>2016-02-29T21:10:30Z</time>
      </trkpt>
      <trkpt lat="48.82024" lon="2.40139">
        <ele>32.79999923706</ele>
        <time>2016-02-29T21:10:35Z</time>
      </trkpt>
      <trkpt lat="48.82034" lon="2.40113">
        <ele>32.79999923706</ele>
        <time>2016-02-29T21:10:40Z</time>
      </trkpt>
      <trkpt lat="48.82047" lon="2.40088">
        <ele>32.20000076294</ele>
        <time>2016-02-29T21:10:46Z</time>
      </trkpt>
      <trkpt lat="48.82057" lon="2.40064">
        <ele>31.60000038147</ele>
        <time>2016-02-29T21:10:51Z</time>
      </trkpt>
      <trkpt lat="48.82062" lon="2.40048">
        <ele>31.200000762939</ele>
        <time>2016-02-29T21:10:54Z</time>
      </trkpt>
      <trkpt lat="48.8207" lon="2.40022">
        <ele>30.200000762939</ele>
        <time>2016-02-29T21:10:59Z</time>
      </trkpt>
      <trkpt lat="48.82077" lon="2.40001">
        <ele>29.39999961853</ele>
        <time>2016-02-29T21:11:03Z</time>
      </trkpt>
      <trkpt lat="48.82087" lon="2.3997">
        <ele>27.60000038147</ele>
        <time>2016-02-29T21:11:08Z</time>
      </trkpt>
      <trkpt lat="48.82097" lon="2.39946">
        <ele>27.39999961853</ele>
        <time>2016-02-29T21:11:12Z</time>
      </trkpt>
      <trkpt lat="48.82108" lon="2.39918">
        <ele>27.200000762939</ele>
        <time>2016-02-29T21:11:17Z</time>
      </trkpt>
      <trkpt lat="48.82116" lon="2.3989">
        <ele>26</ele>
        <time>2016-02-29T21:11:22Z</time>
      </trkpt>
      <trkpt lat="48.82124" lon="2.39864">
        <ele>25</ele>
        <time>2016-02-29T21:11:26Z</time>
      </trkpt>
      <trkpt lat="48.82135" lon="2.39839">
        <ele>24.39999961853</ele>
        <time>2016-02-29T21:11:30Z</time>
      </trkpt>
      <trkpt lat="48.82145" lon="2.39814">
        <ele>25</ele>
        <time>2016-02-29T21:11:34Z</time>
      </trkpt>
      <trkpt lat="48.82156" lon="2.3979">
        <ele>26</ele>
        <time>2016-02-29T21:11:38Z</time>
      </trkpt>
      <trkpt lat="48.82168" lon="2.39768">
        <ele>26</ele>
        <time>2016-02-29T21:11:42Z</time>
      </trkpt>
      <trkpt lat="48.8218" lon="2.39747">
        <ele>26</ele>
        <time>2016-02-29T21:11:46Z</time>
      </trkpt>
      <trkpt lat="48.82194" lon="2.39722">
        <ele>26.60000038147</ele>
        <time>2016-02-29T21:11:51Z</time>
      </trkpt>
      <trkpt lat="48.82209" lon="2.39697">
        <ele>27.60000038147</ele>
        <time>2016-02-29T21:11:56Z</time>
      </trkpt>
      <trkpt lat="48.82221" lon="2.39678">
        <ele>27.60000038147</ele>
        <time>2016-02-29T21:12:00Z</time>
      </trkpt>
      <trkpt lat="48.82236" lon="2.39653">
        <ele>27.799999237061</ele>
        <time>2016-02-29T21:12:05Z</time>
      </trkpt>
      <trkpt lat="48.82247" lon="2.39632">
        <ele>28</ele>
        <time>2016-02-29T21:12:09Z</time>
      </trkpt>
      <trkpt lat="48.82261" lon="2.3961">
        <ele>27.39999961853</ele>
        <time>2016-02-29T21:12:13Z</time>
      </trkpt>
      <trkpt lat="48.82274" lon="2.39589">
        <ele>27.200000762939</ele>
        <time>2016-02-29T21:12:17Z</time>
      </trkpt>
      <trkpt lat="48.82288" lon="2.39568">
        <ele>28.39999961853</ele>
        <time>2016-02-29T21:12:21Z</time>
      </trkpt>
      <trkpt lat="48.823" lon="2.39548">
        <ele>29.60000038147</ele>
        <time>2016-02-29T21:12:25Z</time>
      </trkpt>
      <trkpt lat="48.82313" lon="2.39527">
        <ele>30.39999961853</ele>
        <time>2016-02-29T21:12:29Z</time>
      </trkpt>
      <trkpt lat="48.82328" lon="2.39507">
        <ele>30.200000762939</ele>
        <time>2016-02-29T21:12:33Z</time>
      </trkpt>
      <trkpt lat="48.82342" lon="2.39487">
        <ele>30.799999237061</ele>
        <time>2016-02-29T21:12:37Z</time>
      </trkpt>
      <trkpt lat="48.82357" lon="2.39466">
        <ele>30.60000038147</ele>
        <time>2016-02-29T21:12:41Z</time>
      </trkpt>
      <trkpt lat="48.82365" lon="2.39455">
        <ele>31.799999237061</ele>
        <time>2016-02-29T21:12:43Z</time>
      </trkpt>
      <trkpt lat="48.8238" lon="2.39432">
        <ele>33.20000076294</ele>
        <time>2016-02-29T21:12:47Z</time>
      </trkpt>
      <trkpt lat="48.82396" lon="2.39407">
        <ele>32.599998474121</ele>
        <time>2016-02-29T21:12:51Z</time>
      </trkpt>
      <trkpt lat="48.824" lon="2.39401">
        <ele>33</ele>
        <time>2016-02-29T21:12:52Z</time>
      </trkpt>
      <trkpt lat="48.82416" lon="2.39378">
        <ele>33.20000076294</ele>
        <time>2016-02-29T21:12:56Z</time>
      </trkpt>
      <trkpt lat="48.8243" lon="2.39357">
        <ele>31.200000762939</ele>
        <time>2016-02-29T21:13:00Z</time>
      </trkpt>
      <trkpt lat="48.82444" lon="2.39338">
        <ele>29.799999237061</ele>
        <time>2016-02-29T21:13:04Z</time>
      </trkpt>
      <trkpt lat="48.8246" lon="2.39315">
        <ele>30.200000762939</ele>
        <time>2016-02-29T21:13:09Z</time>
      </trkpt>
      <trkpt lat="48.82476" lon="2.39293">
        <ele>30.799999237061</ele>
        <time>2016-02-29T21:13:14Z</time>
      </trkpt>
      <trkpt lat="48.8249" lon="2.39268">
        <ele>28.39999961853</ele>
        <time>2016-02-29T21:13:19Z</time>
      </trkpt>
      <trkpt lat="48.82493" lon="2.39262">
        <ele>27.60000038147</ele>
        <time>2016-02-29T21:13:20Z</time>
      </trkpt>
      <trkpt lat="48.82505" lon="2.39241">
        <ele>26</ele>
        <time>2016-02-29T21:13:24Z</time>
      </trkpt>
      <trkpt lat="48.82516" lon="2.39226">
        <ele>25.60000038147</ele>
        <time>2016-02-29T21:13:27Z</time>
      </trkpt>
      <trkpt lat="48.82529" lon="2.39206">
        <ele>25.39999961853</ele>
        <time>2016-02-29T21:13:31Z</time>
      </trkpt>
      <trkpt lat="48.82544" lon="2.39183">
        <ele>25.39999961853</ele>
        <time>2016-02-29T21:13:36Z</time>
      </trkpt>
      <trkpt lat="48.82558" lon="2.39164">
        <ele>24.39999961853</ele>
        <time>2016-02-29T21:13:41Z</time>
      </trkpt>
      <trkpt lat="48.82564" lon="2.39155">
        <ele>24.799999237061</ele>
        <time>2016-02-29T21:13:44Z</time>
      </trkpt>
      <trkpt lat="48.8257" lon="2.39146">
        <ele>25.200000762939</ele>
        <time>2016-02-29T21:13:48Z</time>
      </trkpt>
      <trkpt lat="48.82584" lon="2.39122">
        <ele>26.60000038147</ele>
        <time>2016-02-29T21:13:56Z</time>
      </trkpt>
      <trkpt lat="48.82586" lon="2.39119">
        <ele>26.799999237061</ele>
        <time>2016-02-29T21:13:57Z</time>
      </trkpt>
      <trkpt lat="48.82602" lon="2.391">
        <ele>28</ele>
        <time>2016-02-29T21:14:04Z</time>
      </trkpt>
      <trkpt lat="48.82609" lon="2.39091">
        <ele>28.799999237061</ele>
        <time>2016-02-29T21:14:07Z</time>
      </trkpt>
      <trkpt lat="48.82623" lon="2.39072">
        <ele>28.39999961853</ele>
        <time>2016-02-29T21:14:14Z</time>
      </trkpt>
      <trkpt lat="48.82638" lon="2.39052">
        <ele>26.200000762939</ele>
        <time>2016-02-29T21:14:21Z</time>
      </trkpt>
      <trkpt lat="48.82653" lon="2.3903">
        <ele>26</ele>
        <time>2016-02-29T21:14:28Z</time>
      </trkpt>
      <trkpt lat="48.82668" lon="2.3901">
        <ele>28.60000038147</ele>
        <time>2016-02-29T21:14:33Z</time>
      </trkpt>
      <trkpt lat="48.82683" lon="2.3899">
        <ele>31.39999961853</ele>
        <time>2016-02-29T21:14:38Z</time>
      </trkpt>
      <trkpt lat="48.827" lon="2.38975">
        <ele>31</ele>
        <time>2016-02-29T21:14:42Z</time>
      </trkpt>
      <trkpt lat="48.82716" lon="2.38955">
        <ele>29.799999237061</ele>
        <time>2016-02-29T21:14:47Z</time>
      </trkpt>
      <trkpt lat="48.82731" lon="2.38935">
        <ele>29.200000762939</ele>
        <time>2016-02-29T21:14:52Z</time>
      </trkpt>
      <trkpt lat="48.82745" lon="2.38912">
        <ele>28.799999237061</ele>
        <time>2016-02-29T21:14:58Z</time>
      </trkpt>
      <trkpt lat="48.8276" lon="2.38892">
        <ele>28.60000038147</ele>
        <time>2016-02-29T21:15:05Z</time>
      </trkpt>
      <trkpt lat="48.82775" lon="2.38873">
        <ele>31.200000762939</ele>
        <time>2016-02-29T21:15:11Z</time>
      </trkpt>
      <trkpt lat="48.82792" lon="2.38853">
        <ele>33</ele>
        <time>2016-02-29T21:15:16Z</time>
      </trkpt>
      <trkpt lat="48.82805" lon="2.38829">
        <ele>32.20000076294</ele>
        <time>2016-02-29T21:15:21Z</time>
      </trkpt>
      <trkpt lat="48.82819" lon="2.38806">
        <ele>30.60000038147</ele>
        <time>2016-02-29T21:15:26Z</time>
      </trkpt>
      <trkpt lat="48.82837" lon="2.38786">
        <ele>29.60000038147</ele>
        <time>2016-02-29T21:15:30Z</time>
      </trkpt>
      <trkpt lat="48.82855" lon="2.38768">
        <ele>29.200000762939</ele>
        <time>2016-02-29T21:15:34Z</time>
      </trkpt>
      <trkpt lat="48.82873" lon="2.38753">
        <ele>30.200000762939</ele>
        <time>2016-02-29T21:15:39Z</time>
      </trkpt>
      <trkpt lat="48.8289" lon="2.38739">
        <ele>31.200000762939</ele>
        <time>2016-02-29T21:15:44Z</time>
      </trkpt>
      <trkpt lat="48.82905" lon="2.38724">
        <ele>31.799999237061</ele>
        <time>2016-02-29T21:15:49Z</time>
      </trkpt>
      <trkpt lat="48.82912" lon="2.38719">
        <ele>32</ele>
        <time>2016-02-29T21:15:51Z</time>
      </trkpt>
      <trkpt lat="48.82931" lon="2.38711">
        <ele>32.79999923706</ele>
        <time>2016-02-29T21:15:56Z</time>
      </trkpt>
      <trkpt lat="48.82947" lon="2.38698">
        <ele>33.400001525879</ele>
        <time>2016-02-29T21:16:01Z</time>
      </trkpt>
      <trkpt lat="48.82966" lon="2.38683">
        <ele>34.20000076294</ele>
        <time>2016-02-29T21:16:06Z</time>
      </trkpt>
      <trkpt lat="48.82982" lon="2.38668">
        <ele>34.79999923706</ele>
        <time>2016-02-29T21:16:11Z</time>
      </trkpt>
      <trkpt lat="48.82998" lon="2.3865">
        <ele>37.20000076294</ele>
        <time>2016-02-29T21:16:17Z</time>
      </trkpt>
      <trkpt lat="48.83012" lon="2.38632">
        <ele>39.400001525879</ele>
        <time>2016-02-29T21:16:24Z</time>
      </trkpt>
      <trkpt lat="48.83027" lon="2.38611">
        <ele>41.599998474121</ele>
        <time>2016-02-29T21:16:32Z</time>
      </trkpt>
      <trkpt lat="48.83039" lon="2.386">
        <ele>43.400001525879</ele>
        <time>2016-02-29T21:16:42Z</time>
      </trkpt>
      <trkpt lat="48.83055" lon="2.38582">
        <ele>39.20000076294</ele>
        <time>2016-02-29T21:17:09Z</time>
      </trkpt>
      <trkpt lat="48.83071" lon="2.38563">
        <ele>37</ele>
        <time>2016-02-29T21:17:18Z</time>
      </trkpt>
      <trkpt lat="48.83085" lon="2.38545">
        <ele>34.400001525879</ele>
        <time>2016-02-29T21:17:23Z</time>
      </trkpt>
      <trkpt lat="48.83098" lon="2.38522">
        <ele>30.60000038147</ele>
        <time>2016-02-29T21:17:29Z</time>
      </trkpt>
      <trkpt lat="48.83115" lon="2.38503">
        <ele>28.60000038147</ele>
        <time>2016-02-29T21:17:35Z</time>
      </trkpt>
      <trkpt lat="48.83129" lon="2.38486">
        <ele>30.799999237061</ele>
        <time>2016-02-29T21:17:40Z</time>
      </trkpt>
      <trkpt lat="48.83144" lon="2.38467">
        <ele>34</ele>
        <time>2016-02-29T21:17:44Z</time>
      </trkpt>
      <trkpt lat="48.83161" lon="2.38448">
        <ele>33.599998474121</ele>
        <time>2016-02-29T21:17:49Z</time>
      </trkpt>
      <trkpt lat="48.83175" lon="2.38429">
        <ele>31.200000762939</ele>
        <time>2016-02-29T21:17:53Z</time>
      </trkpt>
      <trkpt lat="48.83189" lon="2.38411">
        <ele>28.799999237061</ele>
        <time>2016-02-29T21:17:57Z</time>
      </trkpt>
      <trkpt lat="48.83206" lon="2.38391">
        <ele>28.799999237061</ele>
        <time>2016-02-29T21:18:02Z</time>
      </trkpt>
      <trkpt lat="48.8322" lon="2.38374">
        <ele>28.60000038147</ele>
        <time>2016-02-29T21:18:06Z</time>
      </trkpt>
      <trkpt lat="48.83236" lon="2.38352">
        <ele>29</ele>
        <time>2016-02-29T21:18:11Z</time>
      </trkpt>
      <trkpt lat="48.83251" lon="2.3833">
        <ele>29.799999237061</ele>
        <time>2016-02-29T21:18:16Z</time>
      </trkpt>
      <trkpt lat="48.83256" lon="2.38323">
        <ele>30.200000762939</ele>
        <time>2016-02-29T21:18:18Z</time>
      </trkpt>
      <trkpt lat="48.83271" lon="2.38302">
        <ele>32.599998474121</ele>
        <time>2016-02-29T21:18:23Z</time>
      </trkpt>
      <trkpt lat="48.83279" lon="2.38289">
        <ele>33.599998474121</ele>
        <time>2016-02-29T21:18:26Z</time>
      </trkpt>
      <trkpt lat="48.83294" lon="2.38272">
        <ele>34.79999923706</ele>
        <time>2016-02-29T21:18:31Z</time>
      </trkpt>
      <trkpt lat="48.833" lon="2.38265">
        <ele>34.599998474121</ele>
        <time>2016-02-29T21:18:33Z</time>
      </trkpt>
      <trkpt lat="48.83314" lon="2.38246">
        <ele>33.599998474121</ele>
        <time>2016-02-29T21:18:39Z</time>
      </trkpt>
      <trkpt lat="48.83331" lon="2.38228">
        <ele>33</ele>
        <time>2016-02-29T21:18:46Z</time>
      </trkpt>
      <trkpt lat="48.83346" lon="2.38213">
        <ele>31</ele>
        <time>2016-02-29T21:18:58Z</time>
      </trkpt>
      <trkpt lat="48.8336" lon="2.38194">
        <ele>29.39999961853</ele>
        <time>2016-02-29T21:19:06Z</time>
      </trkpt>
      <trkpt lat="48.83376" lon="2.38175">
        <ele>30</ele>
        <time>2016-02-29T21:19:12Z</time>
      </trkpt>
      <trkpt lat="48.83391" lon="2.38158">
        <ele>30.60000038147</ele>
        <time>2016-02-29T21:19:17Z</time>
      </trkpt>
      <trkpt lat="48.83405" lon="2.38138">
        <ele>31.60000038147</ele>
        <time>2016-02-29T21:19:22Z</time>
      </trkpt>
      <trkpt lat="48.83418" lon="2.3812">
        <ele>31.39999961853</ele>
        <time>2016-02-29T21:19:27Z</time>
      </trkpt>
      <trkpt lat="48.83434" lon="2.38098">
        <ele>30.60000038147</ele>
        <time>2016-02-29T21:19:33Z</time>
      </trkpt>
      <trkpt lat="48.8345" lon="2.38077">
        <ele>32.400001525879</ele>
        <time>2016-02-29T21:19:39Z</time>
      </trkpt>
      <trkpt lat="48.83465" lon="2.3806">
        <ele>37.400001525879</ele>
        <time>2016-02-29T21:19:45Z</time>
      </trkpt>
      <trkpt lat="48.83481" lon="2.38041">
        <ele>43</ele>
        <time>2016-02-29T21:19:51Z</time>
      </trkpt>
      <trkpt lat="48.83497" lon="2.38019">
        <ele>44.400001525879</ele>
        <time>2016-02-29T21:19:57Z</time>
      </trkpt>
      <trkpt lat="48.83512" lon="2.37998">
        <ele>45.79999923706</ele>
        <time>2016-02-29T21:20:03Z</time>
      </trkpt>
      <trkpt lat="48.83526" lon="2.37979">
        <ele>46</ele>
        <time>2016-02-29T21:20:09Z</time>
      </trkpt>
      <trkpt lat="48.8354" lon="2.37962">
        <ele>45.599998474121</ele>
        <time>2016-02-29T21:20:14Z</time>
      </trkpt>
      <trkpt lat="48.83556" lon="2.37942">
        <ele>45.20000076294</ele>
        <time>2016-02-29T21:20:20Z</time>
      </trkpt>
      <trkpt lat="48.83571" lon="2.37926">
        <ele>45.20000076294</ele>
        <time>2016-02-29T21:20:25Z</time>
      </trkpt>
      <trkpt lat="48.83586" lon="2.37909">
        <ele>44.79999923706</ele>
        <time>2016-02-29T21:20:31Z</time>
      </trkpt>
      <trkpt lat="48.836" lon="2.3789">
        <ele>42.20000076294</ele>
        <time>2016-02-29T21:20:37Z</time>
      </trkpt>
      <trkpt lat="48.83616" lon="2.37872">
        <ele>39.400001525879</ele>
        <time>2016-02-29T21:20:43Z</time>
      </trkpt>
      <trkpt lat="48.83631" lon="2.37852">
        <ele>36.79999923706</ele>
        <time>2016-02-29T21:20:49Z</time>
      </trkpt>
      <trkpt lat="48.83645" lon="2.37835">
        <ele>36.599998474121</ele>
        <time>2016-02-29T21:20:55Z</time>
      </trkpt>
      <trkpt lat="48.83662" lon="2.37815">
        <ele>37.20000076294</ele>
        <time>2016-02-29T21:21:01Z</time>
      </trkpt>
      <trkpt lat="48.83677" lon="2.37799">
        <ele>37.20000076294</ele>
        <time>2016-02-29T21:21:06Z</time>
      </trkpt>
      <trkpt lat="48.83692" lon="2.3778">
        <ele>36.400001525879</ele>
        <time>2016-02-29T21:21:12Z</time>
      </trkpt>
      <trkpt lat="48.83707" lon="2.37762">
        <ele>35.400001525879</ele>
        <time>2016-02-29T21:21:18Z</time>
      </trkpt>
      <trkpt lat="48.83722" lon="2.37744">
        <ele>37.599998474121</ele>
        <time>2016-02-29T21:21:23Z</time>
      </trkpt>
      <trkpt lat="48.83739" lon="2.37723">
        <ele>39.599998474121</ele>
        <time>2016-02-29T21:21:28Z</time>
      </trkpt>
      <trkpt lat="48.83752" lon="2.37703">
        <ele>38.400001525879</ele>
        <time>2016-02-29T21:21:31Z</time>
      </trkpt>
      <trkpt lat="48.83767" lon="2.37683">
        <ele>36.400001525879</ele>
        <time>2016-02-29T21:21:35Z</time>
      </trkpt>
      <trkpt lat="48.83784" lon="2.37663">
        <ele>35.599998474121</ele>
        <time>2016-02-29T21:21:40Z</time>
      </trkpt>
      <trkpt lat="48.83799" lon="2.37643">
        <ele>36</ele>
        <time>2016-02-29T21:21:45Z</time>
      </trkpt>
      <trkpt lat="48.83814" lon="2.37625">
        <ele>36.599998474121</ele>
        <time>2016-02-29T21:21:50Z</time>
      </trkpt>
      <trkpt lat="48.83829" lon="2.37605">
        <ele>36.20000076294</ele>
        <time>2016-02-29T21:21:57Z</time>
      </trkpt>
      <trkpt lat="48.83839" lon="2.37594">
        <ele>36</ele>
        <time>2016-02-29T21:22:06Z</time>
      </trkpt>
      <trkpt lat="48.83839" lon="2.37588">
        <ele>35.79999923706</ele>
        <time>2016-02-29T21:22:10Z</time>
      </trkpt>
      <trkpt lat="48.83855" lon="2.37579">
        <ele>36</ele>
        <time>2016-02-29T21:22:37Z</time>
      </trkpt>
      <trkpt lat="48.83856" lon="2.37573">
        <ele>36.20000076294</ele>
        <time>2016-02-29T21:22:40Z</time>
      </trkpt>
      <trkpt lat="48.83858" lon="2.37566">
        <ele>36.400001525879</ele>
        <time>2016-02-29T21:22:47Z</time>
      </trkpt>
      <trkpt lat="48.83865" lon="2.37565">
        <ele>36.79999923706</ele>
        <time>2016-02-29T21:22:57Z</time>
      </trkpt>
      <trkpt lat="48.83882" lon="2.37582">
        <ele>37.599998474121</ele>
        <time>2016-02-29T21:23:05Z</time>
      </trkpt>
      <trkpt lat="48.839" lon="2.37592">
        <ele>39</ele>
        <time>2016-02-29T21:23:12Z</time>
      </trkpt>
      <trkpt lat="48.83902" lon="2.3759">
        <ele>39</ele>
        <time>2016-02-29T21:23:13Z</time>
      </trkpt>
      <trkpt lat="48.83917" lon="2.37573">
        <ele>39.79999923706</ele>
        <time>2016-02-29T21:23:17Z</time>
      </trkpt>
      <trkpt lat="48.83933" lon="2.37555">
        <ele>38.400001525879</ele>
        <time>2016-02-29T21:23:21Z</time>
      </trkpt>
      <trkpt lat="48.8395" lon="2.37537">
        <ele>35.400001525879</ele>
        <time>2016-02-29T21:23:25Z</time>
      </trkpt>
      <trkpt lat="48.83969" lon="2.37516">
        <ele>33.599998474121</ele>
        <time>2016-02-29T21:23:29Z</time>
      </trkpt>
      <trkpt lat="48.83987" lon="2.37496">
        <ele>35</ele>
        <time>2016-02-29T21:23:33Z</time>
      </trkpt>
      <trkpt lat="48.84006" lon="2.37474">
        <ele>35.79999923706</ele>
        <time>2016-02-29T21:23:37Z</time>
      </trkpt>
      <trkpt lat="48.84011" lon="2.37469">
        <ele>36</ele>
        <time>2016-02-29T21:23:38Z</time>
      </trkpt>
      <trkpt lat="48.84027" lon="2.37456">
        <ele>36.20000076294</ele>
        <time>2016-02-29T21:23:41Z</time>
      </trkpt>
      <trkpt lat="48.84039" lon="2.37442">
        <ele>36.599998474121</ele>
        <time>2016-02-29T21:23:44Z</time>
      </trkpt>
      <trkpt lat="48.84054" lon="2.37425">
        <ele>36.20000076294</ele>
        <time>2016-02-29T21:23:48Z</time>
      </trkpt>
      <trkpt lat="48.84057" lon="2.37421">
        <ele>36.20000076294</ele>
        <time>2016-02-29T21:23:49Z</time>
      </trkpt>
      <trkpt lat="48.84064" lon="2.37412">
        <ele>36</ele>
        <time>2016-02-29T21:23:51Z</time>
      </trkpt>
      <trkpt lat="48.84078" lon="2.37403">
        <ele>36.20000076294</ele>
        <time>2016-02-29T21:23:55Z</time>
      </trkpt>
      <trkpt lat="48.84095" lon="2.37386">
        <ele>36.20000076294</ele>
        <time>2016-02-29T21:23:59Z</time>
      </trkpt>
      <trkpt lat="48.84113" lon="2.37366">
        <ele>35.79999923706</ele>
        <time>2016-02-29T21:24:03Z</time>
      </trkpt>
      <trkpt lat="48.84128" lon="2.37349">
        <ele>35.20000076294</ele>
        <time>2016-02-29T21:24:06Z</time>
      </trkpt>
      <trkpt lat="48.84144" lon="2.37332">
        <ele>35.79999923706</ele>
        <time>2016-02-29T21:24:09Z</time>
      </trkpt>
      <trkpt lat="48.8416" lon="2.37314">
        <ele>35.599998474121</ele>
        <time>2016-02-29T21:24:12Z</time>
      </trkpt>
      <trkpt lat="48.84175" lon="2.37295">
        <ele>35.400001525879</ele>
        <time>2016-02-29T21:24:15Z</time>
      </trkpt>
      <trkpt lat="48.84191" lon="2.37276">
        <ele>35.400001525879</ele>
        <time>2016-02-29T21:24:18Z</time>
      </trkpt>
      <trkpt lat="48.84195" lon="2.3727">
        <ele>35.400001525879</ele>
        <time>2016-02-29T21:24:19Z</time>
      </trkpt>
      <trkpt lat="48.8421" lon="2.37248">
        <ele>36.20000076294</ele>
        <time>2016-02-29T21:24:23Z</time>
      </trkpt>
      <trkpt lat="48.84226" lon="2.37222">
        <ele>37</ele>
        <time>2016-02-29T21:24:27Z</time>
      </trkpt>
      <trkpt lat="48.84242" lon="2.37203">
        <ele>38.20000076294</ele>
        <time>2016-02-29T21:24:31Z</time>
      </trkpt>
      <trkpt lat="48.84259" lon="2.37188">
        <ele>39.400001525879</ele>
        <time>2016-02-29T21:24:34Z</time>
      </trkpt>
      <trkpt lat="48.84274" lon="2.3717">
        <ele>40.20000076294</ele>
        <time>2016-02-29T21:24:38Z</time>
      </trkpt>
      <trkpt lat="48.84286" lon="2.37161">
        <ele>40</ele>
        <time>2016-02-29T21:24:41Z</time>
      </trkpt>
      <trkpt lat="48.84301" lon="2.37146">
        <ele>38.79999923706</ele>
        <time>2016-02-29T21:24:46Z</time>
      </trkpt>
      <trkpt lat="48.84308" lon="2.37132">
        <ele>37.400001525879</ele>
        <time>2016-02-29T21:24:50Z</time>
      </trkpt>
      <trkpt lat="48.84323" lon="2.37113">
        <ele>37.20000076294</ele>
        <time>2016-02-29T21:24:55Z</time>
      </trkpt>
      <trkpt lat="48.84331" lon="2.37105">
        <ele>38</ele>
        <time>2016-02-29T21:24:59Z</time>
      </trkpt>
      <trkpt lat="48.84333" lon="2.37103">
        <ele>38</ele>
        <time>2016-02-29T21:25:00Z</time>
      </trkpt>
      <trkpt lat="48.84347" lon="2.37085">
        <ele>39</ele>
        <time>2016-02-29T21:25:44Z</time>
      </trkpt>
      <trkpt lat="48.84357" lon="2.37069">
        <ele>39.400001525879</ele>
        <time>2016-02-29T21:25:49Z</time>
      </trkpt>
      <trkpt lat="48.84375" lon="2.37061">
        <ele>38.400001525879</ele>
        <time>2016-02-29T21:25:54Z</time>
      </trkpt>
      <trkpt lat="48.84391" lon="2.37041">
        <ele>36.79999923706</ele>
        <time>2016-02-29T21:26:00Z</time>
      </trkpt>
      <trkpt lat="48.84409" lon="2.37029">
        <ele>36</ele>
        <time>2016-02-29T21:26:05Z</time>
      </trkpt>
      <trkpt lat="48.84427" lon="2.37012">
        <ele>35.400001525879</ele>
        <time>2016-02-29T21:26:10Z</time>
      </trkpt>
      <trkpt lat="48.84442" lon="2.3699">
        <ele>35</ele>
        <time>2016-02-29T21:26:15Z</time>
      </trkpt>
      <trkpt lat="48.84453" lon="2.36967">
        <ele>35.20000076294</ele>
        <time>2016-02-29T21:26:19Z</time>
      </trkpt>
      <trkpt lat="48.84461" lon="2.36938">
        <ele>35</ele>
        <time>2016-02-29T21:26:23Z</time>
      </trkpt>
      <trkpt lat="48.84472" lon="2.36915">
        <ele>36.400001525879</ele>
        <time>2016-02-29T21:26:26Z</time>
      </trkpt>
      <trkpt lat="48.84488" lon="2.36894">
        <ele>36.79999923706</ele>
        <time>2016-02-29T21:26:29Z</time>
      </trkpt>
      <trkpt lat="48.84499" lon="2.36879">
        <ele>38</ele>
        <time>2016-02-29T21:26:32Z</time>
      </trkpt>
      <trkpt lat="48.84511" lon="2.36876">
        <ele>40</ele>
        <time>2016-02-29T21:26:35Z</time>
      </trkpt>
      <trkpt lat="48.84515" lon="2.3687">
        <ele>41</ele>
        <time>2016-02-29T21:26:37Z</time>
      </trkpt>
      <trkpt lat="48.84528" lon="2.3685">
        <ele>43.20000076294</ele>
        <time>2016-02-29T21:26:41Z</time>
      </trkpt>
      <trkpt lat="48.8453" lon="2.36845">
        <ele>43.599998474121</ele>
        <time>2016-02-29T21:26:42Z</time>
      </trkpt>
      <trkpt lat="48.84544" lon="2.36826">
        <ele>44.20000076294</ele>
        <time>2016-02-29T21:26:46Z</time>
      </trkpt>
      <trkpt lat="48.84557" lon="2.36807">
        <ele>43.400001525879</ele>
        <time>2016-02-29T21:26:50Z</time>
      </trkpt>
      <trkpt lat="48.84571" lon="2.36785">
        <ele>43</ele>
        <time>2016-02-29T21:26:56Z</time>
      </trkpt>
      <trkpt lat="48.84577" lon="2.36781">
        <ele>43.400001525879</ele>
        <time>2016-02-29T21:26:58Z</time>
      </trkpt>
      <trkpt lat="48.84585" lon="2.36772">
        <ele>43.79999923706</ele>
        <time>2016-02-29T21:27:01Z</time>
      </trkpt>
      <trkpt lat="48.84601" lon="2.36751">
        <ele>44.79999923706</ele>
        <time>2016-02-29T21:27:06Z</time>
      </trkpt>
      <trkpt lat="48.84616" lon="2.36733">
        <ele>43.20000076294</ele>
        <time>2016-02-29T21:27:10Z</time>
      </trkpt>
      <trkpt lat="48.84629" lon="2.36717">
        <ele>41.20000076294</ele>
        <time>2016-02-29T21:27:14Z</time>
      </trkpt>
      <trkpt lat="48.84639" lon="2.36709">
        <ele>40</ele>
        <time>2016-02-29T21:27:17Z</time>
      </trkpt>
      <trkpt lat="48.84654" lon="2.36692">
        <ele>38.79999923706</ele>
        <time>2016-02-29T21:27:22Z</time>
      </trkpt>
      <trkpt lat="48.84669" lon="2.36674">
        <ele>38</ele>
        <time>2016-02-29T21:27:27Z</time>
      </trkpt>
      <trkpt lat="48.84683" lon="2.36655">
        <ele>37.20000076294</ele>
        <time>2016-02-29T21:27:32Z</time>
      </trkpt>
      <trkpt lat="48.84699" lon="2.36633">
        <ele>34.79999923706</ele>
        <time>2016-02-29T21:27:37Z</time>
      </trkpt>
      <trkpt lat="48.84714" lon="2.36609">
        <ele>31</ele>
        <time>2016-02-29T21:27:41Z</time>
      </trkpt>
      <trkpt lat="48.84729" lon="2.36586">
        <ele>31.39999961853</ele>
        <time>2016-02-29T21:27:46Z</time>
      </trkpt>
      <trkpt lat="48.84741" lon="2.36568">
        <ele>31.200000762939</ele>
        <time>2016-02-29T21:27:52Z</time>
      </trkpt>
      <trkpt lat="48.8475" lon="2.36554">
        <ele>31.60000038147</ele>
        <time>2016-02-29T21:28:19Z</time>
      </trkpt>
      <trkpt lat="48.84766" lon="2.36532">
        <ele>36</ele>
        <time>2016-02-29T21:28:24Z</time>
      </trkpt>
      <trkpt lat="48.84783" lon="2.36517">
        <ele>40.20000076294</ele>
        <time>2016-02-29T21:28:29Z</time>
      </trkpt>
      <trkpt lat="48.848" lon="2.36504">
        <ele>41.599998474121</ele>
        <time>2016-02-29T21:28:34Z</time>
      </trkpt>
      <trkpt lat="48.84818" lon="2.36506">
        <ele>42</ele>
        <time>2016-02-29T21:28:38Z</time>
      </trkpt>
      <trkpt lat="48.8484" lon="2.36501">
        <ele>42.599998474121</ele>
        <time>2016-02-29T21:28:43Z</time>
      </trkpt>
      <trkpt lat="48.84862" lon="2.36494">
        <ele>42.79999923706</ele>
        <time>2016-02-29T21:28:47Z</time>
      </trkpt>
      <trkpt lat="48.84873" lon="2.36486">
        <ele>42.599998474121</ele>
        <time>2016-02-29T21:28:49Z</time>
      </trkpt>
      <trkpt lat="48.84891" lon="2.36466">
        <ele>41.79999923706</ele>
        <time>2016-02-29T21:28:52Z</time>
      </trkpt>
      <trkpt lat="48.84907" lon="2.36448">
        <ele>41.20000076294</ele>
        <time>2016-02-29T21:28:55Z</time>
      </trkpt>
      <trkpt lat="48.84925" lon="2.36434">
        <ele>40.599998474121</ele>
        <time>2016-02-29T21:28:58Z</time>
      </trkpt>
      <trkpt lat="48.84946" lon="2.36418">
        <ele>40</ele>
        <time>2016-02-29T21:29:01Z</time>
      </trkpt>
      <trkpt lat="48.84965" lon="2.36396">
        <ele>39.599998474121</ele>
        <time>2016-02-29T21:29:04Z</time>
      </trkpt>
      <trkpt lat="48.84981" lon="2.36377">
        <ele>39.400001525879</ele>
        <time>2016-02-29T21:29:07Z</time>
      </trkpt>
      <trkpt lat="48.84995" lon="2.36358">
        <ele>38</ele>
        <time>2016-02-29T21:29:09Z</time>
      </trkpt>
      <trkpt lat="48.85011" lon="2.36337">
        <ele>36</ele>
        <time>2016-02-29T21:29:12Z</time>
      </trkpt>
      <trkpt lat="48.85027" lon="2.3632">
        <ele>35.400001525879</ele>
        <time>2016-02-29T21:29:15Z</time>
      </trkpt>
      <trkpt lat="48.85042" lon="2.36302">
        <ele>36.20000076294</ele>
        <time>2016-02-29T21:29:18Z</time>
      </trkpt>
      <trkpt lat="48.85057" lon="2.36282">
        <ele>37.20000076294</ele>
        <time>2016-02-29T21:29:21Z</time>
      </trkpt>
      <trkpt lat="48.85071" lon="2.36261">
        <ele>37.400001525879</ele>
        <time>2016-02-29T21:29:24Z</time>
      </trkpt>
      <trkpt lat="48.85088" lon="2.36238">
        <ele>37.79999923706</ele>
        <time>2016-02-29T21:29:28Z</time>
      </trkpt>
      <trkpt lat="48.85098" lon="2.36228">
        <ele>37.599998474121</ele>
        <time>2016-02-29T21:29:31Z</time>
      </trkpt>
      <trkpt lat="48.85111" lon="2.36249">
        <ele>38.20000076294</ele>
        <time>2016-02-29T21:29:38Z</time>
      </trkpt>
      <trkpt lat="48.85111" lon="2.36252">
        <ele>38.400001525879</ele>
        <time>2016-02-29T21:29:39Z</time>
      </trkpt>
      <trkpt lat="48.85121" lon="2.36246">
        <ele>38.400001525879</ele>
        <time>2016-02-29T21:30:19Z</time>
      </trkpt>
      <trkpt lat="48.85135" lon="2.36227">
        <ele>38.400001525879</ele>
        <time>2016-02-29T21:30:24Z</time>
      </trkpt>
      <trkpt lat="48.85148" lon="2.36208">
        <ele>38</ele>
        <time>2016-02-29T21:30:28Z</time>
      </trkpt>
      <trkpt lat="48.85163" lon="2.36184">
        <ele>40</ele>
        <time>2016-02-29T21:30:32Z</time>
      </trkpt>
      <trkpt lat="48.85178" lon="2.36161">
        <ele>42</ele>
        <time>2016-02-29T21:30:36Z</time>
      </trkpt>
      <trkpt lat="48.85193" lon="2.36138">
        <ele>42.20000076294</ele>
        <time>2016-02-29T21:30:40Z</time>
      </trkpt>
      <trkpt lat="48.85205" lon="2.36118">
        <ele>41.599998474121</ele>
        <time>2016-02-29T21:30:43Z</time>
      </trkpt>
      <trkpt lat="48.85218" lon="2.36098">
        <ele>41</ele>
        <time>2016-02-29T21:30:46Z</time>
      </trkpt>
      <trkpt lat="48.85233" lon="2.36071">
        <ele>40</ele>
        <time>2016-02-29T21:30:50Z</time>
      </trkpt>
      <trkpt lat="48.85236" lon="2.36063">
        <ele>39.599998474121</ele>
        <time>2016-02-29T21:30:51Z</time>
      </trkpt>
      <trkpt lat="48.85245" lon="2.36029">
        <ele>38.79999923706</ele>
        <time>2016-02-29T21:30:55Z</time>
      </trkpt>
      <trkpt lat="48.85254" lon="2.36003">
        <ele>38.400001525879</ele>
        <time>2016-02-29T21:30:58Z</time>
      </trkpt>
      <trkpt lat="48.8526" lon="2.35986">
        <ele>39.599998474121</ele>
        <time>2016-02-29T21:31:00Z</time>
      </trkpt>
      <trkpt lat="48.85271" lon="2.3596">
        <ele>38.20000076294</ele>
        <time>2016-02-29T21:31:03Z</time>
      </trkpt>
      <trkpt lat="48.85281" lon="2.35933">
        <ele>37.400001525879</ele>
        <time>2016-02-29T21:31:06Z</time>
      </trkpt>
      <trkpt lat="48.85292" lon="2.35906">
        <ele>36.79999923706</ele>
        <time>2016-02-29T21:31:09Z</time>
      </trkpt>
      <trkpt lat="48.85304" lon="2.35878">
        <ele>36.599998474121</ele>
        <time>2016-02-29T21:31:13Z</time>
      </trkpt>
      <trkpt lat="48.85315" lon="2.3585">
        <ele>36.599998474121</ele>
        <time>2016-02-29T21:31:18Z</time>
      </trkpt>
      <trkpt lat="48.85325" lon="2.35823">
        <ele>36.79999923706</ele>
        <time>2016-02-29T21:31:24Z</time>
      </trkpt>
      <trkpt lat="48.85331" lon="2.35795">
        <ele>37.400001525879</ele>
        <time>2016-02-29T21:31:32Z</time>
      </trkpt>
      <trkpt lat="48.8534" lon="2.35769">
        <ele>37.79999923706</ele>
        <time>2016-02-29T21:31:52Z</time>
      </trkpt>
      <trkpt lat="48.8535" lon="2.35739">
        <ele>38.599998474121</ele>
        <time>2016-02-29T21:31:58Z</time>
      </trkpt>
      <trkpt lat="48.8536" lon="2.35712">
        <ele>38.599998474121</ele>
        <time>2016-02-29T21:32:02Z</time>
      </trkpt>
      <trkpt lat="48.85369" lon="2.35682">
        <ele>39.20000076294</ele>
        <time>2016-02-29T21:32:06Z</time>
      </trkpt>
      <trkpt lat="48.85377" lon="2.35657">
        <ele>39</ele>
        <time>2016-02-29T21:32:09Z</time>
      </trkpt>
      <trkpt lat="48.85386" lon="2.35632">
        <ele>38.599998474121</ele>
        <time>2016-02-29T21:32:12Z</time>
      </trkpt>
      <trkpt lat="48.85395" lon="2.35608">
        <ele>38.20000076294</ele>
        <time>2016-02-29T21:32:15Z</time>
      </trkpt>
      <trkpt lat="48.85405" lon="2.35583">
        <ele>37.599998474121</ele>
        <time>2016-02-29T21:32:18Z</time>
      </trkpt>
      <trkpt lat="48.85415" lon="2.35559">
        <ele>39.400001525879</ele>
        <time>2016-02-29T21:32:21Z</time>
      </trkpt>
      <trkpt lat="48.85426" lon="2.35534">
        <ele>37.599998474121</ele>
        <time>2016-02-29T21:32:24Z</time>
      </trkpt>
      <trkpt lat="48.85437" lon="2.35508">
        <ele>35.599998474121</ele>
        <time>2016-02-29T21:32:27Z</time>
      </trkpt>
      <trkpt lat="48.85445" lon="2.35488">
        <ele>34.79999923706</ele>
        <time>2016-02-29T21:32:29Z</time>
      </trkpt>
      <trkpt lat="48.85454" lon="2.35463">
        <ele>34</ele>
        <time>2016-02-29T21:32:32Z</time>
      </trkpt>
      <trkpt lat="48.85457" lon="2.35455">
        <ele>33.79999923706</ele>
        <time>2016-02-29T21:32:33Z</time>
      </trkpt>
      <trkpt lat="48.85468" lon="2.3543">
        <ele>34.20000076294</ele>
        <time>2016-02-29T21:32:36Z</time>
      </trkpt>
      <trkpt lat="48.85479" lon="2.35404">
        <ele>35.599998474121</ele>
        <time>2016-02-29T21:32:39Z</time>
      </trkpt>
      <trkpt lat="48.8549" lon="2.35378">
        <ele>35</ele>
        <time>2016-02-29T21:32:42Z</time>
      </trkpt>
      <trkpt lat="48.85501" lon="2.35356">
        <ele>35.400001525879</ele>
        <time>2016-02-29T21:32:45Z</time>
      </trkpt>
      <trkpt lat="48.85509" lon="2.35337">
        <ele>35.400001525879</ele>
        <time>2016-02-29T21:32:48Z</time>
      </trkpt>
      <trkpt lat="48.85518" lon="2.35309">
        <ele>34.400001525879</ele>
        <time>2016-02-29T21:32:52Z</time>
      </trkpt>
      <trkpt lat="48.85534" lon="2.35293">
        <ele>34</ele>
        <time>2016-02-29T21:32:57Z</time>
      </trkpt>
      <trkpt lat="48.8554" lon="2.35292">
        <ele>34.400001525879</ele>
        <time>2016-02-29T21:32:59Z</time>
      </trkpt>
      <trkpt lat="48.85544" lon="2.35289">
        <ele>34.599998474121</ele>
        <time>2016-02-29T21:33:01Z</time>
      </trkpt>
      <trkpt lat="48.85549" lon="2.35282">
        <ele>34.20000076294</ele>
        <time>2016-02-29T21:33:05Z</time>
      </trkpt>
      <trkpt lat="48.85551" lon="2.35282">
        <ele>34.400001525879</ele>
        <time>2016-02-29T21:33:07Z</time>
      </trkpt>
      <trkpt lat="48.85545" lon="2.35259">
        <ele>32</ele>
        <time>2016-02-29T21:33:23Z</time>
      </trkpt>
      <trkpt lat="48.85553" lon="2.35232">
        <ele>33.20000076294</ele>
        <time>2016-02-29T21:33:31Z</time>
      </trkpt>
      <trkpt lat="48.8556" lon="2.352">
        <ele>34.79999923706</ele>
        <time>2016-02-29T21:33:38Z</time>
      </trkpt>
      <trkpt lat="48.85569" lon="2.35175">
        <ele>32.400001525879</ele>
        <time>2016-02-29T21:33:42Z</time>
      </trkpt>
      <trkpt lat="48.85579" lon="2.35148">
        <ele>32.20000076294</ele>
        <time>2016-02-29T21:33:46Z</time>
      </trkpt>
      <trkpt lat="48.85588" lon="2.35123">
        <ele>31.799999237061</ele>
        <time>2016-02-29T21:33:50Z</time>
      </trkpt>
      <trkpt lat="48.85599" lon="2.351">
        <ele>30.799999237061</ele>
        <time>2016-02-29T21:33:54Z</time>
      </trkpt>
      <trkpt lat="48.85615" lon="2.35083">
        <ele>30.799999237061</ele>
        <time>2016-02-29T21:33:58Z</time>
      </trkpt>
      <trkpt lat="48.85635" lon="2.3509">
        <ele>32.599998474121</ele>
        <time>2016-02-29T21:34:02Z</time>
      </trkpt>
      <trkpt lat="48.85639" lon="2.35094">
        <ele>33.20000076294</ele>
        <time>2016-02-29T21:34:03Z</time>
      </trkpt>
      <trkpt lat="48.8565" lon="2.351">
        <ele>34.20000076294</ele>
        <time>2016-02-29T21:34:05Z</time>
      </trkpt>
      <trkpt lat="48.85671" lon="2.35108">
        <ele>36</ele>
        <time>2016-02-29T21:34:09Z</time>
      </trkpt>
      <trkpt lat="48.85688" lon="2.35093">
        <ele>37.20000076294</ele>
        <time>2016-02-29T21:34:13Z</time>
      </trkpt>
      <trkpt lat="48.85694" lon="2.35071">
        <ele>37.79999923706</ele>
        <time>2016-02-29T21:34:16Z</time>
      </trkpt>
      <trkpt lat="48.85701" lon="2.35041">
        <ele>40</ele>
        <time>2016-02-29T21:34:20Z</time>
      </trkpt>
      <trkpt lat="48.85709" lon="2.35014">
        <ele>42</ele>
        <time>2016-02-29T21:34:24Z</time>
      </trkpt>
      <trkpt lat="48.85711" lon="2.35008">
        <ele>42.400001525879</ele>
        <time>2016-02-29T21:34:25Z</time>
      </trkpt>
      <trkpt lat="48.85715" lon="2.34999">
        <ele>43.20000076294</ele>
        <time>2016-02-29T21:34:27Z</time>
      </trkpt>
      <trkpt lat="48.85718" lon="2.34984">
        <ele>44.20000076294</ele>
        <time>2016-02-29T21:34:31Z</time>
      </trkpt>
      <trkpt lat="48.85718" lon="2.34977">
        <ele>44.599998474121</ele>
        <time>2016-02-29T21:34:34Z</time>
      </trkpt>
      <trkpt lat="48.85718" lon="2.34969">
        <ele>45.20000076294</ele>
        <time>2016-02-29T21:34:41Z</time>
      </trkpt>
      <trkpt lat="48.8572" lon="2.34959">
        <ele>46</ele>
        <time>2016-02-29T21:34:45Z</time>
      </trkpt>
      <trkpt lat="48.85731" lon="2.34931">
        <ele>45</ele>
        <time>2016-02-29T21:34:52Z</time>
      </trkpt>
      <trkpt lat="48.85736" lon="2.34912">
        <ele>43.20000076294</ele>
        <time>2016-02-29T21:34:55Z</time>
      </trkpt>
      <trkpt lat="48.85743" lon="2.34881">
        <ele>43.400001525879</ele>
        <time>2016-02-29T21:34:59Z</time>
      </trkpt>
      <trkpt lat="48.85752" lon="2.34848">
        <ele>41</ele>
        <time>2016-02-29T21:35:03Z</time>
      </trkpt>
      <trkpt lat="48.85758" lon="2.34822">
        <ele>39</ele>
        <time>2016-02-29T21:35:06Z</time>
      </trkpt>
      <trkpt lat="48.85768" lon="2.3479">
        <ele>39</ele>
        <time>2016-02-29T21:35:10Z</time>
      </trkpt>
      <trkpt lat="48.85778" lon="2.34759">
        <ele>40.400001525879</ele>
        <time>2016-02-29T21:35:14Z</time>
      </trkpt>
      <trkpt lat="48.85788" lon="2.34738">
        <ele>41</ele>
        <time>2016-02-29T21:35:17Z</time>
      </trkpt>
      <trkpt lat="48.85809" lon="2.34735">
        <ele>42.599998474121</ele>
        <time>2016-02-29T21:35:21Z</time>
      </trkpt>
      <trkpt lat="48.8582" lon="2.34738">
        <ele>43.599998474121</ele>
        <time>2016-02-29T21:35:23Z</time>
      </trkpt>
      <trkpt lat="48.85841" lon="2.34743">
        <ele>45.599998474121</ele>
        <time>2016-02-29T21:35:27Z</time>
      </trkpt>
      <trkpt lat="48.85859" lon="2.34745">
        <ele>47</ele>
        <time>2016-02-29T21:35:32Z</time>
      </trkpt>
      <trkpt lat="48.85877" lon="2.34741">
        <ele>46.400001525879</ele>
        <time>2016-02-29T21:35:36Z</time>
      </trkpt>
      <trkpt lat="48.85895" lon="2.3474">
        <ele>45.79999923706</ele>
        <time>2016-02-29T21:35:40Z</time>
      </trkpt>
      <trkpt lat="48.85911" lon="2.34727">
        <ele>45.599998474121</ele>
        <time>2016-02-29T21:35:44Z</time>
      </trkpt>
      <trkpt lat="48.85932" lon="2.34712">
        <ele>45.400001525879</ele>
        <time>2016-02-29T21:35:49Z</time>
      </trkpt>
      <trkpt lat="48.85936" lon="2.34711">
        <ele>45.400001525879</ele>
        <time>2016-02-29T21:35:50Z</time>
      </trkpt>
      <trkpt lat="48.85941" lon="2.34708">
        <ele>45.400001525879</ele>
        <time>2016-02-29T21:35:52Z</time>
      </trkpt>
      <trkpt lat="48.85951" lon="2.34716">
        <ele>45.20000076294</ele>
        <time>2016-02-29T21:35:57Z</time>
      </trkpt>
      <trkpt lat="48.85954" lon="2.34703">
        <ele>45.79999923706</ele>
        <time>2016-02-29T21:36:33Z</time>
      </trkpt>
    </trkseg>
  </trk>
  <trk>
    <name><![CDATA[lundi 2016 02 15]]></name>
    <extensions>
      <line xmlns="http://www.topografix.com/GPX/gpx_style/0/2">
        <color>FF0000</color>
      </line>
    </extensions>
    <trkseg>
      <trkpt lat="48.85746" lon="2.34735">
        <ele>40.400001525879</ele>
        <time>2016-02-15T19:19:51Z</time>
      </trkpt>
      <trkpt lat="48.85767" lon="2.34748">
        <ele>40</ele>
        <time>2016-02-15T19:19:56Z</time>
      </trkpt>
      <trkpt lat="48.85766" lon="2.34745">
        <ele>40</ele>
        <time>2016-02-15T19:19:58Z</time>
      </trkpt>
      <trkpt lat="48.85763" lon="2.34754">
        <ele>40</ele>
        <time>2016-02-15T19:19:59Z</time>
      </trkpt>
      <trkpt lat="48.85772" lon="2.34754">
        <ele>39.79999923706</ele>
        <time>2016-02-15T19:20:03Z</time>
      </trkpt>
      <trkpt lat="48.85787" lon="2.34771">
        <ele>41.20000076294</ele>
        <time>2016-02-15T19:20:11Z</time>
      </trkpt>
      <trkpt lat="48.85798" lon="2.34788">
        <ele>42.20000076294</ele>
        <time>2016-02-15T19:20:20Z</time>
      </trkpt>
      <trkpt lat="48.85814" lon="2.34801">
        <ele>43.79999923706</ele>
        <time>2016-02-15T19:20:27Z</time>
      </trkpt>
      <trkpt lat="48.85834" lon="2.34807">
        <ele>45.79999923706</ele>
        <time>2016-02-15T19:20:32Z</time>
      </trkpt>
      <trkpt lat="48.85855" lon="2.34811">
        <ele>47.79999923706</ele>
        <time>2016-02-15T19:20:37Z</time>
      </trkpt>
      <trkpt lat="48.85871" lon="2.34825">
        <ele>48</ele>
        <time>2016-02-15T19:20:41Z</time>
      </trkpt>
      <trkpt lat="48.85891" lon="2.34838">
        <ele>48</ele>
        <time>2016-02-15T19:20:46Z</time>
      </trkpt>
      <trkpt lat="48.85911" lon="2.34852">
        <ele>48</ele>
        <time>2016-02-15T19:20:51Z</time>
      </trkpt>
      <trkpt lat="48.85928" lon="2.34862">
        <ele>48</ele>
        <time>2016-02-15T19:20:55Z</time>
      </trkpt>
      <trkpt lat="48.85946" lon="2.34872">
        <ele>48</ele>
        <time>2016-02-15T19:20:59Z</time>
      </trkpt>
      <trkpt lat="48.85964" lon="2.34881">
        <ele>48.20000076294</ele>
        <time>2016-02-15T19:21:03Z</time>
      </trkpt>
      <trkpt lat="48.85973" lon="2.34886">
        <ele>48.400001525879</ele>
        <time>2016-02-15T19:21:05Z</time>
      </trkpt>
      <trkpt lat="48.85989" lon="2.34893">
        <ele>48.599998474121</ele>
        <time>2016-02-15T19:21:08Z</time>
      </trkpt>
      <trkpt lat="48.86005" lon="2.34907">
        <ele>48.79999923706</ele>
        <time>2016-02-15T19:21:13Z</time>
      </trkpt>
      <trkpt lat="48.86021" lon="2.34923">
        <ele>48.79999923706</ele>
        <time>2016-02-15T19:21:17Z</time>
      </trkpt>
      <trkpt lat="48.86038" lon="2.34931">
        <ele>48.400001525879</ele>
        <time>2016-02-15T19:21:22Z</time>
      </trkpt>
      <trkpt lat="48.86052" lon="2.34938">
        <ele>48</ele>
        <time>2016-02-15T19:21:26Z</time>
      </trkpt>
      <trkpt lat="48.86061" lon="2.34943">
        <ele>47.79999923706</ele>
        <time>2016-02-15T19:21:28Z</time>
      </trkpt>
      <trkpt lat="48.86079" lon="2.34955">
        <ele>47.20000076294</ele>
        <time>2016-02-15T19:21:32Z</time>
      </trkpt>
      <trkpt lat="48.86096" lon="2.34964">
        <ele>46.599998474121</ele>
        <time>2016-02-15T19:21:36Z</time>
      </trkpt>
      <trkpt lat="48.86117" lon="2.34973">
        <ele>46.400001525879</ele>
        <time>2016-02-15T19:21:40Z</time>
      </trkpt>
      <trkpt lat="48.86136" lon="2.34985">
        <ele>46.599998474121</ele>
        <time>2016-02-15T19:21:44Z</time>
      </trkpt>
      <trkpt lat="48.86155" lon="2.34995">
        <ele>46.599998474121</ele>
        <time>2016-02-15T19:21:48Z</time>
      </trkpt>
      <trkpt lat="48.86177" lon="2.35003">
        <ele>47</ele>
        <time>2016-02-15T19:21:52Z</time>
      </trkpt>
      <trkpt lat="48.86194" lon="2.3501">
        <ele>47.20000076294</ele>
        <time>2016-02-15T19:21:55Z</time>
      </trkpt>
      <trkpt lat="48.86211" lon="2.3502">
        <ele>47.599998474121</ele>
        <time>2016-02-15T19:21:59Z</time>
      </trkpt>
      <trkpt lat="48.86228" lon="2.3503">
        <ele>47.79999923706</ele>
        <time>2016-02-15T19:22:03Z</time>
      </trkpt>
      <trkpt lat="48.86244" lon="2.3504">
        <ele>48.20000076294</ele>
        <time>2016-02-15T19:22:07Z</time>
      </trkpt>
      <trkpt lat="48.86256" lon="2.35048">
        <ele>48.400001525879</ele>
        <time>2016-02-15T19:22:10Z</time>
      </trkpt>
      <trkpt lat="48.86274" lon="2.3506">
        <ele>48.79999923706</ele>
        <time>2016-02-15T19:22:14Z</time>
      </trkpt>
      <trkpt lat="48.86293" lon="2.35072">
        <ele>48.599998474121</ele>
        <time>2016-02-15T19:22:18Z</time>
      </trkpt>
      <trkpt lat="48.86298" lon="2.35074">
        <ele>48.599998474121</ele>
        <time>2016-02-15T19:22:19Z</time>
      </trkpt>
      <trkpt lat="48.8632" lon="2.3508">
        <ele>48.400001525879</ele>
        <time>2016-02-15T19:22:23Z</time>
      </trkpt>
      <trkpt lat="48.86336" lon="2.35085">
        <ele>48.20000076294</ele>
        <time>2016-02-15T19:22:27Z</time>
      </trkpt>
      <trkpt lat="48.86357" lon="2.35098">
        <ele>47.79999923706</ele>
        <time>2016-02-15T19:22:32Z</time>
      </trkpt>
      <trkpt lat="48.86376" lon="2.3511">
        <ele>47.599998474121</ele>
        <time>2016-02-15T19:22:36Z</time>
      </trkpt>
      <trkpt lat="48.86394" lon="2.35123">
        <ele>47.400001525879</ele>
        <time>2016-02-15T19:22:40Z</time>
      </trkpt>
      <trkpt lat="48.86397" lon="2.35125">
        <ele>47.400001525879</ele>
        <time>2016-02-15T19:22:41Z</time>
      </trkpt>
      <trkpt lat="48.86417" lon="2.35137">
        <ele>47.20000076294</ele>
        <time>2016-02-15T19:22:46Z</time>
      </trkpt>
      <trkpt lat="48.86434" lon="2.35146">
        <ele>46.79999923706</ele>
        <time>2016-02-15T19:22:51Z</time>
      </trkpt>
      <trkpt lat="48.86452" lon="2.3516">
        <ele>46.599998474121</ele>
        <time>2016-02-15T19:22:57Z</time>
      </trkpt>
      <trkpt lat="48.86473" lon="2.3517">
        <ele>46.400001525879</ele>
        <time>2016-02-15T19:23:02Z</time>
      </trkpt>
      <trkpt lat="48.86493" lon="2.3518">
        <ele>46.20000076294</ele>
        <time>2016-02-15T19:23:08Z</time>
      </trkpt>
      <trkpt lat="48.86494" lon="2.35181">
        <ele>46.20000076294</ele>
        <time>2016-02-15T19:23:09Z</time>
      </trkpt>
      <trkpt lat="48.86503" lon="2.35188">
        <ele>46.400001525879</ele>
        <time>2016-02-15T19:23:12Z</time>
      </trkpt>
      <trkpt lat="48.86517" lon="2.35198">
        <ele>46.400001525879</ele>
        <time>2016-02-15T19:23:16Z</time>
      </trkpt>
      <trkpt lat="48.86522" lon="2.352">
        <ele>46.20000076294</ele>
        <time>2016-02-15T19:23:17Z</time>
      </trkpt>
      <trkpt lat="48.86539" lon="2.35209">
        <ele>46.79999923706</ele>
        <time>2016-02-15T19:23:21Z</time>
      </trkpt>
      <trkpt lat="48.86547" lon="2.35211">
        <ele>47</ele>
        <time>2016-02-15T19:23:23Z</time>
      </trkpt>
      <trkpt lat="48.8656" lon="2.35216">
        <ele>47.400001525879</ele>
        <time>2016-02-15T19:23:27Z</time>
      </trkpt>
      <trkpt lat="48.86578" lon="2.35232">
        <ele>48</ele>
        <time>2016-02-15T19:23:33Z</time>
      </trkpt>
      <trkpt lat="48.86598" lon="2.35233">
        <ele>48.599998474121</ele>
        <time>2016-02-15T19:23:36Z</time>
      </trkpt>
      <trkpt lat="48.86608" lon="2.35238">
        <ele>49</ele>
        <time>2016-02-15T19:23:38Z</time>
      </trkpt>
      <trkpt lat="48.86615" lon="2.35253">
        <ele>49.20000076294</ele>
        <time>2016-02-15T19:23:42Z</time>
      </trkpt>
      <trkpt lat="48.86618" lon="2.35281">
        <ele>48.79999923706</ele>
        <time>2016-02-15T19:23:47Z</time>
      </trkpt>
      <trkpt lat="48.86615" lon="2.35309">
        <ele>48.400001525879</ele>
        <time>2016-02-15T19:23:52Z</time>
      </trkpt>
      <trkpt lat="48.86614" lon="2.35341">
        <ele>47.79999923706</ele>
        <time>2016-02-15T19:23:58Z</time>
      </trkpt>
      <trkpt lat="48.86613" lon="2.35369">
        <ele>47.79999923706</ele>
        <time>2016-02-15T19:24:04Z</time>
      </trkpt>
      <trkpt lat="48.8661" lon="2.35404">
        <ele>48</ele>
        <time>2016-02-15T19:24:10Z</time>
      </trkpt>
      <trkpt lat="48.86607" lon="2.35438">
        <ele>47.400001525879</ele>
        <time>2016-02-15T19:24:17Z</time>
      </trkpt>
      <trkpt lat="48.866" lon="2.35464">
        <ele>46.79999923706</ele>
        <time>2016-02-15T19:24:21Z</time>
      </trkpt>
      <trkpt lat="48.86592" lon="2.3549">
        <ele>46.400001525879</ele>
        <time>2016-02-15T19:24:25Z</time>
      </trkpt>
      <trkpt lat="48.86585" lon="2.35521">
        <ele>45.400001525879</ele>
        <time>2016-02-15T19:24:30Z</time>
      </trkpt>
      <trkpt lat="48.86575" lon="2.35548">
        <ele>44</ele>
        <time>2016-02-15T19:24:35Z</time>
      </trkpt>
      <trkpt lat="48.86563" lon="2.3557">
        <ele>44</ele>
        <time>2016-02-15T19:24:40Z</time>
      </trkpt>
      <trkpt lat="48.86559" lon="2.35579">
        <ele>43.79999923706</ele>
        <time>2016-02-15T19:24:43Z</time>
      </trkpt>
      <trkpt lat="48.86556" lon="2.35598">
        <ele>44.400001525879</ele>
        <time>2016-02-15T19:24:47Z</time>
      </trkpt>
      <trkpt lat="48.86556" lon="2.35628">
        <ele>44.79999923706</ele>
        <time>2016-02-15T19:24:52Z</time>
      </trkpt>
      <trkpt lat="48.86556" lon="2.35659">
        <ele>44.79999923706</ele>
        <time>2016-02-15T19:24:57Z</time>
      </trkpt>
      <trkpt lat="48.8655" lon="2.35686">
        <ele>45.599998474121</ele>
        <time>2016-02-15T19:25:01Z</time>
      </trkpt>
      <trkpt lat="48.86544" lon="2.35712">
        <ele>45.400001525879</ele>
        <time>2016-02-15T19:25:05Z</time>
      </trkpt>
      <trkpt lat="48.86538" lon="2.35743">
        <ele>45</ele>
        <time>2016-02-15T19:25:10Z</time>
      </trkpt>
      <trkpt lat="48.86534" lon="2.35771">
        <ele>45</ele>
        <time>2016-02-15T19:25:14Z</time>
      </trkpt>
      <trkpt lat="48.86527" lon="2.35799">
        <ele>45.599998474121</ele>
        <time>2016-02-15T19:25:18Z</time>
      </trkpt>
      <trkpt lat="48.86525" lon="2.35813">
        <ele>45.79999923706</ele>
        <time>2016-02-15T19:25:20Z</time>
      </trkpt>
      <trkpt lat="48.86517" lon="2.35841">
        <ele>45.79999923706</ele>
        <time>2016-02-15T19:25:24Z</time>
      </trkpt>
      <trkpt lat="48.86508" lon="2.35873">
        <ele>45</ele>
        <time>2016-02-15T19:25:28Z</time>
      </trkpt>
      <trkpt lat="48.86499" lon="2.35904">
        <ele>44.599998474121</ele>
        <time>2016-02-15T19:25:32Z</time>
      </trkpt>
      <trkpt lat="48.86491" lon="2.3593">
        <ele>45</ele>
        <time>2016-02-15T19:25:36Z</time>
      </trkpt>
      <trkpt lat="48.86483" lon="2.35958">
        <ele>45.400001525879</ele>
        <time>2016-02-15T19:25:41Z</time>
      </trkpt>
      <trkpt lat="48.86479" lon="2.35975">
        <ele>45</ele>
        <time>2016-02-15T19:25:44Z</time>
      </trkpt>
      <trkpt lat="48.8647" lon="2.35993">
        <ele>44.400001525879</ele>
        <time>2016-02-15T19:25:48Z</time>
      </trkpt>
      <trkpt lat="48.86457" lon="2.36013">
        <ele>44</ele>
        <time>2016-02-15T19:25:52Z</time>
      </trkpt>
      <trkpt lat="48.86439" lon="2.36031">
        <ele>42.79999923706</ele>
        <time>2016-02-15T19:25:56Z</time>
      </trkpt>
      <trkpt lat="48.86432" lon="2.36041">
        <ele>42.599998474121</ele>
        <time>2016-02-15T19:25:58Z</time>
      </trkpt>
      <trkpt lat="48.86415" lon="2.36062">
        <ele>42</ele>
        <time>2016-02-15T19:26:02Z</time>
      </trkpt>
      <trkpt lat="48.86407" lon="2.36077">
        <ele>42.20000076294</ele>
        <time>2016-02-15T19:26:05Z</time>
      </trkpt>
      <trkpt lat="48.86397" lon="2.36102">
        <ele>42.79999923706</ele>
        <time>2016-02-15T19:26:10Z</time>
      </trkpt>
      <trkpt lat="48.864" lon="2.36128">
        <ele>43</ele>
        <time>2016-02-15T19:26:18Z</time>
      </trkpt>
      <trkpt lat="48.86414" lon="2.36147">
        <ele>42.599998474121</ele>
        <time>2016-02-15T19:26:23Z</time>
      </trkpt>
      <trkpt lat="48.86419" lon="2.36152">
        <ele>42.400001525879</ele>
        <time>2016-02-15T19:26:25Z</time>
      </trkpt>
      <trkpt lat="48.86432" lon="2.36172">
        <ele>42</ele>
        <time>2016-02-15T19:26:32Z</time>
      </trkpt>
      <trkpt lat="48.86447" lon="2.36187">
        <ele>42</ele>
        <time>2016-02-15T19:26:37Z</time>
      </trkpt>
      <trkpt lat="48.86463" lon="2.36206">
        <ele>42.20000076294</ele>
        <time>2016-02-15T19:26:42Z</time>
      </trkpt>
      <trkpt lat="48.86479" lon="2.36224">
        <ele>42.400001525879</ele>
        <time>2016-02-15T19:26:47Z</time>
      </trkpt>
      <trkpt lat="48.86496" lon="2.3624">
        <ele>42.599998474121</ele>
        <time>2016-02-15T19:26:52Z</time>
      </trkpt>
      <trkpt lat="48.86509" lon="2.36264">
        <ele>43</ele>
        <time>2016-02-15T19:26:58Z</time>
      </trkpt>
      <trkpt lat="48.86519" lon="2.3629">
        <ele>43.400001525879</ele>
        <time>2016-02-15T19:27:03Z</time>
      </trkpt>
      <trkpt lat="48.86525" lon="2.36317">
        <ele>44</ele>
        <time>2016-02-15T19:27:07Z</time>
      </trkpt>
      <trkpt lat="48.86531" lon="2.36345">
        <ele>44.79999923706</ele>
        <time>2016-02-15T19:27:13Z</time>
      </trkpt>
      <trkpt lat="48.86538" lon="2.36371">
        <ele>46</ele>
        <time>2016-02-15T19:27:18Z</time>
      </trkpt>
      <trkpt lat="48.86543" lon="2.36399">
        <ele>47.20000076294</ele>
        <time>2016-02-15T19:27:25Z</time>
      </trkpt>
      <trkpt lat="48.86543" lon="2.36401">
        <ele>47.20000076294</ele>
        <time>2016-02-15T19:27:26Z</time>
      </trkpt>
      <trkpt lat="48.86528" lon="2.36424">
        <ele>47.20000076294</ele>
        <time>2016-02-15T19:27:38Z</time>
      </trkpt>
      <trkpt lat="48.86513" lon="2.36445">
        <ele>47.599998474121</ele>
        <time>2016-02-15T19:27:44Z</time>
      </trkpt>
      <trkpt lat="48.86506" lon="2.36456">
        <ele>47.79999923706</ele>
        <time>2016-02-15T19:27:48Z</time>
      </trkpt>
      <trkpt lat="48.86507" lon="2.36477">
        <ele>48.400001525879</ele>
        <time>2016-02-15T19:27:55Z</time>
      </trkpt>
      <trkpt lat="48.86518" lon="2.365">
        <ele>48.79999923706</ele>
        <time>2016-02-15T19:28:02Z</time>
      </trkpt>
      <trkpt lat="48.86526" lon="2.36529">
        <ele>48.20000076294</ele>
        <time>2016-02-15T19:28:10Z</time>
      </trkpt>
      <trkpt lat="48.86527" lon="2.36541">
        <ele>48</ele>
        <time>2016-02-15T19:28:14Z</time>
      </trkpt>
      <trkpt lat="48.86508" lon="2.36553">
        <ele>47.400001525879</ele>
        <time>2016-02-15T19:28:18Z</time>
      </trkpt>
      <trkpt lat="48.86492" lon="2.36566">
        <ele>47.20000076294</ele>
        <time>2016-02-15T19:28:22Z</time>
      </trkpt>
      <trkpt lat="48.86474" lon="2.36581">
        <ele>47</ele>
        <time>2016-02-15T19:28:26Z</time>
      </trkpt>
      <trkpt lat="48.86456" lon="2.36595">
        <ele>46.599998474121</ele>
        <time>2016-02-15T19:28:30Z</time>
      </trkpt>
      <trkpt lat="48.86438" lon="2.36609">
        <ele>47</ele>
        <time>2016-02-15T19:28:34Z</time>
      </trkpt>
      <trkpt lat="48.86418" lon="2.36623">
        <ele>46</ele>
        <time>2016-02-15T19:28:38Z</time>
      </trkpt>
      <trkpt lat="48.86399" lon="2.36636">
        <ele>45.20000076294</ele>
        <time>2016-02-15T19:28:42Z</time>
      </trkpt>
      <trkpt lat="48.86379" lon="2.36648">
        <ele>44.599998474121</ele>
        <time>2016-02-15T19:28:46Z</time>
      </trkpt>
      <trkpt lat="48.86362" lon="2.3666">
        <ele>44.20000076294</ele>
        <time>2016-02-15T19:28:50Z</time>
      </trkpt>
      <trkpt lat="48.86344" lon="2.36672">
        <ele>43.79999923706</ele>
        <time>2016-02-15T19:28:55Z</time>
      </trkpt>
      <trkpt lat="48.86326" lon="2.36685">
        <ele>43.400001525879</ele>
        <time>2016-02-15T19:29:00Z</time>
      </trkpt>
      <trkpt lat="48.86316" lon="2.3669">
        <ele>43.20000076294</ele>
        <time>2016-02-15T19:29:04Z</time>
      </trkpt>
      <trkpt lat="48.86307" lon="2.36693">
        <ele>43</ele>
        <time>2016-02-15T19:29:06Z</time>
      </trkpt>
      <trkpt lat="48.86292" lon="2.36699">
        <ele>43.20000076294</ele>
        <time>2016-02-15T19:29:10Z</time>
      </trkpt>
      <trkpt lat="48.86284" lon="2.36708">
        <ele>43.400001525879</ele>
        <time>2016-02-15T19:29:14Z</time>
      </trkpt>
      <trkpt lat="48.86279" lon="2.36725">
        <ele>43.599998474121</ele>
        <time>2016-02-15T19:29:18Z</time>
      </trkpt>
      <trkpt lat="48.86282" lon="2.36754">
        <ele>43.79999923706</ele>
        <time>2016-02-15T19:29:23Z</time>
      </trkpt>
      <trkpt lat="48.86293" lon="2.3678">
        <ele>43.400001525879</ele>
        <time>2016-02-15T19:29:27Z</time>
      </trkpt>
      <trkpt lat="48.86303" lon="2.36807">
        <ele>42.599998474121</ele>
        <time>2016-02-15T19:29:31Z</time>
      </trkpt>
      <trkpt lat="48.86313" lon="2.36833">
        <ele>42</ele>
        <time>2016-02-15T19:29:35Z</time>
      </trkpt>
      <trkpt lat="48.86323" lon="2.36859">
        <ele>42.79999923706</ele>
        <time>2016-02-15T19:29:39Z</time>
      </trkpt>
      <trkpt lat="48.86332" lon="2.36885">
        <ele>43.79999923706</ele>
        <time>2016-02-15T19:29:43Z</time>
      </trkpt>
      <trkpt lat="48.86341" lon="2.36915">
        <ele>44.20000076294</ele>
        <time>2016-02-15T19:29:48Z</time>
      </trkpt>
      <trkpt lat="48.8635" lon="2.36943">
        <ele>45</ele>
        <time>2016-02-15T19:29:53Z</time>
      </trkpt>
      <trkpt lat="48.86354" lon="2.3696">
        <ele>45.400001525879</ele>
        <time>2016-02-15T19:29:56Z</time>
      </trkpt>
      <trkpt lat="48.86365" lon="2.36986">
        <ele>45.599998474121</ele>
        <time>2016-02-15T19:30:02Z</time>
      </trkpt>
      <trkpt lat="48.86368" lon="2.36996">
        <ele>45.599998474121</ele>
        <time>2016-02-15T19:30:06Z</time>
      </trkpt>
      <trkpt lat="48.86375" lon="2.37002">
        <ele>45.400001525879</ele>
        <time>2016-02-15T19:30:14Z</time>
      </trkpt>
      <trkpt lat="48.86375" lon="2.37002">
        <ele>45.400001525879</ele>
        <time>2016-02-15T19:30:15Z</time>
      </trkpt>
      <trkpt lat="48.86377" lon="2.37024">
        <ele>44.599998474121</ele>
        <time>2016-02-15T19:30:28Z</time>
      </trkpt>
      <trkpt lat="48.86368" lon="2.37051">
        <ele>44.400001525879</ele>
        <time>2016-02-15T19:30:34Z</time>
      </trkpt>
      <trkpt lat="48.86357" lon="2.3708">
        <ele>44</ele>
        <time>2016-02-15T19:30:40Z</time>
      </trkpt>
      <trkpt lat="48.86344" lon="2.37104">
        <ele>43.79999923706</ele>
        <time>2016-02-15T19:30:45Z</time>
      </trkpt>
      <trkpt lat="48.86331" lon="2.37126">
        <ele>43.79999923706</ele>
        <time>2016-02-15T19:30:51Z</time>
      </trkpt>
      <trkpt lat="48.86316" lon="2.37148">
        <ele>43.79999923706</ele>
        <time>2016-02-15T19:30:56Z</time>
      </trkpt>
      <trkpt lat="48.86297" lon="2.37166">
        <ele>44</ele>
        <time>2016-02-15T19:31:00Z</time>
      </trkpt>
      <trkpt lat="48.86283" lon="2.37184">
        <ele>44.400001525879</ele>
        <time>2016-02-15T19:31:03Z</time>
      </trkpt>
      <trkpt lat="48.8627" lon="2.37212">
        <ele>44.599998474121</ele>
        <time>2016-02-15T19:31:07Z</time>
      </trkpt>
      <trkpt lat="48.86257" lon="2.3724">
        <ele>45</ele>
        <time>2016-02-15T19:31:11Z</time>
      </trkpt>
      <trkpt lat="48.86242" lon="2.37256">
        <ele>45</ele>
        <time>2016-02-15T19:31:14Z</time>
      </trkpt>
      <trkpt lat="48.86228" lon="2.3728">
        <ele>45.400001525879</ele>
        <time>2016-02-15T19:31:18Z</time>
      </trkpt>
      <trkpt lat="48.86214" lon="2.37304">
        <ele>46</ele>
        <time>2016-02-15T19:31:22Z</time>
      </trkpt>
      <trkpt lat="48.86199" lon="2.3733">
        <ele>46.79999923706</ele>
        <time>2016-02-15T19:31:26Z</time>
      </trkpt>
      <trkpt lat="48.86184" lon="2.37355">
        <ele>46.400001525879</ele>
        <time>2016-02-15T19:31:30Z</time>
      </trkpt>
      <trkpt lat="48.8617" lon="2.3738">
        <ele>45.400001525879</ele>
        <time>2016-02-15T19:31:34Z</time>
      </trkpt>
      <trkpt lat="48.86157" lon="2.37403">
        <ele>44.79999923706</ele>
        <time>2016-02-15T19:31:38Z</time>
      </trkpt>
      <trkpt lat="48.86142" lon="2.37428">
        <ele>44.400001525879</ele>
        <time>2016-02-15T19:31:42Z</time>
      </trkpt>
      <trkpt lat="48.86128" lon="2.37454">
        <ele>43.79999923706</ele>
        <time>2016-02-15T19:31:46Z</time>
      </trkpt>
      <trkpt lat="48.86113" lon="2.3748">
        <ele>42.599998474121</ele>
        <time>2016-02-15T19:31:50Z</time>
      </trkpt>
      <trkpt lat="48.86098" lon="2.37506">
        <ele>42.400001525879</ele>
        <time>2016-02-15T19:31:54Z</time>
      </trkpt>
      <trkpt lat="48.86084" lon="2.37526">
        <ele>42.79999923706</ele>
        <time>2016-02-15T19:31:57Z</time>
      </trkpt>
      <trkpt lat="48.86069" lon="2.37551">
        <ele>43.599998474121</ele>
        <time>2016-02-15T19:32:01Z</time>
      </trkpt>
      <trkpt lat="48.86053" lon="2.37577">
        <ele>45.400001525879</ele>
        <time>2016-02-15T19:32:05Z</time>
      </trkpt>
      <trkpt lat="48.86038" lon="2.37604">
        <ele>47</ele>
        <time>2016-02-15T19:32:09Z</time>
      </trkpt>
      <trkpt lat="48.86032" lon="2.37617">
        <ele>47.400001525879</ele>
        <time>2016-02-15T19:32:11Z</time>
      </trkpt>
      <trkpt lat="48.86017" lon="2.37641">
        <ele>47.400001525879</ele>
        <time>2016-02-15T19:32:15Z</time>
      </trkpt>
      <trkpt lat="48.86004" lon="2.37663">
        <ele>47</ele>
        <time>2016-02-15T19:32:19Z</time>
      </trkpt>
      <trkpt lat="48.85989" lon="2.37687">
        <ele>47</ele>
        <time>2016-02-15T19:32:24Z</time>
      </trkpt>
      <trkpt lat="48.85986" lon="2.37692">
        <ele>47</ele>
        <time>2016-02-15T19:32:25Z</time>
      </trkpt>
      <trkpt lat="48.85974" lon="2.37717">
        <ele>47.20000076294</ele>
        <time>2016-02-15T19:32:30Z</time>
      </trkpt>
      <trkpt lat="48.85963" lon="2.37734">
        <ele>47.400001525879</ele>
        <time>2016-02-15T19:32:33Z</time>
      </trkpt>
      <trkpt lat="48.8595" lon="2.37756">
        <ele>47.400001525879</ele>
        <time>2016-02-15T19:32:37Z</time>
      </trkpt>
      <trkpt lat="48.85939" lon="2.37778">
        <ele>47</ele>
        <time>2016-02-15T19:32:41Z</time>
      </trkpt>
      <trkpt lat="48.85936" lon="2.37783">
        <ele>47</ele>
        <time>2016-02-15T19:32:42Z</time>
      </trkpt>
      <trkpt lat="48.85924" lon="2.37804">
        <ele>46.599998474121</ele>
        <time>2016-02-15T19:32:46Z</time>
      </trkpt>
      <trkpt lat="48.85909" lon="2.37828">
        <ele>46.599998474121</ele>
        <time>2016-02-15T19:32:51Z</time>
      </trkpt>
      <trkpt lat="48.85895" lon="2.37852">
        <ele>46.79999923706</ele>
        <time>2016-02-15T19:32:56Z</time>
      </trkpt>
      <trkpt lat="48.85884" lon="2.37878">
        <ele>46.599998474121</ele>
        <time>2016-02-15T19:33:01Z</time>
      </trkpt>
      <trkpt lat="48.85872" lon="2.37905">
        <ele>46.400001525879</ele>
        <time>2016-02-15T19:33:06Z</time>
      </trkpt>
      <trkpt lat="48.85863" lon="2.37918">
        <ele>46.20000076294</ele>
        <time>2016-02-15T19:33:08Z</time>
      </trkpt>
      <trkpt lat="48.85849" lon="2.37938">
        <ele>45.20000076294</ele>
        <time>2016-02-15T19:33:12Z</time>
      </trkpt>
      <trkpt lat="48.85845" lon="2.37943">
        <ele>45</ele>
        <time>2016-02-15T19:33:13Z</time>
      </trkpt>
      <trkpt lat="48.8583" lon="2.37956">
        <ele>44</ele>
        <time>2016-02-15T19:33:17Z</time>
      </trkpt>
      <trkpt lat="48.85824" lon="2.37965">
        <ele>43.599998474121</ele>
        <time>2016-02-15T19:33:19Z</time>
      </trkpt>
      <trkpt lat="48.85816" lon="2.37978">
        <ele>43.79999923706</ele>
        <time>2016-02-15T19:33:23Z</time>
      </trkpt>
      <trkpt lat="48.85812" lon="2.37987">
        <ele>43.79999923706</ele>
        <time>2016-02-15T19:33:26Z</time>
      </trkpt>
      <trkpt lat="48.85804" lon="2.38001">
        <ele>44.20000076294</ele>
        <time>2016-02-15T19:33:31Z</time>
      </trkpt>
      <trkpt lat="48.8579" lon="2.38023">
        <ele>45</ele>
        <time>2016-02-15T19:33:37Z</time>
      </trkpt>
      <trkpt lat="48.85785" lon="2.38045">
        <ele>45.79999923706</ele>
        <time>2016-02-15T19:33:44Z</time>
      </trkpt>
      <trkpt lat="48.85786" lon="2.38074">
        <ele>46.79999923706</ele>
        <time>2016-02-15T19:33:55Z</time>
      </trkpt>
      <trkpt lat="48.85792" lon="2.38104">
        <ele>48</ele>
        <time>2016-02-15T19:34:01Z</time>
      </trkpt>
      <trkpt lat="48.85799" lon="2.38133">
        <ele>48.599998474121</ele>
        <time>2016-02-15T19:34:06Z</time>
      </trkpt>
      <trkpt lat="48.85805" lon="2.3816">
        <ele>49</ele>
        <time>2016-02-15T19:34:10Z</time>
      </trkpt>
      <trkpt lat="48.8581" lon="2.38187">
        <ele>48.79999923706</ele>
        <time>2016-02-15T19:34:14Z</time>
      </trkpt>
      <trkpt lat="48.85819" lon="2.38214">
        <ele>48.599998474121</ele>
        <time>2016-02-15T19:34:18Z</time>
      </trkpt>
      <trkpt lat="48.85827" lon="2.38234">
        <ele>48.599998474121</ele>
        <time>2016-02-15T19:34:21Z</time>
      </trkpt>
      <trkpt lat="48.85831" lon="2.38257">
        <ele>48.79999923706</ele>
        <time>2016-02-15T19:34:24Z</time>
      </trkpt>
      <trkpt lat="48.85839" lon="2.3829">
        <ele>49.20000076294</ele>
        <time>2016-02-15T19:34:28Z</time>
      </trkpt>
      <trkpt lat="48.85847" lon="2.38321">
        <ele>49.79999923706</ele>
        <time>2016-02-15T19:34:32Z</time>
      </trkpt>
      <trkpt lat="48.85855" lon="2.3835">
        <ele>49</ele>
        <time>2016-02-15T19:34:37Z</time>
      </trkpt>
      <trkpt lat="48.85859" lon="2.38362">
        <ele>48.599998474121</ele>
        <time>2016-02-15T19:34:42Z</time>
      </trkpt>
      <trkpt lat="48.85872" lon="2.38354">
        <ele>49.20000076294</ele>
        <time>2016-02-15T19:34:49Z</time>
      </trkpt>
      <trkpt lat="48.85875" lon="2.38352">
        <ele>49.20000076294</ele>
        <time>2016-02-15T19:34:50Z</time>
      </trkpt>
      <trkpt lat="48.85894" lon="2.3834">
        <ele>50</ele>
        <time>2016-02-15T19:34:56Z</time>
      </trkpt>
      <trkpt lat="48.85911" lon="2.38327">
        <ele>50.599998474121</ele>
        <time>2016-02-15T19:35:01Z</time>
      </trkpt>
      <trkpt lat="48.85927" lon="2.38309">
        <ele>51</ele>
        <time>2016-02-15T19:35:06Z</time>
      </trkpt>
      <trkpt lat="48.85944" lon="2.3829">
        <ele>52</ele>
        <time>2016-02-15T19:35:13Z</time>
      </trkpt>
      <trkpt lat="48.85961" lon="2.38274">
        <ele>52.400001525879</ele>
        <time>2016-02-15T19:35:17Z</time>
      </trkpt>
      <trkpt lat="48.85976" lon="2.3826">
        <ele>52.400001525879</ele>
        <time>2016-02-15T19:35:21Z</time>
      </trkpt>
      <trkpt lat="48.85993" lon="2.38246">
        <ele>52.400001525879</ele>
        <time>2016-02-15T19:35:25Z</time>
      </trkpt>
      <trkpt lat="48.86009" lon="2.3823">
        <ele>52.79999923706</ele>
        <time>2016-02-15T19:35:29Z</time>
      </trkpt>
      <trkpt lat="48.86012" lon="2.38226">
        <ele>52.599998474121</ele>
        <time>2016-02-15T19:35:30Z</time>
      </trkpt>
      <trkpt lat="48.86026" lon="2.38212">
        <ele>52.599998474121</ele>
        <time>2016-02-15T19:35:34Z</time>
      </trkpt>
      <trkpt lat="48.86042" lon="2.38192">
        <ele>53.20000076294</ele>
        <time>2016-02-15T19:35:39Z</time>
      </trkpt>
      <trkpt lat="48.86057" lon="2.38174">
        <ele>54</ele>
        <time>2016-02-15T19:35:43Z</time>
      </trkpt>
      <trkpt lat="48.86061" lon="2.38171">
        <ele>54.20000076294</ele>
        <time>2016-02-15T19:35:44Z</time>
      </trkpt>
      <trkpt lat="48.86076" lon="2.38155">
        <ele>54.79999923706</ele>
        <time>2016-02-15T19:35:48Z</time>
      </trkpt>
      <trkpt lat="48.8609" lon="2.38139">
        <ele>55.20000076294</ele>
        <time>2016-02-15T19:35:52Z</time>
      </trkpt>
      <trkpt lat="48.86099" lon="2.38127">
        <ele>55.20000076294</ele>
        <time>2016-02-15T19:35:55Z</time>
      </trkpt>
      <trkpt lat="48.86117" lon="2.38108">
        <ele>55.20000076294</ele>
        <time>2016-02-15T19:36:00Z</time>
      </trkpt>
      <trkpt lat="48.8612" lon="2.38104">
        <ele>55.20000076294</ele>
        <time>2016-02-15T19:36:01Z</time>
      </trkpt>
      <trkpt lat="48.86134" lon="2.38086">
        <ele>55</ele>
        <time>2016-02-15T19:36:05Z</time>
      </trkpt>
      <trkpt lat="48.86142" lon="2.38073">
        <ele>54.79999923706</ele>
        <time>2016-02-15T19:36:08Z</time>
      </trkpt>
      <trkpt lat="48.86159" lon="2.38056">
        <ele>54.400001525879</ele>
        <time>2016-02-15T19:36:13Z</time>
      </trkpt>
      <trkpt lat="48.86179" lon="2.38042">
        <ele>55.20000076294</ele>
        <time>2016-02-15T19:36:18Z</time>
      </trkpt>
      <trkpt lat="48.86182" lon="2.38037">
        <ele>55.20000076294</ele>
        <time>2016-02-15T19:36:19Z</time>
      </trkpt>
      <trkpt lat="48.86193" lon="2.38029">
        <ele>55.599998474121</ele>
        <time>2016-02-15T19:36:22Z</time>
      </trkpt>
      <trkpt lat="48.86207" lon="2.38013">
        <ele>56</ele>
        <time>2016-02-15T19:36:26Z</time>
      </trkpt>
      <trkpt lat="48.8621" lon="2.3801">
        <ele>56</ele>
        <time>2016-02-15T19:36:27Z</time>
      </trkpt>
      <trkpt lat="48.86226" lon="2.37988">
        <ele>55.400001525879</ele>
        <time>2016-02-15T19:36:32Z</time>
      </trkpt>
      <trkpt lat="48.86233" lon="2.37972">
        <ele>54.400001525879</ele>
        <time>2016-02-15T19:36:35Z</time>
      </trkpt>
      <trkpt lat="48.86244" lon="2.37965">
        <ele>54.20000076294</ele>
        <time>2016-02-15T19:36:38Z</time>
      </trkpt>
      <trkpt lat="48.86259" lon="2.37948">
        <ele>54.79999923706</ele>
        <time>2016-02-15T19:36:42Z</time>
      </trkpt>
      <trkpt lat="48.86269" lon="2.37943">
        <ele>55.20000076294</ele>
        <time>2016-02-15T19:36:46Z</time>
      </trkpt>
      <trkpt lat="48.86289" lon="2.37935">
        <ele>55.79999923706</ele>
        <time>2016-02-15T19:36:52Z</time>
      </trkpt>
      <trkpt lat="48.86295" lon="2.3793">
        <ele>55.79999923706</ele>
        <time>2016-02-15T19:36:54Z</time>
      </trkpt>
      <trkpt lat="48.86312" lon="2.37917">
        <ele>55.599998474121</ele>
        <time>2016-02-15T19:36:59Z</time>
      </trkpt>
      <trkpt lat="48.8633" lon="2.37901">
        <ele>55.599998474121</ele>
        <time>2016-02-15T19:37:04Z</time>
      </trkpt>
      <trkpt lat="48.86346" lon="2.37888">
        <ele>55.400001525879</ele>
        <time>2016-02-15T19:37:08Z</time>
      </trkpt>
      <trkpt lat="48.86363" lon="2.37875">
        <ele>55.20000076294</ele>
        <time>2016-02-15T19:37:12Z</time>
      </trkpt>
      <trkpt lat="48.86379" lon="2.37853">
        <ele>54.79999923706</ele>
        <time>2016-02-15T19:37:17Z</time>
      </trkpt>
      <trkpt lat="48.86391" lon="2.37844">
        <ele>55</ele>
        <time>2016-02-15T19:37:21Z</time>
      </trkpt>
      <trkpt lat="48.86403" lon="2.37841">
        <ele>55.20000076294</ele>
        <time>2016-02-15T19:37:24Z</time>
      </trkpt>
      <trkpt lat="48.86417" lon="2.37819">
        <ele>55.20000076294</ele>
        <time>2016-02-15T19:37:26Z</time>
      </trkpt>
      <trkpt lat="48.86434" lon="2.37797">
        <ele>55.79999923706</ele>
        <time>2016-02-15T19:37:30Z</time>
      </trkpt>
      <trkpt lat="48.86453" lon="2.37788">
        <ele>55.599998474121</ele>
        <time>2016-02-15T19:37:34Z</time>
      </trkpt>
      <trkpt lat="48.86466" lon="2.37781">
        <ele>55.400001525879</ele>
        <time>2016-02-15T19:37:37Z</time>
      </trkpt>
      <trkpt lat="48.86486" lon="2.37771">
        <ele>54.79999923706</ele>
        <time>2016-02-15T19:37:41Z</time>
      </trkpt>
      <trkpt lat="48.86507" lon="2.37755">
        <ele>54.400001525879</ele>
        <time>2016-02-15T19:37:45Z</time>
      </trkpt>
      <trkpt lat="48.86523" lon="2.37737">
        <ele>54.20000076294</ele>
        <time>2016-02-15T19:37:49Z</time>
      </trkpt>
      <trkpt lat="48.86537" lon="2.37731">
        <ele>53.79999923706</ele>
        <time>2016-02-15T19:37:52Z</time>
      </trkpt>
      <trkpt lat="48.86557" lon="2.37717">
        <ele>53.599998474121</ele>
        <time>2016-02-15T19:37:57Z</time>
      </trkpt>
      <trkpt lat="48.86578" lon="2.37703">
        <ele>53.599998474121</ele>
        <time>2016-02-15T19:38:02Z</time>
      </trkpt>
      <trkpt lat="48.86593" lon="2.37691">
        <ele>54</ele>
        <time>2016-02-15T19:38:06Z</time>
      </trkpt>
      <trkpt lat="48.86606" lon="2.37684">
        <ele>54.20000076294</ele>
        <time>2016-02-15T19:38:10Z</time>
      </trkpt>
      <trkpt lat="48.86623" lon="2.37676">
        <ele>54.20000076294</ele>
        <time>2016-02-15T19:38:14Z</time>
      </trkpt>
      <trkpt lat="48.86628" lon="2.37672">
        <ele>54.20000076294</ele>
        <time>2016-02-15T19:38:15Z</time>
      </trkpt>
      <trkpt lat="48.86648" lon="2.37654">
        <ele>53.20000076294</ele>
        <time>2016-02-15T19:38:19Z</time>
      </trkpt>
      <trkpt lat="48.86653" lon="2.37652">
        <ele>52.79999923706</ele>
        <time>2016-02-15T19:38:20Z</time>
      </trkpt>
      <trkpt lat="48.86671" lon="2.37639">
        <ele>51.79999923706</ele>
        <time>2016-02-15T19:38:24Z</time>
      </trkpt>
      <trkpt lat="48.86675" lon="2.37635">
        <ele>51.400001525879</ele>
        <time>2016-02-15T19:38:25Z</time>
      </trkpt>
      <trkpt lat="48.86691" lon="2.37616">
        <ele>50.20000076294</ele>
        <time>2016-02-15T19:38:29Z</time>
      </trkpt>
      <trkpt lat="48.867" lon="2.37609">
        <ele>50.20000076294</ele>
        <time>2016-02-15T19:38:31Z</time>
      </trkpt>
      <trkpt lat="48.86714" lon="2.376">
        <ele>50</ele>
        <time>2016-02-15T19:38:34Z</time>
      </trkpt>
      <trkpt lat="48.86725" lon="2.37587">
        <ele>49.599998474121</ele>
        <time>2016-02-15T19:38:37Z</time>
      </trkpt>
      <trkpt lat="48.86742" lon="2.37568">
        <ele>49.599998474121</ele>
        <time>2016-02-15T19:38:42Z</time>
      </trkpt>
      <trkpt lat="48.86762" lon="2.37553">
        <ele>49.599998474121</ele>
        <time>2016-02-15T19:38:47Z</time>
      </trkpt>
      <trkpt lat="48.86775" lon="2.37537">
        <ele>49.400001525879</ele>
        <time>2016-02-15T19:38:51Z</time>
      </trkpt>
      <trkpt lat="48.86789" lon="2.37519">
        <ele>49.400001525879</ele>
        <time>2016-02-15T19:38:56Z</time>
      </trkpt>
      <trkpt lat="48.86794" lon="2.37513">
        <ele>49.599998474121</ele>
        <time>2016-02-15T19:38:58Z</time>
      </trkpt>
      <trkpt lat="48.86794" lon="2.37502">
        <ele>50</ele>
        <time>2016-02-15T19:39:02Z</time>
      </trkpt>
      <trkpt lat="48.86794" lon="2.375">
        <ele>50</ele>
        <time>2016-02-15T19:39:03Z</time>
      </trkpt>
      <trkpt lat="48.86817" lon="2.37492">
        <ele>51.20000076294</ele>
        <time>2016-02-15T19:39:07Z</time>
      </trkpt>
      <trkpt lat="48.86822" lon="2.37489">
        <ele>51.400001525879</ele>
        <time>2016-02-15T19:39:08Z</time>
      </trkpt>
      <trkpt lat="48.8684" lon="2.37476">
        <ele>52.400001525879</ele>
        <time>2016-02-15T19:39:13Z</time>
      </trkpt>
      <trkpt lat="48.86852" lon="2.37465">
        <ele>52.79999923706</ele>
        <time>2016-02-15T19:39:16Z</time>
      </trkpt>
      <trkpt lat="48.86871" lon="2.37445">
        <ele>53.400001525879</ele>
        <time>2016-02-15T19:39:20Z</time>
      </trkpt>
      <trkpt lat="48.86887" lon="2.37432">
        <ele>53.599998474121</ele>
        <time>2016-02-15T19:39:23Z</time>
      </trkpt>
      <trkpt lat="48.86906" lon="2.37419">
        <ele>53.599998474121</ele>
        <time>2016-02-15T19:39:27Z</time>
      </trkpt>
      <trkpt lat="48.86918" lon="2.37404">
        <ele>53.79999923706</ele>
        <time>2016-02-15T19:39:31Z</time>
      </trkpt>
      <trkpt lat="48.86928" lon="2.37398">
        <ele>54.20000076294</ele>
        <time>2016-02-15T19:39:36Z</time>
      </trkpt>
      <trkpt lat="48.86932" lon="2.37396">
        <ele>54.20000076294</ele>
        <time>2016-02-15T19:39:39Z</time>
      </trkpt>
      <trkpt lat="48.8695" lon="2.37388">
        <ele>54.79999923706</ele>
        <time>2016-02-15T19:39:48Z</time>
      </trkpt>
      <trkpt lat="48.86952" lon="2.37385">
        <ele>55</ele>
        <time>2016-02-15T19:39:49Z</time>
      </trkpt>
      <trkpt lat="48.86966" lon="2.37368">
        <ele>55.79999923706</ele>
        <time>2016-02-15T19:39:54Z</time>
      </trkpt>
      <trkpt lat="48.86981" lon="2.37353">
        <ele>56.20000076294</ele>
        <time>2016-02-15T19:39:59Z</time>
      </trkpt>
      <trkpt lat="48.86999" lon="2.37335">
        <ele>56.599998474121</ele>
        <time>2016-02-15T19:40:04Z</time>
      </trkpt>
      <trkpt lat="48.87015" lon="2.37315">
        <ele>57.20000076294</ele>
        <time>2016-02-15T19:40:09Z</time>
      </trkpt>
      <trkpt lat="48.87023" lon="2.37307">
        <ele>57</ele>
        <time>2016-02-15T19:40:12Z</time>
      </trkpt>
      <trkpt lat="48.87034" lon="2.37297">
        <ele>56.79999923706</ele>
        <time>2016-02-15T19:40:16Z</time>
      </trkpt>
      <trkpt lat="48.87053" lon="2.37302">
        <ele>56.20000076294</ele>
        <time>2016-02-15T19:40:52Z</time>
      </trkpt>
      <trkpt lat="48.87068" lon="2.37284">
        <ele>56</ele>
        <time>2016-02-15T19:40:59Z</time>
      </trkpt>
      <trkpt lat="48.87084" lon="2.37269">
        <ele>55.599998474121</ele>
        <time>2016-02-15T19:41:06Z</time>
      </trkpt>
      <trkpt lat="48.871" lon="2.37254">
        <ele>55.20000076294</ele>
        <time>2016-02-15T19:41:12Z</time>
      </trkpt>
      <trkpt lat="48.87116" lon="2.37237">
        <ele>55.20000076294</ele>
        <time>2016-02-15T19:41:18Z</time>
      </trkpt>
      <trkpt lat="48.87135" lon="2.37223">
        <ele>55.599998474121</ele>
        <time>2016-02-15T19:41:24Z</time>
      </trkpt>
      <trkpt lat="48.87152" lon="2.37208">
        <ele>55.79999923706</ele>
        <time>2016-02-15T19:41:30Z</time>
      </trkpt>
      <trkpt lat="48.87169" lon="2.3719">
        <ele>55.400001525879</ele>
        <time>2016-02-15T19:41:40Z</time>
      </trkpt>
      <trkpt lat="48.87187" lon="2.37179">
        <ele>55</ele>
        <time>2016-02-15T19:41:50Z</time>
      </trkpt>
      <trkpt lat="48.87205" lon="2.37165">
        <ele>54.400001525879</ele>
        <time>2016-02-15T19:41:57Z</time>
      </trkpt>
      <trkpt lat="48.87224" lon="2.37153">
        <ele>53.599998474121</ele>
        <time>2016-02-15T19:42:03Z</time>
      </trkpt>
      <trkpt lat="48.87239" lon="2.37138">
        <ele>52.79999923706</ele>
        <time>2016-02-15T19:42:09Z</time>
      </trkpt>
      <trkpt lat="48.87258" lon="2.37125">
        <ele>52.400001525879</ele>
        <time>2016-02-15T19:42:13Z</time>
      </trkpt>
      <trkpt lat="48.87278" lon="2.37109">
        <ele>52</ele>
        <time>2016-02-15T19:42:17Z</time>
      </trkpt>
      <trkpt lat="48.87295" lon="2.37095">
        <ele>52.20000076294</ele>
        <time>2016-02-15T19:42:21Z</time>
      </trkpt>
      <trkpt lat="48.87314" lon="2.37083">
        <ele>52.400001525879</ele>
        <time>2016-02-15T19:42:26Z</time>
      </trkpt>
      <trkpt lat="48.8733" lon="2.37066">
        <ele>51.400001525879</ele>
        <time>2016-02-15T19:42:29Z</time>
      </trkpt>
      <trkpt lat="48.8734" lon="2.37052">
        <ele>50.400001525879</ele>
        <time>2016-02-15T19:42:31Z</time>
      </trkpt>
      <trkpt lat="48.87344" lon="2.37048">
        <ele>50.20000076294</ele>
        <time>2016-02-15T19:42:35Z</time>
      </trkpt>
      <trkpt lat="48.87347" lon="2.37076">
        <ele>52.400001525879</ele>
        <time>2016-02-15T19:42:44Z</time>
      </trkpt>
      <trkpt lat="48.87358" lon="2.371">
        <ele>53</ele>
        <time>2016-02-15T19:42:49Z</time>
      </trkpt>
      <trkpt lat="48.87372" lon="2.37125">
        <ele>54.20000076294</ele>
        <time>2016-02-15T19:42:54Z</time>
      </trkpt>
      <trkpt lat="48.87374" lon="2.37131">
        <ele>54.20000076294</ele>
        <time>2016-02-15T19:42:55Z</time>
      </trkpt>
      <trkpt lat="48.87381" lon="2.37158">
        <ele>54.79999923706</ele>
        <time>2016-02-15T19:42:59Z</time>
      </trkpt>
      <trkpt lat="48.87388" lon="2.37176">
        <ele>55.20000076294</ele>
        <time>2016-02-15T19:43:02Z</time>
      </trkpt>
      <trkpt lat="48.87396" lon="2.37201">
        <ele>55.79999923706</ele>
        <time>2016-02-15T19:43:07Z</time>
      </trkpt>
      <trkpt lat="48.87406" lon="2.37227">
        <ele>56.599998474121</ele>
        <time>2016-02-15T19:43:12Z</time>
      </trkpt>
      <trkpt lat="48.87416" lon="2.37253">
        <ele>57.400001525879</ele>
        <time>2016-02-15T19:43:18Z</time>
      </trkpt>
      <trkpt lat="48.87432" lon="2.37273">
        <ele>58.79999923706</ele>
        <time>2016-02-15T19:43:26Z</time>
      </trkpt>
      <trkpt lat="48.87439" lon="2.37299">
        <ele>59.599998474121</ele>
        <time>2016-02-15T19:43:33Z</time>
      </trkpt>
      <trkpt lat="48.87442" lon="2.37304">
        <ele>59.79999923706</ele>
        <time>2016-02-15T19:43:37Z</time>
      </trkpt>
      <trkpt lat="48.87443" lon="2.37309">
        <ele>60</ele>
        <time>2016-02-15T19:43:40Z</time>
      </trkpt>
      <trkpt lat="48.87448" lon="2.37314">
        <ele>60.400001525879</ele>
        <time>2016-02-15T19:43:46Z</time>
      </trkpt>
      <trkpt lat="48.87455" lon="2.37315">
        <ele>61</ele>
        <time>2016-02-15T19:43:52Z</time>
      </trkpt>
      <trkpt lat="48.87454" lon="2.3734">
        <ele>61.20000076294</ele>
        <time>2016-02-15T19:44:19Z</time>
      </trkpt>
      <trkpt lat="48.87445" lon="2.37368">
        <ele>62</ele>
        <time>2016-02-15T19:44:25Z</time>
      </trkpt>
      <trkpt lat="48.87439" lon="2.37394">
        <ele>63</ele>
        <time>2016-02-15T19:44:29Z</time>
      </trkpt>
      <trkpt lat="48.87438" lon="2.37405">
        <ele>63.400001525879</ele>
        <time>2016-02-15T19:44:31Z</time>
      </trkpt>
      <trkpt lat="48.87438" lon="2.37423">
        <ele>64.199996948242</ele>
        <time>2016-02-15T19:44:38Z</time>
      </trkpt>
      <trkpt lat="48.87447" lon="2.37447">
        <ele>65.400001525879</ele>
        <time>2016-02-15T19:44:57Z</time>
      </trkpt>
      <trkpt lat="48.87459" lon="2.37468">
        <ele>66.599998474121</ele>
        <time>2016-02-15T19:45:09Z</time>
      </trkpt>
      <trkpt lat="48.87461" lon="2.37472">
        <ele>66.800003051758</ele>
        <time>2016-02-15T19:45:12Z</time>
      </trkpt>
      <trkpt lat="48.87463" lon="2.37474">
        <ele>67</ele>
        <time>2016-02-15T19:45:16Z</time>
      </trkpt>
      <trkpt lat="48.87476" lon="2.37468">
        <ele>67.199996948242</ele>
        <time>2016-02-15T19:45:21Z</time>
      </trkpt>
      <trkpt lat="48.87487" lon="2.37463">
        <ele>67.400001525879</ele>
        <time>2016-02-15T19:45:26Z</time>
      </trkpt>
      <trkpt lat="48.87498" lon="2.37474">
        <ele>68.199996948242</ele>
        <time>2016-02-15T19:45:34Z</time>
      </trkpt>
      <trkpt lat="48.87514" lon="2.3749">
        <ele>69.400001525879</ele>
        <time>2016-02-15T19:45:41Z</time>
      </trkpt>
      <trkpt lat="48.87532" lon="2.37497">
        <ele>70.400001525879</ele>
        <time>2016-02-15T19:45:47Z</time>
      </trkpt>
      <trkpt lat="48.87544" lon="2.37501">
        <ele>71</ele>
        <time>2016-02-15T19:45:53Z</time>
      </trkpt>
      <trkpt lat="48.87526" lon="2.3749">
        <ele>69.800003051758</ele>
        <time>2016-02-15T19:45:59Z</time>
      </trkpt>
      <trkpt lat="48.87517" lon="2.37484">
        <ele>69.199996948242</ele>
        <time>2016-02-15T19:46:01Z</time>
      </trkpt>
      <trkpt lat="48.87497" lon="2.37473">
        <ele>68.199996948242</ele>
        <time>2016-02-15T19:46:05Z</time>
      </trkpt>
      <trkpt lat="48.87478" lon="2.37475">
        <ele>67.599998474121</ele>
        <time>2016-02-15T19:46:10Z</time>
      </trkpt>
      <trkpt lat="48.87472" lon="2.37487">
        <ele>67.800003051758</ele>
        <time>2016-02-15T19:46:13Z</time>
      </trkpt>
      <trkpt lat="48.87472" lon="2.37504">
        <ele>68.199996948242</ele>
        <time>2016-02-15T19:46:19Z</time>
      </trkpt>
      <trkpt lat="48.8748" lon="2.37512">
        <ele>68.599998474121</ele>
        <time>2016-02-15T19:46:25Z</time>
      </trkpt>
      <trkpt lat="48.87488" lon="2.37519">
        <ele>69</ele>
        <time>2016-02-15T19:46:29Z</time>
      </trkpt>
      <trkpt lat="48.87503" lon="2.37532">
        <ele>69.599998474121</ele>
        <time>2016-02-15T19:46:36Z</time>
      </trkpt>
      <trkpt lat="48.87515" lon="2.37537">
        <ele>70.199996948242</ele>
        <time>2016-02-15T19:46:41Z</time>
      </trkpt>
      <trkpt lat="48.87532" lon="2.37549">
        <ele>71</ele>
        <time>2016-02-15T19:46:47Z</time>
      </trkpt>
      <trkpt lat="48.87539" lon="2.37561">
        <ele>71.599998474121</ele>
        <time>2016-02-15T19:46:51Z</time>
      </trkpt>
      <trkpt lat="48.87543" lon="2.37568">
        <ele>71.800003051758</ele>
        <time>2016-02-15T19:46:55Z</time>
      </trkpt>
      <trkpt lat="48.8756" lon="2.37575">
        <ele>72.800003051758</ele>
        <time>2016-02-15T19:47:31Z</time>
      </trkpt>
      <trkpt lat="48.87578" lon="2.3758">
        <ele>73.599998474121</ele>
        <time>2016-02-15T19:47:45Z</time>
      </trkpt>
      <trkpt lat="48.87595" lon="2.37593">
        <ele>74.400001525879</ele>
        <time>2016-02-15T19:47:53Z</time>
      </trkpt>
      <trkpt lat="48.87614" lon="2.37596">
        <ele>76</ele>
        <time>2016-02-15T19:48:01Z</time>
      </trkpt>
      <trkpt lat="48.87621" lon="2.376">
        <ele>76.800003051758</ele>
        <time>2016-02-15T19:48:07Z</time>
      </trkpt>
      <trkpt lat="48.87623" lon="2.37597">
        <ele>77.199996948242</ele>
        <time>2016-02-15T19:48:09Z</time>
      </trkpt>
      <trkpt lat="48.87627" lon="2.37595">
        <ele>77.599998474121</ele>
        <time>2016-02-15T19:48:15Z</time>
      </trkpt>
      <trkpt lat="48.87645" lon="2.37612">
        <ele>80</ele>
        <time>2016-02-15T19:48:39Z</time>
      </trkpt>
      <trkpt lat="48.87649" lon="2.37645">
        <ele>80.599998474121</ele>
        <time>2016-02-15T19:48:45Z</time>
      </trkpt>
      <trkpt lat="48.8765" lon="2.37651">
        <ele>80.800003051758</ele>
        <time>2016-02-15T19:48:46Z</time>
      </trkpt>
      <trkpt lat="48.87652" lon="2.37681">
        <ele>81.400001525879</ele>
        <time>2016-02-15T19:48:50Z</time>
      </trkpt>
      <trkpt lat="48.87654" lon="2.37711">
        <ele>82.400001525879</ele>
        <time>2016-02-15T19:48:54Z</time>
      </trkpt>
      <trkpt lat="48.87654" lon="2.37719">
        <ele>82.800003051758</ele>
        <time>2016-02-15T19:48:55Z</time>
      </trkpt>
      <trkpt lat="48.87656" lon="2.37747">
        <ele>84.599998474121</ele>
        <time>2016-02-15T19:48:59Z</time>
      </trkpt>
      <trkpt lat="48.87657" lon="2.37759">
        <ele>85</ele>
        <time>2016-02-15T19:49:01Z</time>
      </trkpt>
      <trkpt lat="48.8766" lon="2.37793">
        <ele>86.199996948242</ele>
        <time>2016-02-15T19:49:06Z</time>
      </trkpt>
      <trkpt lat="48.87661" lon="2.37814">
        <ele>86.800003051758</ele>
        <time>2016-02-15T19:49:09Z</time>
      </trkpt>
      <trkpt lat="48.87661" lon="2.37848">
        <ele>86.800003051758</ele>
        <time>2016-02-15T19:49:14Z</time>
      </trkpt>
      <trkpt lat="48.87659" lon="2.37879">
        <ele>86</ele>
        <time>2016-02-15T19:49:18Z</time>
      </trkpt>
      <trkpt lat="48.87656" lon="2.37908">
        <ele>85.599998474121</ele>
        <time>2016-02-15T19:49:22Z</time>
      </trkpt>
      <trkpt lat="48.87653" lon="2.37935">
        <ele>86.199996948242</ele>
        <time>2016-02-15T19:49:26Z</time>
      </trkpt>
      <trkpt lat="48.87649" lon="2.37967">
        <ele>86.599998474121</ele>
        <time>2016-02-15T19:49:31Z</time>
      </trkpt>
      <trkpt lat="48.87646" lon="2.3798">
        <ele>86</ele>
        <time>2016-02-15T19:49:33Z</time>
      </trkpt>
      <trkpt lat="48.87643" lon="2.38005">
        <ele>85.599998474121</ele>
        <time>2016-02-15T19:49:37Z</time>
      </trkpt>
      <trkpt lat="48.87644" lon="2.38022">
        <ele>86.400001525879</ele>
        <time>2016-02-15T19:49:40Z</time>
      </trkpt>
      <trkpt lat="48.87643" lon="2.38038">
        <ele>86.800003051758</ele>
        <time>2016-02-15T19:49:43Z</time>
      </trkpt>
      <trkpt lat="48.8764" lon="2.38052">
        <ele>87.599998474121</ele>
        <time>2016-02-15T19:49:46Z</time>
      </trkpt>
      <trkpt lat="48.87632" lon="2.38078">
        <ele>88.199996948242</ele>
        <time>2016-02-15T19:49:51Z</time>
      </trkpt>
      <trkpt lat="48.87629" lon="2.3809">
        <ele>88.199996948242</ele>
        <time>2016-02-15T19:49:53Z</time>
      </trkpt>
      <trkpt lat="48.87621" lon="2.38118">
        <ele>88.599998474121</ele>
        <time>2016-02-15T19:49:58Z</time>
      </trkpt>
      <trkpt lat="48.87618" lon="2.38122">
        <ele>88.599998474121</ele>
        <time>2016-02-15T19:49:59Z</time>
      </trkpt>
      <trkpt lat="48.87611" lon="2.3814">
        <ele>89</ele>
        <time>2016-02-15T19:50:04Z</time>
      </trkpt>
      <trkpt lat="48.8761" lon="2.38143">
        <ele>89.199996948242</ele>
        <time>2016-02-15T19:50:06Z</time>
      </trkpt>
      <trkpt lat="48.87607" lon="2.38143">
        <ele>89</ele>
        <time>2016-02-15T19:50:09Z</time>
      </trkpt>
      <trkpt lat="48.87602" lon="2.38139">
        <ele>88.599998474121</ele>
        <time>2016-02-15T19:50:15Z</time>
      </trkpt>
      <trkpt lat="48.87599" lon="2.38138">
        <ele>88.400001525879</ele>
        <time>2016-02-15T19:50:18Z</time>
      </trkpt>
      <trkpt lat="48.87586" lon="2.38153">
        <ele>88.800003051758</ele>
        <time>2016-02-15T19:50:24Z</time>
      </trkpt>
      <trkpt lat="48.87572" lon="2.38173">
        <ele>89.199996948242</ele>
        <time>2016-02-15T19:50:30Z</time>
      </trkpt>
      <trkpt lat="48.87562" lon="2.38189">
        <ele>89.599998474121</ele>
        <time>2016-02-15T19:50:35Z</time>
      </trkpt>
      <trkpt lat="48.87546" lon="2.38209">
        <ele>90.400001525879</ele>
        <time>2016-02-15T19:50:41Z</time>
      </trkpt>
      <trkpt lat="48.87536" lon="2.38223">
        <ele>91.400001525879</ele>
        <time>2016-02-15T19:50:45Z</time>
      </trkpt>
      <trkpt lat="48.87535" lon="2.38251">
        <ele>93.400001525879</ele>
        <time>2016-02-15T19:50:53Z</time>
      </trkpt>
      <trkpt lat="48.87539" lon="2.38258">
        <ele>93.800003051758</ele>
        <time>2016-02-15T19:50:55Z</time>
      </trkpt>
      <trkpt lat="48.87554" lon="2.38276">
        <ele>95</ele>
        <time>2016-02-15T19:50:59Z</time>
      </trkpt>
      <trkpt lat="48.87564" lon="2.38294">
        <ele>96.199996948242</ele>
        <time>2016-02-15T19:51:03Z</time>
      </trkpt>
      <trkpt lat="48.87567" lon="2.38312">
        <ele>97.400001525879</ele>
        <time>2016-02-15T19:51:11Z</time>
      </trkpt>
      <trkpt lat="48.87575" lon="2.3834">
        <ele>99</ele>
        <time>2016-02-15T19:51:18Z</time>
      </trkpt>
      <trkpt lat="48.87581" lon="2.38347">
        <ele>99.400001525879</ele>
        <time>2016-02-15T19:51:22Z</time>
      </trkpt>
      <trkpt lat="48.87583" lon="2.3835">
        <ele>99.599998474121</ele>
        <time>2016-02-15T19:52:25Z</time>
      </trkpt>
      <trkpt lat="48.8759" lon="2.38356">
        <ele>100</ele>
        <time>2016-02-15T19:53:25Z</time>
      </trkpt>
      <trkpt lat="48.87609" lon="2.38357">
        <ele>100.19999694824</ele>
        <time>2016-02-15T19:53:31Z</time>
      </trkpt>
      <trkpt lat="48.87629" lon="2.3836">
        <ele>99.800003051758</ele>
        <time>2016-02-15T19:53:37Z</time>
      </trkpt>
      <trkpt lat="48.87648" lon="2.3837">
        <ele>100</ele>
        <time>2016-02-15T19:53:43Z</time>
      </trkpt>
      <trkpt lat="48.87667" lon="2.38377">
        <ele>100.19999694824</ele>
        <time>2016-02-15T19:53:49Z</time>
      </trkpt>
      <trkpt lat="48.87686" lon="2.38376">
        <ele>100</ele>
        <time>2016-02-15T19:54:00Z</time>
      </trkpt>
      <trkpt lat="48.87691" lon="2.38348">
        <ele>99.400001525879</ele>
        <time>2016-02-15T19:54:09Z</time>
      </trkpt>
      <trkpt lat="48.87696" lon="2.38319">
        <ele>98.800003051758</ele>
        <time>2016-02-15T19:54:17Z</time>
      </trkpt>
      <trkpt lat="48.87703" lon="2.3829">
        <ele>98.199996948242</ele>
        <time>2016-02-15T19:54:24Z</time>
      </trkpt>
      <trkpt lat="48.87715" lon="2.38268">
        <ele>97.800003051758</ele>
        <time>2016-02-15T19:54:30Z</time>
      </trkpt>
      <trkpt lat="48.87727" lon="2.38245">
        <ele>96.400001525879</ele>
        <time>2016-02-15T19:54:38Z</time>
      </trkpt>
      <trkpt lat="48.87736" lon="2.38219">
        <ele>96.199996948242</ele>
        <time>2016-02-15T19:54:47Z</time>
      </trkpt>
      <trkpt lat="48.87745" lon="2.38194">
        <ele>95.400001525879</ele>
        <time>2016-02-15T19:54:53Z</time>
      </trkpt>
      <trkpt lat="48.87757" lon="2.3817">
        <ele>94.400001525879</ele>
        <time>2016-02-15T19:54:59Z</time>
      </trkpt>
      <trkpt lat="48.87769" lon="2.38145">
        <ele>94.599998474121</ele>
        <time>2016-02-15T19:55:06Z</time>
      </trkpt>
      <trkpt lat="48.87778" lon="2.38128">
        <ele>95.400001525879</ele>
        <time>2016-02-15T19:55:15Z</time>
      </trkpt>
      <trkpt lat="48.87797" lon="2.38136">
        <ele>95.400001525879</ele>
        <time>2016-02-15T19:55:25Z</time>
      </trkpt>
      <trkpt lat="48.87815" lon="2.38149">
        <ele>95</ele>
        <time>2016-02-15T19:55:30Z</time>
      </trkpt>
      <trkpt lat="48.87831" lon="2.38168">
        <ele>95</ele>
        <time>2016-02-15T19:55:35Z</time>
      </trkpt>
      <trkpt lat="48.87848" lon="2.38187">
        <ele>96.599998474121</ele>
        <time>2016-02-15T19:55:41Z</time>
      </trkpt>
      <trkpt lat="48.87861" lon="2.38206">
        <ele>97.800003051758</ele>
        <time>2016-02-15T19:55:46Z</time>
      </trkpt>
      <trkpt lat="48.87876" lon="2.38228">
        <ele>98.400001525879</ele>
        <time>2016-02-15T19:55:53Z</time>
      </trkpt>
      <trkpt lat="48.87891" lon="2.38248">
        <ele>99</ele>
        <time>2016-02-15T19:56:00Z</time>
      </trkpt>
      <trkpt lat="48.87901" lon="2.38272">
        <ele>99.599998474121</ele>
        <time>2016-02-15T19:56:06Z</time>
      </trkpt>
      <trkpt lat="48.87908" lon="2.38304">
        <ele>100.59999847412</ele>
        <time>2016-02-15T19:56:10Z</time>
      </trkpt>
      <trkpt lat="48.87914" lon="2.38333">
        <ele>102</ele>
        <time>2016-02-15T19:56:14Z</time>
      </trkpt>
      <trkpt lat="48.8792" lon="2.38359">
        <ele>102.40000152588</ele>
        <time>2016-02-15T19:56:18Z</time>
      </trkpt>
      <trkpt lat="48.87927" lon="2.38391">
        <ele>103</ele>
        <time>2016-02-15T19:56:23Z</time>
      </trkpt>
      <trkpt lat="48.87929" lon="2.3841">
        <ele>103.40000152588</ele>
        <time>2016-02-15T19:56:26Z</time>
      </trkpt>
      <trkpt lat="48.87931" lon="2.38422">
        <ele>103.40000152588</ele>
        <time>2016-02-15T19:56:28Z</time>
      </trkpt>
      <trkpt lat="48.87936" lon="2.38449">
        <ele>104</ele>
        <time>2016-02-15T19:56:33Z</time>
      </trkpt>
      <trkpt lat="48.87938" lon="2.38461">
        <ele>104.19999694824</ele>
        <time>2016-02-15T19:56:35Z</time>
      </trkpt>
      <trkpt lat="48.8794" lon="2.38473">
        <ele>104.40000152588</ele>
        <time>2016-02-15T19:56:37Z</time>
      </trkpt>
      <trkpt lat="48.87941" lon="2.38496">
        <ele>104.59999847412</ele>
        <time>2016-02-15T19:56:41Z</time>
      </trkpt>
      <trkpt lat="48.87942" lon="2.38502">
        <ele>104.59999847412</ele>
        <time>2016-02-15T19:56:42Z</time>
      </trkpt>
      <trkpt lat="48.87942" lon="2.3852">
        <ele>104.59999847412</ele>
        <time>2016-02-15T19:56:45Z</time>
      </trkpt>
      <trkpt lat="48.87943" lon="2.38548">
        <ele>104.40000152588</ele>
        <time>2016-02-15T19:56:50Z</time>
      </trkpt>
      <trkpt lat="48.87946" lon="2.38579">
        <ele>103.80000305176</ele>
        <time>2016-02-15T19:56:55Z</time>
      </trkpt>
      <trkpt lat="48.87949" lon="2.38607">
        <ele>103.40000152588</ele>
        <time>2016-02-15T19:57:00Z</time>
      </trkpt>
      <trkpt lat="48.87949" lon="2.38637">
        <ele>103</ele>
        <time>2016-02-15T19:57:05Z</time>
      </trkpt>
      <trkpt lat="48.8795" lon="2.38668">
        <ele>102.59999847412</ele>
        <time>2016-02-15T19:57:10Z</time>
      </trkpt>
      <trkpt lat="48.8795" lon="2.38697">
        <ele>102</ele>
        <time>2016-02-15T19:57:14Z</time>
      </trkpt>
      <trkpt lat="48.87948" lon="2.38725">
        <ele>102</ele>
        <time>2016-02-15T19:57:18Z</time>
      </trkpt>
      <trkpt lat="48.87948" lon="2.38738">
        <ele>102</ele>
        <time>2016-02-15T19:57:20Z</time>
      </trkpt>
      <trkpt lat="48.87944" lon="2.38765">
        <ele>102.59999847412</ele>
        <time>2016-02-15T19:57:24Z</time>
      </trkpt>
      <trkpt lat="48.87939" lon="2.38785">
        <ele>103</ele>
        <time>2016-02-15T19:57:27Z</time>
      </trkpt>
      <trkpt lat="48.87935" lon="2.38813">
        <ele>103</ele>
        <time>2016-02-15T19:57:31Z</time>
      </trkpt>
      <trkpt lat="48.87943" lon="2.38835">
        <ele>103</ele>
        <time>2016-02-15T19:57:34Z</time>
      </trkpt>
      <trkpt lat="48.87943" lon="2.38859">
        <ele>104</ele>
        <time>2016-02-15T19:57:38Z</time>
      </trkpt>
      <trkpt lat="48.87943" lon="2.38873">
        <ele>104.59999847412</ele>
        <time>2016-02-15T19:57:40Z</time>
      </trkpt>
      <trkpt lat="48.87942" lon="2.38898">
        <ele>106</ele>
        <time>2016-02-15T19:57:44Z</time>
      </trkpt>
      <trkpt lat="48.87949" lon="2.38931">
        <ele>106.19999694824</ele>
        <time>2016-02-15T19:57:50Z</time>
      </trkpt>
      <trkpt lat="48.87954" lon="2.38939">
        <ele>105.59999847412</ele>
        <time>2016-02-15T19:57:52Z</time>
      </trkpt>
      <trkpt lat="48.87957" lon="2.38944">
        <ele>105.40000152588</ele>
        <time>2016-02-15T19:57:54Z</time>
      </trkpt>
      <trkpt lat="48.87957" lon="2.38947">
        <ele>105.19999694824</ele>
        <time>2016-02-15T19:57:56Z</time>
      </trkpt>
      <trkpt lat="48.87965" lon="2.38948">
        <ele>104.59999847412</ele>
        <time>2016-02-15T19:58:58Z</time>
      </trkpt>
      <trkpt lat="48.87978" lon="2.38926">
        <ele>103.19999694824</ele>
        <time>2016-02-15T19:59:05Z</time>
      </trkpt>
      <trkpt lat="48.87994" lon="2.38906">
        <ele>101.40000152588</ele>
        <time>2016-02-15T19:59:10Z</time>
      </trkpt>
      <trkpt lat="48.87997" lon="2.38902">
        <ele>100.80000305176</ele>
        <time>2016-02-15T19:59:11Z</time>
      </trkpt>
      <trkpt lat="48.88004" lon="2.38894">
        <ele>99.800003051758</ele>
        <time>2016-02-15T19:59:13Z</time>
      </trkpt>
      <trkpt lat="48.88021" lon="2.38875">
        <ele>97.199996948242</ele>
        <time>2016-02-15T19:59:17Z</time>
      </trkpt>
      <trkpt lat="48.88035" lon="2.38857">
        <ele>95.199996948242</ele>
        <time>2016-02-15T19:59:21Z</time>
      </trkpt>
      <trkpt lat="48.88052" lon="2.38836">
        <ele>92.800003051758</ele>
        <time>2016-02-15T19:59:26Z</time>
      </trkpt>
      <trkpt lat="48.88067" lon="2.3882">
        <ele>90.800003051758</ele>
        <time>2016-02-15T19:59:30Z</time>
      </trkpt>
      <trkpt lat="48.88084" lon="2.38801">
        <ele>88.400001525879</ele>
        <time>2016-02-15T19:59:34Z</time>
      </trkpt>
      <trkpt lat="48.88099" lon="2.38784">
        <ele>86.800003051758</ele>
        <time>2016-02-15T19:59:37Z</time>
      </trkpt>
      <trkpt lat="48.88114" lon="2.38768">
        <ele>85</ele>
        <time>2016-02-15T19:59:40Z</time>
      </trkpt>
      <trkpt lat="48.8813" lon="2.38752">
        <ele>85</ele>
        <time>2016-02-15T19:59:43Z</time>
      </trkpt>
      <trkpt lat="48.88145" lon="2.38735">
        <ele>84.800003051758</ele>
        <time>2016-02-15T19:59:46Z</time>
      </trkpt>
      <trkpt lat="48.8816" lon="2.38717">
        <ele>84.199996948242</ele>
        <time>2016-02-15T19:59:49Z</time>
      </trkpt>
      <trkpt lat="48.88175" lon="2.387">
        <ele>84</ele>
        <time>2016-02-15T19:59:52Z</time>
      </trkpt>
      <trkpt lat="48.88189" lon="2.38681">
        <ele>83.599998474121</ele>
        <time>2016-02-15T19:59:55Z</time>
      </trkpt>
      <trkpt lat="48.88207" lon="2.38659">
        <ele>81.800003051758</ele>
        <time>2016-02-15T19:59:59Z</time>
      </trkpt>
      <trkpt lat="48.88224" lon="2.38641">
        <ele>80</ele>
        <time>2016-02-15T20:00:03Z</time>
      </trkpt>
      <trkpt lat="48.88241" lon="2.38622">
        <ele>78.800003051758</ele>
        <time>2016-02-15T20:00:07Z</time>
      </trkpt>
      <trkpt lat="48.88255" lon="2.38606">
        <ele>79.199996948242</ele>
        <time>2016-02-15T20:00:11Z</time>
      </trkpt>
      <trkpt lat="48.88261" lon="2.38597">
        <ele>79.599998474121</ele>
        <time>2016-02-15T20:00:13Z</time>
      </trkpt>
      <trkpt lat="48.8827" lon="2.38587">
        <ele>79.800003051758</ele>
        <time>2016-02-15T20:00:16Z</time>
      </trkpt>
      <trkpt lat="48.88284" lon="2.38579">
        <ele>79.199996948242</ele>
        <time>2016-02-15T20:00:21Z</time>
      </trkpt>
      <trkpt lat="48.8829" lon="2.38574">
        <ele>78.400001525879</ele>
        <time>2016-02-15T20:00:24Z</time>
      </trkpt>
      <trkpt lat="48.88291" lon="2.3858">
        <ele>78.599998474121</ele>
        <time>2016-02-15T20:00:28Z</time>
      </trkpt>
      <trkpt lat="48.8829" lon="2.3858">
        <ele>78.599998474121</ele>
        <time>2016-02-15T20:00:29Z</time>
      </trkpt>
      <trkpt lat="48.88296" lon="2.38568">
        <ele>77.800003051758</ele>
        <time>2016-02-15T20:00:44Z</time>
      </trkpt>
      <trkpt lat="48.88299" lon="2.3854">
        <ele>76.199996948242</ele>
        <time>2016-02-15T20:00:54Z</time>
      </trkpt>
      <trkpt lat="48.88295" lon="2.38509">
        <ele>75.199996948242</ele>
        <time>2016-02-15T20:01:00Z</time>
      </trkpt>
      <trkpt lat="48.88292" lon="2.38482">
        <ele>74.599998474121</ele>
        <time>2016-02-15T20:01:04Z</time>
      </trkpt>
      <trkpt lat="48.88287" lon="2.38452">
        <ele>73.599998474121</ele>
        <time>2016-02-15T20:01:08Z</time>
      </trkpt>
      <trkpt lat="48.8828" lon="2.38422">
        <ele>73</ele>
        <time>2016-02-15T20:01:12Z</time>
      </trkpt>
      <trkpt lat="48.88273" lon="2.38392">
        <ele>72.400001525879</ele>
        <time>2016-02-15T20:01:16Z</time>
      </trkpt>
      <trkpt lat="48.88267" lon="2.38366">
        <ele>71.400001525879</ele>
        <time>2016-02-15T20:01:20Z</time>
      </trkpt>
      <trkpt lat="48.88265" lon="2.3836">
        <ele>71.199996948242</ele>
        <time>2016-02-15T20:01:21Z</time>
      </trkpt>
      <trkpt lat="48.88255" lon="2.38331">
        <ele>69.800003051758</ele>
        <time>2016-02-15T20:01:26Z</time>
      </trkpt>
      <trkpt lat="48.88254" lon="2.38325">
        <ele>69.400001525879</ele>
        <time>2016-02-15T20:01:27Z</time>
      </trkpt>
      <trkpt lat="48.88249" lon="2.38295">
        <ele>67.800003051758</ele>
        <time>2016-02-15T20:01:32Z</time>
      </trkpt>
      <trkpt lat="48.88245" lon="2.38285">
        <ele>67.400001525879</ele>
        <time>2016-02-15T20:01:34Z</time>
      </trkpt>
      <trkpt lat="48.88243" lon="2.38257">
        <ele>67</ele>
        <time>2016-02-15T20:01:40Z</time>
      </trkpt>
      <trkpt lat="48.88236" lon="2.38228">
        <ele>67.599998474121</ele>
        <time>2016-02-15T20:01:47Z</time>
      </trkpt>
      <trkpt lat="48.88227" lon="2.38204">
        <ele>68.199996948242</ele>
        <time>2016-02-15T20:01:54Z</time>
      </trkpt>
      <trkpt lat="48.88226" lon="2.382">
        <ele>68.199996948242</ele>
        <time>2016-02-15T20:01:57Z</time>
      </trkpt>
      <trkpt lat="48.88241" lon="2.38183">
        <ele>69</ele>
        <time>2016-02-15T20:02:11Z</time>
      </trkpt>
      <trkpt lat="48.88253" lon="2.38161">
        <ele>70.199996948242</ele>
        <time>2016-02-15T20:02:17Z</time>
      </trkpt>
      <trkpt lat="48.88256" lon="2.38132">
        <ele>71.199996948242</ele>
        <time>2016-02-15T20:02:23Z</time>
      </trkpt>
      <trkpt lat="48.88255" lon="2.38104">
        <ele>71.199996948242</ele>
        <time>2016-02-15T20:02:29Z</time>
      </trkpt>
      <trkpt lat="48.8825" lon="2.38073">
        <ele>71</ele>
        <time>2016-02-15T20:02:37Z</time>
      </trkpt>
      <trkpt lat="48.8825" lon="2.38042">
        <ele>70</ele>
        <time>2016-02-15T20:02:43Z</time>
      </trkpt>
      <trkpt lat="48.88255" lon="2.38016">
        <ele>69.400001525879</ele>
        <time>2016-02-15T20:02:48Z</time>
      </trkpt>
      <trkpt lat="48.88252" lon="2.3801">
        <ele>69.199996948242</ele>
        <time>2016-02-15T20:02:49Z</time>
      </trkpt>
      <trkpt lat="48.88243" lon="2.37979">
        <ele>67.800003051758</ele>
        <time>2016-02-15T20:02:53Z</time>
      </trkpt>
      <trkpt lat="48.88244" lon="2.37942">
        <ele>65.599998474121</ele>
        <time>2016-02-15T20:02:56Z</time>
      </trkpt>
      <trkpt lat="48.88247" lon="2.3791">
        <ele>64</ele>
        <time>2016-02-15T20:02:59Z</time>
      </trkpt>
      <trkpt lat="48.88248" lon="2.37879">
        <ele>64</ele>
        <time>2016-02-15T20:03:02Z</time>
      </trkpt>
      <trkpt lat="48.88248" lon="2.37868">
        <ele>63.599998474121</ele>
        <time>2016-02-15T20:03:03Z</time>
      </trkpt>
      <trkpt lat="48.88248" lon="2.3784">
        <ele>62.599998474121</ele>
        <time>2016-02-15T20:03:06Z</time>
      </trkpt>
      <trkpt lat="48.88249" lon="2.37812">
        <ele>62.400001525879</ele>
        <time>2016-02-15T20:03:09Z</time>
      </trkpt>
      <trkpt lat="48.88251" lon="2.37792">
        <ele>62.400001525879</ele>
        <time>2016-02-15T20:03:11Z</time>
      </trkpt>
      <trkpt lat="48.88254" lon="2.37764">
        <ele>62.20000076294</ele>
        <time>2016-02-15T20:03:14Z</time>
      </trkpt>
      <trkpt lat="48.88255" lon="2.37735">
        <ele>62</ele>
        <time>2016-02-15T20:03:17Z</time>
      </trkpt>
      <trkpt lat="48.88254" lon="2.37702">
        <ele>62.20000076294</ele>
        <time>2016-02-15T20:03:21Z</time>
      </trkpt>
      <trkpt lat="48.88253" lon="2.3767">
        <ele>62.599998474121</ele>
        <time>2016-02-15T20:03:25Z</time>
      </trkpt>
      <trkpt lat="48.88254" lon="2.3764">
        <ele>62.79999923706</ele>
        <time>2016-02-15T20:03:29Z</time>
      </trkpt>
      <trkpt lat="48.88253" lon="2.37621">
        <ele>62.599998474121</ele>
        <time>2016-02-15T20:03:31Z</time>
      </trkpt>
      <trkpt lat="48.88256" lon="2.37592">
        <ele>62.20000076294</ele>
        <time>2016-02-15T20:03:34Z</time>
      </trkpt>
      <trkpt lat="48.88258" lon="2.37573">
        <ele>61.599998474121</ele>
        <time>2016-02-15T20:03:36Z</time>
      </trkpt>
      <trkpt lat="48.88259" lon="2.37541">
        <ele>61.599998474121</ele>
        <time>2016-02-15T20:03:40Z</time>
      </trkpt>
      <trkpt lat="48.88262" lon="2.37509">
        <ele>62</ele>
        <time>2016-02-15T20:03:44Z</time>
      </trkpt>
      <trkpt lat="48.88273" lon="2.3748">
        <ele>62</ele>
        <time>2016-02-15T20:03:47Z</time>
      </trkpt>
      <trkpt lat="48.88286" lon="2.37456">
        <ele>61.599998474121</ele>
        <time>2016-02-15T20:03:49Z</time>
      </trkpt>
      <trkpt lat="48.883" lon="2.37435">
        <ele>61</ele>
        <time>2016-02-15T20:03:52Z</time>
      </trkpt>
      <trkpt lat="48.88304" lon="2.3743">
        <ele>60.79999923706</ele>
        <time>2016-02-15T20:03:53Z</time>
      </trkpt>
      <trkpt lat="48.88317" lon="2.3741">
        <ele>60.400001525879</ele>
        <time>2016-02-15T20:03:57Z</time>
      </trkpt>
      <trkpt lat="48.88331" lon="2.37387">
        <ele>59.599998474121</ele>
        <time>2016-02-15T20:04:01Z</time>
      </trkpt>
      <trkpt lat="48.88337" lon="2.37376">
        <ele>60</ele>
        <time>2016-02-15T20:04:03Z</time>
      </trkpt>
      <trkpt lat="48.88349" lon="2.37353">
        <ele>60.400001525879</ele>
        <time>2016-02-15T20:04:08Z</time>
      </trkpt>
      <trkpt lat="48.88352" lon="2.37349">
        <ele>60.599998474121</ele>
        <time>2016-02-15T20:04:10Z</time>
      </trkpt>
      <trkpt lat="48.88356" lon="2.3733">
        <ele>61</ele>
        <time>2016-02-15T20:04:32Z</time>
      </trkpt>
      <trkpt lat="48.88348" lon="2.37303">
        <ele>61</ele>
        <time>2016-02-15T20:04:38Z</time>
      </trkpt>
      <trkpt lat="48.8834" lon="2.37278">
        <ele>61</ele>
        <time>2016-02-15T20:04:43Z</time>
      </trkpt>
      <trkpt lat="48.8833" lon="2.37248">
        <ele>61</ele>
        <time>2016-02-15T20:04:48Z</time>
      </trkpt>
      <trkpt lat="48.88322" lon="2.37222">
        <ele>61</ele>
        <time>2016-02-15T20:04:52Z</time>
      </trkpt>
      <trkpt lat="48.88313" lon="2.37198">
        <ele>60.79999923706</ele>
        <time>2016-02-15T20:04:56Z</time>
      </trkpt>
      <trkpt lat="48.88304" lon="2.3717">
        <ele>60.599998474121</ele>
        <time>2016-02-15T20:05:00Z</time>
      </trkpt>
      <trkpt lat="48.88297" lon="2.37143">
        <ele>60.400001525879</ele>
        <time>2016-02-15T20:05:04Z</time>
      </trkpt>
      <trkpt lat="48.88289" lon="2.37123">
        <ele>60.20000076294</ele>
        <time>2016-02-15T20:05:08Z</time>
      </trkpt>
      <trkpt lat="48.88292" lon="2.37096">
        <ele>59.400001525879</ele>
        <time>2016-02-15T20:05:15Z</time>
      </trkpt>
      <trkpt lat="48.88293" lon="2.37093">
        <ele>59</ele>
        <time>2016-02-15T20:05:16Z</time>
      </trkpt>
      <trkpt lat="48.88294" lon="2.3709">
        <ele>58.79999923706</ele>
        <time>2016-02-15T20:05:17Z</time>
      </trkpt>
      <trkpt lat="48.88291" lon="2.37074">
        <ele>58.400001525879</ele>
        <time>2016-02-15T20:05:23Z</time>
      </trkpt>
      <trkpt lat="48.88288" lon="2.37063">
        <ele>58</ele>
        <time>2016-02-15T20:05:27Z</time>
      </trkpt>
      <trkpt lat="48.8829" lon="2.37056">
        <ele>57.599998474121</ele>
        <time>2016-02-15T20:05:33Z</time>
      </trkpt>
      <trkpt lat="48.88296" lon="2.37036">
        <ele>56.20000076294</ele>
        <time>2016-02-15T20:06:06Z</time>
      </trkpt>
      <trkpt lat="48.88306" lon="2.37017">
        <ele>54.79999923706</ele>
        <time>2016-02-15T20:07:12Z</time>
      </trkpt>
      <trkpt lat="48.88321" lon="2.37001">
        <ele>53.79999923706</ele>
        <time>2016-02-15T20:07:19Z</time>
      </trkpt>
      <trkpt lat="48.88341" lon="2.36994">
        <ele>52.79999923706</ele>
        <time>2016-02-15T20:07:26Z</time>
      </trkpt>
      <trkpt lat="48.88361" lon="2.36987">
        <ele>52.599998474121</ele>
        <time>2016-02-15T20:07:32Z</time>
      </trkpt>
      <trkpt lat="48.88373" lon="2.36965">
        <ele>53.79999923706</ele>
        <time>2016-02-15T20:07:38Z</time>
      </trkpt>
      <trkpt lat="48.88382" lon="2.36937">
        <ele>55</ele>
        <time>2016-02-15T20:07:44Z</time>
      </trkpt>
      <trkpt lat="48.88396" lon="2.36917">
        <ele>54.599998474121</ele>
        <time>2016-02-15T20:07:50Z</time>
      </trkpt>
      <trkpt lat="48.88408" lon="2.36898">
        <ele>55.400001525879</ele>
        <time>2016-02-15T20:07:57Z</time>
      </trkpt>
      <trkpt lat="48.88414" lon="2.36883">
        <ele>56.20000076294</ele>
        <time>2016-02-15T20:08:01Z</time>
      </trkpt>
      <trkpt lat="48.88422" lon="2.36856">
        <ele>58.20000076294</ele>
        <time>2016-02-15T20:08:09Z</time>
      </trkpt>
      <trkpt lat="48.88422" lon="2.3685">
        <ele>58.599998474121</ele>
        <time>2016-02-15T20:08:12Z</time>
      </trkpt>
      <trkpt lat="48.8842" lon="2.3682">
        <ele>59.79999923706</ele>
        <time>2016-02-15T20:08:21Z</time>
      </trkpt>
      <trkpt lat="48.88422" lon="2.36789">
        <ele>60</ele>
        <time>2016-02-15T20:08:26Z</time>
      </trkpt>
      <trkpt lat="48.88422" lon="2.36761">
        <ele>60.400001525879</ele>
        <time>2016-02-15T20:08:30Z</time>
      </trkpt>
      <trkpt lat="48.88422" lon="2.36733">
        <ele>60.599998474121</ele>
        <time>2016-02-15T20:08:34Z</time>
      </trkpt>
      <trkpt lat="48.88421" lon="2.36704">
        <ele>60</ele>
        <time>2016-02-15T20:08:38Z</time>
      </trkpt>
      <trkpt lat="48.88421" lon="2.36673">
        <ele>59.20000076294</ele>
        <time>2016-02-15T20:08:42Z</time>
      </trkpt>
      <trkpt lat="48.88424" lon="2.36642">
        <ele>59.400001525879</ele>
        <time>2016-02-15T20:08:46Z</time>
      </trkpt>
      <trkpt lat="48.88429" lon="2.36612">
        <ele>58.400001525879</ele>
        <time>2016-02-15T20:08:50Z</time>
      </trkpt>
      <trkpt lat="48.88435" lon="2.36593">
        <ele>57.599998474121</ele>
        <time>2016-02-15T20:08:54Z</time>
      </trkpt>
      <trkpt lat="48.88439" lon="2.36584">
        <ele>57.20000076294</ele>
        <time>2016-02-15T20:08:57Z</time>
      </trkpt>
      <trkpt lat="48.88442" lon="2.36574">
        <ele>57.20000076294</ele>
        <time>2016-02-15T20:09:00Z</time>
      </trkpt>
      <trkpt lat="48.88438" lon="2.36546">
        <ele>58</ele>
        <time>2016-02-15T20:09:06Z</time>
      </trkpt>
      <trkpt lat="48.88438" lon="2.3654">
        <ele>58</ele>
        <time>2016-02-15T20:09:07Z</time>
      </trkpt>
      <trkpt lat="48.88436" lon="2.36508">
        <ele>59</ele>
        <time>2016-02-15T20:09:12Z</time>
      </trkpt>
      <trkpt lat="48.88431" lon="2.36477">
        <ele>58.79999923706</ele>
        <time>2016-02-15T20:09:18Z</time>
      </trkpt>
      <trkpt lat="48.88435" lon="2.3645">
        <ele>57.599998474121</ele>
        <time>2016-02-15T20:09:22Z</time>
      </trkpt>
      <trkpt lat="48.88435" lon="2.36419">
        <ele>56.400001525879</ele>
        <time>2016-02-15T20:09:28Z</time>
      </trkpt>
      <trkpt lat="48.88434" lon="2.3639">
        <ele>55.79999923706</ele>
        <time>2016-02-15T20:09:34Z</time>
      </trkpt>
      <trkpt lat="48.88434" lon="2.36359">
        <ele>55</ele>
        <time>2016-02-15T20:09:40Z</time>
      </trkpt>
      <trkpt lat="48.88441" lon="2.36332">
        <ele>54</ele>
        <time>2016-02-15T20:09:44Z</time>
      </trkpt>
      <trkpt lat="48.88448" lon="2.36301">
        <ele>53.79999923706</ele>
        <time>2016-02-15T20:09:49Z</time>
      </trkpt>
      <trkpt lat="48.88449" lon="2.3627">
        <ele>53.79999923706</ele>
        <time>2016-02-15T20:09:55Z</time>
      </trkpt>
      <trkpt lat="48.88438" lon="2.36244">
        <ele>54.400001525879</ele>
        <time>2016-02-15T20:10:00Z</time>
      </trkpt>
      <trkpt lat="48.88434" lon="2.36216">
        <ele>56.599998474121</ele>
        <time>2016-02-15T20:10:04Z</time>
      </trkpt>
      <trkpt lat="48.88433" lon="2.36182">
        <ele>59.599998474121</ele>
        <time>2016-02-15T20:10:09Z</time>
      </trkpt>
      <trkpt lat="48.88431" lon="2.36149">
        <ele>61.599998474121</ele>
        <time>2016-02-15T20:10:14Z</time>
      </trkpt>
      <trkpt lat="48.88431" lon="2.36116">
        <ele>62</ele>
        <time>2016-02-15T20:10:19Z</time>
      </trkpt>
      <trkpt lat="48.88436" lon="2.36084">
        <ele>62.20000076294</ele>
        <time>2016-02-15T20:10:23Z</time>
      </trkpt>
      <trkpt lat="48.88439" lon="2.36067">
        <ele>62</ele>
        <time>2016-02-15T20:10:25Z</time>
      </trkpt>
      <trkpt lat="48.88445" lon="2.36036">
        <ele>61.20000076294</ele>
        <time>2016-02-15T20:10:29Z</time>
      </trkpt>
      <trkpt lat="48.88449" lon="2.36003">
        <ele>60.400001525879</ele>
        <time>2016-02-15T20:10:34Z</time>
      </trkpt>
      <trkpt lat="48.88452" lon="2.3598">
        <ele>59.400001525879</ele>
        <time>2016-02-15T20:10:38Z</time>
      </trkpt>
      <trkpt lat="48.88453" lon="2.35958">
        <ele>58.599998474121</ele>
        <time>2016-02-15T20:10:41Z</time>
      </trkpt>
      <trkpt lat="48.88449" lon="2.35924">
        <ele>57.599998474121</ele>
        <time>2016-02-15T20:10:45Z</time>
      </trkpt>
      <trkpt lat="48.88448" lon="2.35915">
        <ele>58</ele>
        <time>2016-02-15T20:10:46Z</time>
      </trkpt>
      <trkpt lat="48.88445" lon="2.35888">
        <ele>57</ele>
        <time>2016-02-15T20:10:49Z</time>
      </trkpt>
      <trkpt lat="48.88444" lon="2.35879">
        <ele>56.79999923706</ele>
        <time>2016-02-15T20:10:50Z</time>
      </trkpt>
      <trkpt lat="48.88442" lon="2.35843">
        <ele>55.400001525879</ele>
        <time>2016-02-15T20:10:54Z</time>
      </trkpt>
      <trkpt lat="48.88441" lon="2.3581">
        <ele>54.79999923706</ele>
        <time>2016-02-15T20:10:58Z</time>
      </trkpt>
      <trkpt lat="48.8844" lon="2.35785">
        <ele>54.400001525879</ele>
        <time>2016-02-15T20:11:01Z</time>
      </trkpt>
      <trkpt lat="48.88439" lon="2.35752">
        <ele>54</ele>
        <time>2016-02-15T20:11:05Z</time>
      </trkpt>
      <trkpt lat="48.88438" lon="2.35744">
        <ele>54</ele>
        <time>2016-02-15T20:11:06Z</time>
      </trkpt>
      <trkpt lat="48.88436" lon="2.35714">
        <ele>55</ele>
        <time>2016-02-15T20:11:10Z</time>
      </trkpt>
      <trkpt lat="48.88435" lon="2.35693">
        <ele>55.79999923706</ele>
        <time>2016-02-15T20:11:13Z</time>
      </trkpt>
      <trkpt lat="48.8843" lon="2.35677">
        <ele>56</ele>
        <time>2016-02-15T20:11:16Z</time>
      </trkpt>
      <trkpt lat="48.88425" lon="2.35654">
        <ele>57</ele>
        <time>2016-02-15T20:11:20Z</time>
      </trkpt>
      <trkpt lat="48.88422" lon="2.35635">
        <ele>57.599998474121</ele>
        <time>2016-02-15T20:11:23Z</time>
      </trkpt>
      <trkpt lat="48.88418" lon="2.35605">
        <ele>58.599998474121</ele>
        <time>2016-02-15T20:11:27Z</time>
      </trkpt>
      <trkpt lat="48.88415" lon="2.35571">
        <ele>59.400001525879</ele>
        <time>2016-02-15T20:11:31Z</time>
      </trkpt>
      <trkpt lat="48.88411" lon="2.35544">
        <ele>59.20000076294</ele>
        <time>2016-02-15T20:11:34Z</time>
      </trkpt>
      <trkpt lat="48.88409" lon="2.35524">
        <ele>59</ele>
        <time>2016-02-15T20:11:36Z</time>
      </trkpt>
      <trkpt lat="48.88408" lon="2.35493">
        <ele>58.599998474121</ele>
        <time>2016-02-15T20:11:39Z</time>
      </trkpt>
      <trkpt lat="48.88407" lon="2.35461">
        <ele>58.599998474121</ele>
        <time>2016-02-15T20:11:42Z</time>
      </trkpt>
      <trkpt lat="48.88404" lon="2.35432">
        <ele>58.20000076294</ele>
        <time>2016-02-15T20:11:45Z</time>
      </trkpt>
      <trkpt lat="48.88403" lon="2.35404">
        <ele>58.20000076294</ele>
        <time>2016-02-15T20:11:48Z</time>
      </trkpt>
      <trkpt lat="48.88403" lon="2.35376">
        <ele>59</ele>
        <time>2016-02-15T20:11:51Z</time>
      </trkpt>
      <trkpt lat="48.88402" lon="2.35341">
        <ele>59.79999923706</ele>
        <time>2016-02-15T20:11:55Z</time>
      </trkpt>
      <trkpt lat="48.884" lon="2.35311">
        <ele>60.400001525879</ele>
        <time>2016-02-15T20:11:59Z</time>
      </trkpt>
      <trkpt lat="48.884" lon="2.35302">
        <ele>60.599998474121</ele>
        <time>2016-02-15T20:12:00Z</time>
      </trkpt>
      <trkpt lat="48.88401" lon="2.35273">
        <ele>61.599998474121</ele>
        <time>2016-02-15T20:12:04Z</time>
      </trkpt>
      <trkpt lat="48.88399" lon="2.3525">
        <ele>62.400001525879</ele>
        <time>2016-02-15T20:12:08Z</time>
      </trkpt>
      <trkpt lat="48.88394" lon="2.35232">
        <ele>63.20000076294</ele>
        <time>2016-02-15T20:12:12Z</time>
      </trkpt>
      <trkpt lat="48.88393" lon="2.35227">
        <ele>63.400001525879</ele>
        <time>2016-02-15T20:12:13Z</time>
      </trkpt>
      <trkpt lat="48.88391" lon="2.35204">
        <ele>64.599998474121</ele>
        <time>2016-02-15T20:12:17Z</time>
      </trkpt>
      <trkpt lat="48.88387" lon="2.35174">
        <ele>65.199996948242</ele>
        <time>2016-02-15T20:12:22Z</time>
      </trkpt>
      <trkpt lat="48.88385" lon="2.35163">
        <ele>65.400001525879</ele>
        <time>2016-02-15T20:12:24Z</time>
      </trkpt>
      <trkpt lat="48.88384" lon="2.35154">
        <ele>65.800003051758</ele>
        <time>2016-02-15T20:12:26Z</time>
      </trkpt>
      <trkpt lat="48.88383" lon="2.35147">
        <ele>66</ele>
        <time>2016-02-15T20:12:28Z</time>
      </trkpt>
      <trkpt lat="48.88383" lon="2.35139">
        <ele>66.199996948242</ele>
        <time>2016-02-15T20:12:30Z</time>
      </trkpt>
      <trkpt lat="48.88384" lon="2.3511">
        <ele>67.199996948242</ele>
        <time>2016-02-15T20:12:43Z</time>
      </trkpt>
      <trkpt lat="48.88381" lon="2.35083">
        <ele>68.400001525879</ele>
        <time>2016-02-15T20:12:49Z</time>
      </trkpt>
      <trkpt lat="48.88377" lon="2.35054">
        <ele>68.199996948242</ele>
        <time>2016-02-15T20:12:55Z</time>
      </trkpt>
      <trkpt lat="48.88374" lon="2.35022">
        <ele>67.800003051758</ele>
        <time>2016-02-15T20:13:01Z</time>
      </trkpt>
      <trkpt lat="48.88371" lon="2.34993">
        <ele>68</ele>
        <time>2016-02-15T20:13:07Z</time>
      </trkpt>
      <trkpt lat="48.88373" lon="2.34978">
        <ele>68.199996948242</ele>
        <time>2016-02-15T20:13:11Z</time>
      </trkpt>
      <trkpt lat="48.88374" lon="2.34975">
        <ele>68.199996948242</ele>
        <time>2016-02-15T20:13:13Z</time>
      </trkpt>
      <trkpt lat="48.88377" lon="2.34973">
        <ele>68.199996948242</ele>
        <time>2016-02-15T20:13:15Z</time>
      </trkpt>
      <trkpt lat="48.88374" lon="2.34947">
        <ele>68.599998474121</ele>
        <time>2016-02-15T20:13:29Z</time>
      </trkpt>
      <trkpt lat="48.88367" lon="2.34921">
        <ele>69</ele>
        <time>2016-02-15T20:13:35Z</time>
      </trkpt>
      <trkpt lat="48.88362" lon="2.34895">
        <ele>69.599998474121</ele>
        <time>2016-02-15T20:13:41Z</time>
      </trkpt>
      <trkpt lat="48.88357" lon="2.34863">
        <ele>70.199996948242</ele>
        <time>2016-02-15T20:13:47Z</time>
      </trkpt>
      <trkpt lat="48.88355" lon="2.34832">
        <ele>71</ele>
        <time>2016-02-15T20:13:53Z</time>
      </trkpt>
      <trkpt lat="48.88348" lon="2.34802">
        <ele>71.400001525879</ele>
        <time>2016-02-15T20:13:59Z</time>
      </trkpt>
      <trkpt lat="48.88344" lon="2.34771">
        <ele>71.800003051758</ele>
        <time>2016-02-15T20:14:05Z</time>
      </trkpt>
      <trkpt lat="48.88342" lon="2.34743">
        <ele>72.400001525879</ele>
        <time>2016-02-15T20:14:11Z</time>
      </trkpt>
      <trkpt lat="48.88346" lon="2.34722">
        <ele>72.599998474121</ele>
        <time>2016-02-15T20:14:16Z</time>
      </trkpt>
      <trkpt lat="48.88344" lon="2.34707">
        <ele>73</ele>
        <time>2016-02-15T20:15:01Z</time>
      </trkpt>
      <trkpt lat="48.88333" lon="2.34685">
        <ele>73.599998474121</ele>
        <time>2016-02-15T20:15:08Z</time>
      </trkpt>
      <trkpt lat="48.88329" lon="2.34656">
        <ele>74</ele>
        <time>2016-02-15T20:15:14Z</time>
      </trkpt>
      <trkpt lat="48.88322" lon="2.34631">
        <ele>74.599998474121</ele>
        <time>2016-02-15T20:15:19Z</time>
      </trkpt>
      <trkpt lat="48.88311" lon="2.34603">
        <ele>75.199996948242</ele>
        <time>2016-02-15T20:15:25Z</time>
      </trkpt>
      <trkpt lat="48.88306" lon="2.34573">
        <ele>75.599998474121</ele>
        <time>2016-02-15T20:15:30Z</time>
      </trkpt>
      <trkpt lat="48.88295" lon="2.34545">
        <ele>76.800003051758</ele>
        <time>2016-02-15T20:15:35Z</time>
      </trkpt>
      <trkpt lat="48.88287" lon="2.34514">
        <ele>78</ele>
        <time>2016-02-15T20:15:40Z</time>
      </trkpt>
      <trkpt lat="48.88283" lon="2.34485">
        <ele>77.599998474121</ele>
        <time>2016-02-15T20:15:44Z</time>
      </trkpt>
      <trkpt lat="48.88276" lon="2.34458">
        <ele>76</ele>
        <time>2016-02-15T20:15:48Z</time>
      </trkpt>
      <trkpt lat="48.8827" lon="2.34432">
        <ele>74.199996948242</ele>
        <time>2016-02-15T20:15:53Z</time>
      </trkpt>
      <trkpt lat="48.88277" lon="2.34391">
        <ele>72.199996948242</ele>
        <time>2016-02-15T20:15:58Z</time>
      </trkpt>
      <trkpt lat="48.88274" lon="2.34357">
        <ele>71</ele>
        <time>2016-02-15T20:16:03Z</time>
      </trkpt>
      <trkpt lat="48.88267" lon="2.34328">
        <ele>70</ele>
        <time>2016-02-15T20:16:08Z</time>
      </trkpt>
      <trkpt lat="48.88263" lon="2.34316">
        <ele>70.199996948242</ele>
        <time>2016-02-15T20:16:10Z</time>
      </trkpt>
      <trkpt lat="48.88256" lon="2.34288">
        <ele>70.599998474121</ele>
        <time>2016-02-15T20:16:14Z</time>
      </trkpt>
      <trkpt lat="48.88248" lon="2.34263">
        <ele>71</ele>
        <time>2016-02-15T20:16:18Z</time>
      </trkpt>
      <trkpt lat="48.88246" lon="2.34257">
        <ele>71.199996948242</ele>
        <time>2016-02-15T20:16:19Z</time>
      </trkpt>
      <trkpt lat="48.88237" lon="2.34229">
        <ele>72.199996948242</ele>
        <time>2016-02-15T20:16:23Z</time>
      </trkpt>
      <trkpt lat="48.88227" lon="2.34204">
        <ele>73.599998474121</ele>
        <time>2016-02-15T20:16:27Z</time>
      </trkpt>
      <trkpt lat="48.88217" lon="2.34177">
        <ele>74.800003051758</ele>
        <time>2016-02-15T20:16:31Z</time>
      </trkpt>
      <trkpt lat="48.88207" lon="2.34151">
        <ele>75.199996948242</ele>
        <time>2016-02-15T20:16:35Z</time>
      </trkpt>
      <trkpt lat="48.88199" lon="2.34122">
        <ele>75.199996948242</ele>
        <time>2016-02-15T20:16:39Z</time>
      </trkpt>
      <trkpt lat="48.88191" lon="2.34093">
        <ele>75</ele>
        <time>2016-02-15T20:16:43Z</time>
      </trkpt>
      <trkpt lat="48.88188" lon="2.3406">
        <ele>74.599998474121</ele>
        <time>2016-02-15T20:16:47Z</time>
      </trkpt>
      <trkpt lat="48.88184" lon="2.34031">
        <ele>74.199996948242</ele>
        <time>2016-02-15T20:16:51Z</time>
      </trkpt>
      <trkpt lat="48.88183" lon="2.34022">
        <ele>74</ele>
        <time>2016-02-15T20:16:52Z</time>
      </trkpt>
      <trkpt lat="48.88184" lon="2.33995">
        <ele>73.599998474121</ele>
        <time>2016-02-15T20:16:56Z</time>
      </trkpt>
      <trkpt lat="48.88189" lon="2.33969">
        <ele>72.599998474121</ele>
        <time>2016-02-15T20:17:00Z</time>
      </trkpt>
      <trkpt lat="48.88191" lon="2.33962">
        <ele>72.400001525879</ele>
        <time>2016-02-15T20:17:01Z</time>
      </trkpt>
      <trkpt lat="48.88201" lon="2.33932">
        <ele>71.199996948242</ele>
        <time>2016-02-15T20:17:05Z</time>
      </trkpt>
      <trkpt lat="48.88211" lon="2.33901">
        <ele>70.800003051758</ele>
        <time>2016-02-15T20:17:09Z</time>
      </trkpt>
      <trkpt lat="48.8822" lon="2.3387">
        <ele>71</ele>
        <time>2016-02-15T20:17:13Z</time>
      </trkpt>
      <trkpt lat="48.88224" lon="2.33841">
        <ele>71.599998474121</ele>
        <time>2016-02-15T20:17:17Z</time>
      </trkpt>
      <trkpt lat="48.88226" lon="2.33834">
        <ele>72</ele>
        <time>2016-02-15T20:17:18Z</time>
      </trkpt>
      <trkpt lat="48.88232" lon="2.33805">
        <ele>72.599998474121</ele>
        <time>2016-02-15T20:17:22Z</time>
      </trkpt>
      <trkpt lat="48.88238" lon="2.33774">
        <ele>72.199996948242</ele>
        <time>2016-02-15T20:17:27Z</time>
      </trkpt>
      <trkpt lat="48.88242" lon="2.33744">
        <ele>71.400001525879</ele>
        <time>2016-02-15T20:17:32Z</time>
      </trkpt>
      <trkpt lat="48.88243" lon="2.33738">
        <ele>71.400001525879</ele>
        <time>2016-02-15T20:17:33Z</time>
      </trkpt>
      <trkpt lat="48.88248" lon="2.33717">
        <ele>71</ele>
        <time>2016-02-15T20:17:36Z</time>
      </trkpt>
      <trkpt lat="48.8826" lon="2.33687">
        <ele>69.800003051758</ele>
        <time>2016-02-15T20:17:40Z</time>
      </trkpt>
      <trkpt lat="48.88269" lon="2.3366">
        <ele>69</ele>
        <time>2016-02-15T20:17:44Z</time>
      </trkpt>
      <trkpt lat="48.88278" lon="2.33636">
        <ele>69.599998474121</ele>
        <time>2016-02-15T20:17:48Z</time>
      </trkpt>
      <trkpt lat="48.88287" lon="2.33612">
        <ele>70.400001525879</ele>
        <time>2016-02-15T20:17:52Z</time>
      </trkpt>
      <trkpt lat="48.88297" lon="2.33583">
        <ele>70.400001525879</ele>
        <time>2016-02-15T20:17:56Z</time>
      </trkpt>
      <trkpt lat="48.88302" lon="2.33569">
        <ele>70.400001525879</ele>
        <time>2016-02-15T20:17:58Z</time>
      </trkpt>
      <trkpt lat="48.88311" lon="2.33536">
        <ele>71</ele>
        <time>2016-02-15T20:18:02Z</time>
      </trkpt>
      <trkpt lat="48.88315" lon="2.3352">
        <ele>71.199996948242</ele>
        <time>2016-02-15T20:18:04Z</time>
      </trkpt>
      <trkpt lat="48.88325" lon="2.3349">
        <ele>71.599998474121</ele>
        <time>2016-02-15T20:18:08Z</time>
      </trkpt>
      <trkpt lat="48.88336" lon="2.3346">
        <ele>71.800003051758</ele>
        <time>2016-02-15T20:18:12Z</time>
      </trkpt>
      <trkpt lat="48.88345" lon="2.33433">
        <ele>71.800003051758</ele>
        <time>2016-02-15T20:18:16Z</time>
      </trkpt>
      <trkpt lat="48.88347" lon="2.33427">
        <ele>71.800003051758</ele>
        <time>2016-02-15T20:18:17Z</time>
      </trkpt>
      <trkpt lat="48.88354" lon="2.33406">
        <ele>71.800003051758</ele>
        <time>2016-02-15T20:18:20Z</time>
      </trkpt>
      <trkpt lat="48.88364" lon="2.3338">
        <ele>71.800003051758</ele>
        <time>2016-02-15T20:18:24Z</time>
      </trkpt>
      <trkpt lat="48.88374" lon="2.33355">
        <ele>72</ele>
        <time>2016-02-15T20:18:28Z</time>
      </trkpt>
      <trkpt lat="48.88381" lon="2.33338">
        <ele>71.800003051758</ele>
        <time>2016-02-15T20:18:31Z</time>
      </trkpt>
      <trkpt lat="48.88388" lon="2.33308">
        <ele>72</ele>
        <time>2016-02-15T20:18:36Z</time>
      </trkpt>
      <trkpt lat="48.88389" lon="2.33303">
        <ele>72.199996948242</ele>
        <time>2016-02-15T20:18:37Z</time>
      </trkpt>
      <trkpt lat="48.8839" lon="2.3327">
        <ele>72.199996948242</ele>
        <time>2016-02-15T20:18:42Z</time>
      </trkpt>
      <trkpt lat="48.88391" lon="2.33265">
        <ele>72</ele>
        <time>2016-02-15T20:18:43Z</time>
      </trkpt>
      <trkpt lat="48.88396" lon="2.33236">
        <ele>71.400001525879</ele>
        <time>2016-02-15T20:18:48Z</time>
      </trkpt>
      <trkpt lat="48.88397" lon="2.3323">
        <ele>71.400001525879</ele>
        <time>2016-02-15T20:18:49Z</time>
      </trkpt>
      <trkpt lat="48.88402" lon="2.33214">
        <ele>71</ele>
        <time>2016-02-15T20:18:52Z</time>
      </trkpt>
      <trkpt lat="48.88409" lon="2.33183">
        <ele>71</ele>
        <time>2016-02-15T20:18:57Z</time>
      </trkpt>
      <trkpt lat="48.88415" lon="2.33157">
        <ele>71</ele>
        <time>2016-02-15T20:19:01Z</time>
      </trkpt>
      <trkpt lat="48.88423" lon="2.33127">
        <ele>71.599998474121</ele>
        <time>2016-02-15T20:19:06Z</time>
      </trkpt>
      <trkpt lat="48.88429" lon="2.33103">
        <ele>72.400001525879</ele>
        <time>2016-02-15T20:19:10Z</time>
      </trkpt>
      <trkpt lat="48.88438" lon="2.33075">
        <ele>73</ele>
        <time>2016-02-15T20:19:15Z</time>
      </trkpt>
      <trkpt lat="48.88445" lon="2.33045">
        <ele>73</ele>
        <time>2016-02-15T20:19:20Z</time>
      </trkpt>
      <trkpt lat="48.88449" lon="2.33023">
        <ele>73.199996948242</ele>
        <time>2016-02-15T20:19:24Z</time>
      </trkpt>
      <trkpt lat="48.88453" lon="2.33008">
        <ele>73.199996948242</ele>
        <time>2016-02-15T20:19:28Z</time>
      </trkpt>
      <trkpt lat="48.88456" lon="2.32983">
        <ele>72.400001525879</ele>
        <time>2016-02-15T20:19:43Z</time>
      </trkpt>
      <trkpt lat="48.88456" lon="2.32971">
        <ele>72.199996948242</ele>
        <time>2016-02-15T20:19:48Z</time>
      </trkpt>
      <trkpt lat="48.88453" lon="2.32943">
        <ele>71.599998474121</ele>
        <time>2016-02-15T20:19:56Z</time>
      </trkpt>
      <trkpt lat="48.88452" lon="2.32939">
        <ele>71.400001525879</ele>
        <time>2016-02-15T20:19:57Z</time>
      </trkpt>
      <trkpt lat="48.8844" lon="2.32912">
        <ele>71</ele>
        <time>2016-02-15T20:20:03Z</time>
      </trkpt>
      <trkpt lat="48.88428" lon="2.32891">
        <ele>70.800003051758</ele>
        <time>2016-02-15T20:20:07Z</time>
      </trkpt>
      <trkpt lat="48.88412" lon="2.32871">
        <ele>70.400001525879</ele>
        <time>2016-02-15T20:20:11Z</time>
      </trkpt>
      <trkpt lat="48.88399" lon="2.32848">
        <ele>70.199996948242</ele>
        <time>2016-02-15T20:20:15Z</time>
      </trkpt>
      <trkpt lat="48.88384" lon="2.32824">
        <ele>69.800003051758</ele>
        <time>2016-02-15T20:20:19Z</time>
      </trkpt>
      <trkpt lat="48.88371" lon="2.32802">
        <ele>69.400001525879</ele>
        <time>2016-02-15T20:20:23Z</time>
      </trkpt>
      <trkpt lat="48.88361" lon="2.32781">
        <ele>68.800003051758</ele>
        <time>2016-02-15T20:20:27Z</time>
      </trkpt>
      <trkpt lat="48.88352" lon="2.32768">
        <ele>68.599998474121</ele>
        <time>2016-02-15T20:20:30Z</time>
      </trkpt>
      <trkpt lat="48.88347" lon="2.32752">
        <ele>68.199996948242</ele>
        <time>2016-02-15T20:20:33Z</time>
      </trkpt>
      <trkpt lat="48.88342" lon="2.32739">
        <ele>68.400001525879</ele>
        <time>2016-02-15T20:20:35Z</time>
      </trkpt>
      <trkpt lat="48.8834" lon="2.32723">
        <ele>68.800003051758</ele>
        <time>2016-02-15T20:20:37Z</time>
      </trkpt>
      <trkpt lat="48.88335" lon="2.32691">
        <ele>69.400001525879</ele>
        <time>2016-02-15T20:20:41Z</time>
      </trkpt>
      <trkpt lat="48.88328" lon="2.32657">
        <ele>69.800003051758</ele>
        <time>2016-02-15T20:20:45Z</time>
      </trkpt>
      <trkpt lat="48.88325" lon="2.32648">
        <ele>69.800003051758</ele>
        <time>2016-02-15T20:20:46Z</time>
      </trkpt>
      <trkpt lat="48.8832" lon="2.32619">
        <ele>69.599998474121</ele>
        <time>2016-02-15T20:20:49Z</time>
      </trkpt>
      <trkpt lat="48.88311" lon="2.32593">
        <ele>69.800003051758</ele>
        <time>2016-02-15T20:20:52Z</time>
      </trkpt>
      <trkpt lat="48.88306" lon="2.32564">
        <ele>69.800003051758</ele>
        <time>2016-02-15T20:20:55Z</time>
      </trkpt>
      <trkpt lat="48.883" lon="2.32536">
        <ele>69.400001525879</ele>
        <time>2016-02-15T20:20:58Z</time>
      </trkpt>
      <trkpt lat="48.88294" lon="2.32507">
        <ele>68.400001525879</ele>
        <time>2016-02-15T20:21:01Z</time>
      </trkpt>
      <trkpt lat="48.88293" lon="2.32496">
        <ele>67.800003051758</ele>
        <time>2016-02-15T20:21:02Z</time>
      </trkpt>
      <trkpt lat="48.88287" lon="2.32468">
        <ele>66.800003051758</ele>
        <time>2016-02-15T20:21:05Z</time>
      </trkpt>
      <trkpt lat="48.88283" lon="2.32437">
        <ele>65.599998474121</ele>
        <time>2016-02-15T20:21:08Z</time>
      </trkpt>
      <trkpt lat="48.88278" lon="2.32408">
        <ele>64.599998474121</ele>
        <time>2016-02-15T20:21:11Z</time>
      </trkpt>
      <trkpt lat="48.88273" lon="2.3238">
        <ele>64.599998474121</ele>
        <time>2016-02-15T20:21:14Z</time>
      </trkpt>
      <trkpt lat="48.88268" lon="2.32352">
        <ele>64.400001525879</ele>
        <time>2016-02-15T20:21:17Z</time>
      </trkpt>
      <trkpt lat="48.88264" lon="2.32323">
        <ele>64</ele>
        <time>2016-02-15T20:21:20Z</time>
      </trkpt>
      <trkpt lat="48.88258" lon="2.32289">
        <ele>63.400001525879</ele>
        <time>2016-02-15T20:21:24Z</time>
      </trkpt>
      <trkpt lat="48.8825" lon="2.32259">
        <ele>62.79999923706</ele>
        <time>2016-02-15T20:21:28Z</time>
      </trkpt>
      <trkpt lat="48.8824" lon="2.32232">
        <ele>61.599998474121</ele>
        <time>2016-02-15T20:21:32Z</time>
      </trkpt>
      <trkpt lat="48.88232" lon="2.32204">
        <ele>59.400001525879</ele>
        <time>2016-02-15T20:21:36Z</time>
      </trkpt>
      <trkpt lat="48.88228" lon="2.32175">
        <ele>58</ele>
        <time>2016-02-15T20:21:40Z</time>
      </trkpt>
      <trkpt lat="48.88223" lon="2.32147">
        <ele>56.20000076294</ele>
        <time>2016-02-15T20:21:44Z</time>
      </trkpt>
      <trkpt lat="48.88217" lon="2.32123">
        <ele>54.400001525879</ele>
        <time>2016-02-15T20:21:48Z</time>
      </trkpt>
      <trkpt lat="48.88214" lon="2.32103">
        <ele>53</ele>
        <time>2016-02-15T20:21:51Z</time>
      </trkpt>
      <trkpt lat="48.88215" lon="2.32069">
        <ele>52.400001525879</ele>
        <time>2016-02-15T20:21:56Z</time>
      </trkpt>
      <trkpt lat="48.88215" lon="2.32059">
        <ele>52.79999923706</ele>
        <time>2016-02-15T20:21:58Z</time>
      </trkpt>
      <trkpt lat="48.88215" lon="2.32042">
        <ele>53.20000076294</ele>
        <time>2016-02-15T20:22:02Z</time>
      </trkpt>
      <trkpt lat="48.88212" lon="2.3203">
        <ele>53.20000076294</ele>
        <time>2016-02-15T20:22:05Z</time>
      </trkpt>
      <trkpt lat="48.88206" lon="2.32016">
        <ele>53.400001525879</ele>
        <time>2016-02-15T20:22:08Z</time>
      </trkpt>
      <trkpt lat="48.88202" lon="2.32006">
        <ele>53.400001525879</ele>
        <time>2016-02-15T20:22:10Z</time>
      </trkpt>
      <trkpt lat="48.88197" lon="2.31996">
        <ele>53.599998474121</ele>
        <time>2016-02-15T20:22:12Z</time>
      </trkpt>
      <trkpt lat="48.88189" lon="2.31972">
        <ele>55.400001525879</ele>
        <time>2016-02-15T20:22:16Z</time>
      </trkpt>
      <trkpt lat="48.88183" lon="2.31962">
        <ele>56.79999923706</ele>
        <time>2016-02-15T20:22:18Z</time>
      </trkpt>
      <trkpt lat="48.88178" lon="2.31932">
        <ele>59.79999923706</ele>
        <time>2016-02-15T20:22:22Z</time>
      </trkpt>
      <trkpt lat="48.88173" lon="2.31911">
        <ele>61.79999923706</ele>
        <time>2016-02-15T20:22:25Z</time>
      </trkpt>
      <trkpt lat="48.88168" lon="2.31889">
        <ele>62.599998474121</ele>
        <time>2016-02-15T20:22:28Z</time>
      </trkpt>
      <trkpt lat="48.88161" lon="2.31861">
        <ele>63.599998474121</ele>
        <time>2016-02-15T20:22:32Z</time>
      </trkpt>
      <trkpt lat="48.88159" lon="2.31854">
        <ele>64</ele>
        <time>2016-02-15T20:22:33Z</time>
      </trkpt>
      <trkpt lat="48.88158" lon="2.31846">
        <ele>64.199996948242</ele>
        <time>2016-02-15T20:22:34Z</time>
      </trkpt>
      <trkpt lat="48.88152" lon="2.31818">
        <ele>64.599998474121</ele>
        <time>2016-02-15T20:22:38Z</time>
      </trkpt>
      <trkpt lat="48.88149" lon="2.31812">
        <ele>64.400001525879</ele>
        <time>2016-02-15T20:22:39Z</time>
      </trkpt>
      <trkpt lat="48.88144" lon="2.31785">
        <ele>64.199996948242</ele>
        <time>2016-02-15T20:22:44Z</time>
      </trkpt>
      <trkpt lat="48.88144" lon="2.31782">
        <ele>64</ele>
        <time>2016-02-15T20:22:45Z</time>
      </trkpt>
      <trkpt lat="48.88146" lon="2.3178">
        <ele>64</ele>
        <time>2016-02-15T20:22:51Z</time>
      </trkpt>
      <trkpt lat="48.88146" lon="2.31782">
        <ele>64</ele>
        <time>2016-02-15T20:22:52Z</time>
      </trkpt>
      <trkpt lat="48.88145" lon="2.3179">
        <ele>64.199996948242</ele>
        <time>2016-02-15T20:22:57Z</time>
      </trkpt>
      <trkpt lat="48.88145" lon="2.3179">
        <ele>64.199996948242</ele>
        <time>2016-02-15T20:23:01Z</time>
      </trkpt>
      <trkpt lat="48.88169" lon="2.31763">
        <ele>63</ele>
        <time>2016-02-15T20:23:08Z</time>
      </trkpt>
      <trkpt lat="48.88176" lon="2.31756">
        <ele>62.599998474121</ele>
        <time>2016-02-15T20:23:10Z</time>
      </trkpt>
      <trkpt lat="48.88191" lon="2.31739">
        <ele>61.79999923706</ele>
        <time>2016-02-15T20:23:14Z</time>
      </trkpt>
      <trkpt lat="48.88197" lon="2.31735">
        <ele>61.79999923706</ele>
        <time>2016-02-15T20:23:16Z</time>
      </trkpt>
      <trkpt lat="48.88216" lon="2.31731">
        <ele>61.400001525879</ele>
        <time>2016-02-15T20:23:23Z</time>
      </trkpt>
      <trkpt lat="48.88234" lon="2.3172">
        <ele>61.20000076294</ele>
        <time>2016-02-15T20:23:31Z</time>
      </trkpt>
      <trkpt lat="48.8825" lon="2.31717">
        <ele>61</ele>
        <time>2016-02-15T20:23:37Z</time>
      </trkpt>
      <trkpt lat="48.8826" lon="2.317">
        <ele>60.599998474121</ele>
        <time>2016-02-15T20:23:56Z</time>
      </trkpt>
      <trkpt lat="48.8825" lon="2.31676">
        <ele>60.400001525879</ele>
        <time>2016-02-15T20:24:02Z</time>
      </trkpt>
      <trkpt lat="48.88238" lon="2.31651">
        <ele>60.79999923706</ele>
        <time>2016-02-15T20:24:08Z</time>
      </trkpt>
      <trkpt lat="48.88224" lon="2.31632">
        <ele>61.400001525879</ele>
        <time>2016-02-15T20:24:14Z</time>
      </trkpt>
      <trkpt lat="48.8821" lon="2.31612">
        <ele>62</ele>
        <time>2016-02-15T20:24:19Z</time>
      </trkpt>
      <trkpt lat="48.88208" lon="2.31587">
        <ele>62.20000076294</ele>
        <time>2016-02-15T20:24:24Z</time>
      </trkpt>
      <trkpt lat="48.88224" lon="2.31564">
        <ele>61.400001525879</ele>
        <time>2016-02-15T20:24:28Z</time>
      </trkpt>
      <trkpt lat="48.88236" lon="2.31542">
        <ele>60.79999923706</ele>
        <time>2016-02-15T20:24:34Z</time>
      </trkpt>
      <trkpt lat="48.88243" lon="2.31534">
        <ele>60.599998474121</ele>
        <time>2016-02-15T20:24:37Z</time>
      </trkpt>
      <trkpt lat="48.88259" lon="2.31518">
        <ele>60.20000076294</ele>
        <time>2016-02-15T20:24:45Z</time>
      </trkpt>
      <trkpt lat="48.88271" lon="2.31494">
        <ele>60.20000076294</ele>
        <time>2016-02-15T20:24:52Z</time>
      </trkpt>
      <trkpt lat="48.88289" lon="2.31487">
        <ele>59.79999923706</ele>
        <time>2016-02-15T20:25:00Z</time>
      </trkpt>
      <trkpt lat="48.88306" lon="2.31475">
        <ele>59.400001525879</ele>
        <time>2016-02-15T20:25:07Z</time>
      </trkpt>
      <trkpt lat="48.88323" lon="2.31465">
        <ele>59.20000076294</ele>
        <time>2016-02-15T20:25:13Z</time>
      </trkpt>
      <trkpt lat="48.88341" lon="2.31453">
        <ele>59</ele>
        <time>2016-02-15T20:25:19Z</time>
      </trkpt>
      <trkpt lat="48.88354" lon="2.31429">
        <ele>58.79999923706</ele>
        <time>2016-02-15T20:25:24Z</time>
      </trkpt>
      <trkpt lat="48.88361" lon="2.31388">
        <ele>59</ele>
        <time>2016-02-15T20:25:26Z</time>
      </trkpt>
      <trkpt lat="48.88371" lon="2.31367">
        <ele>59</ele>
        <time>2016-02-15T20:25:31Z</time>
      </trkpt>
      <trkpt lat="48.88357" lon="2.31352">
        <ele>59</ele>
        <time>2016-02-15T20:25:43Z</time>
      </trkpt>
      <trkpt lat="48.88339" lon="2.31338">
        <ele>59.20000076294</ele>
        <time>2016-02-15T20:25:51Z</time>
      </trkpt>
      <trkpt lat="48.88335" lon="2.31321">
        <ele>59.20000076294</ele>
        <time>2016-02-15T20:25:56Z</time>
      </trkpt>
      <trkpt lat="48.88345" lon="2.31298">
        <ele>59.20000076294</ele>
        <time>2016-02-15T20:26:02Z</time>
      </trkpt>
      <trkpt lat="48.88357" lon="2.31283">
        <ele>59.599998474121</ele>
        <time>2016-02-15T20:26:05Z</time>
      </trkpt>
      <trkpt lat="48.88375" lon="2.31257">
        <ele>59.599998474121</ele>
        <time>2016-02-15T20:26:09Z</time>
      </trkpt>
      <trkpt lat="48.88389" lon="2.31236">
        <ele>59</ele>
        <time>2016-02-15T20:26:13Z</time>
      </trkpt>
      <trkpt lat="48.88402" lon="2.31208">
        <ele>58</ele>
        <time>2016-02-15T20:26:18Z</time>
      </trkpt>
      <trkpt lat="48.88414" lon="2.31188">
        <ele>57.20000076294</ele>
        <time>2016-02-15T20:26:22Z</time>
      </trkpt>
      <trkpt lat="48.88425" lon="2.31174">
        <ele>56.599998474121</ele>
        <time>2016-02-15T20:26:25Z</time>
      </trkpt>
      <trkpt lat="48.8844" lon="2.31155">
        <ele>55.79999923706</ele>
        <time>2016-02-15T20:26:29Z</time>
      </trkpt>
      <trkpt lat="48.88454" lon="2.31134">
        <ele>55.400001525879</ele>
        <time>2016-02-15T20:26:33Z</time>
      </trkpt>
      <trkpt lat="48.88458" lon="2.3113">
        <ele>55.400001525879</ele>
        <time>2016-02-15T20:26:34Z</time>
      </trkpt>
      <trkpt lat="48.88472" lon="2.31112">
        <ele>55.20000076294</ele>
        <time>2016-02-15T20:26:38Z</time>
      </trkpt>
      <trkpt lat="48.88488" lon="2.31088">
        <ele>54.79999923706</ele>
        <time>2016-02-15T20:26:43Z</time>
      </trkpt>
      <trkpt lat="48.88502" lon="2.31067">
        <ele>54.79999923706</ele>
        <time>2016-02-15T20:26:48Z</time>
      </trkpt>
      <trkpt lat="48.88511" lon="2.31058">
        <ele>55</ele>
        <time>2016-02-15T20:26:51Z</time>
      </trkpt>
      <trkpt lat="48.88517" lon="2.31051">
        <ele>55.20000076294</ele>
        <time>2016-02-15T20:26:53Z</time>
      </trkpt>
      <trkpt lat="48.88534" lon="2.31032">
        <ele>55.599998474121</ele>
        <time>2016-02-15T20:26:58Z</time>
      </trkpt>
      <trkpt lat="48.88537" lon="2.31029">
        <ele>55.79999923706</ele>
        <time>2016-02-15T20:26:59Z</time>
      </trkpt>
      <trkpt lat="48.88554" lon="2.31008">
        <ele>55.599998474121</ele>
        <time>2016-02-15T20:27:04Z</time>
      </trkpt>
      <trkpt lat="48.88569" lon="2.30987">
        <ele>55.20000076294</ele>
        <time>2016-02-15T20:27:09Z</time>
      </trkpt>
      <trkpt lat="48.88573" lon="2.30983">
        <ele>55.20000076294</ele>
        <time>2016-02-15T20:27:10Z</time>
      </trkpt>
      <trkpt lat="48.88587" lon="2.30965">
        <ele>55.599998474121</ele>
        <time>2016-02-15T20:27:15Z</time>
      </trkpt>
      <trkpt lat="48.88603" lon="2.30946">
        <ele>56.400001525879</ele>
        <time>2016-02-15T20:27:20Z</time>
      </trkpt>
      <trkpt lat="48.8862" lon="2.30925">
        <ele>57.400001525879</ele>
        <time>2016-02-15T20:27:25Z</time>
      </trkpt>
      <trkpt lat="48.88635" lon="2.30902">
        <ele>56.79999923706</ele>
        <time>2016-02-15T20:27:30Z</time>
      </trkpt>
      <trkpt lat="48.88651" lon="2.30881">
        <ele>56</ele>
        <time>2016-02-15T20:27:35Z</time>
      </trkpt>
      <trkpt lat="48.88668" lon="2.3086">
        <ele>55.599998474121</ele>
        <time>2016-02-15T20:27:40Z</time>
      </trkpt>
      <trkpt lat="48.88684" lon="2.30836">
        <ele>55.20000076294</ele>
        <time>2016-02-15T20:27:45Z</time>
      </trkpt>
      <trkpt lat="48.88688" lon="2.30832">
        <ele>55</ele>
        <time>2016-02-15T20:27:46Z</time>
      </trkpt>
      <trkpt lat="48.88703" lon="2.30816">
        <ele>54.400001525879</ele>
        <time>2016-02-15T20:27:50Z</time>
      </trkpt>
      <trkpt lat="48.8871" lon="2.30808">
        <ele>54</ele>
        <time>2016-02-15T20:27:52Z</time>
      </trkpt>
      <trkpt lat="48.8872" lon="2.30797">
        <ele>53.400001525879</ele>
        <time>2016-02-15T20:27:55Z</time>
      </trkpt>
      <trkpt lat="48.88735" lon="2.30773">
        <ele>51.599998474121</ele>
        <time>2016-02-15T20:28:00Z</time>
      </trkpt>
      <trkpt lat="48.88747" lon="2.30751">
        <ele>49.20000076294</ele>
        <time>2016-02-15T20:28:05Z</time>
      </trkpt>
      <trkpt lat="48.88754" lon="2.30732">
        <ele>48.400001525879</ele>
        <time>2016-02-15T20:28:10Z</time>
      </trkpt>
      <trkpt lat="48.88762" lon="2.30721">
        <ele>47.599998474121</ele>
        <time>2016-02-15T20:28:15Z</time>
      </trkpt>
      <trkpt lat="48.88776" lon="2.30704">
        <ele>46.400001525879</ele>
        <time>2016-02-15T20:28:23Z</time>
      </trkpt>
      <trkpt lat="48.88775" lon="2.30673">
        <ele>46</ele>
        <time>2016-02-15T20:28:30Z</time>
      </trkpt>
      <trkpt lat="48.8877" lon="2.30654">
        <ele>46.400001525879</ele>
        <time>2016-02-15T20:28:34Z</time>
      </trkpt>
      <trkpt lat="48.88765" lon="2.30636">
        <ele>47.400001525879</ele>
        <time>2016-02-15T20:28:38Z</time>
      </trkpt>
      <trkpt lat="48.88756" lon="2.30612">
        <ele>48.79999923706</ele>
        <time>2016-02-15T20:28:44Z</time>
      </trkpt>
      <trkpt lat="48.88748" lon="2.30585">
        <ele>50</ele>
        <time>2016-02-15T20:28:49Z</time>
      </trkpt>
      <trkpt lat="48.88738" lon="2.30557">
        <ele>50.20000076294</ele>
        <time>2016-02-15T20:28:54Z</time>
      </trkpt>
      <trkpt lat="48.88728" lon="2.30531">
        <ele>50.20000076294</ele>
        <time>2016-02-15T20:28:59Z</time>
      </trkpt>
      <trkpt lat="48.88741" lon="2.3049">
        <ele>48.79999923706</ele>
        <time>2016-02-15T20:29:03Z</time>
      </trkpt>
      <trkpt lat="48.88747" lon="2.30459">
        <ele>48.400001525879</ele>
        <time>2016-02-15T20:29:07Z</time>
      </trkpt>
      <trkpt lat="48.88745" lon="2.30432">
        <ele>48.79999923706</ele>
        <time>2016-02-15T20:29:12Z</time>
      </trkpt>
      <trkpt lat="48.8874" lon="2.30403">
        <ele>49</ele>
        <time>2016-02-15T20:29:17Z</time>
      </trkpt>
      <trkpt lat="48.88731" lon="2.30373">
        <ele>49</ele>
        <time>2016-02-15T20:29:22Z</time>
      </trkpt>
      <trkpt lat="48.88725" lon="2.30347">
        <ele>50</ele>
        <time>2016-02-15T20:29:26Z</time>
      </trkpt>
      <trkpt lat="48.88719" lon="2.30327">
        <ele>50.599998474121</ele>
        <time>2016-02-15T20:29:29Z</time>
      </trkpt>
      <trkpt lat="48.8871" lon="2.303">
        <ele>50.400001525879</ele>
        <time>2016-02-15T20:29:33Z</time>
      </trkpt>
      <trkpt lat="48.88709" lon="2.30292">
        <ele>50.400001525879</ele>
        <time>2016-02-15T20:29:34Z</time>
      </trkpt>
      <trkpt lat="48.88699" lon="2.30263">
        <ele>50.20000076294</ele>
        <time>2016-02-15T20:29:38Z</time>
      </trkpt>
      <trkpt lat="48.88691" lon="2.30235">
        <ele>49.599998474121</ele>
        <time>2016-02-15T20:29:42Z</time>
      </trkpt>
      <trkpt lat="48.88688" lon="2.3022">
        <ele>49.20000076294</ele>
        <time>2016-02-15T20:29:44Z</time>
      </trkpt>
      <trkpt lat="48.88681" lon="2.30194">
        <ele>48.599998474121</ele>
        <time>2016-02-15T20:29:48Z</time>
      </trkpt>
      <trkpt lat="48.88679" lon="2.30189">
        <ele>48.400001525879</ele>
        <time>2016-02-15T20:29:49Z</time>
      </trkpt>
      <trkpt lat="48.88672" lon="2.30167">
        <ele>48</ele>
        <time>2016-02-15T20:29:53Z</time>
      </trkpt>
      <trkpt lat="48.88678" lon="2.30132">
        <ele>47.599998474121</ele>
        <time>2016-02-15T20:29:58Z</time>
      </trkpt>
      <trkpt lat="48.8869" lon="2.30115">
        <ele>47.599998474121</ele>
        <time>2016-02-15T20:30:01Z</time>
      </trkpt>
      <trkpt lat="48.88697" lon="2.30107">
        <ele>48</ele>
        <time>2016-02-15T20:30:03Z</time>
      </trkpt>
      <trkpt lat="48.88709" lon="2.30092">
        <ele>48.599998474121</ele>
        <time>2016-02-15T20:30:07Z</time>
      </trkpt>
      <trkpt lat="48.88724" lon="2.30076">
        <ele>49.79999923706</ele>
        <time>2016-02-15T20:30:13Z</time>
      </trkpt>
      <trkpt lat="48.88733" lon="2.30062">
        <ele>50.20000076294</ele>
        <time>2016-02-15T20:30:17Z</time>
      </trkpt>
      <trkpt lat="48.88743" lon="2.3005">
        <ele>51</ele>
        <time>2016-02-15T20:30:21Z</time>
      </trkpt>
      <trkpt lat="48.88758" lon="2.30028">
        <ele>51.400001525879</ele>
        <time>2016-02-15T20:30:27Z</time>
      </trkpt>
      <trkpt lat="48.88761" lon="2.30024">
        <ele>51.599998474121</ele>
        <time>2016-02-15T20:30:28Z</time>
      </trkpt>
      <trkpt lat="48.88769" lon="2.30012">
        <ele>51.79999923706</ele>
        <time>2016-02-15T20:30:31Z</time>
      </trkpt>
      <trkpt lat="48.88783" lon="2.2999">
        <ele>50.79999923706</ele>
        <time>2016-02-15T20:30:36Z</time>
      </trkpt>
      <trkpt lat="48.88798" lon="2.29971">
        <ele>48</ele>
        <time>2016-02-15T20:30:43Z</time>
      </trkpt>
      <trkpt lat="48.88803" lon="2.29967">
        <ele>47.400001525879</ele>
        <time>2016-02-15T20:30:46Z</time>
      </trkpt>
      <trkpt lat="48.88814" lon="2.29971">
        <ele>47</ele>
        <time>2016-02-15T20:30:54Z</time>
      </trkpt>
      <trkpt lat="48.88816" lon="2.29969">
        <ele>46.79999923706</ele>
        <time>2016-02-15T20:30:56Z</time>
      </trkpt>
      <trkpt lat="48.88816" lon="2.29969">
        <ele>46.79999923706</ele>
        <time>2016-02-15T20:30:58Z</time>
      </trkpt>
      <trkpt lat="48.88821" lon="2.29963">
        <ele>45.79999923706</ele>
        <time>2016-02-15T20:31:21Z</time>
      </trkpt>
      <trkpt lat="48.88827" lon="2.29956">
        <ele>45.599998474121</ele>
        <time>2016-02-15T20:31:25Z</time>
      </trkpt>
      <trkpt lat="48.88841" lon="2.29936">
        <ele>45.400001525879</ele>
        <time>2016-02-15T20:31:33Z</time>
      </trkpt>
      <trkpt lat="48.88841" lon="2.2992">
        <ele>45</ele>
        <time>2016-02-15T20:31:37Z</time>
      </trkpt>
      <trkpt lat="48.88837" lon="2.29908">
        <ele>44.599998474121</ele>
        <time>2016-02-15T20:31:41Z</time>
      </trkpt>
      <trkpt lat="48.88835" lon="2.29906">
        <ele>44.400001525879</ele>
        <time>2016-02-15T20:31:42Z</time>
      </trkpt>
      <trkpt lat="48.88827" lon="2.2989">
        <ele>43.79999923706</ele>
        <time>2016-02-15T20:31:47Z</time>
      </trkpt>
      <trkpt lat="48.88822" lon="2.29878">
        <ele>43.400001525879</ele>
        <time>2016-02-15T20:31:51Z</time>
      </trkpt>
      <trkpt lat="48.88809" lon="2.29855">
        <ele>42.400001525879</ele>
        <time>2016-02-15T20:31:57Z</time>
      </trkpt>
      <trkpt lat="48.88794" lon="2.29834">
        <ele>41.599998474121</ele>
        <time>2016-02-15T20:32:03Z</time>
      </trkpt>
      <trkpt lat="48.88781" lon="2.29813">
        <ele>41.400001525879</ele>
        <time>2016-02-15T20:32:10Z</time>
      </trkpt>
      <trkpt lat="48.8878" lon="2.29806">
        <ele>41.400001525879</ele>
        <time>2016-02-15T20:32:13Z</time>
      </trkpt>
      <trkpt lat="48.88794" lon="2.29782">
        <ele>42</ele>
        <time>2016-02-15T20:32:27Z</time>
      </trkpt>
      <trkpt lat="48.88806" lon="2.29763">
        <ele>41.79999923706</ele>
        <time>2016-02-15T20:32:35Z</time>
      </trkpt>
      <trkpt lat="48.88806" lon="2.29754">
        <ele>41.400001525879</ele>
        <time>2016-02-15T20:32:40Z</time>
      </trkpt>
      <trkpt lat="48.88804" lon="2.29748">
        <ele>41.400001525879</ele>
        <time>2016-02-15T20:32:42Z</time>
      </trkpt>
      <trkpt lat="48.88802" lon="2.29739">
        <ele>41.599998474121</ele>
        <time>2016-02-15T20:32:48Z</time>
      </trkpt>
      <trkpt lat="48.88784" lon="2.29737">
        <ele>42</ele>
        <time>2016-02-15T20:32:57Z</time>
      </trkpt>
      <trkpt lat="48.88767" lon="2.29721">
        <ele>43</ele>
        <time>2016-02-15T20:33:03Z</time>
      </trkpt>
      <trkpt lat="48.88751" lon="2.29708">
        <ele>43.599998474121</ele>
        <time>2016-02-15T20:33:09Z</time>
      </trkpt>
      <trkpt lat="48.88742" lon="2.297">
        <ele>44</ele>
        <time>2016-02-15T20:33:15Z</time>
      </trkpt>
      <trkpt lat="48.88747" lon="2.29684">
        <ele>44.599998474121</ele>
        <time>2016-02-15T20:33:29Z</time>
      </trkpt>
      <trkpt lat="48.8877" lon="2.29668">
        <ele>44.79999923706</ele>
        <time>2016-02-15T20:33:33Z</time>
      </trkpt>
      <trkpt lat="48.88785" lon="2.29645">
        <ele>44</ele>
        <time>2016-02-15T20:33:37Z</time>
      </trkpt>
      <trkpt lat="48.88787" lon="2.2964">
        <ele>43.599998474121</ele>
        <time>2016-02-15T20:33:38Z</time>
      </trkpt>
      <trkpt lat="48.88792" lon="2.29631">
        <ele>43.20000076294</ele>
        <time>2016-02-15T20:33:40Z</time>
      </trkpt>
      <trkpt lat="48.88791" lon="2.296">
        <ele>43.20000076294</ele>
        <time>2016-02-15T20:33:45Z</time>
      </trkpt>
      <trkpt lat="48.88777" lon="2.29583">
        <ele>44.599998474121</ele>
        <time>2016-02-15T20:33:50Z</time>
      </trkpt>
      <trkpt lat="48.88767" lon="2.29559">
        <ele>44.599998474121</ele>
        <time>2016-02-15T20:33:57Z</time>
      </trkpt>
      <trkpt lat="48.88762" lon="2.29542">
        <ele>44.20000076294</ele>
        <time>2016-02-15T20:34:00Z</time>
      </trkpt>
      <trkpt lat="48.8876" lon="2.29531">
        <ele>44</ele>
        <time>2016-02-15T20:34:02Z</time>
      </trkpt>
      <trkpt lat="48.88753" lon="2.29504">
        <ele>43.400001525879</ele>
        <time>2016-02-15T20:34:08Z</time>
      </trkpt>
      <trkpt lat="48.88754" lon="2.2949">
        <ele>42.79999923706</ele>
        <time>2016-02-15T20:34:12Z</time>
      </trkpt>
      <trkpt lat="48.8876" lon="2.29479">
        <ele>41.79999923706</ele>
        <time>2016-02-15T20:34:16Z</time>
      </trkpt>
      <trkpt lat="48.88778" lon="2.2946">
        <ele>39.400001525879</ele>
        <time>2016-02-15T20:34:21Z</time>
      </trkpt>
      <trkpt lat="48.88793" lon="2.29442">
        <ele>37.79999923706</ele>
        <time>2016-02-15T20:34:25Z</time>
      </trkpt>
      <trkpt lat="48.88807" lon="2.29425">
        <ele>37.79999923706</ele>
        <time>2016-02-15T20:34:29Z</time>
      </trkpt>
      <trkpt lat="48.88822" lon="2.29407">
        <ele>37.79999923706</ele>
        <time>2016-02-15T20:34:33Z</time>
      </trkpt>
      <trkpt lat="48.88838" lon="2.29393">
        <ele>37.599998474121</ele>
        <time>2016-02-15T20:34:37Z</time>
      </trkpt>
      <trkpt lat="48.88853" lon="2.29377">
        <ele>38</ele>
        <time>2016-02-15T20:34:41Z</time>
      </trkpt>
      <trkpt lat="48.88856" lon="2.29373">
        <ele>38</ele>
        <time>2016-02-15T20:34:42Z</time>
      </trkpt>
      <trkpt lat="48.88873" lon="2.29358">
        <ele>39</ele>
        <time>2016-02-15T20:34:47Z</time>
      </trkpt>
      <trkpt lat="48.88889" lon="2.29343">
        <ele>39.79999923706</ele>
        <time>2016-02-15T20:34:52Z</time>
      </trkpt>
      <trkpt lat="48.88904" lon="2.29328">
        <ele>40.20000076294</ele>
        <time>2016-02-15T20:34:56Z</time>
      </trkpt>
      <trkpt lat="48.8892" lon="2.29312">
        <ele>40.599998474121</ele>
        <time>2016-02-15T20:35:00Z</time>
      </trkpt>
      <trkpt lat="48.88937" lon="2.29294">
        <ele>39.79999923706</ele>
        <time>2016-02-15T20:35:04Z</time>
      </trkpt>
      <trkpt lat="48.88955" lon="2.29274">
        <ele>38.400001525879</ele>
        <time>2016-02-15T20:35:08Z</time>
      </trkpt>
      <trkpt lat="48.88974" lon="2.29253">
        <ele>38.20000076294</ele>
        <time>2016-02-15T20:35:12Z</time>
      </trkpt>
      <trkpt lat="48.88989" lon="2.29236">
        <ele>38.79999923706</ele>
        <time>2016-02-15T20:35:16Z</time>
      </trkpt>
      <trkpt lat="48.88993" lon="2.29232">
        <ele>39</ele>
        <time>2016-02-15T20:35:17Z</time>
      </trkpt>
      <trkpt lat="48.89008" lon="2.29215">
        <ele>39.400001525879</ele>
        <time>2016-02-15T20:35:21Z</time>
      </trkpt>
      <trkpt lat="48.89023" lon="2.29198">
        <ele>40</ele>
        <time>2016-02-15T20:35:26Z</time>
      </trkpt>
      <trkpt lat="48.89029" lon="2.2919">
        <ele>40</ele>
        <time>2016-02-15T20:35:28Z</time>
      </trkpt>
      <trkpt lat="48.89046" lon="2.2917">
        <ele>39.79999923706</ele>
        <time>2016-02-15T20:35:34Z</time>
      </trkpt>
      <trkpt lat="48.89062" lon="2.29154">
        <ele>39.79999923706</ele>
        <time>2016-02-15T20:35:40Z</time>
      </trkpt>
      <trkpt lat="48.89073" lon="2.29147">
        <ele>39.79999923706</ele>
        <time>2016-02-15T20:35:44Z</time>
      </trkpt>
      <trkpt lat="48.89083" lon="2.29136">
        <ele>39.79999923706</ele>
        <time>2016-02-15T20:35:48Z</time>
      </trkpt>
      <trkpt lat="48.89099" lon="2.29123">
        <ele>39.599998474121</ele>
        <time>2016-02-15T20:35:53Z</time>
      </trkpt>
      <trkpt lat="48.89116" lon="2.29106">
        <ele>39.599998474121</ele>
        <time>2016-02-15T20:35:58Z</time>
      </trkpt>
      <trkpt lat="48.89134" lon="2.29087">
        <ele>39.400001525879</ele>
        <time>2016-02-15T20:36:03Z</time>
      </trkpt>
      <trkpt lat="48.89151" lon="2.29072">
        <ele>39</ele>
        <time>2016-02-15T20:36:07Z</time>
      </trkpt>
      <trkpt lat="48.89168" lon="2.29057">
        <ele>38.599998474121</ele>
        <time>2016-02-15T20:36:11Z</time>
      </trkpt>
      <trkpt lat="48.89185" lon="2.29039">
        <ele>39.400001525879</ele>
        <time>2016-02-15T20:36:15Z</time>
      </trkpt>
      <trkpt lat="48.89202" lon="2.29024">
        <ele>40.20000076294</ele>
        <time>2016-02-15T20:36:19Z</time>
      </trkpt>
      <trkpt lat="48.8922" lon="2.29009">
        <ele>40.400001525879</ele>
        <time>2016-02-15T20:36:23Z</time>
      </trkpt>
      <trkpt lat="48.89237" lon="2.28993">
        <ele>40.400001525879</ele>
        <time>2016-02-15T20:36:27Z</time>
      </trkpt>
      <trkpt lat="48.89253" lon="2.28976">
        <ele>40</ele>
        <time>2016-02-15T20:36:31Z</time>
      </trkpt>
      <trkpt lat="48.8927" lon="2.28959">
        <ele>40.400001525879</ele>
        <time>2016-02-15T20:36:35Z</time>
      </trkpt>
      <trkpt lat="48.8929" lon="2.28942">
        <ele>40.599998474121</ele>
        <time>2016-02-15T20:36:40Z</time>
      </trkpt>
      <trkpt lat="48.89301" lon="2.28936">
        <ele>40.400001525879</ele>
        <time>2016-02-15T20:36:43Z</time>
      </trkpt>
      <trkpt lat="48.89319" lon="2.28919">
        <ele>39</ele>
        <time>2016-02-15T20:36:48Z</time>
      </trkpt>
      <trkpt lat="48.89336" lon="2.28906">
        <ele>37.79999923706</ele>
        <time>2016-02-15T20:36:52Z</time>
      </trkpt>
      <trkpt lat="48.89352" lon="2.28891">
        <ele>37.400001525879</ele>
        <time>2016-02-15T20:36:57Z</time>
      </trkpt>
      <trkpt lat="48.89368" lon="2.28875">
        <ele>37.20000076294</ele>
        <time>2016-02-15T20:37:01Z</time>
      </trkpt>
      <trkpt lat="48.89376" lon="2.28868">
        <ele>37</ele>
        <time>2016-02-15T20:37:03Z</time>
      </trkpt>
      <trkpt lat="48.89393" lon="2.28852">
        <ele>37.20000076294</ele>
        <time>2016-02-15T20:37:07Z</time>
      </trkpt>
      <trkpt lat="48.89413" lon="2.28834">
        <ele>37.79999923706</ele>
        <time>2016-02-15T20:37:11Z</time>
      </trkpt>
      <trkpt lat="48.8943" lon="2.28822">
        <ele>38.20000076294</ele>
        <time>2016-02-15T20:37:14Z</time>
      </trkpt>
      <trkpt lat="48.8945" lon="2.28806">
        <ele>37.79999923706</ele>
        <time>2016-02-15T20:37:18Z</time>
      </trkpt>
      <trkpt lat="48.89461" lon="2.28798">
        <ele>37.599998474121</ele>
        <time>2016-02-15T20:37:20Z</time>
      </trkpt>
      <trkpt lat="48.8947" lon="2.28788">
        <ele>37.20000076294</ele>
        <time>2016-02-15T20:37:22Z</time>
      </trkpt>
      <trkpt lat="48.8949" lon="2.28771">
        <ele>36.400001525879</ele>
        <time>2016-02-15T20:37:26Z</time>
      </trkpt>
      <trkpt lat="48.89511" lon="2.28754">
        <ele>35.599998474121</ele>
        <time>2016-02-15T20:37:30Z</time>
      </trkpt>
      <trkpt lat="48.89533" lon="2.28738">
        <ele>35.400001525879</ele>
        <time>2016-02-15T20:37:34Z</time>
      </trkpt>
      <trkpt lat="48.89553" lon="2.28722">
        <ele>36.400001525879</ele>
        <time>2016-02-15T20:37:38Z</time>
      </trkpt>
      <trkpt lat="48.89572" lon="2.28705">
        <ele>37.20000076294</ele>
        <time>2016-02-15T20:37:42Z</time>
      </trkpt>
      <trkpt lat="48.89591" lon="2.28688">
        <ele>37.599998474121</ele>
        <time>2016-02-15T20:37:46Z</time>
      </trkpt>
      <trkpt lat="48.89606" lon="2.28677">
        <ele>38</ele>
        <time>2016-02-15T20:37:49Z</time>
      </trkpt>
      <trkpt lat="48.89623" lon="2.28661">
        <ele>38</ele>
        <time>2016-02-15T20:37:53Z</time>
      </trkpt>
      <trkpt lat="48.89642" lon="2.28652">
        <ele>38.20000076294</ele>
        <time>2016-02-15T20:37:57Z</time>
      </trkpt>
      <trkpt lat="48.89648" lon="2.28648">
        <ele>38.400001525879</ele>
        <time>2016-02-15T20:38:00Z</time>
      </trkpt>
      <trkpt lat="48.89649" lon="2.28666">
        <ele>38</ele>
        <time>2016-02-15T20:38:05Z</time>
      </trkpt>
      <trkpt lat="48.89648" lon="2.28671">
        <ele>38.20000076294</ele>
        <time>2016-02-15T20:38:07Z</time>
      </trkpt>
      <trkpt lat="48.89643" lon="2.28648">
        <ele>38.400001525879</ele>
        <time>2016-02-15T20:38:25Z</time>
      </trkpt>
      <trkpt lat="48.89639" lon="2.28619">
        <ele>39</ele>
        <time>2016-02-15T20:38:31Z</time>
      </trkpt>
      <trkpt lat="48.89642" lon="2.28592">
        <ele>38</ele>
        <time>2016-02-15T20:38:36Z</time>
      </trkpt>
      <trkpt lat="48.89642" lon="2.28562">
        <ele>37.20000076294</ele>
        <time>2016-02-15T20:38:41Z</time>
      </trkpt>
      <trkpt lat="48.89642" lon="2.28543">
        <ele>37</ele>
        <time>2016-02-15T20:38:44Z</time>
      </trkpt>
      <trkpt lat="48.89643" lon="2.28513">
        <ele>36.79999923706</ele>
        <time>2016-02-15T20:38:48Z</time>
      </trkpt>
      <trkpt lat="48.89644" lon="2.28482">
        <ele>35.79999923706</ele>
        <time>2016-02-15T20:38:52Z</time>
      </trkpt>
      <trkpt lat="48.89644" lon="2.28448">
        <ele>33.400001525879</ele>
        <time>2016-02-15T20:38:57Z</time>
      </trkpt>
      <trkpt lat="48.89635" lon="2.28424">
        <ele>33.400001525879</ele>
        <time>2016-02-15T20:39:01Z</time>
      </trkpt>
      <trkpt lat="48.89623" lon="2.28404">
        <ele>33.20000076294</ele>
        <time>2016-02-15T20:39:05Z</time>
      </trkpt>
      <trkpt lat="48.89611" lon="2.28387">
        <ele>33</ele>
        <time>2016-02-15T20:39:09Z</time>
      </trkpt>
      <trkpt lat="48.89602" lon="2.28373">
        <ele>33</ele>
        <time>2016-02-15T20:39:12Z</time>
      </trkpt>
      <trkpt lat="48.89585" lon="2.28354">
        <ele>33.20000076294</ele>
        <time>2016-02-15T20:39:17Z</time>
      </trkpt>
      <trkpt lat="48.89584" lon="2.28349">
        <ele>33.20000076294</ele>
        <time>2016-02-15T20:39:18Z</time>
      </trkpt>
      <trkpt lat="48.8958" lon="2.28333">
        <ele>33.400001525879</ele>
        <time>2016-02-15T20:39:21Z</time>
      </trkpt>
      <trkpt lat="48.89571" lon="2.28309">
        <ele>33.20000076294</ele>
        <time>2016-02-15T20:39:26Z</time>
      </trkpt>
      <trkpt lat="48.89561" lon="2.28286">
        <ele>33</ele>
        <time>2016-02-15T20:39:31Z</time>
      </trkpt>
      <trkpt lat="48.89549" lon="2.28262">
        <ele>33.20000076294</ele>
        <time>2016-02-15T20:39:36Z</time>
      </trkpt>
      <trkpt lat="48.89538" lon="2.28236">
        <ele>33.400001525879</ele>
        <time>2016-02-15T20:39:41Z</time>
      </trkpt>
      <trkpt lat="48.8953" lon="2.28209">
        <ele>33.599998474121</ele>
        <time>2016-02-15T20:39:47Z</time>
      </trkpt>
      <trkpt lat="48.89521" lon="2.28182">
        <ele>33.79999923706</ele>
        <time>2016-02-15T20:39:53Z</time>
      </trkpt>
      <trkpt lat="48.89513" lon="2.28156">
        <ele>33.79999923706</ele>
        <time>2016-02-15T20:39:58Z</time>
      </trkpt>
      <trkpt lat="48.895" lon="2.28133">
        <ele>33.400001525879</ele>
        <time>2016-02-15T20:40:03Z</time>
      </trkpt>
      <trkpt lat="48.89487" lon="2.2811">
        <ele>33</ele>
        <time>2016-02-15T20:40:08Z</time>
      </trkpt>
      <trkpt lat="48.89474" lon="2.28084">
        <ele>32.400001525879</ele>
        <time>2016-02-15T20:40:13Z</time>
      </trkpt>
      <trkpt lat="48.89462" lon="2.28059">
        <ele>33</ele>
        <time>2016-02-15T20:40:18Z</time>
      </trkpt>
      <trkpt lat="48.89453" lon="2.28033">
        <ele>33.79999923706</ele>
        <time>2016-02-15T20:40:23Z</time>
      </trkpt>
      <trkpt lat="48.89441" lon="2.28008">
        <ele>34.599998474121</ele>
        <time>2016-02-15T20:40:28Z</time>
      </trkpt>
      <trkpt lat="48.89429" lon="2.27983">
        <ele>35</ele>
        <time>2016-02-15T20:40:33Z</time>
      </trkpt>
      <trkpt lat="48.89415" lon="2.27956">
        <ele>34.599998474121</ele>
        <time>2016-02-15T20:40:38Z</time>
      </trkpt>
      <trkpt lat="48.89406" lon="2.27926">
        <ele>34.20000076294</ele>
        <time>2016-02-15T20:40:43Z</time>
      </trkpt>
      <trkpt lat="48.89394" lon="2.27898">
        <ele>34.20000076294</ele>
        <time>2016-02-15T20:40:48Z</time>
      </trkpt>
      <trkpt lat="48.89385" lon="2.27873">
        <ele>34.79999923706</ele>
        <time>2016-02-15T20:40:52Z</time>
      </trkpt>
      <trkpt lat="48.89379" lon="2.27848">
        <ele>35.400001525879</ele>
        <time>2016-02-15T20:40:56Z</time>
      </trkpt>
      <trkpt lat="48.8937" lon="2.27822">
        <ele>36.20000076294</ele>
        <time>2016-02-15T20:41:00Z</time>
      </trkpt>
      <trkpt lat="48.89361" lon="2.27797">
        <ele>35.79999923706</ele>
        <time>2016-02-15T20:41:04Z</time>
      </trkpt>
      <trkpt lat="48.89352" lon="2.27771">
        <ele>35.20000076294</ele>
        <time>2016-02-15T20:41:08Z</time>
      </trkpt>
      <trkpt lat="48.89345" lon="2.27744">
        <ele>34.79999923706</ele>
        <time>2016-02-15T20:41:12Z</time>
      </trkpt>
      <trkpt lat="48.89337" lon="2.2772">
        <ele>35</ele>
        <time>2016-02-15T20:41:16Z</time>
      </trkpt>
      <trkpt lat="48.89334" lon="2.27709">
        <ele>35</ele>
        <time>2016-02-15T20:41:18Z</time>
      </trkpt>
      <trkpt lat="48.89325" lon="2.27688">
        <ele>35</ele>
        <time>2016-02-15T20:41:24Z</time>
      </trkpt>
      <trkpt lat="48.89322" lon="2.27677">
        <ele>35</ele>
        <time>2016-02-15T20:41:28Z</time>
      </trkpt>
      <trkpt lat="48.8933" lon="2.27654">
        <ele>35.20000076294</ele>
        <time>2016-02-15T20:41:53Z</time>
      </trkpt>
      <trkpt lat="48.8933" lon="2.27647">
        <ele>35.20000076294</ele>
        <time>2016-02-15T20:43:01Z</time>
      </trkpt>
      <trkpt lat="48.89318" lon="2.27624">
        <ele>35.400001525879</ele>
        <time>2016-02-15T20:43:08Z</time>
      </trkpt>
      <trkpt lat="48.89305" lon="2.27602">
        <ele>35.20000076294</ele>
        <time>2016-02-15T20:43:13Z</time>
      </trkpt>
      <trkpt lat="48.89293" lon="2.27579">
        <ele>35</ele>
        <time>2016-02-15T20:43:18Z</time>
      </trkpt>
      <trkpt lat="48.89282" lon="2.27554">
        <ele>35</ele>
        <time>2016-02-15T20:43:23Z</time>
      </trkpt>
      <trkpt lat="48.89272" lon="2.27531">
        <ele>34.79999923706</ele>
        <time>2016-02-15T20:43:28Z</time>
      </trkpt>
      <trkpt lat="48.8926" lon="2.27506">
        <ele>34</ele>
        <time>2016-02-15T20:43:34Z</time>
      </trkpt>
      <trkpt lat="48.89246" lon="2.27482">
        <ele>34</ele>
        <time>2016-02-15T20:43:40Z</time>
      </trkpt>
      <trkpt lat="48.89231" lon="2.27461">
        <ele>34.400001525879</ele>
        <time>2016-02-15T20:43:45Z</time>
      </trkpt>
      <trkpt lat="48.89221" lon="2.27437">
        <ele>34.599998474121</ele>
        <time>2016-02-15T20:43:50Z</time>
      </trkpt>
      <trkpt lat="48.89211" lon="2.27411">
        <ele>34.79999923706</ele>
        <time>2016-02-15T20:43:55Z</time>
      </trkpt>
      <trkpt lat="48.89204" lon="2.27385">
        <ele>34.79999923706</ele>
        <time>2016-02-15T20:43:59Z</time>
      </trkpt>
      <trkpt lat="48.89196" lon="2.27357">
        <ele>35</ele>
        <time>2016-02-15T20:44:03Z</time>
      </trkpt>
      <trkpt lat="48.89186" lon="2.27324">
        <ele>35</ele>
        <time>2016-02-15T20:44:07Z</time>
      </trkpt>
      <trkpt lat="48.89184" lon="2.27317">
        <ele>35</ele>
        <time>2016-02-15T20:44:08Z</time>
      </trkpt>
      <trkpt lat="48.89174" lon="2.27294">
        <ele>34.79999923706</ele>
        <time>2016-02-15T20:44:11Z</time>
      </trkpt>
      <trkpt lat="48.89164" lon="2.2727">
        <ele>34.400001525879</ele>
        <time>2016-02-15T20:44:14Z</time>
      </trkpt>
      <trkpt lat="48.89151" lon="2.2724">
        <ele>34.20000076294</ele>
        <time>2016-02-15T20:44:18Z</time>
      </trkpt>
      <trkpt lat="48.8914" lon="2.27208">
        <ele>33.79999923706</ele>
        <time>2016-02-15T20:44:22Z</time>
      </trkpt>
      <trkpt lat="48.89135" lon="2.27192">
        <ele>33.599998474121</ele>
        <time>2016-02-15T20:44:24Z</time>
      </trkpt>
      <trkpt lat="48.89125" lon="2.27169">
        <ele>34</ele>
        <time>2016-02-15T20:44:27Z</time>
      </trkpt>
      <trkpt lat="48.89115" lon="2.27146">
        <ele>33.599998474121</ele>
        <time>2016-02-15T20:44:30Z</time>
      </trkpt>
      <trkpt lat="48.89103" lon="2.27118">
        <ele>33</ele>
        <time>2016-02-15T20:44:34Z</time>
      </trkpt>
      <trkpt lat="48.89093" lon="2.27092">
        <ele>32.400001525879</ele>
        <time>2016-02-15T20:44:38Z</time>
      </trkpt>
      <trkpt lat="48.89085" lon="2.27071">
        <ele>32.400001525879</ele>
        <time>2016-02-15T20:44:42Z</time>
      </trkpt>
      <trkpt lat="48.8908" lon="2.27056">
        <ele>32.79999923706</ele>
        <time>2016-02-15T20:44:45Z</time>
      </trkpt>
      <trkpt lat="48.89076" lon="2.27042">
        <ele>33.20000076294</ele>
        <time>2016-02-15T20:44:48Z</time>
      </trkpt>
      <trkpt lat="48.89066" lon="2.27019">
        <ele>33.79999923706</ele>
        <time>2016-02-15T20:44:53Z</time>
      </trkpt>
      <trkpt lat="48.89064" lon="2.27014">
        <ele>33.79999923706</ele>
        <time>2016-02-15T20:44:54Z</time>
      </trkpt>
      <trkpt lat="48.89051" lon="2.26988">
        <ele>34.20000076294</ele>
        <time>2016-02-15T20:44:59Z</time>
      </trkpt>
      <trkpt lat="48.89039" lon="2.26961">
        <ele>33.79999923706</ele>
        <time>2016-02-15T20:45:04Z</time>
      </trkpt>
      <trkpt lat="48.8903" lon="2.26939">
        <ele>33.400001525879</ele>
        <time>2016-02-15T20:45:08Z</time>
      </trkpt>
      <trkpt lat="48.89019" lon="2.26917">
        <ele>33.20000076294</ele>
        <time>2016-02-15T20:45:12Z</time>
      </trkpt>
      <trkpt lat="48.8901" lon="2.26893">
        <ele>33.79999923706</ele>
        <time>2016-02-15T20:45:16Z</time>
      </trkpt>
      <trkpt lat="48.88998" lon="2.26867">
        <ele>34.599998474121</ele>
        <time>2016-02-15T20:45:21Z</time>
      </trkpt>
      <trkpt lat="48.88995" lon="2.26863">
        <ele>34.599998474121</ele>
        <time>2016-02-15T20:45:22Z</time>
      </trkpt>
      <trkpt lat="48.88983" lon="2.26836">
        <ele>35.400001525879</ele>
        <time>2016-02-15T20:45:27Z</time>
      </trkpt>
      <trkpt lat="48.8898" lon="2.2683">
        <ele>35.599998474121</ele>
        <time>2016-02-15T20:45:28Z</time>
      </trkpt>
      <trkpt lat="48.8897" lon="2.26803">
        <ele>35.20000076294</ele>
        <time>2016-02-15T20:45:32Z</time>
      </trkpt>
      <trkpt lat="48.88956" lon="2.26774">
        <ele>35</ele>
        <time>2016-02-15T20:45:36Z</time>
      </trkpt>
      <trkpt lat="48.88953" lon="2.26765">
        <ele>35</ele>
        <time>2016-02-15T20:45:37Z</time>
      </trkpt>
      <trkpt lat="48.88939" lon="2.26739">
        <ele>35</ele>
        <time>2016-02-15T20:45:40Z</time>
      </trkpt>
      <trkpt lat="48.88932" lon="2.2672">
        <ele>35</ele>
        <time>2016-02-15T20:45:42Z</time>
      </trkpt>
      <trkpt lat="48.88925" lon="2.26703">
        <ele>35</ele>
        <time>2016-02-15T20:45:44Z</time>
      </trkpt>
      <trkpt lat="48.88915" lon="2.26682">
        <ele>35.20000076294</ele>
        <time>2016-02-15T20:45:47Z</time>
      </trkpt>
      <trkpt lat="48.88907" lon="2.26665">
        <ele>35.20000076294</ele>
        <time>2016-02-15T20:45:50Z</time>
      </trkpt>
      <trkpt lat="48.88898" lon="2.26644">
        <ele>35.599998474121</ele>
        <time>2016-02-15T20:45:54Z</time>
      </trkpt>
      <trkpt lat="48.88889" lon="2.26622">
        <ele>35.79999923706</ele>
        <time>2016-02-15T20:45:59Z</time>
      </trkpt>
      <trkpt lat="48.88886" lon="2.26611">
        <ele>36</ele>
        <time>2016-02-15T20:46:01Z</time>
      </trkpt>
      <trkpt lat="48.88875" lon="2.26583">
        <ele>36</ele>
        <time>2016-02-15T20:46:05Z</time>
      </trkpt>
      <trkpt lat="48.88867" lon="2.26566">
        <ele>36.20000076294</ele>
        <time>2016-02-15T20:46:07Z</time>
      </trkpt>
      <trkpt lat="48.88854" lon="2.26539">
        <ele>36.599998474121</ele>
        <time>2016-02-15T20:46:10Z</time>
      </trkpt>
      <trkpt lat="48.88842" lon="2.26512">
        <ele>36.79999923706</ele>
        <time>2016-02-15T20:46:13Z</time>
      </trkpt>
      <trkpt lat="48.88832" lon="2.26488">
        <ele>36.79999923706</ele>
        <time>2016-02-15T20:46:16Z</time>
      </trkpt>
      <trkpt lat="48.88829" lon="2.26481">
        <ele>37</ele>
        <time>2016-02-15T20:46:17Z</time>
      </trkpt>
      <trkpt lat="48.88827" lon="2.26463">
        <ele>37</ele>
        <time>2016-02-15T20:46:22Z</time>
      </trkpt>
      <trkpt lat="48.88828" lon="2.26463">
        <ele>37</ele>
        <time>2016-02-15T20:46:23Z</time>
      </trkpt>
      <trkpt lat="48.88822" lon="2.26451">
        <ele>37.400001525879</ele>
        <time>2016-02-15T20:46:47Z</time>
      </trkpt>
      <trkpt lat="48.88806" lon="2.26432">
        <ele>38</ele>
        <time>2016-02-15T20:46:52Z</time>
      </trkpt>
      <trkpt lat="48.88793" lon="2.26412">
        <ele>38.599998474121</ele>
        <time>2016-02-15T20:46:57Z</time>
      </trkpt>
      <trkpt lat="48.88779" lon="2.26389">
        <ele>38.599998474121</ele>
        <time>2016-02-15T20:47:03Z</time>
      </trkpt>
      <trkpt lat="48.88764" lon="2.26369">
        <ele>39.20000076294</ele>
        <time>2016-02-15T20:47:09Z</time>
      </trkpt>
      <trkpt lat="48.88748" lon="2.26348">
        <ele>40</ele>
        <time>2016-02-15T20:47:14Z</time>
      </trkpt>
      <trkpt lat="48.88729" lon="2.26331">
        <ele>41.20000076294</ele>
        <time>2016-02-15T20:47:19Z</time>
      </trkpt>
      <trkpt lat="48.88714" lon="2.26307">
        <ele>41.400001525879</ele>
        <time>2016-02-15T20:47:24Z</time>
      </trkpt>
      <trkpt lat="48.88705" lon="2.26275">
        <ele>41</ele>
        <time>2016-02-15T20:47:29Z</time>
      </trkpt>
      <trkpt lat="48.88692" lon="2.26257">
        <ele>41.20000076294</ele>
        <time>2016-02-15T20:47:33Z</time>
      </trkpt>
      <trkpt lat="48.88687" lon="2.26253">
        <ele>41.20000076294</ele>
        <time>2016-02-15T20:47:34Z</time>
      </trkpt>
      <trkpt lat="48.88669" lon="2.26239">
        <ele>40.400001525879</ele>
        <time>2016-02-15T20:47:38Z</time>
      </trkpt>
      <trkpt lat="48.88654" lon="2.26222">
        <ele>40</ele>
        <time>2016-02-15T20:47:42Z</time>
      </trkpt>
      <trkpt lat="48.88636" lon="2.26204">
        <ele>39.599998474121</ele>
        <time>2016-02-15T20:47:47Z</time>
      </trkpt>
      <trkpt lat="48.88633" lon="2.26194">
        <ele>39.599998474121</ele>
        <time>2016-02-15T20:47:49Z</time>
      </trkpt>
      <trkpt lat="48.88633" lon="2.26165">
        <ele>39</ele>
        <time>2016-02-15T20:47:54Z</time>
      </trkpt>
      <trkpt lat="48.88632" lon="2.2616">
        <ele>39</ele>
        <time>2016-02-15T20:47:55Z</time>
      </trkpt>
      <trkpt lat="48.88629" lon="2.26155">
        <ele>39.20000076294</ele>
        <time>2016-02-15T20:47:56Z</time>
      </trkpt>
      <trkpt lat="48.88625" lon="2.26141">
        <ele>39.599998474121</ele>
        <time>2016-02-15T20:47:58Z</time>
      </trkpt>
      <trkpt lat="48.8861" lon="2.26127">
        <ele>39.79999923706</ele>
        <time>2016-02-15T20:48:02Z</time>
      </trkpt>
      <trkpt lat="48.88598" lon="2.26118">
        <ele>40.20000076294</ele>
        <time>2016-02-15T20:48:05Z</time>
      </trkpt>
      <trkpt lat="48.8858" lon="2.26108">
        <ele>41</ele>
        <time>2016-02-15T20:48:09Z</time>
      </trkpt>
      <trkpt lat="48.88564" lon="2.26097">
        <ele>41.599998474121</ele>
        <time>2016-02-15T20:48:13Z</time>
      </trkpt>
      <trkpt lat="48.88544" lon="2.26084">
        <ele>42.400001525879</ele>
        <time>2016-02-15T20:48:17Z</time>
      </trkpt>
      <trkpt lat="48.88525" lon="2.26075">
        <ele>43</ele>
        <time>2016-02-15T20:48:21Z</time>
      </trkpt>
      <trkpt lat="48.88513" lon="2.2607">
        <ele>43.20000076294</ele>
        <time>2016-02-15T20:48:24Z</time>
      </trkpt>
      <trkpt lat="48.88503" lon="2.2606">
        <ele>43.400001525879</ele>
        <time>2016-02-15T20:48:27Z</time>
      </trkpt>
      <trkpt lat="48.88497" lon="2.26046">
        <ele>43.79999923706</ele>
        <time>2016-02-15T20:48:31Z</time>
      </trkpt>
      <trkpt lat="48.88487" lon="2.26031">
        <ele>44</ele>
        <time>2016-02-15T20:48:37Z</time>
      </trkpt>
      <trkpt lat="48.88476" lon="2.26044">
        <ele>43.79999923706</ele>
        <time>2016-02-15T20:49:04Z</time>
      </trkpt>
      <trkpt lat="48.88457" lon="2.26042">
        <ele>43.79999923706</ele>
        <time>2016-02-15T20:49:11Z</time>
      </trkpt>
      <trkpt lat="48.88438" lon="2.26035">
        <ele>44</ele>
        <time>2016-02-15T20:49:16Z</time>
      </trkpt>
      <trkpt lat="48.88418" lon="2.26029">
        <ele>44.20000076294</ele>
        <time>2016-02-15T20:49:23Z</time>
      </trkpt>
      <trkpt lat="48.884" lon="2.26022">
        <ele>44.400001525879</ele>
        <time>2016-02-15T20:49:30Z</time>
      </trkpt>
      <trkpt lat="48.8838" lon="2.26013">
        <ele>44.599998474121</ele>
        <time>2016-02-15T20:49:35Z</time>
      </trkpt>
      <trkpt lat="48.88362" lon="2.25999">
        <ele>45</ele>
        <time>2016-02-15T20:49:42Z</time>
      </trkpt>
      <trkpt lat="48.88343" lon="2.25991">
        <ele>44.20000076294</ele>
        <time>2016-02-15T20:49:46Z</time>
      </trkpt>
      <trkpt lat="48.88326" lon="2.25981">
        <ele>43.20000076294</ele>
        <time>2016-02-15T20:49:49Z</time>
      </trkpt>
      <trkpt lat="48.88306" lon="2.25969">
        <ele>42</ele>
        <time>2016-02-15T20:49:53Z</time>
      </trkpt>
      <trkpt lat="48.88288" lon="2.25958">
        <ele>40.79999923706</ele>
        <time>2016-02-15T20:49:57Z</time>
      </trkpt>
      <trkpt lat="48.88269" lon="2.25947">
        <ele>40</ele>
        <time>2016-02-15T20:50:01Z</time>
      </trkpt>
      <trkpt lat="48.88261" lon="2.25945">
        <ele>40.20000076294</ele>
        <time>2016-02-15T20:50:02Z</time>
      </trkpt>
      <trkpt lat="48.88233" lon="2.25939">
        <ele>41</ele>
        <time>2016-02-15T20:50:04Z</time>
      </trkpt>
      <trkpt lat="48.88226" lon="2.25936">
        <ele>41.20000076294</ele>
        <time>2016-02-15T20:50:05Z</time>
      </trkpt>
      <trkpt lat="48.88208" lon="2.25931">
        <ele>41.79999923706</ele>
        <time>2016-02-15T20:50:08Z</time>
      </trkpt>
      <trkpt lat="48.88184" lon="2.25923">
        <ele>42.20000076294</ele>
        <time>2016-02-15T20:50:11Z</time>
      </trkpt>
      <trkpt lat="48.88165" lon="2.2591">
        <ele>42.79999923706</ele>
        <time>2016-02-15T20:50:14Z</time>
      </trkpt>
      <trkpt lat="48.88145" lon="2.25898">
        <ele>43.400001525879</ele>
        <time>2016-02-15T20:50:17Z</time>
      </trkpt>
      <trkpt lat="48.88128" lon="2.25885">
        <ele>43.79999923706</ele>
        <time>2016-02-15T20:50:20Z</time>
      </trkpt>
      <trkpt lat="48.88107" lon="2.25873">
        <ele>44.400001525879</ele>
        <time>2016-02-15T20:50:24Z</time>
      </trkpt>
      <trkpt lat="48.88078" lon="2.25855">
        <ele>42.20000076294</ele>
        <time>2016-02-15T20:50:27Z</time>
      </trkpt>
      <trkpt lat="48.88069" lon="2.25849">
        <ele>41.599998474121</ele>
        <time>2016-02-15T20:50:29Z</time>
      </trkpt>
      <trkpt lat="48.88051" lon="2.25838">
        <ele>40.20000076294</ele>
        <time>2016-02-15T20:50:32Z</time>
      </trkpt>
      <trkpt lat="48.88045" lon="2.25834">
        <ele>39.599998474121</ele>
        <time>2016-02-15T20:50:33Z</time>
      </trkpt>
      <trkpt lat="48.88026" lon="2.25825">
        <ele>38.20000076294</ele>
        <time>2016-02-15T20:50:36Z</time>
      </trkpt>
      <trkpt lat="48.88005" lon="2.25814">
        <ele>38.599998474121</ele>
        <time>2016-02-15T20:50:40Z</time>
      </trkpt>
      <trkpt lat="48.87987" lon="2.25805">
        <ele>39</ele>
        <time>2016-02-15T20:50:44Z</time>
      </trkpt>
      <trkpt lat="48.87968" lon="2.25797">
        <ele>39.400001525879</ele>
        <time>2016-02-15T20:50:49Z</time>
      </trkpt>
      <trkpt lat="48.87964" lon="2.25796">
        <ele>39.599998474121</ele>
        <time>2016-02-15T20:50:52Z</time>
      </trkpt>
      <trkpt lat="48.87979" lon="2.25803">
        <ele>39.20000076294</ele>
        <time>2016-02-15T20:50:58Z</time>
      </trkpt>
      <trkpt lat="48.87981" lon="2.25805">
        <ele>39</ele>
        <time>2016-02-15T20:50:59Z</time>
      </trkpt>
      <trkpt lat="48.87991" lon="2.25809">
        <ele>38.79999923706</ele>
        <time>2016-02-15T20:51:02Z</time>
      </trkpt>
      <trkpt lat="48.88007" lon="2.25816">
        <ele>38.599998474121</ele>
        <time>2016-02-15T20:51:06Z</time>
      </trkpt>
      <trkpt lat="48.8802" lon="2.25837">
        <ele>38.400001525879</ele>
        <time>2016-02-15T20:51:12Z</time>
      </trkpt>
      <trkpt lat="48.88009" lon="2.25859">
        <ele>39.20000076294</ele>
        <time>2016-02-15T20:51:21Z</time>
      </trkpt>
      <trkpt lat="48.8799" lon="2.25868">
        <ele>39.79999923706</ele>
        <time>2016-02-15T20:51:27Z</time>
      </trkpt>
      <trkpt lat="48.87971" lon="2.25872">
        <ele>39.599998474121</ele>
        <time>2016-02-15T20:51:31Z</time>
      </trkpt>
      <trkpt lat="48.87953" lon="2.25877">
        <ele>39</ele>
        <time>2016-02-15T20:51:35Z</time>
      </trkpt>
      <trkpt lat="48.87933" lon="2.25889">
        <ele>38</ele>
        <time>2016-02-15T20:51:39Z</time>
      </trkpt>
      <trkpt lat="48.87915" lon="2.25899">
        <ele>37.79999923706</ele>
        <time>2016-02-15T20:51:43Z</time>
      </trkpt>
      <trkpt lat="48.87896" lon="2.25909">
        <ele>38.400001525879</ele>
        <time>2016-02-15T20:51:47Z</time>
      </trkpt>
      <trkpt lat="48.87885" lon="2.25916">
        <ele>38.599998474121</ele>
        <time>2016-02-15T20:51:50Z</time>
      </trkpt>
      <trkpt lat="48.87866" lon="2.25926">
        <ele>38.79999923706</ele>
        <time>2016-02-15T20:51:55Z</time>
      </trkpt>
      <trkpt lat="48.87858" lon="2.25931">
        <ele>38.599998474121</ele>
        <time>2016-02-15T20:51:57Z</time>
      </trkpt>
      <trkpt lat="48.8785" lon="2.25935">
        <ele>38.400001525879</ele>
        <time>2016-02-15T20:51:59Z</time>
      </trkpt>
      <trkpt lat="48.87831" lon="2.25946">
        <ele>38</ele>
        <time>2016-02-15T20:52:04Z</time>
      </trkpt>
      <trkpt lat="48.87813" lon="2.25955">
        <ele>37.400001525879</ele>
        <time>2016-02-15T20:52:08Z</time>
      </trkpt>
      <trkpt lat="48.87793" lon="2.25968">
        <ele>36.400001525879</ele>
        <time>2016-02-15T20:52:13Z</time>
      </trkpt>
      <trkpt lat="48.87774" lon="2.25981">
        <ele>35.599998474121</ele>
        <time>2016-02-15T20:52:18Z</time>
      </trkpt>
      <trkpt lat="48.8776" lon="2.25991">
        <ele>35.79999923706</ele>
        <time>2016-02-15T20:52:21Z</time>
      </trkpt>
      <trkpt lat="48.87743" lon="2.26004">
        <ele>36.599998474121</ele>
        <time>2016-02-15T20:52:25Z</time>
      </trkpt>
      <trkpt lat="48.87726" lon="2.26019">
        <ele>37.599998474121</ele>
        <time>2016-02-15T20:52:29Z</time>
      </trkpt>
      <trkpt lat="48.87707" lon="2.26034">
        <ele>37</ele>
        <time>2016-02-15T20:52:33Z</time>
      </trkpt>
      <trkpt lat="48.87691" lon="2.26048">
        <ele>35.400001525879</ele>
        <time>2016-02-15T20:52:37Z</time>
      </trkpt>
      <trkpt lat="48.87674" lon="2.26066">
        <ele>34.400001525879</ele>
        <time>2016-02-15T20:52:41Z</time>
      </trkpt>
      <trkpt lat="48.87661" lon="2.26084">
        <ele>34.599998474121</ele>
        <time>2016-02-15T20:52:45Z</time>
      </trkpt>
      <trkpt lat="48.87655" lon="2.26094">
        <ele>35</ele>
        <time>2016-02-15T20:52:47Z</time>
      </trkpt>
      <trkpt lat="48.87639" lon="2.2612">
        <ele>36.20000076294</ele>
        <time>2016-02-15T20:52:51Z</time>
      </trkpt>
      <trkpt lat="48.87626" lon="2.26145">
        <ele>37</ele>
        <time>2016-02-15T20:52:55Z</time>
      </trkpt>
      <trkpt lat="48.8761" lon="2.26169">
        <ele>38</ele>
        <time>2016-02-15T20:52:59Z</time>
      </trkpt>
      <trkpt lat="48.87597" lon="2.26191">
        <ele>38.599998474121</ele>
        <time>2016-02-15T20:53:03Z</time>
      </trkpt>
      <trkpt lat="48.87584" lon="2.26211">
        <ele>39.20000076294</ele>
        <time>2016-02-15T20:53:08Z</time>
      </trkpt>
      <trkpt lat="48.87581" lon="2.26219">
        <ele>39.20000076294</ele>
        <time>2016-02-15T20:53:10Z</time>
      </trkpt>
      <trkpt lat="48.87569" lon="2.26243">
        <ele>39</ele>
        <time>2016-02-15T20:53:15Z</time>
      </trkpt>
      <trkpt lat="48.87557" lon="2.26266">
        <ele>39.20000076294</ele>
        <time>2016-02-15T20:53:19Z</time>
      </trkpt>
      <trkpt lat="48.87541" lon="2.26291">
        <ele>40.20000076294</ele>
        <time>2016-02-15T20:53:23Z</time>
      </trkpt>
      <trkpt lat="48.87534" lon="2.26301">
        <ele>40.79999923706</ele>
        <time>2016-02-15T20:53:25Z</time>
      </trkpt>
      <trkpt lat="48.87517" lon="2.2632">
        <ele>41.400001525879</ele>
        <time>2016-02-15T20:53:29Z</time>
      </trkpt>
      <trkpt lat="48.875" lon="2.26338">
        <ele>42</ele>
        <time>2016-02-15T20:53:33Z</time>
      </trkpt>
      <trkpt lat="48.87484" lon="2.26349">
        <ele>42</ele>
        <time>2016-02-15T20:53:36Z</time>
      </trkpt>
      <trkpt lat="48.87462" lon="2.26365">
        <ele>42.400001525879</ele>
        <time>2016-02-15T20:53:40Z</time>
      </trkpt>
      <trkpt lat="48.87441" lon="2.26379">
        <ele>43.20000076294</ele>
        <time>2016-02-15T20:53:44Z</time>
      </trkpt>
      <trkpt lat="48.87424" lon="2.26389">
        <ele>43.599998474121</ele>
        <time>2016-02-15T20:53:47Z</time>
      </trkpt>
      <trkpt lat="48.87406" lon="2.264">
        <ele>43.79999923706</ele>
        <time>2016-02-15T20:53:50Z</time>
      </trkpt>
      <trkpt lat="48.87395" lon="2.26404">
        <ele>43.79999923706</ele>
        <time>2016-02-15T20:53:52Z</time>
      </trkpt>
      <trkpt lat="48.87378" lon="2.26411">
        <ele>44</ele>
        <time>2016-02-15T20:53:55Z</time>
      </trkpt>
      <trkpt lat="48.87372" lon="2.26413">
        <ele>44</ele>
        <time>2016-02-15T20:53:56Z</time>
      </trkpt>
      <trkpt lat="48.87367" lon="2.26416">
        <ele>43.79999923706</ele>
        <time>2016-02-15T20:53:57Z</time>
      </trkpt>
      <trkpt lat="48.87343" lon="2.26422">
        <ele>43.400001525879</ele>
        <time>2016-02-15T20:54:01Z</time>
      </trkpt>
      <trkpt lat="48.87322" lon="2.26425">
        <ele>42.79999923706</ele>
        <time>2016-02-15T20:54:05Z</time>
      </trkpt>
      <trkpt lat="48.873" lon="2.26428">
        <ele>42.20000076294</ele>
        <time>2016-02-15T20:54:09Z</time>
      </trkpt>
      <trkpt lat="48.87282" lon="2.26431">
        <ele>41.599998474121</ele>
        <time>2016-02-15T20:54:13Z</time>
      </trkpt>
      <trkpt lat="48.87267" lon="2.26432">
        <ele>41.599998474121</ele>
        <time>2016-02-15T20:54:19Z</time>
      </trkpt>
      <trkpt lat="48.87257" lon="2.2643">
        <ele>41.79999923706</ele>
        <time>2016-02-15T20:55:36Z</time>
      </trkpt>
      <trkpt lat="48.87253" lon="2.26431">
        <ele>41.79999923706</ele>
        <time>2016-02-15T20:55:38Z</time>
      </trkpt>
      <trkpt lat="48.87233" lon="2.26437">
        <ele>41.79999923706</ele>
        <time>2016-02-15T20:55:44Z</time>
      </trkpt>
      <trkpt lat="48.87215" lon="2.26439">
        <ele>42</ele>
        <time>2016-02-15T20:55:48Z</time>
      </trkpt>
      <trkpt lat="48.87203" lon="2.26439">
        <ele>42</ele>
        <time>2016-02-15T20:55:50Z</time>
      </trkpt>
      <trkpt lat="48.8718" lon="2.26433">
        <ele>42.20000076294</ele>
        <time>2016-02-15T20:55:54Z</time>
      </trkpt>
      <trkpt lat="48.87157" lon="2.26426">
        <ele>42.20000076294</ele>
        <time>2016-02-15T20:55:58Z</time>
      </trkpt>
      <trkpt lat="48.87135" lon="2.26423">
        <ele>42</ele>
        <time>2016-02-15T20:56:01Z</time>
      </trkpt>
      <trkpt lat="48.87112" lon="2.2642">
        <ele>42</ele>
        <time>2016-02-15T20:56:04Z</time>
      </trkpt>
      <trkpt lat="48.8709" lon="2.2642">
        <ele>42.79999923706</ele>
        <time>2016-02-15T20:56:07Z</time>
      </trkpt>
      <trkpt lat="48.8707" lon="2.26422">
        <ele>43.599998474121</ele>
        <time>2016-02-15T20:56:10Z</time>
      </trkpt>
      <trkpt lat="48.87063" lon="2.26423">
        <ele>44</ele>
        <time>2016-02-15T20:56:11Z</time>
      </trkpt>
      <trkpt lat="48.87039" lon="2.2643">
        <ele>45</ele>
        <time>2016-02-15T20:56:14Z</time>
      </trkpt>
      <trkpt lat="48.87016" lon="2.26438">
        <ele>46.20000076294</ele>
        <time>2016-02-15T20:56:17Z</time>
      </trkpt>
      <trkpt lat="48.87009" lon="2.26441">
        <ele>46.599998474121</ele>
        <time>2016-02-15T20:56:18Z</time>
      </trkpt>
      <trkpt lat="48.86986" lon="2.26451">
        <ele>47.79999923706</ele>
        <time>2016-02-15T20:56:21Z</time>
      </trkpt>
      <trkpt lat="48.86965" lon="2.2646">
        <ele>48</ele>
        <time>2016-02-15T20:56:24Z</time>
      </trkpt>
      <trkpt lat="48.86945" lon="2.26471">
        <ele>48</ele>
        <time>2016-02-15T20:56:27Z</time>
      </trkpt>
      <trkpt lat="48.86927" lon="2.26482">
        <ele>48.400001525879</ele>
        <time>2016-02-15T20:56:30Z</time>
      </trkpt>
      <trkpt lat="48.86907" lon="2.26495">
        <ele>47</ele>
        <time>2016-02-15T20:56:34Z</time>
      </trkpt>
      <trkpt lat="48.86889" lon="2.26506">
        <ele>46</ele>
        <time>2016-02-15T20:56:38Z</time>
      </trkpt>
      <trkpt lat="48.86872" lon="2.26515">
        <ele>45.20000076294</ele>
        <time>2016-02-15T20:56:42Z</time>
      </trkpt>
      <trkpt lat="48.86865" lon="2.26519">
        <ele>45.20000076294</ele>
        <time>2016-02-15T20:56:44Z</time>
      </trkpt>
      <trkpt lat="48.86853" lon="2.26521">
        <ele>45.20000076294</ele>
        <time>2016-02-15T20:56:48Z</time>
      </trkpt>
      <trkpt lat="48.86836" lon="2.26531">
        <ele>46</ele>
        <time>2016-02-15T20:56:56Z</time>
      </trkpt>
      <trkpt lat="48.86824" lon="2.26548">
        <ele>46.599998474121</ele>
        <time>2016-02-15T20:57:39Z</time>
      </trkpt>
      <trkpt lat="48.86812" lon="2.26557">
        <ele>46.599998474121</ele>
        <time>2016-02-15T20:58:15Z</time>
      </trkpt>
      <trkpt lat="48.86793" lon="2.26567">
        <ele>46.79999923706</ele>
        <time>2016-02-15T20:58:23Z</time>
      </trkpt>
      <trkpt lat="48.86774" lon="2.26561">
        <ele>47.400001525879</ele>
        <time>2016-02-15T20:58:30Z</time>
      </trkpt>
      <trkpt lat="48.86755" lon="2.26547">
        <ele>47.599998474121</ele>
        <time>2016-02-15T20:58:36Z</time>
      </trkpt>
      <trkpt lat="48.86742" lon="2.26539">
        <ele>47.599998474121</ele>
        <time>2016-02-15T20:58:39Z</time>
      </trkpt>
      <trkpt lat="48.86725" lon="2.26526">
        <ele>47.79999923706</ele>
        <time>2016-02-15T20:58:43Z</time>
      </trkpt>
      <trkpt lat="48.86709" lon="2.26512">
        <ele>47.79999923706</ele>
        <time>2016-02-15T20:58:47Z</time>
      </trkpt>
      <trkpt lat="48.86692" lon="2.26502">
        <ele>48</ele>
        <time>2016-02-15T20:58:51Z</time>
      </trkpt>
      <trkpt lat="48.86672" lon="2.26495">
        <ele>47.599998474121</ele>
        <time>2016-02-15T20:58:55Z</time>
      </trkpt>
      <trkpt lat="48.86651" lon="2.26495">
        <ele>47</ele>
        <time>2016-02-15T20:59:00Z</time>
      </trkpt>
      <trkpt lat="48.8663" lon="2.26501">
        <ele>46.599998474121</ele>
        <time>2016-02-15T20:59:05Z</time>
      </trkpt>
      <trkpt lat="48.86612" lon="2.26507">
        <ele>46.20000076294</ele>
        <time>2016-02-15T20:59:09Z</time>
      </trkpt>
      <trkpt lat="48.86594" lon="2.26515">
        <ele>46.400001525879</ele>
        <time>2016-02-15T20:59:13Z</time>
      </trkpt>
      <trkpt lat="48.86574" lon="2.2653">
        <ele>47.20000076294</ele>
        <time>2016-02-15T20:59:18Z</time>
      </trkpt>
      <trkpt lat="48.86555" lon="2.26546">
        <ele>48.20000076294</ele>
        <time>2016-02-15T20:59:23Z</time>
      </trkpt>
      <trkpt lat="48.86539" lon="2.2656">
        <ele>49.599998474121</ele>
        <time>2016-02-15T20:59:28Z</time>
      </trkpt>
      <trkpt lat="48.86523" lon="2.26575">
        <ele>50.79999923706</ele>
        <time>2016-02-15T20:59:32Z</time>
      </trkpt>
      <trkpt lat="48.86508" lon="2.26591">
        <ele>50</ele>
        <time>2016-02-15T20:59:35Z</time>
      </trkpt>
      <trkpt lat="48.86494" lon="2.26606">
        <ele>48.599998474121</ele>
        <time>2016-02-15T20:59:38Z</time>
      </trkpt>
      <trkpt lat="48.86483" lon="2.26616">
        <ele>47.79999923706</ele>
        <time>2016-02-15T20:59:40Z</time>
      </trkpt>
      <trkpt lat="48.86465" lon="2.26628">
        <ele>47.20000076294</ele>
        <time>2016-02-15T20:59:44Z</time>
      </trkpt>
      <trkpt lat="48.86462" lon="2.26631">
        <ele>47.20000076294</ele>
        <time>2016-02-15T20:59:45Z</time>
      </trkpt>
      <trkpt lat="48.86456" lon="2.26636">
        <ele>47</ele>
        <time>2016-02-15T20:59:48Z</time>
      </trkpt>
      <trkpt lat="48.86448" lon="2.26642">
        <ele>46.79999923706</ele>
        <time>2016-02-15T20:59:52Z</time>
      </trkpt>
      <trkpt lat="48.86445" lon="2.26643">
        <ele>46.79999923706</ele>
        <time>2016-02-15T20:59:53Z</time>
      </trkpt>
      <trkpt lat="48.86439" lon="2.26644">
        <ele>46.599998474121</ele>
        <time>2016-02-15T20:59:55Z</time>
      </trkpt>
      <trkpt lat="48.86433" lon="2.26645">
        <ele>46.599998474121</ele>
        <time>2016-02-15T20:59:58Z</time>
      </trkpt>
      <trkpt lat="48.86416" lon="2.26632">
        <ele>47.20000076294</ele>
        <time>2016-02-15T21:00:05Z</time>
      </trkpt>
      <trkpt lat="48.86396" lon="2.26621">
        <ele>47.599998474121</ele>
        <time>2016-02-15T21:00:09Z</time>
      </trkpt>
      <trkpt lat="48.8638" lon="2.26605">
        <ele>48.20000076294</ele>
        <time>2016-02-15T21:00:12Z</time>
      </trkpt>
      <trkpt lat="48.86362" lon="2.26585">
        <ele>48.79999923706</ele>
        <time>2016-02-15T21:00:15Z</time>
      </trkpt>
      <trkpt lat="48.86345" lon="2.26562">
        <ele>48.599998474121</ele>
        <time>2016-02-15T21:00:18Z</time>
      </trkpt>
      <trkpt lat="48.86329" lon="2.26538">
        <ele>48.20000076294</ele>
        <time>2016-02-15T21:00:21Z</time>
      </trkpt>
      <trkpt lat="48.86314" lon="2.26515">
        <ele>47.599998474121</ele>
        <time>2016-02-15T21:00:24Z</time>
      </trkpt>
      <trkpt lat="48.863" lon="2.26495">
        <ele>47.400001525879</ele>
        <time>2016-02-15T21:00:27Z</time>
      </trkpt>
      <trkpt lat="48.86285" lon="2.26471">
        <ele>49.79999923706</ele>
        <time>2016-02-15T21:00:31Z</time>
      </trkpt>
      <trkpt lat="48.86269" lon="2.26452">
        <ele>51.20000076294</ele>
        <time>2016-02-15T21:00:36Z</time>
      </trkpt>
      <trkpt lat="48.86259" lon="2.26475">
        <ele>49</ele>
        <time>2016-02-15T21:00:42Z</time>
      </trkpt>
      <trkpt lat="48.86259" lon="2.26481">
        <ele>48.599998474121</ele>
        <time>2016-02-15T21:00:43Z</time>
      </trkpt>
      <trkpt lat="48.86259" lon="2.26494">
        <ele>48.599998474121</ele>
        <time>2016-02-15T21:00:45Z</time>
      </trkpt>
      <trkpt lat="48.86262" lon="2.26527">
        <ele>50.20000076294</ele>
        <time>2016-02-15T21:00:50Z</time>
      </trkpt>
      <trkpt lat="48.86264" lon="2.26555">
        <ele>51.599998474121</ele>
        <time>2016-02-15T21:00:54Z</time>
      </trkpt>
      <trkpt lat="48.86267" lon="2.26584">
        <ele>53.400001525879</ele>
        <time>2016-02-15T21:00:58Z</time>
      </trkpt>
      <trkpt lat="48.86266" lon="2.26591">
        <ele>53.400001525879</ele>
        <time>2016-02-15T21:00:59Z</time>
      </trkpt>
      <trkpt lat="48.86269" lon="2.2662">
        <ele>54</ele>
        <time>2016-02-15T21:01:03Z</time>
      </trkpt>
      <trkpt lat="48.8627" lon="2.26627">
        <ele>54.20000076294</ele>
        <time>2016-02-15T21:01:04Z</time>
      </trkpt>
      <trkpt lat="48.86272" lon="2.26648">
        <ele>54.599998474121</ele>
        <time>2016-02-15T21:01:07Z</time>
      </trkpt>
      <trkpt lat="48.86275" lon="2.26676">
        <ele>54.400001525879</ele>
        <time>2016-02-15T21:01:11Z</time>
      </trkpt>
      <trkpt lat="48.86275" lon="2.26691">
        <ele>54</ele>
        <time>2016-02-15T21:01:13Z</time>
      </trkpt>
      <trkpt lat="48.86274" lon="2.26698">
        <ele>53.79999923706</ele>
        <time>2016-02-15T21:01:14Z</time>
      </trkpt>
      <trkpt lat="48.86273" lon="2.26717">
        <ele>53</ele>
        <time>2016-02-15T21:01:17Z</time>
      </trkpt>
      <trkpt lat="48.86271" lon="2.26743">
        <ele>52.20000076294</ele>
        <time>2016-02-15T21:01:22Z</time>
      </trkpt>
      <trkpt lat="48.86271" lon="2.26759">
        <ele>52.599998474121</ele>
        <time>2016-02-15T21:01:26Z</time>
      </trkpt>
      <trkpt lat="48.86269" lon="2.26774">
        <ele>53.599998474121</ele>
        <time>2016-02-15T21:01:31Z</time>
      </trkpt>
      <trkpt lat="48.86265" lon="2.26802">
        <ele>55.20000076294</ele>
        <time>2016-02-15T21:01:42Z</time>
      </trkpt>
      <trkpt lat="48.86273" lon="2.26826">
        <ele>55.79999923706</ele>
        <time>2016-02-15T21:01:50Z</time>
      </trkpt>
      <trkpt lat="48.86287" lon="2.26847">
        <ele>56.79999923706</ele>
        <time>2016-02-15T21:02:01Z</time>
      </trkpt>
      <trkpt lat="48.86293" lon="2.26872">
        <ele>58.79999923706</ele>
        <time>2016-02-15T21:02:13Z</time>
      </trkpt>
      <trkpt lat="48.86296" lon="2.26899">
        <ele>61.20000076294</ele>
        <time>2016-02-15T21:02:38Z</time>
      </trkpt>
      <trkpt lat="48.86296" lon="2.2693">
        <ele>64.199996948242</ele>
        <time>2016-02-15T21:02:44Z</time>
      </trkpt>
      <trkpt lat="48.863" lon="2.26957">
        <ele>66.199996948242</ele>
        <time>2016-02-15T21:02:49Z</time>
      </trkpt>
      <trkpt lat="48.86308" lon="2.26982">
        <ele>67.599998474121</ele>
        <time>2016-02-15T21:02:54Z</time>
      </trkpt>
      <trkpt lat="48.86316" lon="2.27009">
        <ele>68.400001525879</ele>
        <time>2016-02-15T21:02:59Z</time>
      </trkpt>
      <trkpt lat="48.86327" lon="2.27036">
        <ele>68</ele>
        <time>2016-02-15T21:03:04Z</time>
      </trkpt>
      <trkpt lat="48.86342" lon="2.27063">
        <ele>67.599998474121</ele>
        <time>2016-02-15T21:03:09Z</time>
      </trkpt>
      <trkpt lat="48.86353" lon="2.27088">
        <ele>67.199996948242</ele>
        <time>2016-02-15T21:03:13Z</time>
      </trkpt>
      <trkpt lat="48.86363" lon="2.27116">
        <ele>66.599998474121</ele>
        <time>2016-02-15T21:03:17Z</time>
      </trkpt>
      <trkpt lat="48.86366" lon="2.27123">
        <ele>66.599998474121</ele>
        <time>2016-02-15T21:03:18Z</time>
      </trkpt>
      <trkpt lat="48.86378" lon="2.27153">
        <ele>66</ele>
        <time>2016-02-15T21:03:22Z</time>
      </trkpt>
      <trkpt lat="48.86387" lon="2.27184">
        <ele>64.800003051758</ele>
        <time>2016-02-15T21:03:26Z</time>
      </trkpt>
      <trkpt lat="48.86396" lon="2.27214">
        <ele>63</ele>
        <time>2016-02-15T21:03:30Z</time>
      </trkpt>
      <trkpt lat="48.864" lon="2.27232">
        <ele>61.79999923706</ele>
        <time>2016-02-15T21:03:32Z</time>
      </trkpt>
      <trkpt lat="48.86406" lon="2.27264">
        <ele>61.400001525879</ele>
        <time>2016-02-15T21:03:36Z</time>
      </trkpt>
      <trkpt lat="48.86413" lon="2.27278">
        <ele>61.79999923706</ele>
        <time>2016-02-15T21:03:38Z</time>
      </trkpt>
      <trkpt lat="48.86418" lon="2.27296">
        <ele>62.400001525879</ele>
        <time>2016-02-15T21:03:41Z</time>
      </trkpt>
      <trkpt lat="48.86421" lon="2.2731">
        <ele>62.79999923706</ele>
        <time>2016-02-15T21:03:43Z</time>
      </trkpt>
      <trkpt lat="48.86421" lon="2.27322">
        <ele>63</ele>
        <time>2016-02-15T21:03:45Z</time>
      </trkpt>
      <trkpt lat="48.86428" lon="2.27343">
        <ele>63.599998474121</ele>
        <time>2016-02-15T21:03:49Z</time>
      </trkpt>
      <trkpt lat="48.86427" lon="2.27376">
        <ele>64.800003051758</ele>
        <time>2016-02-15T21:03:55Z</time>
      </trkpt>
      <trkpt lat="48.8643" lon="2.27394">
        <ele>65.400001525879</ele>
        <time>2016-02-15T21:03:58Z</time>
      </trkpt>
      <trkpt lat="48.8643" lon="2.27408">
        <ele>66</ele>
        <time>2016-02-15T21:04:00Z</time>
      </trkpt>
      <trkpt lat="48.8643" lon="2.2744">
        <ele>66.800003051758</ele>
        <time>2016-02-15T21:04:05Z</time>
      </trkpt>
      <trkpt lat="48.86428" lon="2.2746">
        <ele>67</ele>
        <time>2016-02-15T21:04:08Z</time>
      </trkpt>
      <trkpt lat="48.86426" lon="2.27488">
        <ele>67.599998474121</ele>
        <time>2016-02-15T21:04:12Z</time>
      </trkpt>
      <trkpt lat="48.86423" lon="2.27518">
        <ele>67.800003051758</ele>
        <time>2016-02-15T21:04:16Z</time>
      </trkpt>
      <trkpt lat="48.86416" lon="2.27549">
        <ele>68.199996948242</ele>
        <time>2016-02-15T21:04:20Z</time>
      </trkpt>
      <trkpt lat="48.86416" lon="2.27558">
        <ele>68</ele>
        <time>2016-02-15T21:04:21Z</time>
      </trkpt>
      <trkpt lat="48.86407" lon="2.27591">
        <ele>66.800003051758</ele>
        <time>2016-02-15T21:04:25Z</time>
      </trkpt>
      <trkpt lat="48.86401" lon="2.27624">
        <ele>66</ele>
        <time>2016-02-15T21:04:29Z</time>
      </trkpt>
      <trkpt lat="48.86396" lon="2.27656">
        <ele>66</ele>
        <time>2016-02-15T21:04:33Z</time>
      </trkpt>
      <trkpt lat="48.86393" lon="2.27671">
        <ele>66</ele>
        <time>2016-02-15T21:04:35Z</time>
      </trkpt>
      <trkpt lat="48.86387" lon="2.27699">
        <ele>65.800003051758</ele>
        <time>2016-02-15T21:04:39Z</time>
      </trkpt>
      <trkpt lat="48.8639" lon="2.27728">
        <ele>65.800003051758</ele>
        <time>2016-02-15T21:04:43Z</time>
      </trkpt>
      <trkpt lat="48.86394" lon="2.27759">
        <ele>66</ele>
        <time>2016-02-15T21:04:47Z</time>
      </trkpt>
      <trkpt lat="48.8639" lon="2.2779">
        <ele>66.400001525879</ele>
        <time>2016-02-15T21:04:51Z</time>
      </trkpt>
      <trkpt lat="48.86384" lon="2.27819">
        <ele>66.199996948242</ele>
        <time>2016-02-15T21:04:55Z</time>
      </trkpt>
      <trkpt lat="48.86382" lon="2.27849">
        <ele>65</ele>
        <time>2016-02-15T21:04:59Z</time>
      </trkpt>
      <trkpt lat="48.86376" lon="2.27877">
        <ele>65.400001525879</ele>
        <time>2016-02-15T21:05:03Z</time>
      </trkpt>
      <trkpt lat="48.8637" lon="2.27908">
        <ele>66</ele>
        <time>2016-02-15T21:05:07Z</time>
      </trkpt>
      <trkpt lat="48.86364" lon="2.2794">
        <ele>67.199996948242</ele>
        <time>2016-02-15T21:05:11Z</time>
      </trkpt>
      <trkpt lat="48.86358" lon="2.27967">
        <ele>68.199996948242</ele>
        <time>2016-02-15T21:05:14Z</time>
      </trkpt>
      <trkpt lat="48.86352" lon="2.27997">
        <ele>69.199996948242</ele>
        <time>2016-02-15T21:05:17Z</time>
      </trkpt>
      <trkpt lat="48.86347" lon="2.28032">
        <ele>71.400001525879</ele>
        <time>2016-02-15T21:05:20Z</time>
      </trkpt>
      <trkpt lat="48.86342" lon="2.28066">
        <ele>73.599998474121</ele>
        <time>2016-02-15T21:05:23Z</time>
      </trkpt>
      <trkpt lat="48.86337" lon="2.281">
        <ele>74.199996948242</ele>
        <time>2016-02-15T21:05:26Z</time>
      </trkpt>
      <trkpt lat="48.86337" lon="2.28124">
        <ele>74</ele>
        <time>2016-02-15T21:05:28Z</time>
      </trkpt>
      <trkpt lat="48.86335" lon="2.2816">
        <ele>74</ele>
        <time>2016-02-15T21:05:31Z</time>
      </trkpt>
      <trkpt lat="48.86333" lon="2.28195">
        <ele>73.400001525879</ele>
        <time>2016-02-15T21:05:34Z</time>
      </trkpt>
      <trkpt lat="48.86329" lon="2.2823">
        <ele>73.800003051758</ele>
        <time>2016-02-15T21:05:37Z</time>
      </trkpt>
      <trkpt lat="48.86326" lon="2.28262">
        <ele>75.800003051758</ele>
        <time>2016-02-15T21:05:40Z</time>
      </trkpt>
      <trkpt lat="48.86324" lon="2.28288">
        <ele>76.599998474121</ele>
        <time>2016-02-15T21:05:43Z</time>
      </trkpt>
      <trkpt lat="48.86319" lon="2.28316">
        <ele>76.599998474121</ele>
        <time>2016-02-15T21:05:47Z</time>
      </trkpt>
      <trkpt lat="48.86315" lon="2.28345">
        <ele>76.199996948242</ele>
        <time>2016-02-15T21:05:53Z</time>
      </trkpt>
      <trkpt lat="48.86315" lon="2.28346">
        <ele>76.199996948242</ele>
        <time>2016-02-15T21:05:54Z</time>
      </trkpt>
      <trkpt lat="48.86315" lon="2.28339">
        <ele>76.400001525879</ele>
        <time>2016-02-15T21:05:58Z</time>
      </trkpt>
      <trkpt lat="48.86317" lon="2.28327">
        <ele>76.400001525879</ele>
        <time>2016-02-15T21:06:02Z</time>
      </trkpt>
      <trkpt lat="48.86323" lon="2.28296">
        <ele>77</ele>
        <time>2016-02-15T21:06:08Z</time>
      </trkpt>
      <trkpt lat="48.86328" lon="2.28269">
        <ele>75.599998474121</ele>
        <time>2016-02-15T21:06:12Z</time>
      </trkpt>
      <trkpt lat="48.86332" lon="2.28242">
        <ele>74.199996948242</ele>
        <time>2016-02-15T21:06:16Z</time>
      </trkpt>
      <trkpt lat="48.86337" lon="2.28214">
        <ele>72.800003051758</ele>
        <time>2016-02-15T21:06:20Z</time>
      </trkpt>
      <trkpt lat="48.86351" lon="2.28188">
        <ele>72.599998474121</ele>
        <time>2016-02-15T21:06:24Z</time>
      </trkpt>
      <trkpt lat="48.86355" lon="2.28164">
        <ele>73</ele>
        <time>2016-02-15T21:06:29Z</time>
      </trkpt>
      <trkpt lat="48.86356" lon="2.28159">
        <ele>73</ele>
        <time>2016-02-15T21:06:31Z</time>
      </trkpt>
      <trkpt lat="48.86362" lon="2.2813">
        <ele>73.400001525879</ele>
        <time>2016-02-15T21:06:37Z</time>
      </trkpt>
      <trkpt lat="48.86368" lon="2.28102">
        <ele>73.800003051758</ele>
        <time>2016-02-15T21:06:41Z</time>
      </trkpt>
      <trkpt lat="48.86373" lon="2.28074">
        <ele>72.599998474121</ele>
        <time>2016-02-15T21:06:45Z</time>
      </trkpt>
      <trkpt lat="48.86378" lon="2.28045">
        <ele>70.599998474121</ele>
        <time>2016-02-15T21:06:49Z</time>
      </trkpt>
      <trkpt lat="48.86375" lon="2.28012">
        <ele>68.800003051758</ele>
        <time>2016-02-15T21:06:53Z</time>
      </trkpt>
      <trkpt lat="48.86371" lon="2.2799">
        <ele>68.199996948242</ele>
        <time>2016-02-15T21:06:56Z</time>
      </trkpt>
      <trkpt lat="48.8638" lon="2.27966">
        <ele>67.199996948242</ele>
        <time>2016-02-15T21:07:00Z</time>
      </trkpt>
      <trkpt lat="48.86383" lon="2.27961">
        <ele>66.800003051758</ele>
        <time>2016-02-15T21:07:01Z</time>
      </trkpt>
      <trkpt lat="48.86394" lon="2.27965">
        <ele>66.400001525879</ele>
        <time>2016-02-15T21:07:06Z</time>
      </trkpt>
      <trkpt lat="48.86405" lon="2.27977">
        <ele>66.199996948242</ele>
        <time>2016-02-15T21:07:10Z</time>
      </trkpt>
      <trkpt lat="48.86412" lon="2.2799">
        <ele>66.199996948242</ele>
        <time>2016-02-15T21:07:14Z</time>
      </trkpt>
      <trkpt lat="48.86417" lon="2.28001">
        <ele>66.400001525879</ele>
        <time>2016-02-15T21:07:18Z</time>
      </trkpt>
      <trkpt lat="48.86431" lon="2.28023">
        <ele>66.599998474121</ele>
        <time>2016-02-15T21:07:27Z</time>
      </trkpt>
      <trkpt lat="48.86443" lon="2.28044">
        <ele>67.199996948242</ele>
        <time>2016-02-15T21:07:32Z</time>
      </trkpt>
      <trkpt lat="48.86454" lon="2.28068">
        <ele>68.199996948242</ele>
        <time>2016-02-15T21:07:37Z</time>
      </trkpt>
      <trkpt lat="48.8646" lon="2.28097">
        <ele>70</ele>
        <time>2016-02-15T21:07:43Z</time>
      </trkpt>
      <trkpt lat="48.86467" lon="2.28127">
        <ele>71.800003051758</ele>
        <time>2016-02-15T21:07:50Z</time>
      </trkpt>
      <trkpt lat="48.86478" lon="2.28156">
        <ele>73.599998474121</ele>
        <time>2016-02-15T21:07:56Z</time>
      </trkpt>
      <trkpt lat="48.86488" lon="2.28179">
        <ele>74.599998474121</ele>
        <time>2016-02-15T21:08:01Z</time>
      </trkpt>
      <trkpt lat="48.86499" lon="2.282">
        <ele>75.400001525879</ele>
        <time>2016-02-15T21:08:06Z</time>
      </trkpt>
      <trkpt lat="48.86512" lon="2.28223">
        <ele>76.199996948242</ele>
        <time>2016-02-15T21:08:11Z</time>
      </trkpt>
      <trkpt lat="48.86518" lon="2.2825">
        <ele>77</ele>
        <time>2016-02-15T21:08:16Z</time>
      </trkpt>
      <trkpt lat="48.86533" lon="2.28274">
        <ele>77.599998474121</ele>
        <time>2016-02-15T21:08:20Z</time>
      </trkpt>
      <trkpt lat="48.86548" lon="2.28295">
        <ele>78.199996948242</ele>
        <time>2016-02-15T21:08:24Z</time>
      </trkpt>
      <trkpt lat="48.86546" lon="2.28327">
        <ele>78.599998474121</ele>
        <time>2016-02-15T21:08:30Z</time>
      </trkpt>
      <trkpt lat="48.86529" lon="2.28352">
        <ele>77.599998474121</ele>
        <time>2016-02-15T21:08:38Z</time>
      </trkpt>
      <trkpt lat="48.86513" lon="2.28377">
        <ele>77.400001525879</ele>
        <time>2016-02-15T21:08:43Z</time>
      </trkpt>
      <trkpt lat="48.86508" lon="2.28406">
        <ele>77.199996948242</ele>
        <time>2016-02-15T21:08:48Z</time>
      </trkpt>
      <trkpt lat="48.86507" lon="2.28435">
        <ele>77.800003051758</ele>
        <time>2016-02-15T21:08:53Z</time>
      </trkpt>
      <trkpt lat="48.86508" lon="2.28465">
        <ele>78.400001525879</ele>
        <time>2016-02-15T21:08:58Z</time>
      </trkpt>
      <trkpt lat="48.86506" lon="2.28492">
        <ele>78.599998474121</ele>
        <time>2016-02-15T21:09:03Z</time>
      </trkpt>
      <trkpt lat="48.86503" lon="2.28521">
        <ele>77.599998474121</ele>
        <time>2016-02-15T21:09:09Z</time>
      </trkpt>
      <trkpt lat="48.86493" lon="2.28549">
        <ele>76.400001525879</ele>
        <time>2016-02-15T21:09:15Z</time>
      </trkpt>
      <trkpt lat="48.86487" lon="2.28581">
        <ele>75</ele>
        <time>2016-02-15T21:09:20Z</time>
      </trkpt>
      <trkpt lat="48.86482" lon="2.28611">
        <ele>74</ele>
        <time>2016-02-15T21:09:25Z</time>
      </trkpt>
      <trkpt lat="48.86483" lon="2.28639">
        <ele>73</ele>
        <time>2016-02-15T21:09:33Z</time>
      </trkpt>
      <trkpt lat="48.86487" lon="2.28644">
        <ele>72.800003051758</ele>
        <time>2016-02-15T21:09:40Z</time>
      </trkpt>
      <trkpt lat="48.86487" lon="2.28658">
        <ele>72.400001525879</ele>
        <time>2016-02-15T21:09:48Z</time>
      </trkpt>
      <trkpt lat="48.86482" lon="2.28688">
        <ele>70.800003051758</ele>
        <time>2016-02-15T21:09:58Z</time>
      </trkpt>
      <trkpt lat="48.86479" lon="2.28715">
        <ele>70.199996948242</ele>
        <time>2016-02-15T21:10:04Z</time>
      </trkpt>
      <trkpt lat="48.8648" lon="2.28744">
        <ele>70.400001525879</ele>
        <time>2016-02-15T21:10:09Z</time>
      </trkpt>
      <trkpt lat="48.86479" lon="2.28773">
        <ele>71.599998474121</ele>
        <time>2016-02-15T21:10:14Z</time>
      </trkpt>
      <trkpt lat="48.86477" lon="2.28802">
        <ele>72.400001525879</ele>
        <time>2016-02-15T21:10:19Z</time>
      </trkpt>
      <trkpt lat="48.8649" lon="2.28832">
        <ele>72.800003051758</ele>
        <time>2016-02-15T21:10:23Z</time>
      </trkpt>
      <trkpt lat="48.86502" lon="2.28864">
        <ele>72.400001525879</ele>
        <time>2016-02-15T21:10:29Z</time>
      </trkpt>
      <trkpt lat="48.86518" lon="2.28886">
        <ele>72.199996948242</ele>
        <time>2016-02-15T21:10:38Z</time>
      </trkpt>
      <trkpt lat="48.86538" lon="2.289">
        <ele>72.400001525879</ele>
        <time>2016-02-15T21:10:43Z</time>
      </trkpt>
      <trkpt lat="48.86556" lon="2.28913">
        <ele>72.800003051758</ele>
        <time>2016-02-15T21:10:47Z</time>
      </trkpt>
      <trkpt lat="48.86575" lon="2.28927">
        <ele>72.599998474121</ele>
        <time>2016-02-15T21:10:52Z</time>
      </trkpt>
      <trkpt lat="48.86592" lon="2.28943">
        <ele>72.199996948242</ele>
        <time>2016-02-15T21:10:56Z</time>
      </trkpt>
      <trkpt lat="48.86611" lon="2.28954">
        <ele>72.400001525879</ele>
        <time>2016-02-15T21:10:59Z</time>
      </trkpt>
      <trkpt lat="48.8663" lon="2.28964">
        <ele>73.199996948242</ele>
        <time>2016-02-15T21:11:02Z</time>
      </trkpt>
      <trkpt lat="48.86652" lon="2.28975">
        <ele>74.400001525879</ele>
        <time>2016-02-15T21:11:06Z</time>
      </trkpt>
      <trkpt lat="48.86669" lon="2.28986">
        <ele>75</ele>
        <time>2016-02-15T21:11:10Z</time>
      </trkpt>
      <trkpt lat="48.86676" lon="2.28992">
        <ele>75.199996948242</ele>
        <time>2016-02-15T21:11:12Z</time>
      </trkpt>
      <trkpt lat="48.86683" lon="2.28999">
        <ele>75.400001525879</ele>
        <time>2016-02-15T21:11:15Z</time>
      </trkpt>
      <trkpt lat="48.867" lon="2.29013">
        <ele>75</ele>
        <time>2016-02-15T21:11:18Z</time>
      </trkpt>
      <trkpt lat="48.8672" lon="2.29024">
        <ele>73.599998474121</ele>
        <time>2016-02-15T21:11:21Z</time>
      </trkpt>
      <trkpt lat="48.86725" lon="2.29028">
        <ele>73.199996948242</ele>
        <time>2016-02-15T21:11:22Z</time>
      </trkpt>
      <trkpt lat="48.86743" lon="2.29038">
        <ele>72</ele>
        <time>2016-02-15T21:11:26Z</time>
      </trkpt>
      <trkpt lat="48.86757" lon="2.29046">
        <ele>71</ele>
        <time>2016-02-15T21:11:30Z</time>
      </trkpt>
      <trkpt lat="48.86765" lon="2.29051">
        <ele>70.400001525879</ele>
        <time>2016-02-15T21:11:32Z</time>
      </trkpt>
      <trkpt lat="48.86783" lon="2.29063">
        <ele>69.599998474121</ele>
        <time>2016-02-15T21:11:36Z</time>
      </trkpt>
      <trkpt lat="48.86793" lon="2.29073">
        <ele>69.199996948242</ele>
        <time>2016-02-15T21:11:39Z</time>
      </trkpt>
      <trkpt lat="48.86807" lon="2.2909">
        <ele>69.400001525879</ele>
        <time>2016-02-15T21:11:43Z</time>
      </trkpt>
      <trkpt lat="48.86826" lon="2.29101">
        <ele>70</ele>
        <time>2016-02-15T21:11:46Z</time>
      </trkpt>
      <trkpt lat="48.86848" lon="2.29113">
        <ele>70.599998474121</ele>
        <time>2016-02-15T21:11:50Z</time>
      </trkpt>
      <trkpt lat="48.86867" lon="2.29124">
        <ele>71.199996948242</ele>
        <time>2016-02-15T21:11:54Z</time>
      </trkpt>
      <trkpt lat="48.86891" lon="2.29131">
        <ele>71.400001525879</ele>
        <time>2016-02-15T21:11:58Z</time>
      </trkpt>
      <trkpt lat="48.86905" lon="2.29136">
        <ele>71.800003051758</ele>
        <time>2016-02-15T21:12:01Z</time>
      </trkpt>
      <trkpt lat="48.86925" lon="2.29144">
        <ele>72.400001525879</ele>
        <time>2016-02-15T21:12:04Z</time>
      </trkpt>
      <trkpt lat="48.86941" lon="2.29157">
        <ele>73.199996948242</ele>
        <time>2016-02-15T21:12:08Z</time>
      </trkpt>
      <trkpt lat="48.86959" lon="2.29176">
        <ele>73.199996948242</ele>
        <time>2016-02-15T21:12:13Z</time>
      </trkpt>
      <trkpt lat="48.86968" lon="2.29189">
        <ele>72.800003051758</ele>
        <time>2016-02-15T21:12:16Z</time>
      </trkpt>
      <trkpt lat="48.86987" lon="2.29203">
        <ele>73</ele>
        <time>2016-02-15T21:12:20Z</time>
      </trkpt>
      <trkpt lat="48.87002" lon="2.29214">
        <ele>73</ele>
        <time>2016-02-15T21:12:23Z</time>
      </trkpt>
      <trkpt lat="48.87019" lon="2.29233">
        <ele>72.599998474121</ele>
        <time>2016-02-15T21:12:27Z</time>
      </trkpt>
      <trkpt lat="48.87047" lon="2.29248">
        <ele>73.400001525879</ele>
        <time>2016-02-15T21:12:29Z</time>
      </trkpt>
      <trkpt lat="48.8707" lon="2.29262">
        <ele>74</ele>
        <time>2016-02-15T21:12:31Z</time>
      </trkpt>
      <trkpt lat="48.87086" lon="2.29277">
        <ele>74.400001525879</ele>
        <time>2016-02-15T21:12:34Z</time>
      </trkpt>
      <trkpt lat="48.87105" lon="2.29295">
        <ele>74.599998474121</ele>
        <time>2016-02-15T21:12:38Z</time>
      </trkpt>
      <trkpt lat="48.87117" lon="2.29322">
        <ele>72.800003051758</ele>
        <time>2016-02-15T21:12:43Z</time>
      </trkpt>
      <trkpt lat="48.87135" lon="2.29334">
        <ele>71.199996948242</ele>
        <time>2016-02-15T21:12:47Z</time>
      </trkpt>
      <trkpt lat="48.87156" lon="2.29347">
        <ele>69.599998474121</ele>
        <time>2016-02-15T21:12:51Z</time>
      </trkpt>
      <trkpt lat="48.87176" lon="2.29359">
        <ele>68</ele>
        <time>2016-02-15T21:12:55Z</time>
      </trkpt>
      <trkpt lat="48.8718" lon="2.29362">
        <ele>67.800003051758</ele>
        <time>2016-02-15T21:12:56Z</time>
      </trkpt>
      <trkpt lat="48.87194" lon="2.29372">
        <ele>67</ele>
        <time>2016-02-15T21:13:00Z</time>
      </trkpt>
      <trkpt lat="48.87191" lon="2.2938">
        <ele>66.800003051758</ele>
        <time>2016-02-15T21:13:07Z</time>
      </trkpt>
      <trkpt lat="48.87199" lon="2.29387">
        <ele>66.599998474121</ele>
        <time>2016-02-15T21:13:11Z</time>
      </trkpt>
      <trkpt lat="48.872" lon="2.2939">
        <ele>66.400001525879</ele>
        <time>2016-02-15T21:13:14Z</time>
      </trkpt>
      <trkpt lat="48.87205" lon="2.29419">
        <ele>65.599998474121</ele>
        <time>2016-02-15T21:13:44Z</time>
      </trkpt>
      <trkpt lat="48.872" lon="2.29447">
        <ele>65.599998474121</ele>
        <time>2016-02-15T21:13:51Z</time>
      </trkpt>
      <trkpt lat="48.87204" lon="2.29479">
        <ele>65.400001525879</ele>
        <time>2016-02-15T21:14:00Z</time>
      </trkpt>
      <trkpt lat="48.8722" lon="2.2951">
        <ele>64.599998474121</ele>
        <time>2016-02-15T21:14:09Z</time>
      </trkpt>
      <trkpt lat="48.87215" lon="2.29541">
        <ele>64.400001525879</ele>
        <time>2016-02-15T21:14:19Z</time>
      </trkpt>
      <trkpt lat="48.8723" lon="2.29566">
        <ele>63.599998474121</ele>
        <time>2016-02-15T21:14:24Z</time>
      </trkpt>
      <trkpt lat="48.87247" lon="2.29592">
        <ele>63.20000076294</ele>
        <time>2016-02-15T21:14:29Z</time>
      </trkpt>
      <trkpt lat="48.87249" lon="2.29605">
        <ele>63.599998474121</ele>
        <time>2016-02-15T21:14:31Z</time>
      </trkpt>
      <trkpt lat="48.87256" lon="2.29632">
        <ele>64.599998474121</ele>
        <time>2016-02-15T21:14:37Z</time>
      </trkpt>
      <trkpt lat="48.87271" lon="2.29655">
        <ele>64.800003051758</ele>
        <time>2016-02-15T21:14:44Z</time>
      </trkpt>
      <trkpt lat="48.87285" lon="2.29673">
        <ele>64.800003051758</ele>
        <time>2016-02-15T21:14:49Z</time>
      </trkpt>
      <trkpt lat="48.87293" lon="2.29695">
        <ele>65.199996948242</ele>
        <time>2016-02-15T21:14:56Z</time>
      </trkpt>
      <trkpt lat="48.8729" lon="2.29711">
        <ele>66.400001525879</ele>
        <time>2016-02-15T21:15:04Z</time>
      </trkpt>
      <trkpt lat="48.87292" lon="2.29706">
        <ele>66</ele>
        <time>2016-02-15T21:15:32Z</time>
      </trkpt>
      <trkpt lat="48.87287" lon="2.29726">
        <ele>67.599998474121</ele>
        <time>2016-02-15T21:15:38Z</time>
      </trkpt>
      <trkpt lat="48.87275" lon="2.29751">
        <ele>69.800003051758</ele>
        <time>2016-02-15T21:15:43Z</time>
      </trkpt>
      <trkpt lat="48.87266" lon="2.29779">
        <ele>69</ele>
        <time>2016-02-15T21:15:49Z</time>
      </trkpt>
      <trkpt lat="48.87259" lon="2.29806">
        <ele>68</ele>
        <time>2016-02-15T21:15:55Z</time>
      </trkpt>
      <trkpt lat="48.87251" lon="2.29833">
        <ele>67.599998474121</ele>
        <time>2016-02-15T21:16:02Z</time>
      </trkpt>
      <trkpt lat="48.87241" lon="2.29859">
        <ele>66.800003051758</ele>
        <time>2016-02-15T21:16:08Z</time>
      </trkpt>
      <trkpt lat="48.87232" lon="2.29884">
        <ele>65.800003051758</ele>
        <time>2016-02-15T21:16:13Z</time>
      </trkpt>
      <trkpt lat="48.87223" lon="2.29911">
        <ele>64.400001525879</ele>
        <time>2016-02-15T21:16:18Z</time>
      </trkpt>
      <trkpt lat="48.87212" lon="2.29939">
        <ele>64</ele>
        <time>2016-02-15T21:16:23Z</time>
      </trkpt>
      <trkpt lat="48.87202" lon="2.29967">
        <ele>62.599998474121</ele>
        <time>2016-02-15T21:16:27Z</time>
      </trkpt>
      <trkpt lat="48.87191" lon="2.29996">
        <ele>61</ele>
        <time>2016-02-15T21:16:31Z</time>
      </trkpt>
      <trkpt lat="48.87181" lon="2.30023">
        <ele>60.20000076294</ele>
        <time>2016-02-15T21:16:36Z</time>
      </trkpt>
      <trkpt lat="48.8718" lon="2.30029">
        <ele>60</ele>
        <time>2016-02-15T21:16:37Z</time>
      </trkpt>
      <trkpt lat="48.87177" lon="2.3004">
        <ele>59.400001525879</ele>
        <time>2016-02-15T21:16:39Z</time>
      </trkpt>
      <trkpt lat="48.87178" lon="2.30063">
        <ele>58.400001525879</ele>
        <time>2016-02-15T21:16:43Z</time>
      </trkpt>
      <trkpt lat="48.87178" lon="2.30067">
        <ele>58.20000076294</ele>
        <time>2016-02-15T21:16:44Z</time>
      </trkpt>
      <trkpt lat="48.87175" lon="2.30092">
        <ele>57</ele>
        <time>2016-02-15T21:17:08Z</time>
      </trkpt>
      <trkpt lat="48.87165" lon="2.30119">
        <ele>56.599998474121</ele>
        <time>2016-02-15T21:17:15Z</time>
      </trkpt>
      <trkpt lat="48.87155" lon="2.30149">
        <ele>55</ele>
        <time>2016-02-15T21:17:20Z</time>
      </trkpt>
      <trkpt lat="48.87154" lon="2.30156">
        <ele>54.400001525879</ele>
        <time>2016-02-15T21:17:21Z</time>
      </trkpt>
      <trkpt lat="48.87147" lon="2.30186">
        <ele>53.400001525879</ele>
        <time>2016-02-15T21:17:26Z</time>
      </trkpt>
      <trkpt lat="48.87138" lon="2.30214">
        <ele>53.400001525879</ele>
        <time>2016-02-15T21:17:30Z</time>
      </trkpt>
      <trkpt lat="48.87131" lon="2.30235">
        <ele>53.400001525879</ele>
        <time>2016-02-15T21:17:37Z</time>
      </trkpt>
      <trkpt lat="48.87122" lon="2.30253">
        <ele>53.599998474121</ele>
        <time>2016-02-15T21:18:04Z</time>
      </trkpt>
      <trkpt lat="48.87111" lon="2.30274">
        <ele>53.79999923706</ele>
        <time>2016-02-15T21:18:09Z</time>
      </trkpt>
      <trkpt lat="48.87097" lon="2.30292">
        <ele>54.20000076294</ele>
        <time>2016-02-15T21:18:14Z</time>
      </trkpt>
      <trkpt lat="48.87085" lon="2.30319">
        <ele>54.79999923706</ele>
        <time>2016-02-15T21:18:21Z</time>
      </trkpt>
      <trkpt lat="48.87074" lon="2.30343">
        <ele>55</ele>
        <time>2016-02-15T21:18:27Z</time>
      </trkpt>
      <trkpt lat="48.87068" lon="2.3037">
        <ele>55</ele>
        <time>2016-02-15T21:18:34Z</time>
      </trkpt>
      <trkpt lat="48.87058" lon="2.30398">
        <ele>55.400001525879</ele>
        <time>2016-02-15T21:18:39Z</time>
      </trkpt>
      <trkpt lat="48.87048" lon="2.30425">
        <ele>55.20000076294</ele>
        <time>2016-02-15T21:18:43Z</time>
      </trkpt>
      <trkpt lat="48.87036" lon="2.30452">
        <ele>53.79999923706</ele>
        <time>2016-02-15T21:18:47Z</time>
      </trkpt>
      <trkpt lat="48.87023" lon="2.30479">
        <ele>52</ele>
        <time>2016-02-15T21:18:51Z</time>
      </trkpt>
      <trkpt lat="48.87013" lon="2.30508">
        <ele>50.599998474121</ele>
        <time>2016-02-15T21:18:56Z</time>
      </trkpt>
      <trkpt lat="48.87012" lon="2.30515">
        <ele>50.400001525879</ele>
        <time>2016-02-15T21:18:57Z</time>
      </trkpt>
      <trkpt lat="48.87008" lon="2.30545">
        <ele>49</ele>
        <time>2016-02-15T21:19:01Z</time>
      </trkpt>
      <trkpt lat="48.87003" lon="2.3056">
        <ele>48.400001525879</ele>
        <time>2016-02-15T21:19:03Z</time>
      </trkpt>
      <trkpt lat="48.86997" lon="2.30575">
        <ele>48.599998474121</ele>
        <time>2016-02-15T21:19:05Z</time>
      </trkpt>
      <trkpt lat="48.86984" lon="2.30599">
        <ele>50.20000076294</ele>
        <time>2016-02-15T21:19:09Z</time>
      </trkpt>
      <trkpt lat="48.86973" lon="2.3062">
        <ele>51.400001525879</ele>
        <time>2016-02-15T21:19:13Z</time>
      </trkpt>
      <trkpt lat="48.86971" lon="2.30643">
        <ele>50.79999923706</ele>
        <time>2016-02-15T21:19:17Z</time>
      </trkpt>
      <trkpt lat="48.86981" lon="2.30683">
        <ele>50.20000076294</ele>
        <time>2016-02-15T21:19:24Z</time>
      </trkpt>
      <trkpt lat="48.86977" lon="2.30695">
        <ele>50</ele>
        <time>2016-02-15T21:19:27Z</time>
      </trkpt>
      <trkpt lat="48.86973" lon="2.30705">
        <ele>49.20000076294</ele>
        <time>2016-02-15T21:19:29Z</time>
      </trkpt>
      <trkpt lat="48.86964" lon="2.3073">
        <ele>46.400001525879</ele>
        <time>2016-02-15T21:19:33Z</time>
      </trkpt>
      <trkpt lat="48.86966" lon="2.30764">
        <ele>44</ele>
        <time>2016-02-15T21:19:37Z</time>
      </trkpt>
      <trkpt lat="48.86965" lon="2.30773">
        <ele>43.400001525879</ele>
        <time>2016-02-15T21:19:38Z</time>
      </trkpt>
      <trkpt lat="48.86955" lon="2.30803">
        <ele>43.20000076294</ele>
        <time>2016-02-15T21:19:42Z</time>
      </trkpt>
      <trkpt lat="48.86943" lon="2.30833">
        <ele>43</ele>
        <time>2016-02-15T21:19:46Z</time>
      </trkpt>
      <trkpt lat="48.86931" lon="2.30861">
        <ele>43.20000076294</ele>
        <time>2016-02-15T21:19:50Z</time>
      </trkpt>
      <trkpt lat="48.86922" lon="2.30888">
        <ele>43.20000076294</ele>
        <time>2016-02-15T21:19:55Z</time>
      </trkpt>
      <trkpt lat="48.8692" lon="2.30893">
        <ele>43.20000076294</ele>
        <time>2016-02-15T21:19:57Z</time>
      </trkpt>
      <trkpt lat="48.8692" lon="2.3091">
        <ele>42.599998474121</ele>
        <time>2016-02-15T21:20:38Z</time>
      </trkpt>
      <trkpt lat="48.86913" lon="2.30923">
        <ele>42.400001525879</ele>
        <time>2016-02-15T21:20:43Z</time>
      </trkpt>
      <trkpt lat="48.86895" lon="2.30929">
        <ele>42.20000076294</ele>
        <time>2016-02-15T21:20:49Z</time>
      </trkpt>
      <trkpt lat="48.86877" lon="2.30939">
        <ele>41.599998474121</ele>
        <time>2016-02-15T21:20:55Z</time>
      </trkpt>
      <trkpt lat="48.86866" lon="2.30945">
        <ele>40.599998474121</ele>
        <time>2016-02-15T21:20:59Z</time>
      </trkpt>
      <trkpt lat="48.86858" lon="2.3096">
        <ele>39.400001525879</ele>
        <time>2016-02-15T21:21:05Z</time>
      </trkpt>
      <trkpt lat="48.8685" lon="2.30989">
        <ele>38.79999923706</ele>
        <time>2016-02-15T21:21:11Z</time>
      </trkpt>
      <trkpt lat="48.86851" lon="2.31018">
        <ele>37</ele>
        <time>2016-02-15T21:21:18Z</time>
      </trkpt>
      <trkpt lat="48.86854" lon="2.31044">
        <ele>35.79999923706</ele>
        <time>2016-02-15T21:21:24Z</time>
      </trkpt>
      <trkpt lat="48.86865" lon="2.31066">
        <ele>35.599998474121</ele>
        <time>2016-02-15T21:21:29Z</time>
      </trkpt>
      <trkpt lat="48.86865" lon="2.31072">
        <ele>35.400001525879</ele>
        <time>2016-02-15T21:21:30Z</time>
      </trkpt>
      <trkpt lat="48.86855" lon="2.311">
        <ele>34.20000076294</ele>
        <time>2016-02-15T21:21:35Z</time>
      </trkpt>
      <trkpt lat="48.86845" lon="2.3113">
        <ele>35</ele>
        <time>2016-02-15T21:21:40Z</time>
      </trkpt>
      <trkpt lat="48.86838" lon="2.31156">
        <ele>35.79999923706</ele>
        <time>2016-02-15T21:21:44Z</time>
      </trkpt>
      <trkpt lat="48.8683" lon="2.31185">
        <ele>35.79999923706</ele>
        <time>2016-02-15T21:21:49Z</time>
      </trkpt>
      <trkpt lat="48.86823" lon="2.31213">
        <ele>35.20000076294</ele>
        <time>2016-02-15T21:21:55Z</time>
      </trkpt>
      <trkpt lat="48.86814" lon="2.31239">
        <ele>35.599998474121</ele>
        <time>2016-02-15T21:22:03Z</time>
      </trkpt>
      <trkpt lat="48.86812" lon="2.31239">
        <ele>35.79999923706</ele>
        <time>2016-02-15T21:22:04Z</time>
      </trkpt>
      <trkpt lat="48.86794" lon="2.3123">
        <ele>37.400001525879</ele>
        <time>2016-02-15T21:22:12Z</time>
      </trkpt>
      <trkpt lat="48.86777" lon="2.31219">
        <ele>39</ele>
        <time>2016-02-15T21:22:18Z</time>
      </trkpt>
      <trkpt lat="48.8676" lon="2.31207">
        <ele>40.79999923706</ele>
        <time>2016-02-15T21:22:24Z</time>
      </trkpt>
      <trkpt lat="48.86746" lon="2.312">
        <ele>42.400001525879</ele>
        <time>2016-02-15T21:22:31Z</time>
      </trkpt>
      <trkpt lat="48.86745" lon="2.31215">
        <ele>42.400001525879</ele>
        <time>2016-02-15T21:22:36Z</time>
      </trkpt>
      <trkpt lat="48.86747" lon="2.31245">
        <ele>43</ele>
        <time>2016-02-15T21:22:42Z</time>
      </trkpt>
      <trkpt lat="48.86746" lon="2.31275">
        <ele>43.20000076294</ele>
        <time>2016-02-15T21:22:47Z</time>
      </trkpt>
      <trkpt lat="48.8674" lon="2.31307">
        <ele>43.400001525879</ele>
        <time>2016-02-15T21:22:52Z</time>
      </trkpt>
      <trkpt lat="48.86732" lon="2.31332">
        <ele>41.79999923706</ele>
        <time>2016-02-15T21:22:57Z</time>
      </trkpt>
      <trkpt lat="48.86723" lon="2.31359">
        <ele>41.599998474121</ele>
        <time>2016-02-15T21:23:04Z</time>
      </trkpt>
      <trkpt lat="48.86711" lon="2.31378">
        <ele>39.20000076294</ele>
        <time>2016-02-15T21:23:12Z</time>
      </trkpt>
      <trkpt lat="48.86703" lon="2.31383">
        <ele>38.400001525879</ele>
        <time>2016-02-15T21:23:16Z</time>
      </trkpt>
      <trkpt lat="48.86689" lon="2.31397">
        <ele>36.20000076294</ele>
        <time>2016-02-15T21:23:23Z</time>
      </trkpt>
      <trkpt lat="48.86671" lon="2.31405">
        <ele>36.20000076294</ele>
        <time>2016-02-15T21:23:31Z</time>
      </trkpt>
      <trkpt lat="48.86667" lon="2.31408">
        <ele>36.20000076294</ele>
        <time>2016-02-15T21:23:35Z</time>
      </trkpt>
      <trkpt lat="48.86668" lon="2.31414">
        <ele>35.599998474121</ele>
        <time>2016-02-15T21:23:40Z</time>
      </trkpt>
      <trkpt lat="48.86671" lon="2.31442">
        <ele>36.599998474121</ele>
        <time>2016-02-15T21:23:47Z</time>
      </trkpt>
      <trkpt lat="48.86667" lon="2.31469">
        <ele>38.20000076294</ele>
        <time>2016-02-15T21:23:53Z</time>
      </trkpt>
      <trkpt lat="48.86659" lon="2.31495">
        <ele>38.400001525879</ele>
        <time>2016-02-15T21:23:58Z</time>
      </trkpt>
      <trkpt lat="48.86649" lon="2.31523">
        <ele>39.20000076294</ele>
        <time>2016-02-15T21:24:03Z</time>
      </trkpt>
      <trkpt lat="48.86643" lon="2.31553">
        <ele>39.400001525879</ele>
        <time>2016-02-15T21:24:08Z</time>
      </trkpt>
      <trkpt lat="48.86636" lon="2.31566">
        <ele>39.400001525879</ele>
        <time>2016-02-15T21:24:12Z</time>
      </trkpt>
      <trkpt lat="48.86618" lon="2.31566">
        <ele>39.20000076294</ele>
        <time>2016-02-15T21:24:17Z</time>
      </trkpt>
      <trkpt lat="48.86614" lon="2.31566">
        <ele>39</ele>
        <time>2016-02-15T21:24:18Z</time>
      </trkpt>
      <trkpt lat="48.86595" lon="2.31567">
        <ele>39.599998474121</ele>
        <time>2016-02-15T21:24:23Z</time>
      </trkpt>
      <trkpt lat="48.86575" lon="2.31569">
        <ele>38.599998474121</ele>
        <time>2016-02-15T21:24:28Z</time>
      </trkpt>
      <trkpt lat="48.86557" lon="2.31562">
        <ele>38.599998474121</ele>
        <time>2016-02-15T21:24:32Z</time>
      </trkpt>
      <trkpt lat="48.86537" lon="2.31561">
        <ele>37.79999923706</ele>
        <time>2016-02-15T21:24:38Z</time>
      </trkpt>
      <trkpt lat="48.86521" lon="2.31573">
        <ele>35.400001525879</ele>
        <time>2016-02-15T21:24:47Z</time>
      </trkpt>
      <trkpt lat="48.8652" lon="2.3159">
        <ele>34</ele>
        <time>2016-02-15T21:24:52Z</time>
      </trkpt>
      <trkpt lat="48.86521" lon="2.3162">
        <ele>32</ele>
        <time>2016-02-15T21:24:58Z</time>
      </trkpt>
      <trkpt lat="48.86522" lon="2.31648">
        <ele>30</ele>
        <time>2016-02-15T21:25:03Z</time>
      </trkpt>
      <trkpt lat="48.86522" lon="2.31679">
        <ele>30</ele>
        <time>2016-02-15T21:25:08Z</time>
      </trkpt>
      <trkpt lat="48.86523" lon="2.31712">
        <ele>32</ele>
        <time>2016-02-15T21:25:13Z</time>
      </trkpt>
      <trkpt lat="48.86524" lon="2.31746">
        <ele>34</ele>
        <time>2016-02-15T21:25:18Z</time>
      </trkpt>
      <trkpt lat="48.86527" lon="2.31774">
        <ele>34</ele>
        <time>2016-02-15T21:25:22Z</time>
      </trkpt>
      <trkpt lat="48.86527" lon="2.31802">
        <ele>34</ele>
        <time>2016-02-15T21:25:27Z</time>
      </trkpt>
      <trkpt lat="48.8652" lon="2.31829">
        <ele>34</ele>
        <time>2016-02-15T21:25:35Z</time>
      </trkpt>
      <trkpt lat="48.86511" lon="2.31857">
        <ele>33</ele>
        <time>2016-02-15T21:25:42Z</time>
      </trkpt>
      <trkpt lat="48.86512" lon="2.31886">
        <ele>31.799999237061</ele>
        <time>2016-02-15T21:25:49Z</time>
      </trkpt>
      <trkpt lat="48.86511" lon="2.31892">
        <ele>31.60000038147</ele>
        <time>2016-02-15T21:25:52Z</time>
      </trkpt>
      <trkpt lat="48.86515" lon="2.31905">
        <ele>31.200000762939</ele>
        <time>2016-02-15T21:26:14Z</time>
      </trkpt>
      <trkpt lat="48.86525" lon="2.31921">
        <ele>31</ele>
        <time>2016-02-15T21:26:21Z</time>
      </trkpt>
      <trkpt lat="48.86523" lon="2.31929">
        <ele>31.200000762939</ele>
        <time>2016-02-15T21:26:27Z</time>
      </trkpt>
      <trkpt lat="48.86516" lon="2.31942">
        <ele>31</ele>
        <time>2016-02-15T21:26:38Z</time>
      </trkpt>
      <trkpt lat="48.86502" lon="2.3196">
        <ele>30.60000038147</ele>
        <time>2016-02-15T21:26:45Z</time>
      </trkpt>
      <trkpt lat="48.86498" lon="2.31972">
        <ele>30.60000038147</ele>
        <time>2016-02-15T21:26:48Z</time>
      </trkpt>
      <trkpt lat="48.86485" lon="2.31995">
        <ele>31</ele>
        <time>2016-02-15T21:26:55Z</time>
      </trkpt>
      <trkpt lat="48.8647" lon="2.32013">
        <ele>31.200000762939</ele>
        <time>2016-02-15T21:27:01Z</time>
      </trkpt>
      <trkpt lat="48.86454" lon="2.32011">
        <ele>30.60000038147</ele>
        <time>2016-02-15T21:27:09Z</time>
      </trkpt>
      <trkpt lat="48.86444" lon="2.32004">
        <ele>30.39999961853</ele>
        <time>2016-02-15T21:27:14Z</time>
      </trkpt>
      <trkpt lat="48.86426" lon="2.31989">
        <ele>29.39999961853</ele>
        <time>2016-02-15T21:27:23Z</time>
      </trkpt>
      <trkpt lat="48.86408" lon="2.31992">
        <ele>29.200000762939</ele>
        <time>2016-02-15T21:27:32Z</time>
      </trkpt>
      <trkpt lat="48.86408" lon="2.31992">
        <ele>29.200000762939</ele>
        <time>2016-02-15T21:27:33Z</time>
      </trkpt>
      <trkpt lat="48.86405" lon="2.32013">
        <ele>29.799999237061</ele>
        <time>2016-02-15T21:28:16Z</time>
      </trkpt>
      <trkpt lat="48.86401" lon="2.32041">
        <ele>30.60000038147</ele>
        <time>2016-02-15T21:28:22Z</time>
      </trkpt>
      <trkpt lat="48.86393" lon="2.32068">
        <ele>30.200000762939</ele>
        <time>2016-02-15T21:28:27Z</time>
      </trkpt>
      <trkpt lat="48.86383" lon="2.32098">
        <ele>30.200000762939</ele>
        <time>2016-02-15T21:28:32Z</time>
      </trkpt>
      <trkpt lat="48.8638" lon="2.32104">
        <ele>30.200000762939</ele>
        <time>2016-02-15T21:28:33Z</time>
      </trkpt>
      <trkpt lat="48.86371" lon="2.32129">
        <ele>29.799999237061</ele>
        <time>2016-02-15T21:28:37Z</time>
      </trkpt>
      <trkpt lat="48.86363" lon="2.32152">
        <ele>29.39999961853</ele>
        <time>2016-02-15T21:28:40Z</time>
      </trkpt>
      <trkpt lat="48.86353" lon="2.32175">
        <ele>29.39999961853</ele>
        <time>2016-02-15T21:28:43Z</time>
      </trkpt>
      <trkpt lat="48.86342" lon="2.32199">
        <ele>30.39999961853</ele>
        <time>2016-02-15T21:28:46Z</time>
      </trkpt>
      <trkpt lat="48.8633" lon="2.32227">
        <ele>31.200000762939</ele>
        <time>2016-02-15T21:28:49Z</time>
      </trkpt>
      <trkpt lat="48.8632" lon="2.32258">
        <ele>31.200000762939</ele>
        <time>2016-02-15T21:28:52Z</time>
      </trkpt>
      <trkpt lat="48.8631" lon="2.32291">
        <ele>30.39999961853</ele>
        <time>2016-02-15T21:28:55Z</time>
      </trkpt>
      <trkpt lat="48.86302" lon="2.32324">
        <ele>30</ele>
        <time>2016-02-15T21:28:58Z</time>
      </trkpt>
      <trkpt lat="48.86294" lon="2.32358">
        <ele>29.60000038147</ele>
        <time>2016-02-15T21:29:01Z</time>
      </trkpt>
      <trkpt lat="48.86284" lon="2.3239">
        <ele>28.200000762939</ele>
        <time>2016-02-15T21:29:04Z</time>
      </trkpt>
      <trkpt lat="48.86273" lon="2.32425">
        <ele>27.39999961853</ele>
        <time>2016-02-15T21:29:07Z</time>
      </trkpt>
      <trkpt lat="48.86263" lon="2.32459">
        <ele>28</ele>
        <time>2016-02-15T21:29:10Z</time>
      </trkpt>
      <trkpt lat="48.86254" lon="2.32493">
        <ele>28.799999237061</ele>
        <time>2016-02-15T21:29:13Z</time>
      </trkpt>
      <trkpt lat="48.86244" lon="2.32526">
        <ele>29.60000038147</ele>
        <time>2016-02-15T21:29:16Z</time>
      </trkpt>
      <trkpt lat="48.86235" lon="2.32557">
        <ele>30.200000762939</ele>
        <time>2016-02-15T21:29:19Z</time>
      </trkpt>
      <trkpt lat="48.86225" lon="2.32588">
        <ele>30.60000038147</ele>
        <time>2016-02-15T21:29:22Z</time>
      </trkpt>
      <trkpt lat="48.86215" lon="2.3262">
        <ele>30.799999237061</ele>
        <time>2016-02-15T21:29:25Z</time>
      </trkpt>
      <trkpt lat="48.86205" lon="2.32652">
        <ele>29.799999237061</ele>
        <time>2016-02-15T21:29:28Z</time>
      </trkpt>
      <trkpt lat="48.86196" lon="2.32689">
        <ele>29.799999237061</ele>
        <time>2016-02-15T21:29:31Z</time>
      </trkpt>
      <trkpt lat="48.86187" lon="2.32725">
        <ele>31.200000762939</ele>
        <time>2016-02-15T21:29:34Z</time>
      </trkpt>
      <trkpt lat="48.86177" lon="2.32759">
        <ele>31.799999237061</ele>
        <time>2016-02-15T21:29:37Z</time>
      </trkpt>
      <trkpt lat="48.86167" lon="2.32793">
        <ele>32.79999923706</ele>
        <time>2016-02-15T21:29:40Z</time>
      </trkpt>
      <trkpt lat="48.86157" lon="2.32829">
        <ele>32.20000076294</ele>
        <time>2016-02-15T21:29:43Z</time>
      </trkpt>
      <trkpt lat="48.86148" lon="2.32862">
        <ele>31.39999961853</ele>
        <time>2016-02-15T21:29:46Z</time>
      </trkpt>
      <trkpt lat="48.86138" lon="2.32894">
        <ele>32.79999923706</ele>
        <time>2016-02-15T21:29:49Z</time>
      </trkpt>
      <trkpt lat="48.86129" lon="2.32922">
        <ele>34.20000076294</ele>
        <time>2016-02-15T21:29:52Z</time>
      </trkpt>
      <trkpt lat="48.86118" lon="2.32952">
        <ele>37</ele>
        <time>2016-02-15T21:29:56Z</time>
      </trkpt>
      <trkpt lat="48.86108" lon="2.32976">
        <ele>41.20000076294</ele>
        <time>2016-02-15T21:30:00Z</time>
      </trkpt>
      <trkpt lat="48.86098" lon="2.32994">
        <ele>43.599998474121</ele>
        <time>2016-02-15T21:30:04Z</time>
      </trkpt>
      <trkpt lat="48.86088" lon="2.33005">
        <ele>42.599998474121</ele>
        <time>2016-02-15T21:30:09Z</time>
      </trkpt>
      <trkpt lat="48.86093" lon="2.33003">
        <ele>43</ele>
        <time>2016-02-15T21:31:08Z</time>
      </trkpt>
      <trkpt lat="48.8611" lon="2.33014">
        <ele>42.79999923706</ele>
        <time>2016-02-15T21:31:13Z</time>
      </trkpt>
      <trkpt lat="48.86131" lon="2.33029">
        <ele>41.20000076294</ele>
        <time>2016-02-15T21:31:17Z</time>
      </trkpt>
      <trkpt lat="48.86152" lon="2.33043">
        <ele>39.599998474121</ele>
        <time>2016-02-15T21:31:20Z</time>
      </trkpt>
      <trkpt lat="48.86174" lon="2.33059">
        <ele>37.599998474121</ele>
        <time>2016-02-15T21:31:23Z</time>
      </trkpt>
      <trkpt lat="48.86194" lon="2.33073">
        <ele>36</ele>
        <time>2016-02-15T21:31:26Z</time>
      </trkpt>
      <trkpt lat="48.86216" lon="2.33089">
        <ele>35.599998474121</ele>
        <time>2016-02-15T21:31:29Z</time>
      </trkpt>
      <trkpt lat="48.86238" lon="2.33104">
        <ele>35.599998474121</ele>
        <time>2016-02-15T21:31:32Z</time>
      </trkpt>
      <trkpt lat="48.8629" lon="2.33135">
        <ele>36.400001525879</ele>
        <time>2016-02-15T21:31:41Z</time>
      </trkpt>
      <trkpt lat="48.86321" lon="2.33161">
        <ele>38</ele>
        <time>2016-02-15T21:31:44Z</time>
      </trkpt>
      <trkpt lat="48.86333" lon="2.3317">
        <ele>38.79999923706</ele>
        <time>2016-02-15T21:31:45Z</time>
      </trkpt>
      <trkpt lat="48.86342" lon="2.3318">
        <ele>39.599998474121</ele>
        <time>2016-02-15T21:31:47Z</time>
      </trkpt>
      <trkpt lat="48.86353" lon="2.33191">
        <ele>40.599998474121</ele>
        <time>2016-02-15T21:31:51Z</time>
      </trkpt>
      <trkpt lat="48.86367" lon="2.33205">
        <ele>41.79999923706</ele>
        <time>2016-02-15T21:31:58Z</time>
      </trkpt>
      <trkpt lat="48.86366" lon="2.3321">
        <ele>42</ele>
        <time>2016-02-15T21:32:23Z</time>
      </trkpt>
      <trkpt lat="48.86368" lon="2.3321">
        <ele>42.20000076294</ele>
        <time>2016-02-15T21:32:25Z</time>
      </trkpt>
      <trkpt lat="48.86385" lon="2.33226">
        <ele>43.79999923706</ele>
        <time>2016-02-15T21:32:39Z</time>
      </trkpt>
      <trkpt lat="48.86401" lon="2.33241">
        <ele>45.20000076294</ele>
        <time>2016-02-15T21:32:44Z</time>
      </trkpt>
      <trkpt lat="48.86421" lon="2.33258">
        <ele>46.400001525879</ele>
        <time>2016-02-15T21:32:49Z</time>
      </trkpt>
      <trkpt lat="48.86438" lon="2.33267">
        <ele>47.20000076294</ele>
        <time>2016-02-15T21:32:53Z</time>
      </trkpt>
      <trkpt lat="48.86456" lon="2.33276">
        <ele>47.400001525879</ele>
        <time>2016-02-15T21:32:58Z</time>
      </trkpt>
      <trkpt lat="48.8646" lon="2.33282">
        <ele>47.400001525879</ele>
        <time>2016-02-15T21:33:01Z</time>
      </trkpt>
      <trkpt lat="48.86457" lon="2.33313">
        <ele>47.79999923706</ele>
        <time>2016-02-15T21:33:07Z</time>
      </trkpt>
      <trkpt lat="48.86449" lon="2.33339">
        <ele>48</ele>
        <time>2016-02-15T21:33:11Z</time>
      </trkpt>
      <trkpt lat="48.86439" lon="2.33363">
        <ele>48.79999923706</ele>
        <time>2016-02-15T21:33:15Z</time>
      </trkpt>
      <trkpt lat="48.86419" lon="2.33388">
        <ele>49.400001525879</ele>
        <time>2016-02-15T21:33:18Z</time>
      </trkpt>
      <trkpt lat="48.86406" lon="2.33411">
        <ele>50.400001525879</ele>
        <time>2016-02-15T21:33:23Z</time>
      </trkpt>
      <trkpt lat="48.86403" lon="2.33414">
        <ele>50.400001525879</ele>
        <time>2016-02-15T21:33:24Z</time>
      </trkpt>
      <trkpt lat="48.86392" lon="2.33428">
        <ele>50.599998474121</ele>
        <time>2016-02-15T21:33:28Z</time>
      </trkpt>
      <trkpt lat="48.86378" lon="2.33447">
        <ele>50.400001525879</ele>
        <time>2016-02-15T21:33:32Z</time>
      </trkpt>
      <trkpt lat="48.86364" lon="2.33471">
        <ele>49.20000076294</ele>
        <time>2016-02-15T21:33:37Z</time>
      </trkpt>
      <trkpt lat="48.86353" lon="2.33495">
        <ele>47.79999923706</ele>
        <time>2016-02-15T21:33:41Z</time>
      </trkpt>
      <trkpt lat="48.86341" lon="2.33522">
        <ele>47</ele>
        <time>2016-02-15T21:33:46Z</time>
      </trkpt>
      <trkpt lat="48.86333" lon="2.33534">
        <ele>46.400001525879</ele>
        <time>2016-02-15T21:33:49Z</time>
      </trkpt>
      <trkpt lat="48.86317" lon="2.33547">
        <ele>45.79999923706</ele>
        <time>2016-02-15T21:33:54Z</time>
      </trkpt>
      <trkpt lat="48.86312" lon="2.33554">
        <ele>46.20000076294</ele>
        <time>2016-02-15T21:33:56Z</time>
      </trkpt>
      <trkpt lat="48.86311" lon="2.33587">
        <ele>47.400001525879</ele>
        <time>2016-02-15T21:34:01Z</time>
      </trkpt>
      <trkpt lat="48.86312" lon="2.33603">
        <ele>46.79999923706</ele>
        <time>2016-02-15T21:34:03Z</time>
      </trkpt>
      <trkpt lat="48.86304" lon="2.33634">
        <ele>46.20000076294</ele>
        <time>2016-02-15T21:34:07Z</time>
      </trkpt>
      <trkpt lat="48.86301" lon="2.33641">
        <ele>46.20000076294</ele>
        <time>2016-02-15T21:34:08Z</time>
      </trkpt>
      <trkpt lat="48.86293" lon="2.3367">
        <ele>46.20000076294</ele>
        <time>2016-02-15T21:34:12Z</time>
      </trkpt>
      <trkpt lat="48.86284" lon="2.33698">
        <ele>46.20000076294</ele>
        <time>2016-02-15T21:34:16Z</time>
      </trkpt>
      <trkpt lat="48.86276" lon="2.33725">
        <ele>46.20000076294</ele>
        <time>2016-02-15T21:34:20Z</time>
      </trkpt>
      <trkpt lat="48.86269" lon="2.33751">
        <ele>46</ele>
        <time>2016-02-15T21:34:24Z</time>
      </trkpt>
      <trkpt lat="48.86266" lon="2.33764">
        <ele>45.79999923706</ele>
        <time>2016-02-15T21:34:26Z</time>
      </trkpt>
      <trkpt lat="48.86256" lon="2.3379">
        <ele>45.599998474121</ele>
        <time>2016-02-15T21:34:30Z</time>
      </trkpt>
      <trkpt lat="48.86252" lon="2.33802">
        <ele>45.599998474121</ele>
        <time>2016-02-15T21:34:32Z</time>
      </trkpt>
      <trkpt lat="48.86243" lon="2.33826">
        <ele>44.599998474121</ele>
        <time>2016-02-15T21:34:36Z</time>
      </trkpt>
      <trkpt lat="48.86236" lon="2.33858">
        <ele>45.20000076294</ele>
        <time>2016-02-15T21:34:41Z</time>
      </trkpt>
      <trkpt lat="48.86229" lon="2.3389">
        <ele>45.79999923706</ele>
        <time>2016-02-15T21:34:46Z</time>
      </trkpt>
      <trkpt lat="48.86222" lon="2.33921">
        <ele>46.400001525879</ele>
        <time>2016-02-15T21:34:51Z</time>
      </trkpt>
      <trkpt lat="48.86217" lon="2.33934">
        <ele>46.400001525879</ele>
        <time>2016-02-15T21:34:53Z</time>
      </trkpt>
      <trkpt lat="48.86213" lon="2.33947">
        <ele>46.79999923706</ele>
        <time>2016-02-15T21:34:55Z</time>
      </trkpt>
      <trkpt lat="48.86208" lon="2.33966">
        <ele>47.79999923706</ele>
        <time>2016-02-15T21:34:58Z</time>
      </trkpt>
      <trkpt lat="48.86202" lon="2.33993">
        <ele>49</ele>
        <time>2016-02-15T21:35:02Z</time>
      </trkpt>
      <trkpt lat="48.86188" lon="2.3402">
        <ele>49</ele>
        <time>2016-02-15T21:35:06Z</time>
      </trkpt>
      <trkpt lat="48.86181" lon="2.34046">
        <ele>48.79999923706</ele>
        <time>2016-02-15T21:35:10Z</time>
      </trkpt>
      <trkpt lat="48.86176" lon="2.34075">
        <ele>48.599998474121</ele>
        <time>2016-02-15T21:35:14Z</time>
      </trkpt>
      <trkpt lat="48.86174" lon="2.34093">
        <ele>48.599998474121</ele>
        <time>2016-02-15T21:35:17Z</time>
      </trkpt>
      <trkpt lat="48.86172" lon="2.3411">
        <ele>48.79999923706</ele>
        <time>2016-02-15T21:35:21Z</time>
      </trkpt>
      <trkpt lat="48.86167" lon="2.34138">
        <ele>48.79999923706</ele>
        <time>2016-02-15T21:35:40Z</time>
      </trkpt>
      <trkpt lat="48.8616" lon="2.34163">
        <ele>49.20000076294</ele>
        <time>2016-02-15T21:35:44Z</time>
      </trkpt>
      <trkpt lat="48.86152" lon="2.3419">
        <ele>49</ele>
        <time>2016-02-15T21:35:48Z</time>
      </trkpt>
      <trkpt lat="48.8615" lon="2.34224">
        <ele>49.20000076294</ele>
        <time>2016-02-15T21:35:53Z</time>
      </trkpt>
      <trkpt lat="48.86143" lon="2.34256">
        <ele>49.400001525879</ele>
        <time>2016-02-15T21:35:58Z</time>
      </trkpt>
      <trkpt lat="48.86137" lon="2.34283">
        <ele>49.20000076294</ele>
        <time>2016-02-15T21:36:02Z</time>
      </trkpt>
      <trkpt lat="48.86131" lon="2.34316">
        <ele>50</ele>
        <time>2016-02-15T21:36:07Z</time>
      </trkpt>
      <trkpt lat="48.86127" lon="2.34345">
        <ele>49.79999923706</ele>
        <time>2016-02-15T21:36:11Z</time>
      </trkpt>
      <trkpt lat="48.86123" lon="2.34374">
        <ele>49.400001525879</ele>
        <time>2016-02-15T21:36:15Z</time>
      </trkpt>
      <trkpt lat="48.86121" lon="2.34382">
        <ele>49.599998474121</ele>
        <time>2016-02-15T21:36:16Z</time>
      </trkpt>
      <trkpt lat="48.86114" lon="2.34408">
        <ele>49.599998474121</ele>
        <time>2016-02-15T21:36:20Z</time>
      </trkpt>
      <trkpt lat="48.86113" lon="2.34415">
        <ele>49.599998474121</ele>
        <time>2016-02-15T21:36:21Z</time>
      </trkpt>
      <trkpt lat="48.86109" lon="2.34436">
        <ele>49.79999923706</ele>
        <time>2016-02-15T21:36:24Z</time>
      </trkpt>
      <trkpt lat="48.86105" lon="2.34465">
        <ele>50.599998474121</ele>
        <time>2016-02-15T21:36:28Z</time>
      </trkpt>
      <trkpt lat="48.86108" lon="2.34494">
        <ele>50.599998474121</ele>
        <time>2016-02-15T21:36:32Z</time>
      </trkpt>
      <trkpt lat="48.86101" lon="2.34525">
        <ele>50.79999923706</ele>
        <time>2016-02-15T21:36:37Z</time>
      </trkpt>
      <trkpt lat="48.86092" lon="2.34554">
        <ele>50.599998474121</ele>
        <time>2016-02-15T21:36:42Z</time>
      </trkpt>
      <trkpt lat="48.86083" lon="2.34577">
        <ele>50</ele>
        <time>2016-02-15T21:36:46Z</time>
      </trkpt>
      <trkpt lat="48.86067" lon="2.346">
        <ele>48</ele>
        <time>2016-02-15T21:36:51Z</time>
      </trkpt>
      <trkpt lat="48.86059" lon="2.34606">
        <ele>47.20000076294</ele>
        <time>2016-02-15T21:36:53Z</time>
      </trkpt>
      <trkpt lat="48.86039" lon="2.34617">
        <ele>47.20000076294</ele>
        <time>2016-02-15T21:36:57Z</time>
      </trkpt>
      <trkpt lat="48.86026" lon="2.34629">
        <ele>47.20000076294</ele>
        <time>2016-02-15T21:37:01Z</time>
      </trkpt>
      <trkpt lat="48.86015" lon="2.34642">
        <ele>47</ele>
        <time>2016-02-15T21:37:05Z</time>
      </trkpt>
      <trkpt lat="48.86007" lon="2.34649">
        <ele>47</ele>
        <time>2016-02-15T21:37:07Z</time>
      </trkpt>
      <trkpt lat="48.86001" lon="2.34657">
        <ele>46.599998474121</ele>
        <time>2016-02-15T21:37:09Z</time>
      </trkpt>
      <trkpt lat="48.85991" lon="2.34665">
        <ele>46.400001525879</ele>
        <time>2016-02-15T21:37:12Z</time>
      </trkpt>
      <trkpt lat="48.85978" lon="2.34677">
        <ele>46.400001525879</ele>
        <time>2016-02-15T21:37:15Z</time>
      </trkpt>
      <trkpt lat="48.85969" lon="2.34693">
        <ele>46.400001525879</ele>
        <time>2016-02-15T21:37:19Z</time>
      </trkpt>
      <trkpt lat="48.85967" lon="2.34721">
        <ele>45.20000076294</ele>
        <time>2016-02-15T21:37:28Z</time>
      </trkpt>
      <trkpt lat="48.85963" lon="2.34724">
        <ele>45.20000076294</ele>
        <time>2016-02-15T21:37:38Z</time>
      </trkpt>
      <trkpt lat="48.85963" lon="2.34722">
        <ele>45.20000076294</ele>
        <time>2016-02-15T21:37:46Z</time>
      </trkpt>
    </trkseg>
  </trk>
  <trk>
    <name><![CDATA[lundi 2016 02 01]]></name>
    <extensions>
      <line xmlns="http://www.topografix.com/GPX/gpx_style/0/2">
        <color>000000</color>
      </line>
    </extensions>
    <trkseg>
      <trkpt lat="48.8574" lon="2.34711">
        <ele>40.20000076294</ele>
        <time>2016-02-01T19:21:25Z</time>
      </trkpt>
      <trkpt lat="48.85727" lon="2.34687">
        <ele>40</ele>
        <time>2016-02-01T19:21:33Z</time>
      </trkpt>
      <trkpt lat="48.8572" lon="2.34687">
        <ele>40.400001525879</ele>
        <time>2016-02-01T19:21:40Z</time>
      </trkpt>
      <trkpt lat="48.857" lon="2.34678">
        <ele>40.79999923706</ele>
        <time>2016-02-01T19:21:47Z</time>
      </trkpt>
      <trkpt lat="48.85682" lon="2.34667">
        <ele>41.599998474121</ele>
        <time>2016-02-01T19:21:54Z</time>
      </trkpt>
      <trkpt lat="48.85663" lon="2.34654">
        <ele>43.20000076294</ele>
        <time>2016-02-01T19:22:01Z</time>
      </trkpt>
      <trkpt lat="48.85645" lon="2.34643">
        <ele>44.79999923706</ele>
        <time>2016-02-01T19:22:07Z</time>
      </trkpt>
      <trkpt lat="48.85639" lon="2.34636">
        <ele>45.20000076294</ele>
        <time>2016-02-01T19:22:10Z</time>
      </trkpt>
      <trkpt lat="48.85642" lon="2.34615">
        <ele>45.20000076294</ele>
        <time>2016-02-01T19:22:16Z</time>
      </trkpt>
      <trkpt lat="48.85652" lon="2.34583">
        <ele>48.79999923706</ele>
        <time>2016-02-01T19:22:21Z</time>
      </trkpt>
      <trkpt lat="48.85663" lon="2.34554">
        <ele>49</ele>
        <time>2016-02-01T19:22:25Z</time>
      </trkpt>
      <trkpt lat="48.85671" lon="2.34524">
        <ele>48.400001525879</ele>
        <time>2016-02-01T19:22:29Z</time>
      </trkpt>
      <trkpt lat="48.85678" lon="2.34493">
        <ele>47.79999923706</ele>
        <time>2016-02-01T19:22:33Z</time>
      </trkpt>
      <trkpt lat="48.85683" lon="2.3446">
        <ele>48.599998474121</ele>
        <time>2016-02-01T19:22:37Z</time>
      </trkpt>
      <trkpt lat="48.85688" lon="2.34428">
        <ele>49.599998474121</ele>
        <time>2016-02-01T19:22:41Z</time>
      </trkpt>
      <trkpt lat="48.85694" lon="2.34395">
        <ele>47.20000076294</ele>
        <time>2016-02-01T19:22:45Z</time>
      </trkpt>
      <trkpt lat="48.85697" lon="2.34363">
        <ele>43</ele>
        <time>2016-02-01T19:22:49Z</time>
      </trkpt>
      <trkpt lat="48.85696" lon="2.34356">
        <ele>42.20000076294</ele>
        <time>2016-02-01T19:22:50Z</time>
      </trkpt>
      <trkpt lat="48.85677" lon="2.34333">
        <ele>40.400001525879</ele>
        <time>2016-02-01T19:22:54Z</time>
      </trkpt>
      <trkpt lat="48.85673" lon="2.34329">
        <ele>40.20000076294</ele>
        <time>2016-02-01T19:22:55Z</time>
      </trkpt>
      <trkpt lat="48.85669" lon="2.34326">
        <ele>40.400001525879</ele>
        <time>2016-02-01T19:22:56Z</time>
      </trkpt>
      <trkpt lat="48.85652" lon="2.34315">
        <ele>40.599998474121</ele>
        <time>2016-02-01T19:22:59Z</time>
      </trkpt>
      <trkpt lat="48.85634" lon="2.34302">
        <ele>41</ele>
        <time>2016-02-01T19:23:03Z</time>
      </trkpt>
      <trkpt lat="48.85615" lon="2.34287">
        <ele>41.400001525879</ele>
        <time>2016-02-01T19:23:07Z</time>
      </trkpt>
      <trkpt lat="48.85599" lon="2.34274">
        <ele>41.400001525879</ele>
        <time>2016-02-01T19:23:11Z</time>
      </trkpt>
      <trkpt lat="48.85582" lon="2.34266">
        <ele>40.79999923706</ele>
        <time>2016-02-01T19:23:16Z</time>
      </trkpt>
      <trkpt lat="48.85589" lon="2.34239">
        <ele>41.400001525879</ele>
        <time>2016-02-01T19:23:22Z</time>
      </trkpt>
      <trkpt lat="48.85599" lon="2.3423">
        <ele>42.79999923706</ele>
        <time>2016-02-01T19:23:25Z</time>
      </trkpt>
      <trkpt lat="48.85603" lon="2.34228">
        <ele>43.400001525879</ele>
        <time>2016-02-01T19:23:26Z</time>
      </trkpt>
      <trkpt lat="48.8562" lon="2.3421">
        <ele>45.20000076294</ele>
        <time>2016-02-01T19:23:31Z</time>
      </trkpt>
      <trkpt lat="48.85624" lon="2.34205">
        <ele>45.599998474121</ele>
        <time>2016-02-01T19:23:32Z</time>
      </trkpt>
      <trkpt lat="48.85641" lon="2.34185">
        <ele>47.20000076294</ele>
        <time>2016-02-01T19:23:36Z</time>
      </trkpt>
      <trkpt lat="48.85648" lon="2.34174">
        <ele>48.400001525879</ele>
        <time>2016-02-01T19:23:38Z</time>
      </trkpt>
      <trkpt lat="48.85662" lon="2.34154">
        <ele>48.400001525879</ele>
        <time>2016-02-01T19:23:42Z</time>
      </trkpt>
      <trkpt lat="48.85664" lon="2.34149">
        <ele>48</ele>
        <time>2016-02-01T19:23:43Z</time>
      </trkpt>
      <trkpt lat="48.85676" lon="2.34124">
        <ele>44.79999923706</ele>
        <time>2016-02-01T19:23:49Z</time>
      </trkpt>
      <trkpt lat="48.85676" lon="2.3412">
        <ele>44.400001525879</ele>
        <time>2016-02-01T19:23:50Z</time>
      </trkpt>
      <trkpt lat="48.85672" lon="2.34109">
        <ele>43.20000076294</ele>
        <time>2016-02-01T19:23:54Z</time>
      </trkpt>
      <trkpt lat="48.85671" lon="2.34106">
        <ele>43</ele>
        <time>2016-02-01T19:23:55Z</time>
      </trkpt>
      <trkpt lat="48.8566" lon="2.3408">
        <ele>40.400001525879</ele>
        <time>2016-02-01T19:24:04Z</time>
      </trkpt>
      <trkpt lat="48.85645" lon="2.34065">
        <ele>42</ele>
        <time>2016-02-01T19:24:11Z</time>
      </trkpt>
      <trkpt lat="48.85635" lon="2.34043">
        <ele>43.79999923706</ele>
        <time>2016-02-01T19:24:18Z</time>
      </trkpt>
      <trkpt lat="48.85637" lon="2.34036">
        <ele>44.20000076294</ele>
        <time>2016-02-01T19:24:22Z</time>
      </trkpt>
      <trkpt lat="48.85642" lon="2.34017">
        <ele>43</ele>
        <time>2016-02-01T19:24:49Z</time>
      </trkpt>
      <trkpt lat="48.85655" lon="2.3399">
        <ele>39.20000076294</ele>
        <time>2016-02-01T19:24:54Z</time>
      </trkpt>
      <trkpt lat="48.85668" lon="2.33965">
        <ele>37.400001525879</ele>
        <time>2016-02-01T19:24:58Z</time>
      </trkpt>
      <trkpt lat="48.85683" lon="2.33936">
        <ele>38</ele>
        <time>2016-02-01T19:25:02Z</time>
      </trkpt>
      <trkpt lat="48.85694" lon="2.33915">
        <ele>38.20000076294</ele>
        <time>2016-02-01T19:25:05Z</time>
      </trkpt>
      <trkpt lat="48.85705" lon="2.33893">
        <ele>36.79999923706</ele>
        <time>2016-02-01T19:25:08Z</time>
      </trkpt>
      <trkpt lat="48.85718" lon="2.33871">
        <ele>35</ele>
        <time>2016-02-01T19:25:11Z</time>
      </trkpt>
      <trkpt lat="48.85731" lon="2.33847">
        <ele>35.20000076294</ele>
        <time>2016-02-01T19:25:14Z</time>
      </trkpt>
      <trkpt lat="48.85744" lon="2.33822">
        <ele>35.599998474121</ele>
        <time>2016-02-01T19:25:17Z</time>
      </trkpt>
      <trkpt lat="48.85758" lon="2.33797">
        <ele>34.79999923706</ele>
        <time>2016-02-01T19:25:20Z</time>
      </trkpt>
      <trkpt lat="48.85761" lon="2.33788">
        <ele>34.79999923706</ele>
        <time>2016-02-01T19:25:21Z</time>
      </trkpt>
      <trkpt lat="48.85767" lon="2.33759">
        <ele>35.20000076294</ele>
        <time>2016-02-01T19:25:24Z</time>
      </trkpt>
      <trkpt lat="48.85774" lon="2.33727">
        <ele>34.79999923706</ele>
        <time>2016-02-01T19:25:28Z</time>
      </trkpt>
      <trkpt lat="48.85778" lon="2.33708">
        <ele>34.599998474121</ele>
        <time>2016-02-01T19:25:31Z</time>
      </trkpt>
      <trkpt lat="48.8578" lon="2.3368">
        <ele>34.400001525879</ele>
        <time>2016-02-01T19:25:35Z</time>
      </trkpt>
      <trkpt lat="48.85785" lon="2.33653">
        <ele>33.20000076294</ele>
        <time>2016-02-01T19:25:39Z</time>
      </trkpt>
      <trkpt lat="48.85787" lon="2.33649">
        <ele>33.20000076294</ele>
        <time>2016-02-01T19:25:40Z</time>
      </trkpt>
      <trkpt lat="48.85777" lon="2.33655">
        <ele>34.599998474121</ele>
        <time>2016-02-01T19:25:49Z</time>
      </trkpt>
      <trkpt lat="48.85776" lon="2.33655">
        <ele>35</ele>
        <time>2016-02-01T19:25:50Z</time>
      </trkpt>
      <trkpt lat="48.85773" lon="2.33657">
        <ele>35.400001525879</ele>
        <time>2016-02-01T19:25:52Z</time>
      </trkpt>
      <trkpt lat="48.85757" lon="2.33649">
        <ele>37.599998474121</ele>
        <time>2016-02-01T19:26:03Z</time>
      </trkpt>
      <trkpt lat="48.85748" lon="2.3365">
        <ele>38.599998474121</ele>
        <time>2016-02-01T19:26:06Z</time>
      </trkpt>
      <trkpt lat="48.85726" lon="2.33658">
        <ele>40.400001525879</ele>
        <time>2016-02-01T19:26:10Z</time>
      </trkpt>
      <trkpt lat="48.85707" lon="2.33664">
        <ele>42</ele>
        <time>2016-02-01T19:26:15Z</time>
      </trkpt>
      <trkpt lat="48.85688" lon="2.33673">
        <ele>44</ele>
        <time>2016-02-01T19:26:22Z</time>
      </trkpt>
      <trkpt lat="48.85668" lon="2.33676">
        <ele>44.79999923706</ele>
        <time>2016-02-01T19:26:27Z</time>
      </trkpt>
      <trkpt lat="48.85661" lon="2.33673">
        <ele>45</ele>
        <time>2016-02-01T19:26:31Z</time>
      </trkpt>
      <trkpt lat="48.85658" lon="2.33645">
        <ele>44.599998474121</ele>
        <time>2016-02-01T19:26:37Z</time>
      </trkpt>
      <trkpt lat="48.8566" lon="2.33613">
        <ele>45.599998474121</ele>
        <time>2016-02-01T19:26:43Z</time>
      </trkpt>
      <trkpt lat="48.85666" lon="2.33588">
        <ele>47.400001525879</ele>
        <time>2016-02-01T19:26:48Z</time>
      </trkpt>
      <trkpt lat="48.85669" lon="2.33558">
        <ele>48.400001525879</ele>
        <time>2016-02-01T19:26:53Z</time>
      </trkpt>
      <trkpt lat="48.85672" lon="2.33528">
        <ele>47.79999923706</ele>
        <time>2016-02-01T19:26:59Z</time>
      </trkpt>
      <trkpt lat="48.8567" lon="2.33491">
        <ele>47</ele>
        <time>2016-02-01T19:27:06Z</time>
      </trkpt>
      <trkpt lat="48.85667" lon="2.33475">
        <ele>46.79999923706</ele>
        <time>2016-02-01T19:27:15Z</time>
      </trkpt>
      <trkpt lat="48.85685" lon="2.33491">
        <ele>46.79999923706</ele>
        <time>2016-02-01T19:27:22Z</time>
      </trkpt>
      <trkpt lat="48.85703" lon="2.33501">
        <ele>46.20000076294</ele>
        <time>2016-02-01T19:27:26Z</time>
      </trkpt>
      <trkpt lat="48.85721" lon="2.33516">
        <ele>45</ele>
        <time>2016-02-01T19:27:31Z</time>
      </trkpt>
      <trkpt lat="48.85741" lon="2.33527">
        <ele>43.79999923706</ele>
        <time>2016-02-01T19:27:37Z</time>
      </trkpt>
      <trkpt lat="48.85758" lon="2.33535">
        <ele>42.79999923706</ele>
        <time>2016-02-01T19:27:43Z</time>
      </trkpt>
      <trkpt lat="48.85777" lon="2.3353">
        <ele>40.79999923706</ele>
        <time>2016-02-01T19:27:49Z</time>
      </trkpt>
      <trkpt lat="48.85782" lon="2.33504">
        <ele>40.400001525879</ele>
        <time>2016-02-01T19:27:55Z</time>
      </trkpt>
      <trkpt lat="48.85788" lon="2.33474">
        <ele>43.20000076294</ele>
        <time>2016-02-01T19:28:00Z</time>
      </trkpt>
      <trkpt lat="48.85796" lon="2.33446">
        <ele>43.599998474121</ele>
        <time>2016-02-01T19:28:04Z</time>
      </trkpt>
      <trkpt lat="48.85805" lon="2.33414">
        <ele>45.20000076294</ele>
        <time>2016-02-01T19:28:08Z</time>
      </trkpt>
      <trkpt lat="48.85812" lon="2.33381">
        <ele>45.79999923706</ele>
        <time>2016-02-01T19:28:12Z</time>
      </trkpt>
      <trkpt lat="48.85821" lon="2.33353">
        <ele>45</ele>
        <time>2016-02-01T19:28:16Z</time>
      </trkpt>
      <trkpt lat="48.85826" lon="2.33326">
        <ele>43.79999923706</ele>
        <time>2016-02-01T19:28:21Z</time>
      </trkpt>
      <trkpt lat="48.85823" lon="2.33307">
        <ele>44.400001525879</ele>
        <time>2016-02-01T19:28:29Z</time>
      </trkpt>
      <trkpt lat="48.85804" lon="2.33293">
        <ele>45.20000076294</ele>
        <time>2016-02-01T19:28:35Z</time>
      </trkpt>
      <trkpt lat="48.85785" lon="2.33283">
        <ele>45.79999923706</ele>
        <time>2016-02-01T19:28:40Z</time>
      </trkpt>
      <trkpt lat="48.8578" lon="2.33275">
        <ele>46.20000076294</ele>
        <time>2016-02-01T19:28:42Z</time>
      </trkpt>
      <trkpt lat="48.85786" lon="2.33247">
        <ele>46.20000076294</ele>
        <time>2016-02-01T19:28:47Z</time>
      </trkpt>
      <trkpt lat="48.85791" lon="2.33232">
        <ele>45.79999923706</ele>
        <time>2016-02-01T19:28:49Z</time>
      </trkpt>
      <trkpt lat="48.85797" lon="2.33201">
        <ele>45</ele>
        <time>2016-02-01T19:28:53Z</time>
      </trkpt>
      <trkpt lat="48.85804" lon="2.33174">
        <ele>45</ele>
        <time>2016-02-01T19:28:57Z</time>
      </trkpt>
      <trkpt lat="48.85811" lon="2.33148">
        <ele>44.79999923706</ele>
        <time>2016-02-01T19:29:01Z</time>
      </trkpt>
      <trkpt lat="48.85814" lon="2.33143">
        <ele>44.79999923706</ele>
        <time>2016-02-01T19:29:02Z</time>
      </trkpt>
      <trkpt lat="48.85826" lon="2.33116">
        <ele>45.20000076294</ele>
        <time>2016-02-01T19:29:07Z</time>
      </trkpt>
      <trkpt lat="48.85829" lon="2.33111">
        <ele>45.599998474121</ele>
        <time>2016-02-01T19:29:08Z</time>
      </trkpt>
      <trkpt lat="48.85834" lon="2.331">
        <ele>46.20000076294</ele>
        <time>2016-02-01T19:29:13Z</time>
      </trkpt>
      <trkpt lat="48.85829" lon="2.33101">
        <ele>46</ele>
        <time>2016-02-01T19:29:17Z</time>
      </trkpt>
      <trkpt lat="48.85814" lon="2.33086">
        <ele>46.20000076294</ele>
        <time>2016-02-01T19:29:27Z</time>
      </trkpt>
      <trkpt lat="48.85791" lon="2.33071">
        <ele>45.79999923706</ele>
        <time>2016-02-01T19:29:30Z</time>
      </trkpt>
      <trkpt lat="48.85777" lon="2.33064">
        <ele>45.400001525879</ele>
        <time>2016-02-01T19:29:32Z</time>
      </trkpt>
      <trkpt lat="48.85777" lon="2.33032">
        <ele>45.79999923706</ele>
        <time>2016-02-01T19:29:37Z</time>
      </trkpt>
      <trkpt lat="48.85781" lon="2.3302">
        <ele>46</ele>
        <time>2016-02-01T19:29:39Z</time>
      </trkpt>
      <trkpt lat="48.85791" lon="2.32994">
        <ele>46.400001525879</ele>
        <time>2016-02-01T19:29:43Z</time>
      </trkpt>
      <trkpt lat="48.858" lon="2.32968">
        <ele>46.20000076294</ele>
        <time>2016-02-01T19:29:47Z</time>
      </trkpt>
      <trkpt lat="48.85807" lon="2.32953">
        <ele>46.20000076294</ele>
        <time>2016-02-01T19:29:51Z</time>
      </trkpt>
      <trkpt lat="48.85813" lon="2.3294">
        <ele>46.20000076294</ele>
        <time>2016-02-01T19:29:55Z</time>
      </trkpt>
      <trkpt lat="48.85826" lon="2.32918">
        <ele>45.79999923706</ele>
        <time>2016-02-01T19:30:01Z</time>
      </trkpt>
      <trkpt lat="48.8583" lon="2.32885">
        <ele>45.599998474121</ele>
        <time>2016-02-01T19:30:06Z</time>
      </trkpt>
      <trkpt lat="48.85838" lon="2.32857">
        <ele>45.400001525879</ele>
        <time>2016-02-01T19:30:11Z</time>
      </trkpt>
      <trkpt lat="48.85827" lon="2.3283">
        <ele>45</ele>
        <time>2016-02-01T19:30:19Z</time>
      </trkpt>
      <trkpt lat="48.85808" lon="2.32816">
        <ele>45</ele>
        <time>2016-02-01T19:30:22Z</time>
      </trkpt>
      <trkpt lat="48.85786" lon="2.32805">
        <ele>45</ele>
        <time>2016-02-01T19:30:26Z</time>
      </trkpt>
      <trkpt lat="48.85786" lon="2.32799">
        <ele>45</ele>
        <time>2016-02-01T19:30:27Z</time>
      </trkpt>
      <trkpt lat="48.85789" lon="2.32769">
        <ele>45</ele>
        <time>2016-02-01T19:30:32Z</time>
      </trkpt>
      <trkpt lat="48.85794" lon="2.32742">
        <ele>45.599998474121</ele>
        <time>2016-02-01T19:30:36Z</time>
      </trkpt>
      <trkpt lat="48.85802" lon="2.32716">
        <ele>45.400001525879</ele>
        <time>2016-02-01T19:30:40Z</time>
      </trkpt>
      <trkpt lat="48.85815" lon="2.32692">
        <ele>45</ele>
        <time>2016-02-01T19:30:44Z</time>
      </trkpt>
      <trkpt lat="48.85821" lon="2.32679">
        <ele>44.79999923706</ele>
        <time>2016-02-01T19:30:46Z</time>
      </trkpt>
      <trkpt lat="48.85833" lon="2.32653">
        <ele>43.79999923706</ele>
        <time>2016-02-01T19:30:50Z</time>
      </trkpt>
      <trkpt lat="48.85844" lon="2.32625">
        <ele>42.79999923706</ele>
        <time>2016-02-01T19:30:54Z</time>
      </trkpt>
      <trkpt lat="48.85853" lon="2.32598">
        <ele>41.79999923706</ele>
        <time>2016-02-01T19:30:58Z</time>
      </trkpt>
      <trkpt lat="48.85865" lon="2.32574">
        <ele>41.400001525879</ele>
        <time>2016-02-01T19:31:02Z</time>
      </trkpt>
      <trkpt lat="48.85877" lon="2.32545">
        <ele>42.400001525879</ele>
        <time>2016-02-01T19:31:07Z</time>
      </trkpt>
      <trkpt lat="48.85885" lon="2.32521">
        <ele>43</ele>
        <time>2016-02-01T19:31:11Z</time>
      </trkpt>
      <trkpt lat="48.8589" lon="2.32495">
        <ele>42.599998474121</ele>
        <time>2016-02-01T19:31:15Z</time>
      </trkpt>
      <trkpt lat="48.8589" lon="2.32483">
        <ele>43</ele>
        <time>2016-02-01T19:31:17Z</time>
      </trkpt>
      <trkpt lat="48.85881" lon="2.32456">
        <ele>44.20000076294</ele>
        <time>2016-02-01T19:31:22Z</time>
      </trkpt>
      <trkpt lat="48.8587" lon="2.32433">
        <ele>45.20000076294</ele>
        <time>2016-02-01T19:31:26Z</time>
      </trkpt>
      <trkpt lat="48.85857" lon="2.3241">
        <ele>45.79999923706</ele>
        <time>2016-02-01T19:31:30Z</time>
      </trkpt>
      <trkpt lat="48.85842" lon="2.32389">
        <ele>44.79999923706</ele>
        <time>2016-02-01T19:31:35Z</time>
      </trkpt>
      <trkpt lat="48.85837" lon="2.32384">
        <ele>44.599998474121</ele>
        <time>2016-02-01T19:31:38Z</time>
      </trkpt>
      <trkpt lat="48.85829" lon="2.32381">
        <ele>44</ele>
        <time>2016-02-01T19:31:41Z</time>
      </trkpt>
      <trkpt lat="48.85825" lon="2.32377">
        <ele>43.79999923706</ele>
        <time>2016-02-01T19:31:44Z</time>
      </trkpt>
      <trkpt lat="48.85821" lon="2.32375">
        <ele>43.400001525879</ele>
        <time>2016-02-01T19:31:47Z</time>
      </trkpt>
      <trkpt lat="48.8582" lon="2.32358">
        <ele>43.20000076294</ele>
        <time>2016-02-01T19:32:07Z</time>
      </trkpt>
      <trkpt lat="48.85809" lon="2.3234">
        <ele>42.400001525879</ele>
        <time>2016-02-01T19:32:17Z</time>
      </trkpt>
      <trkpt lat="48.85817" lon="2.32313">
        <ele>42.79999923706</ele>
        <time>2016-02-01T19:32:24Z</time>
      </trkpt>
      <trkpt lat="48.85829" lon="2.32297">
        <ele>43.599998474121</ele>
        <time>2016-02-01T19:32:32Z</time>
      </trkpt>
      <trkpt lat="48.85826" lon="2.32292">
        <ele>43.599998474121</ele>
        <time>2016-02-01T19:32:36Z</time>
      </trkpt>
      <trkpt lat="48.85826" lon="2.32288">
        <ele>43.599998474121</ele>
        <time>2016-02-01T19:32:38Z</time>
      </trkpt>
      <trkpt lat="48.85807" lon="2.32272">
        <ele>42.599998474121</ele>
        <time>2016-02-01T19:32:49Z</time>
      </trkpt>
      <trkpt lat="48.85793" lon="2.32256">
        <ele>42</ele>
        <time>2016-02-01T19:32:53Z</time>
      </trkpt>
      <trkpt lat="48.85774" lon="2.32243">
        <ele>41.20000076294</ele>
        <time>2016-02-01T19:32:57Z</time>
      </trkpt>
      <trkpt lat="48.85761" lon="2.32231">
        <ele>41.400001525879</ele>
        <time>2016-02-01T19:33:00Z</time>
      </trkpt>
      <trkpt lat="48.85744" lon="2.32209">
        <ele>41.79999923706</ele>
        <time>2016-02-01T19:33:04Z</time>
      </trkpt>
      <trkpt lat="48.85728" lon="2.32196">
        <ele>42.20000076294</ele>
        <time>2016-02-01T19:33:07Z</time>
      </trkpt>
      <trkpt lat="48.85713" lon="2.32181">
        <ele>42.599998474121</ele>
        <time>2016-02-01T19:33:10Z</time>
      </trkpt>
      <trkpt lat="48.85692" lon="2.32162">
        <ele>43</ele>
        <time>2016-02-01T19:33:13Z</time>
      </trkpt>
      <trkpt lat="48.85674" lon="2.32147">
        <ele>44</ele>
        <time>2016-02-01T19:33:16Z</time>
      </trkpt>
      <trkpt lat="48.85654" lon="2.32132">
        <ele>45</ele>
        <time>2016-02-01T19:33:20Z</time>
      </trkpt>
      <trkpt lat="48.85651" lon="2.32126">
        <ele>45.20000076294</ele>
        <time>2016-02-01T19:33:22Z</time>
      </trkpt>
      <trkpt lat="48.85654" lon="2.32102">
        <ele>46</ele>
        <time>2016-02-01T19:33:34Z</time>
      </trkpt>
      <trkpt lat="48.85665" lon="2.32078">
        <ele>46.599998474121</ele>
        <time>2016-02-01T19:33:38Z</time>
      </trkpt>
      <trkpt lat="48.85674" lon="2.32051">
        <ele>45.79999923706</ele>
        <time>2016-02-01T19:33:42Z</time>
      </trkpt>
      <trkpt lat="48.85684" lon="2.32021">
        <ele>44.79999923706</ele>
        <time>2016-02-01T19:33:46Z</time>
      </trkpt>
      <trkpt lat="48.85694" lon="2.31989">
        <ele>44.20000076294</ele>
        <time>2016-02-01T19:33:50Z</time>
      </trkpt>
      <trkpt lat="48.85705" lon="2.31964">
        <ele>44.79999923706</ele>
        <time>2016-02-01T19:33:53Z</time>
      </trkpt>
      <trkpt lat="48.85712" lon="2.31938">
        <ele>45.599998474121</ele>
        <time>2016-02-01T19:33:56Z</time>
      </trkpt>
      <trkpt lat="48.8572" lon="2.31912">
        <ele>45.599998474121</ele>
        <time>2016-02-01T19:33:59Z</time>
      </trkpt>
      <trkpt lat="48.8573" lon="2.31887">
        <ele>45.599998474121</ele>
        <time>2016-02-01T19:34:03Z</time>
      </trkpt>
      <trkpt lat="48.85739" lon="2.31865">
        <ele>46.20000076294</ele>
        <time>2016-02-01T19:34:07Z</time>
      </trkpt>
      <trkpt lat="48.85749" lon="2.31836">
        <ele>47.20000076294</ele>
        <time>2016-02-01T19:34:12Z</time>
      </trkpt>
      <trkpt lat="48.85753" lon="2.31826">
        <ele>47.400001525879</ele>
        <time>2016-02-01T19:34:14Z</time>
      </trkpt>
      <trkpt lat="48.85765" lon="2.318">
        <ele>46.599998474121</ele>
        <time>2016-02-01T19:34:19Z</time>
      </trkpt>
      <trkpt lat="48.85773" lon="2.31772">
        <ele>45.599998474121</ele>
        <time>2016-02-01T19:34:24Z</time>
      </trkpt>
      <trkpt lat="48.85775" lon="2.31764">
        <ele>45.400001525879</ele>
        <time>2016-02-01T19:34:26Z</time>
      </trkpt>
      <trkpt lat="48.85775" lon="2.31733">
        <ele>44.400001525879</ele>
        <time>2016-02-01T19:34:41Z</time>
      </trkpt>
      <trkpt lat="48.85782" lon="2.31699">
        <ele>43</ele>
        <time>2016-02-01T19:34:45Z</time>
      </trkpt>
      <trkpt lat="48.8579" lon="2.31673">
        <ele>41.79999923706</ele>
        <time>2016-02-01T19:34:48Z</time>
      </trkpt>
      <trkpt lat="48.85796" lon="2.31643">
        <ele>40.599998474121</ele>
        <time>2016-02-01T19:34:51Z</time>
      </trkpt>
      <trkpt lat="48.858" lon="2.31612">
        <ele>39.79999923706</ele>
        <time>2016-02-01T19:34:54Z</time>
      </trkpt>
      <trkpt lat="48.85804" lon="2.31584">
        <ele>39.599998474121</ele>
        <time>2016-02-01T19:34:57Z</time>
      </trkpt>
      <trkpt lat="48.85809" lon="2.31549">
        <ele>38</ele>
        <time>2016-02-01T19:35:01Z</time>
      </trkpt>
      <trkpt lat="48.85809" lon="2.31541">
        <ele>37.599998474121</ele>
        <time>2016-02-01T19:35:02Z</time>
      </trkpt>
      <trkpt lat="48.85811" lon="2.31513">
        <ele>37</ele>
        <time>2016-02-01T19:35:06Z</time>
      </trkpt>
      <trkpt lat="48.85814" lon="2.31486">
        <ele>36.79999923706</ele>
        <time>2016-02-01T19:35:11Z</time>
      </trkpt>
      <trkpt lat="48.85819" lon="2.31468">
        <ele>36.79999923706</ele>
        <time>2016-02-01T19:35:15Z</time>
      </trkpt>
      <trkpt lat="48.85835" lon="2.31447">
        <ele>37.20000076294</ele>
        <time>2016-02-01T19:35:20Z</time>
      </trkpt>
      <trkpt lat="48.85834" lon="2.31441">
        <ele>37.20000076294</ele>
        <time>2016-02-01T19:35:21Z</time>
      </trkpt>
      <trkpt lat="48.85836" lon="2.31415">
        <ele>37.20000076294</ele>
        <time>2016-02-01T19:35:24Z</time>
      </trkpt>
      <trkpt lat="48.85838" lon="2.31386">
        <ele>35.20000076294</ele>
        <time>2016-02-01T19:35:28Z</time>
      </trkpt>
      <trkpt lat="48.85839" lon="2.31363">
        <ele>34</ele>
        <time>2016-02-01T19:35:32Z</time>
      </trkpt>
      <trkpt lat="48.85855" lon="2.31342">
        <ele>33.599998474121</ele>
        <time>2016-02-01T19:35:37Z</time>
      </trkpt>
      <trkpt lat="48.85859" lon="2.31337">
        <ele>33.20000076294</ele>
        <time>2016-02-01T19:35:38Z</time>
      </trkpt>
      <trkpt lat="48.85875" lon="2.31312">
        <ele>31.39999961853</ele>
        <time>2016-02-01T19:35:42Z</time>
      </trkpt>
      <trkpt lat="48.85876" lon="2.31279">
        <ele>31</ele>
        <time>2016-02-01T19:35:46Z</time>
      </trkpt>
      <trkpt lat="48.85863" lon="2.31251">
        <ele>31.60000038147</ele>
        <time>2016-02-01T19:35:50Z</time>
      </trkpt>
      <trkpt lat="48.85859" lon="2.31246">
        <ele>32</ele>
        <time>2016-02-01T19:35:51Z</time>
      </trkpt>
      <trkpt lat="48.85852" lon="2.31233">
        <ele>33</ele>
        <time>2016-02-01T19:35:53Z</time>
      </trkpt>
      <trkpt lat="48.85848" lon="2.31202">
        <ele>35</ele>
        <time>2016-02-01T19:35:57Z</time>
      </trkpt>
      <trkpt lat="48.85847" lon="2.31171">
        <ele>36.79999923706</ele>
        <time>2016-02-01T19:36:01Z</time>
      </trkpt>
      <trkpt lat="48.85846" lon="2.31143">
        <ele>38.400001525879</ele>
        <time>2016-02-01T19:36:05Z</time>
      </trkpt>
      <trkpt lat="48.85841" lon="2.3113">
        <ele>39.20000076294</ele>
        <time>2016-02-01T19:36:09Z</time>
      </trkpt>
      <trkpt lat="48.85825" lon="2.3111">
        <ele>40.400001525879</ele>
        <time>2016-02-01T19:36:13Z</time>
      </trkpt>
      <trkpt lat="48.85819" lon="2.31081">
        <ele>42.599998474121</ele>
        <time>2016-02-01T19:36:18Z</time>
      </trkpt>
      <trkpt lat="48.85818" lon="2.31075">
        <ele>42.599998474121</ele>
        <time>2016-02-01T19:36:19Z</time>
      </trkpt>
      <trkpt lat="48.85815" lon="2.31057">
        <ele>42.79999923706</ele>
        <time>2016-02-01T19:36:22Z</time>
      </trkpt>
      <trkpt lat="48.85813" lon="2.3103">
        <ele>43</ele>
        <time>2016-02-01T19:36:27Z</time>
      </trkpt>
      <trkpt lat="48.85809" lon="2.31">
        <ele>43.400001525879</ele>
        <time>2016-02-01T19:36:32Z</time>
      </trkpt>
      <trkpt lat="48.85809" lon="2.30976">
        <ele>44.400001525879</ele>
        <time>2016-02-01T19:36:36Z</time>
      </trkpt>
      <trkpt lat="48.85809" lon="2.30969">
        <ele>44.79999923706</ele>
        <time>2016-02-01T19:36:37Z</time>
      </trkpt>
      <trkpt lat="48.85808" lon="2.3094">
        <ele>46</ele>
        <time>2016-02-01T19:36:41Z</time>
      </trkpt>
      <trkpt lat="48.85806" lon="2.30908">
        <ele>46.599998474121</ele>
        <time>2016-02-01T19:36:45Z</time>
      </trkpt>
      <trkpt lat="48.85806" lon="2.30899">
        <ele>46.599998474121</ele>
        <time>2016-02-01T19:36:46Z</time>
      </trkpt>
      <trkpt lat="48.85806" lon="2.30864">
        <ele>46.599998474121</ele>
        <time>2016-02-01T19:36:50Z</time>
      </trkpt>
      <trkpt lat="48.85808" lon="2.30831">
        <ele>45.400001525879</ele>
        <time>2016-02-01T19:36:53Z</time>
      </trkpt>
      <trkpt lat="48.85807" lon="2.30807">
        <ele>44.599998474121</ele>
        <time>2016-02-01T19:36:56Z</time>
      </trkpt>
      <trkpt lat="48.85804" lon="2.30778">
        <ele>43.599998474121</ele>
        <time>2016-02-01T19:36:59Z</time>
      </trkpt>
      <trkpt lat="48.85803" lon="2.30768">
        <ele>43.599998474121</ele>
        <time>2016-02-01T19:37:00Z</time>
      </trkpt>
      <trkpt lat="48.85801" lon="2.30739">
        <ele>43.599998474121</ele>
        <time>2016-02-01T19:37:03Z</time>
      </trkpt>
      <trkpt lat="48.85797" lon="2.30709">
        <ele>43.79999923706</ele>
        <time>2016-02-01T19:37:06Z</time>
      </trkpt>
      <trkpt lat="48.85789" lon="2.30682">
        <ele>43.79999923706</ele>
        <time>2016-02-01T19:37:09Z</time>
      </trkpt>
      <trkpt lat="48.85782" lon="2.30656">
        <ele>43.79999923706</ele>
        <time>2016-02-01T19:37:12Z</time>
      </trkpt>
      <trkpt lat="48.85775" lon="2.30629">
        <ele>44</ele>
        <time>2016-02-01T19:37:15Z</time>
      </trkpt>
      <trkpt lat="48.85771" lon="2.3062">
        <ele>44</ele>
        <time>2016-02-01T19:37:16Z</time>
      </trkpt>
      <trkpt lat="48.85764" lon="2.30593">
        <ele>44.400001525879</ele>
        <time>2016-02-01T19:37:19Z</time>
      </trkpt>
      <trkpt lat="48.85752" lon="2.30565">
        <ele>44.599998474121</ele>
        <time>2016-02-01T19:37:23Z</time>
      </trkpt>
      <trkpt lat="48.85744" lon="2.30538">
        <ele>44.599998474121</ele>
        <time>2016-02-01T19:37:27Z</time>
      </trkpt>
      <trkpt lat="48.85735" lon="2.30513">
        <ele>44.79999923706</ele>
        <time>2016-02-01T19:37:31Z</time>
      </trkpt>
      <trkpt lat="48.85729" lon="2.30484">
        <ele>45.20000076294</ele>
        <time>2016-02-01T19:37:36Z</time>
      </trkpt>
      <trkpt lat="48.85723" lon="2.30455">
        <ele>45.599998474121</ele>
        <time>2016-02-01T19:37:44Z</time>
      </trkpt>
      <trkpt lat="48.85724" lon="2.30448">
        <ele>45.79999923706</ele>
        <time>2016-02-01T19:37:46Z</time>
      </trkpt>
      <trkpt lat="48.85723" lon="2.30436">
        <ele>45.599998474121</ele>
        <time>2016-02-01T19:37:52Z</time>
      </trkpt>
      <trkpt lat="48.85722" lon="2.30434">
        <ele>45.599998474121</ele>
        <time>2016-02-01T19:37:53Z</time>
      </trkpt>
      <trkpt lat="48.85714" lon="2.30425">
        <ele>46</ele>
        <time>2016-02-01T19:37:58Z</time>
      </trkpt>
      <trkpt lat="48.85712" lon="2.30423">
        <ele>46</ele>
        <time>2016-02-01T19:38:00Z</time>
      </trkpt>
      <trkpt lat="48.85704" lon="2.30407">
        <ele>46.20000076294</ele>
        <time>2016-02-01T19:38:04Z</time>
      </trkpt>
      <trkpt lat="48.85698" lon="2.30379">
        <ele>46.599998474121</ele>
        <time>2016-02-01T19:38:09Z</time>
      </trkpt>
      <trkpt lat="48.85686" lon="2.30351">
        <ele>47</ele>
        <time>2016-02-01T19:38:14Z</time>
      </trkpt>
      <trkpt lat="48.85671" lon="2.30329">
        <ele>47.20000076294</ele>
        <time>2016-02-01T19:38:18Z</time>
      </trkpt>
      <trkpt lat="48.85655" lon="2.30309">
        <ele>47.400001525879</ele>
        <time>2016-02-01T19:38:22Z</time>
      </trkpt>
      <trkpt lat="48.8564" lon="2.30286">
        <ele>47.599998474121</ele>
        <time>2016-02-01T19:38:27Z</time>
      </trkpt>
      <trkpt lat="48.85627" lon="2.30268">
        <ele>47.79999923706</ele>
        <time>2016-02-01T19:38:31Z</time>
      </trkpt>
      <trkpt lat="48.85612" lon="2.30247">
        <ele>47.79999923706</ele>
        <time>2016-02-01T19:38:36Z</time>
      </trkpt>
      <trkpt lat="48.85607" lon="2.30237">
        <ele>47.79999923706</ele>
        <time>2016-02-01T19:38:38Z</time>
      </trkpt>
      <trkpt lat="48.85593" lon="2.30214">
        <ele>47.20000076294</ele>
        <time>2016-02-01T19:38:44Z</time>
      </trkpt>
      <trkpt lat="48.85582" lon="2.30197">
        <ele>46.599998474121</ele>
        <time>2016-02-01T19:38:48Z</time>
      </trkpt>
      <trkpt lat="48.85566" lon="2.30176">
        <ele>45.79999923706</ele>
        <time>2016-02-01T19:38:53Z</time>
      </trkpt>
      <trkpt lat="48.85555" lon="2.30155">
        <ele>45</ele>
        <time>2016-02-01T19:38:58Z</time>
      </trkpt>
      <trkpt lat="48.85549" lon="2.3014">
        <ele>44.400001525879</ele>
        <time>2016-02-01T19:39:03Z</time>
      </trkpt>
      <trkpt lat="48.85545" lon="2.30135">
        <ele>44.20000076294</ele>
        <time>2016-02-01T19:39:06Z</time>
      </trkpt>
      <trkpt lat="48.85536" lon="2.30127">
        <ele>43.599998474121</ele>
        <time>2016-02-01T19:39:11Z</time>
      </trkpt>
      <trkpt lat="48.85525" lon="2.30102">
        <ele>42.599998474121</ele>
        <time>2016-02-01T19:39:18Z</time>
      </trkpt>
      <trkpt lat="48.8551" lon="2.30085">
        <ele>41.20000076294</ele>
        <time>2016-02-01T19:39:24Z</time>
      </trkpt>
      <trkpt lat="48.85496" lon="2.30065">
        <ele>40.400001525879</ele>
        <time>2016-02-01T19:39:30Z</time>
      </trkpt>
      <trkpt lat="48.85481" lon="2.30045">
        <ele>39.79999923706</ele>
        <time>2016-02-01T19:39:35Z</time>
      </trkpt>
      <trkpt lat="48.85466" lon="2.30023">
        <ele>39.20000076294</ele>
        <time>2016-02-01T19:39:40Z</time>
      </trkpt>
      <trkpt lat="48.85453" lon="2.30001">
        <ele>38.20000076294</ele>
        <time>2016-02-01T19:39:46Z</time>
      </trkpt>
      <trkpt lat="48.85439" lon="2.29979">
        <ele>37.599998474121</ele>
        <time>2016-02-01T19:39:52Z</time>
      </trkpt>
      <trkpt lat="48.85427" lon="2.29958">
        <ele>38.400001525879</ele>
        <time>2016-02-01T19:39:58Z</time>
      </trkpt>
      <trkpt lat="48.85416" lon="2.29933">
        <ele>39</ele>
        <time>2016-02-01T19:40:06Z</time>
      </trkpt>
      <trkpt lat="48.854" lon="2.29913">
        <ele>40.20000076294</ele>
        <time>2016-02-01T19:40:11Z</time>
      </trkpt>
      <trkpt lat="48.85386" lon="2.29894">
        <ele>42.599998474121</ele>
        <time>2016-02-01T19:40:19Z</time>
      </trkpt>
      <trkpt lat="48.85381" lon="2.29892">
        <ele>43</ele>
        <time>2016-02-01T19:40:22Z</time>
      </trkpt>
      <trkpt lat="48.85376" lon="2.29883">
        <ele>43.79999923706</ele>
        <time>2016-02-01T19:40:26Z</time>
      </trkpt>
      <trkpt lat="48.85365" lon="2.2986">
        <ele>46</ele>
        <time>2016-02-01T19:40:36Z</time>
      </trkpt>
      <trkpt lat="48.85363" lon="2.29851">
        <ele>46.599998474121</ele>
        <time>2016-02-01T19:40:43Z</time>
      </trkpt>
      <trkpt lat="48.85348" lon="2.29837">
        <ele>47.20000076294</ele>
        <time>2016-02-01T19:40:54Z</time>
      </trkpt>
      <trkpt lat="48.85332" lon="2.29817">
        <ele>45.599998474121</ele>
        <time>2016-02-01T19:41:01Z</time>
      </trkpt>
      <trkpt lat="48.85331" lon="2.29814">
        <ele>45.400001525879</ele>
        <time>2016-02-01T19:41:02Z</time>
      </trkpt>
      <trkpt lat="48.85328" lon="2.29805">
        <ele>44.599998474121</ele>
        <time>2016-02-01T19:41:07Z</time>
      </trkpt>
      <trkpt lat="48.85333" lon="2.29788">
        <ele>45</ele>
        <time>2016-02-01T19:41:13Z</time>
      </trkpt>
      <trkpt lat="48.85344" lon="2.29762">
        <ele>46.400001525879</ele>
        <time>2016-02-01T19:41:18Z</time>
      </trkpt>
      <trkpt lat="48.85345" lon="2.29741">
        <ele>46.599998474121</ele>
        <time>2016-02-01T19:41:23Z</time>
      </trkpt>
      <trkpt lat="48.85327" lon="2.29727">
        <ele>44.400001525879</ele>
        <time>2016-02-01T19:41:29Z</time>
      </trkpt>
      <trkpt lat="48.85309" lon="2.29717">
        <ele>42.20000076294</ele>
        <time>2016-02-01T19:41:36Z</time>
      </trkpt>
      <trkpt lat="48.85293" lon="2.29702">
        <ele>40.20000076294</ele>
        <time>2016-02-01T19:41:45Z</time>
      </trkpt>
      <trkpt lat="48.85275" lon="2.29692">
        <ele>38</ele>
        <time>2016-02-01T19:41:51Z</time>
      </trkpt>
      <trkpt lat="48.85256" lon="2.29681">
        <ele>38.20000076294</ele>
        <time>2016-02-01T19:41:57Z</time>
      </trkpt>
      <trkpt lat="48.85242" lon="2.29664">
        <ele>38.79999923706</ele>
        <time>2016-02-01T19:42:03Z</time>
      </trkpt>
      <trkpt lat="48.85224" lon="2.29649">
        <ele>39.599998474121</ele>
        <time>2016-02-01T19:42:10Z</time>
      </trkpt>
      <trkpt lat="48.85205" lon="2.2963">
        <ele>40.79999923706</ele>
        <time>2016-02-01T19:42:14Z</time>
      </trkpt>
      <trkpt lat="48.85187" lon="2.2961">
        <ele>41.79999923706</ele>
        <time>2016-02-01T19:42:18Z</time>
      </trkpt>
      <trkpt lat="48.85169" lon="2.29592">
        <ele>42</ele>
        <time>2016-02-01T19:42:23Z</time>
      </trkpt>
      <trkpt lat="48.85156" lon="2.29572">
        <ele>42.20000076294</ele>
        <time>2016-02-01T19:42:29Z</time>
      </trkpt>
      <trkpt lat="48.85143" lon="2.29552">
        <ele>41.79999923706</ele>
        <time>2016-02-01T19:42:36Z</time>
      </trkpt>
      <trkpt lat="48.85129" lon="2.2953">
        <ele>41.599998474121</ele>
        <time>2016-02-01T19:42:43Z</time>
      </trkpt>
      <trkpt lat="48.85118" lon="2.29506">
        <ele>41.20000076294</ele>
        <time>2016-02-01T19:42:52Z</time>
      </trkpt>
      <trkpt lat="48.85106" lon="2.29481">
        <ele>41.400001525879</ele>
        <time>2016-02-01T19:43:02Z</time>
      </trkpt>
      <trkpt lat="48.85091" lon="2.29465">
        <ele>41.400001525879</ele>
        <time>2016-02-01T19:43:07Z</time>
      </trkpt>
      <trkpt lat="48.85075" lon="2.2945">
        <ele>41.400001525879</ele>
        <time>2016-02-01T19:43:12Z</time>
      </trkpt>
      <trkpt lat="48.85061" lon="2.29431">
        <ele>41.599998474121</ele>
        <time>2016-02-01T19:43:18Z</time>
      </trkpt>
      <trkpt lat="48.8505" lon="2.29418">
        <ele>41.599998474121</ele>
        <time>2016-02-01T19:43:27Z</time>
      </trkpt>
      <trkpt lat="48.85055" lon="2.29394">
        <ele>41.599998474121</ele>
        <time>2016-02-01T19:43:41Z</time>
      </trkpt>
      <trkpt lat="48.85055" lon="2.29366">
        <ele>41.20000076294</ele>
        <time>2016-02-01T19:43:50Z</time>
      </trkpt>
      <trkpt lat="48.85057" lon="2.2935">
        <ele>41</ele>
        <time>2016-02-01T19:43:54Z</time>
      </trkpt>
      <trkpt lat="48.85062" lon="2.2933">
        <ele>41</ele>
        <time>2016-02-01T19:44:02Z</time>
      </trkpt>
      <trkpt lat="48.85077" lon="2.29308">
        <ele>41</ele>
        <time>2016-02-01T19:44:06Z</time>
      </trkpt>
      <trkpt lat="48.85086" lon="2.29282">
        <ele>40.20000076294</ele>
        <time>2016-02-01T19:44:11Z</time>
      </trkpt>
      <trkpt lat="48.8509" lon="2.29254">
        <ele>39.20000076294</ele>
        <time>2016-02-01T19:44:18Z</time>
      </trkpt>
      <trkpt lat="48.85089" lon="2.29246">
        <ele>39</ele>
        <time>2016-02-01T19:44:21Z</time>
      </trkpt>
      <trkpt lat="48.85076" lon="2.29225">
        <ele>39.20000076294</ele>
        <time>2016-02-01T19:44:28Z</time>
      </trkpt>
      <trkpt lat="48.85057" lon="2.29213">
        <ele>39.400001525879</ele>
        <time>2016-02-01T19:44:33Z</time>
      </trkpt>
      <trkpt lat="48.85039" lon="2.29206">
        <ele>39.400001525879</ele>
        <time>2016-02-01T19:44:37Z</time>
      </trkpt>
      <trkpt lat="48.85022" lon="2.29195">
        <ele>39.599998474121</ele>
        <time>2016-02-01T19:44:41Z</time>
      </trkpt>
      <trkpt lat="48.85005" lon="2.29184">
        <ele>39.599998474121</ele>
        <time>2016-02-01T19:44:45Z</time>
      </trkpt>
      <trkpt lat="48.84983" lon="2.29172">
        <ele>39.400001525879</ele>
        <time>2016-02-01T19:44:50Z</time>
      </trkpt>
      <trkpt lat="48.84966" lon="2.29158">
        <ele>39.400001525879</ele>
        <time>2016-02-01T19:44:54Z</time>
      </trkpt>
      <trkpt lat="48.84951" lon="2.29145">
        <ele>39.20000076294</ele>
        <time>2016-02-01T19:44:58Z</time>
      </trkpt>
      <trkpt lat="48.84933" lon="2.29129">
        <ele>39</ele>
        <time>2016-02-01T19:45:03Z</time>
      </trkpt>
      <trkpt lat="48.84915" lon="2.29117">
        <ele>39</ele>
        <time>2016-02-01T19:45:07Z</time>
      </trkpt>
      <trkpt lat="48.84898" lon="2.29101">
        <ele>39</ele>
        <time>2016-02-01T19:45:12Z</time>
      </trkpt>
      <trkpt lat="48.84882" lon="2.29085">
        <ele>39</ele>
        <time>2016-02-01T19:45:17Z</time>
      </trkpt>
      <trkpt lat="48.84865" lon="2.29069">
        <ele>39.400001525879</ele>
        <time>2016-02-01T19:45:22Z</time>
      </trkpt>
      <trkpt lat="48.84848" lon="2.29055">
        <ele>39.79999923706</ele>
        <time>2016-02-01T19:45:27Z</time>
      </trkpt>
      <trkpt lat="48.8483" lon="2.29044">
        <ele>40.20000076294</ele>
        <time>2016-02-01T19:45:33Z</time>
      </trkpt>
      <trkpt lat="48.84814" lon="2.2903">
        <ele>40.79999923706</ele>
        <time>2016-02-01T19:45:38Z</time>
      </trkpt>
      <trkpt lat="48.84795" lon="2.29015">
        <ele>41.400001525879</ele>
        <time>2016-02-01T19:45:43Z</time>
      </trkpt>
      <trkpt lat="48.84775" lon="2.29003">
        <ele>41.79999923706</ele>
        <time>2016-02-01T19:45:49Z</time>
      </trkpt>
      <trkpt lat="48.84756" lon="2.28992">
        <ele>41.79999923706</ele>
        <time>2016-02-01T19:45:54Z</time>
      </trkpt>
      <trkpt lat="48.84737" lon="2.28971">
        <ele>41.79999923706</ele>
        <time>2016-02-01T19:45:59Z</time>
      </trkpt>
      <trkpt lat="48.8472" lon="2.28948">
        <ele>42</ele>
        <time>2016-02-01T19:46:03Z</time>
      </trkpt>
      <trkpt lat="48.84706" lon="2.2893">
        <ele>42</ele>
        <time>2016-02-01T19:46:06Z</time>
      </trkpt>
      <trkpt lat="48.84699" lon="2.28919">
        <ele>42</ele>
        <time>2016-02-01T19:46:08Z</time>
      </trkpt>
      <trkpt lat="48.84689" lon="2.289">
        <ele>41.79999923706</ele>
        <time>2016-02-01T19:46:11Z</time>
      </trkpt>
      <trkpt lat="48.84675" lon="2.28883">
        <ele>41.400001525879</ele>
        <time>2016-02-01T19:46:15Z</time>
      </trkpt>
      <trkpt lat="48.8467" lon="2.2888">
        <ele>41.20000076294</ele>
        <time>2016-02-01T19:46:16Z</time>
      </trkpt>
      <trkpt lat="48.8466" lon="2.28873">
        <ele>40.79999923706</ele>
        <time>2016-02-01T19:46:18Z</time>
      </trkpt>
      <trkpt lat="48.84639" lon="2.28857">
        <ele>40.20000076294</ele>
        <time>2016-02-01T19:46:22Z</time>
      </trkpt>
      <trkpt lat="48.84618" lon="2.28842">
        <ele>39.400001525879</ele>
        <time>2016-02-01T19:46:26Z</time>
      </trkpt>
      <trkpt lat="48.84598" lon="2.28831">
        <ele>38.79999923706</ele>
        <time>2016-02-01T19:46:30Z</time>
      </trkpt>
      <trkpt lat="48.8458" lon="2.28821">
        <ele>38</ele>
        <time>2016-02-01T19:46:34Z</time>
      </trkpt>
      <trkpt lat="48.84563" lon="2.28805">
        <ele>37.20000076294</ele>
        <time>2016-02-01T19:46:38Z</time>
      </trkpt>
      <trkpt lat="48.84542" lon="2.2879">
        <ele>36.20000076294</ele>
        <time>2016-02-01T19:46:42Z</time>
      </trkpt>
      <trkpt lat="48.84521" lon="2.28776">
        <ele>35.400001525879</ele>
        <time>2016-02-01T19:46:46Z</time>
      </trkpt>
      <trkpt lat="48.84501" lon="2.28761">
        <ele>35.599998474121</ele>
        <time>2016-02-01T19:46:50Z</time>
      </trkpt>
      <trkpt lat="48.84483" lon="2.28747">
        <ele>36</ele>
        <time>2016-02-01T19:46:54Z</time>
      </trkpt>
      <trkpt lat="48.8447" lon="2.28738">
        <ele>36.400001525879</ele>
        <time>2016-02-01T19:46:57Z</time>
      </trkpt>
      <trkpt lat="48.84453" lon="2.2872">
        <ele>37</ele>
        <time>2016-02-01T19:47:01Z</time>
      </trkpt>
      <trkpt lat="48.84435" lon="2.28702">
        <ele>37.400001525879</ele>
        <time>2016-02-01T19:47:06Z</time>
      </trkpt>
      <trkpt lat="48.8443" lon="2.28698">
        <ele>37.400001525879</ele>
        <time>2016-02-01T19:47:07Z</time>
      </trkpt>
      <trkpt lat="48.84412" lon="2.28681">
        <ele>37.20000076294</ele>
        <time>2016-02-01T19:47:11Z</time>
      </trkpt>
      <trkpt lat="48.84396" lon="2.28668">
        <ele>37</ele>
        <time>2016-02-01T19:47:14Z</time>
      </trkpt>
      <trkpt lat="48.84388" lon="2.28661">
        <ele>36.79999923706</ele>
        <time>2016-02-01T19:47:16Z</time>
      </trkpt>
      <trkpt lat="48.8437" lon="2.28647">
        <ele>36</ele>
        <time>2016-02-01T19:47:20Z</time>
      </trkpt>
      <trkpt lat="48.84365" lon="2.28644">
        <ele>35.79999923706</ele>
        <time>2016-02-01T19:47:21Z</time>
      </trkpt>
      <trkpt lat="48.84347" lon="2.28633">
        <ele>36</ele>
        <time>2016-02-01T19:47:26Z</time>
      </trkpt>
      <trkpt lat="48.84344" lon="2.2863">
        <ele>36</ele>
        <time>2016-02-01T19:47:27Z</time>
      </trkpt>
      <trkpt lat="48.84337" lon="2.28626">
        <ele>36.400001525879</ele>
        <time>2016-02-01T19:47:29Z</time>
      </trkpt>
      <trkpt lat="48.8433" lon="2.28622">
        <ele>36.79999923706</ele>
        <time>2016-02-01T19:47:31Z</time>
      </trkpt>
      <trkpt lat="48.84323" lon="2.28616">
        <ele>37.20000076294</ele>
        <time>2016-02-01T19:47:33Z</time>
      </trkpt>
      <trkpt lat="48.84316" lon="2.28612">
        <ele>37.599998474121</ele>
        <time>2016-02-01T19:47:35Z</time>
      </trkpt>
      <trkpt lat="48.84304" lon="2.28604">
        <ele>38.400001525879</ele>
        <time>2016-02-01T19:47:39Z</time>
      </trkpt>
      <trkpt lat="48.84288" lon="2.28599">
        <ele>39.20000076294</ele>
        <time>2016-02-01T19:47:43Z</time>
      </trkpt>
      <trkpt lat="48.8427" lon="2.28586">
        <ele>40</ele>
        <time>2016-02-01T19:47:48Z</time>
      </trkpt>
      <trkpt lat="48.84264" lon="2.28585">
        <ele>40</ele>
        <time>2016-02-01T19:47:49Z</time>
      </trkpt>
      <trkpt lat="48.84247" lon="2.28577">
        <ele>39.599998474121</ele>
        <time>2016-02-01T19:47:54Z</time>
      </trkpt>
      <trkpt lat="48.8424" lon="2.28568">
        <ele>39.400001525879</ele>
        <time>2016-02-01T19:47:57Z</time>
      </trkpt>
      <trkpt lat="48.84233" lon="2.28564">
        <ele>39.20000076294</ele>
        <time>2016-02-01T19:48:01Z</time>
      </trkpt>
      <trkpt lat="48.84234" lon="2.28565">
        <ele>39.20000076294</ele>
        <time>2016-02-01T19:48:02Z</time>
      </trkpt>
      <trkpt lat="48.84223" lon="2.28551">
        <ele>38.79999923706</ele>
        <time>2016-02-01T19:48:17Z</time>
      </trkpt>
      <trkpt lat="48.84204" lon="2.28538">
        <ele>38.20000076294</ele>
        <time>2016-02-01T19:48:21Z</time>
      </trkpt>
      <trkpt lat="48.84185" lon="2.28529">
        <ele>37.79999923706</ele>
        <time>2016-02-01T19:48:25Z</time>
      </trkpt>
      <trkpt lat="48.84164" lon="2.28517">
        <ele>37.79999923706</ele>
        <time>2016-02-01T19:48:28Z</time>
      </trkpt>
      <trkpt lat="48.84144" lon="2.28502">
        <ele>37.599998474121</ele>
        <time>2016-02-01T19:48:32Z</time>
      </trkpt>
      <trkpt lat="48.84125" lon="2.28484">
        <ele>37.599998474121</ele>
        <time>2016-02-01T19:48:36Z</time>
      </trkpt>
      <trkpt lat="48.84108" lon="2.28466">
        <ele>37.599998474121</ele>
        <time>2016-02-01T19:48:40Z</time>
      </trkpt>
      <trkpt lat="48.84092" lon="2.28449">
        <ele>38.400001525879</ele>
        <time>2016-02-01T19:48:44Z</time>
      </trkpt>
      <trkpt lat="48.84077" lon="2.2843">
        <ele>39.20000076294</ele>
        <time>2016-02-01T19:48:50Z</time>
      </trkpt>
      <trkpt lat="48.84074" lon="2.28426">
        <ele>39.400001525879</ele>
        <time>2016-02-01T19:48:51Z</time>
      </trkpt>
      <trkpt lat="48.84064" lon="2.28411">
        <ele>40</ele>
        <time>2016-02-01T19:48:55Z</time>
      </trkpt>
      <trkpt lat="48.84051" lon="2.28392">
        <ele>41.20000076294</ele>
        <time>2016-02-01T19:48:59Z</time>
      </trkpt>
      <trkpt lat="48.84033" lon="2.28373">
        <ele>42.79999923706</ele>
        <time>2016-02-01T19:49:03Z</time>
      </trkpt>
      <trkpt lat="48.84028" lon="2.28367">
        <ele>43.20000076294</ele>
        <time>2016-02-01T19:49:04Z</time>
      </trkpt>
      <trkpt lat="48.84012" lon="2.28346">
        <ele>43.599998474121</ele>
        <time>2016-02-01T19:49:07Z</time>
      </trkpt>
      <trkpt lat="48.83993" lon="2.28326">
        <ele>43.599998474121</ele>
        <time>2016-02-01T19:49:10Z</time>
      </trkpt>
      <trkpt lat="48.83974" lon="2.28306">
        <ele>42.79999923706</ele>
        <time>2016-02-01T19:49:13Z</time>
      </trkpt>
      <trkpt lat="48.83955" lon="2.28286">
        <ele>42.20000076294</ele>
        <time>2016-02-01T19:49:16Z</time>
      </trkpt>
      <trkpt lat="48.83937" lon="2.28268">
        <ele>41.400001525879</ele>
        <time>2016-02-01T19:49:19Z</time>
      </trkpt>
      <trkpt lat="48.83919" lon="2.28249">
        <ele>40</ele>
        <time>2016-02-01T19:49:23Z</time>
      </trkpt>
      <trkpt lat="48.83906" lon="2.28235">
        <ele>39.400001525879</ele>
        <time>2016-02-01T19:49:26Z</time>
      </trkpt>
      <trkpt lat="48.83889" lon="2.28216">
        <ele>38.599998474121</ele>
        <time>2016-02-01T19:49:31Z</time>
      </trkpt>
      <trkpt lat="48.83883" lon="2.28213">
        <ele>38.400001525879</ele>
        <time>2016-02-01T19:49:33Z</time>
      </trkpt>
      <trkpt lat="48.83877" lon="2.28211">
        <ele>38</ele>
        <time>2016-02-01T19:49:37Z</time>
      </trkpt>
      <trkpt lat="48.83881" lon="2.28208">
        <ele>38.20000076294</ele>
        <time>2016-02-01T19:49:45Z</time>
      </trkpt>
      <trkpt lat="48.8387" lon="2.28182">
        <ele>37.79999923706</ele>
        <time>2016-02-01T19:49:53Z</time>
      </trkpt>
      <trkpt lat="48.83855" lon="2.28155">
        <ele>36.79999923706</ele>
        <time>2016-02-01T19:49:58Z</time>
      </trkpt>
      <trkpt lat="48.83853" lon="2.28149">
        <ele>36.79999923706</ele>
        <time>2016-02-01T19:49:59Z</time>
      </trkpt>
      <trkpt lat="48.83839" lon="2.28128">
        <ele>37</ele>
        <time>2016-02-01T19:50:03Z</time>
      </trkpt>
      <trkpt lat="48.83828" lon="2.28106">
        <ele>37</ele>
        <time>2016-02-01T19:50:06Z</time>
      </trkpt>
      <trkpt lat="48.83822" lon="2.2809">
        <ele>36.79999923706</ele>
        <time>2016-02-01T19:50:08Z</time>
      </trkpt>
      <trkpt lat="48.83812" lon="2.28063">
        <ele>37.400001525879</ele>
        <time>2016-02-01T19:50:11Z</time>
      </trkpt>
      <trkpt lat="48.83796" lon="2.28033">
        <ele>38.400001525879</ele>
        <time>2016-02-01T19:50:15Z</time>
      </trkpt>
      <trkpt lat="48.83779" lon="2.28014">
        <ele>39.400001525879</ele>
        <time>2016-02-01T19:50:18Z</time>
      </trkpt>
      <trkpt lat="48.83763" lon="2.27994">
        <ele>40.400001525879</ele>
        <time>2016-02-01T19:50:21Z</time>
      </trkpt>
      <trkpt lat="48.83747" lon="2.27973">
        <ele>40.400001525879</ele>
        <time>2016-02-01T19:50:24Z</time>
      </trkpt>
      <trkpt lat="48.83735" lon="2.27952">
        <ele>40.400001525879</ele>
        <time>2016-02-01T19:50:27Z</time>
      </trkpt>
      <trkpt lat="48.83719" lon="2.27929">
        <ele>40.400001525879</ele>
        <time>2016-02-01T19:50:31Z</time>
      </trkpt>
      <trkpt lat="48.83713" lon="2.27923">
        <ele>40.599998474121</ele>
        <time>2016-02-01T19:50:32Z</time>
      </trkpt>
      <trkpt lat="48.83698" lon="2.27906">
        <ele>40.599998474121</ele>
        <time>2016-02-01T19:50:36Z</time>
      </trkpt>
      <trkpt lat="48.83696" lon="2.27901">
        <ele>40.400001525879</ele>
        <time>2016-02-01T19:50:37Z</time>
      </trkpt>
      <trkpt lat="48.83689" lon="2.27881">
        <ele>39.79999923706</ele>
        <time>2016-02-01T19:50:41Z</time>
      </trkpt>
      <trkpt lat="48.83687" lon="2.27873">
        <ele>39.400001525879</ele>
        <time>2016-02-01T19:50:43Z</time>
      </trkpt>
      <trkpt lat="48.83685" lon="2.27867">
        <ele>39.20000076294</ele>
        <time>2016-02-01T19:50:45Z</time>
      </trkpt>
      <trkpt lat="48.83675" lon="2.27854">
        <ele>38.400001525879</ele>
        <time>2016-02-01T19:50:51Z</time>
      </trkpt>
      <trkpt lat="48.83654" lon="2.27847">
        <ele>37.400001525879</ele>
        <time>2016-02-01T19:50:58Z</time>
      </trkpt>
      <trkpt lat="48.83636" lon="2.27832">
        <ele>36.20000076294</ele>
        <time>2016-02-01T19:51:03Z</time>
      </trkpt>
      <trkpt lat="48.83619" lon="2.27818">
        <ele>35.400001525879</ele>
        <time>2016-02-01T19:51:09Z</time>
      </trkpt>
      <trkpt lat="48.83602" lon="2.27806">
        <ele>34.599998474121</ele>
        <time>2016-02-01T19:51:15Z</time>
      </trkpt>
      <trkpt lat="48.83583" lon="2.27802">
        <ele>34.20000076294</ele>
        <time>2016-02-01T19:51:21Z</time>
      </trkpt>
      <trkpt lat="48.83563" lon="2.27794">
        <ele>33.599998474121</ele>
        <time>2016-02-01T19:51:26Z</time>
      </trkpt>
      <trkpt lat="48.83544" lon="2.27784">
        <ele>33</ele>
        <time>2016-02-01T19:51:30Z</time>
      </trkpt>
      <trkpt lat="48.83525" lon="2.27773">
        <ele>32.400001525879</ele>
        <time>2016-02-01T19:51:34Z</time>
      </trkpt>
      <trkpt lat="48.83503" lon="2.27764">
        <ele>32.599998474121</ele>
        <time>2016-02-01T19:51:38Z</time>
      </trkpt>
      <trkpt lat="48.83482" lon="2.27755">
        <ele>33</ele>
        <time>2016-02-01T19:51:42Z</time>
      </trkpt>
      <trkpt lat="48.83461" lon="2.27748">
        <ele>33.400001525879</ele>
        <time>2016-02-01T19:51:46Z</time>
      </trkpt>
      <trkpt lat="48.83448" lon="2.27742">
        <ele>33.79999923706</ele>
        <time>2016-02-01T19:51:49Z</time>
      </trkpt>
      <trkpt lat="48.83431" lon="2.27732">
        <ele>34</ele>
        <time>2016-02-01T19:51:53Z</time>
      </trkpt>
      <trkpt lat="48.83421" lon="2.27723">
        <ele>33.79999923706</ele>
        <time>2016-02-01T19:51:56Z</time>
      </trkpt>
      <trkpt lat="48.83413" lon="2.27714">
        <ele>33.599998474121</ele>
        <time>2016-02-01T19:52:00Z</time>
      </trkpt>
      <trkpt lat="48.83405" lon="2.27705">
        <ele>33.599998474121</ele>
        <time>2016-02-01T19:52:03Z</time>
      </trkpt>
      <trkpt lat="48.83396" lon="2.27701">
        <ele>33.400001525879</ele>
        <time>2016-02-01T19:52:06Z</time>
      </trkpt>
      <trkpt lat="48.83379" lon="2.27695">
        <ele>33.599998474121</ele>
        <time>2016-02-01T19:52:12Z</time>
      </trkpt>
      <trkpt lat="48.83375" lon="2.27692">
        <ele>33.599998474121</ele>
        <time>2016-02-01T19:52:14Z</time>
      </trkpt>
      <trkpt lat="48.83368" lon="2.27666">
        <ele>33.20000076294</ele>
        <time>2016-02-01T19:52:43Z</time>
      </trkpt>
      <trkpt lat="48.83366" lon="2.27653">
        <ele>32.599998474121</ele>
        <time>2016-02-01T19:52:50Z</time>
      </trkpt>
      <trkpt lat="48.83355" lon="2.27632">
        <ele>31.60000038147</ele>
        <time>2016-02-01T19:52:58Z</time>
      </trkpt>
      <trkpt lat="48.83345" lon="2.27619">
        <ele>31.39999961853</ele>
        <time>2016-02-01T19:53:03Z</time>
      </trkpt>
      <trkpt lat="48.83328" lon="2.27631">
        <ele>32.79999923706</ele>
        <time>2016-02-01T19:53:10Z</time>
      </trkpt>
      <trkpt lat="48.83325" lon="2.27638">
        <ele>33.20000076294</ele>
        <time>2016-02-01T19:53:12Z</time>
      </trkpt>
      <trkpt lat="48.83313" lon="2.2766">
        <ele>35.400001525879</ele>
        <time>2016-02-01T19:53:24Z</time>
      </trkpt>
      <trkpt lat="48.83312" lon="2.27662">
        <ele>35.599998474121</ele>
        <time>2016-02-01T19:53:26Z</time>
      </trkpt>
      <trkpt lat="48.83293" lon="2.27649">
        <ele>35.79999923706</ele>
        <time>2016-02-01T19:53:43Z</time>
      </trkpt>
      <trkpt lat="48.83274" lon="2.27631">
        <ele>36</ele>
        <time>2016-02-01T19:53:52Z</time>
      </trkpt>
      <trkpt lat="48.83264" lon="2.27608">
        <ele>35.400001525879</ele>
        <time>2016-02-01T19:54:00Z</time>
      </trkpt>
      <trkpt lat="48.83269" lon="2.2758">
        <ele>33.20000076294</ele>
        <time>2016-02-01T19:54:08Z</time>
      </trkpt>
      <trkpt lat="48.83269" lon="2.27545">
        <ele>33.20000076294</ele>
        <time>2016-02-01T19:54:17Z</time>
      </trkpt>
      <trkpt lat="48.83265" lon="2.27519">
        <ele>33.400001525879</ele>
        <time>2016-02-01T19:54:22Z</time>
      </trkpt>
      <trkpt lat="48.83253" lon="2.27496">
        <ele>33.79999923706</ele>
        <time>2016-02-01T19:54:27Z</time>
      </trkpt>
      <trkpt lat="48.83241" lon="2.27473">
        <ele>33.400001525879</ele>
        <time>2016-02-01T19:54:32Z</time>
      </trkpt>
      <trkpt lat="48.83228" lon="2.27448">
        <ele>32.79999923706</ele>
        <time>2016-02-01T19:54:37Z</time>
      </trkpt>
      <trkpt lat="48.83219" lon="2.27417">
        <ele>32.400001525879</ele>
        <time>2016-02-01T19:54:42Z</time>
      </trkpt>
      <trkpt lat="48.83215" lon="2.27391">
        <ele>31.799999237061</ele>
        <time>2016-02-01T19:54:46Z</time>
      </trkpt>
      <trkpt lat="48.83212" lon="2.27363">
        <ele>31.200000762939</ele>
        <time>2016-02-01T19:54:50Z</time>
      </trkpt>
      <trkpt lat="48.83213" lon="2.27334">
        <ele>31.39999961853</ele>
        <time>2016-02-01T19:54:54Z</time>
      </trkpt>
      <trkpt lat="48.83215" lon="2.27313">
        <ele>32.20000076294</ele>
        <time>2016-02-01T19:54:57Z</time>
      </trkpt>
      <trkpt lat="48.83218" lon="2.27299">
        <ele>32.79999923706</ele>
        <time>2016-02-01T19:54:59Z</time>
      </trkpt>
      <trkpt lat="48.83222" lon="2.27268">
        <ele>34.20000076294</ele>
        <time>2016-02-01T19:55:03Z</time>
      </trkpt>
      <trkpt lat="48.83225" lon="2.27237">
        <ele>35</ele>
        <time>2016-02-01T19:55:07Z</time>
      </trkpt>
      <trkpt lat="48.83225" lon="2.27222">
        <ele>34.79999923706</ele>
        <time>2016-02-01T19:55:09Z</time>
      </trkpt>
      <trkpt lat="48.83222" lon="2.27192">
        <ele>33.79999923706</ele>
        <time>2016-02-01T19:55:13Z</time>
      </trkpt>
      <trkpt lat="48.8322" lon="2.27184">
        <ele>33.599998474121</ele>
        <time>2016-02-01T19:55:14Z</time>
      </trkpt>
      <trkpt lat="48.83214" lon="2.27165">
        <ele>32.599998474121</ele>
        <time>2016-02-01T19:55:17Z</time>
      </trkpt>
      <trkpt lat="48.83203" lon="2.27139">
        <ele>33.20000076294</ele>
        <time>2016-02-01T19:55:21Z</time>
      </trkpt>
      <trkpt lat="48.83194" lon="2.27111">
        <ele>34</ele>
        <time>2016-02-01T19:55:25Z</time>
      </trkpt>
      <trkpt lat="48.83192" lon="2.27097">
        <ele>34.400001525879</ele>
        <time>2016-02-01T19:55:27Z</time>
      </trkpt>
      <trkpt lat="48.83191" lon="2.27067">
        <ele>35</ele>
        <time>2016-02-01T19:55:31Z</time>
      </trkpt>
      <trkpt lat="48.83187" lon="2.27036">
        <ele>35</ele>
        <time>2016-02-01T19:55:36Z</time>
      </trkpt>
      <trkpt lat="48.83183" lon="2.27014">
        <ele>35</ele>
        <time>2016-02-01T19:55:40Z</time>
      </trkpt>
      <trkpt lat="48.83174" lon="2.26994">
        <ele>35</ele>
        <time>2016-02-01T19:55:44Z</time>
      </trkpt>
      <trkpt lat="48.83165" lon="2.26979">
        <ele>34.79999923706</ele>
        <time>2016-02-01T19:55:47Z</time>
      </trkpt>
      <trkpt lat="48.83147" lon="2.2696">
        <ele>34.599998474121</ele>
        <time>2016-02-01T19:55:52Z</time>
      </trkpt>
      <trkpt lat="48.83138" lon="2.26951">
        <ele>34.400001525879</ele>
        <time>2016-02-01T19:55:55Z</time>
      </trkpt>
      <trkpt lat="48.83125" lon="2.26947">
        <ele>34.400001525879</ele>
        <time>2016-02-01T19:56:22Z</time>
      </trkpt>
      <trkpt lat="48.83106" lon="2.26944">
        <ele>34.400001525879</ele>
        <time>2016-02-01T19:56:28Z</time>
      </trkpt>
      <trkpt lat="48.83085" lon="2.26943">
        <ele>33.79999923706</ele>
        <time>2016-02-01T19:56:34Z</time>
      </trkpt>
      <trkpt lat="48.83064" lon="2.26947">
        <ele>33.400001525879</ele>
        <time>2016-02-01T19:56:40Z</time>
      </trkpt>
      <trkpt lat="48.83044" lon="2.26957">
        <ele>32.599998474121</ele>
        <time>2016-02-01T19:56:46Z</time>
      </trkpt>
      <trkpt lat="48.83026" lon="2.26971">
        <ele>31.39999961853</ele>
        <time>2016-02-01T19:56:51Z</time>
      </trkpt>
      <trkpt lat="48.83007" lon="2.2699">
        <ele>31.39999961853</ele>
        <time>2016-02-01T19:56:56Z</time>
      </trkpt>
      <trkpt lat="48.82989" lon="2.27001">
        <ele>31.799999237061</ele>
        <time>2016-02-01T19:57:01Z</time>
      </trkpt>
      <trkpt lat="48.82967" lon="2.27">
        <ele>32.400001525879</ele>
        <time>2016-02-01T19:57:06Z</time>
      </trkpt>
      <trkpt lat="48.82946" lon="2.26991">
        <ele>32.79999923706</ele>
        <time>2016-02-01T19:57:10Z</time>
      </trkpt>
      <trkpt lat="48.82936" lon="2.26984">
        <ele>33</ele>
        <time>2016-02-01T19:57:12Z</time>
      </trkpt>
      <trkpt lat="48.82917" lon="2.26971">
        <ele>32.20000076294</ele>
        <time>2016-02-01T19:57:16Z</time>
      </trkpt>
      <trkpt lat="48.82898" lon="2.26954">
        <ele>31.60000038147</ele>
        <time>2016-02-01T19:57:20Z</time>
      </trkpt>
      <trkpt lat="48.82881" lon="2.26934">
        <ele>31</ele>
        <time>2016-02-01T19:57:24Z</time>
      </trkpt>
      <trkpt lat="48.82863" lon="2.26911">
        <ele>30.39999961853</ele>
        <time>2016-02-01T19:57:28Z</time>
      </trkpt>
      <trkpt lat="48.82851" lon="2.2689">
        <ele>30.200000762939</ele>
        <time>2016-02-01T19:57:32Z</time>
      </trkpt>
      <trkpt lat="48.82839" lon="2.26862">
        <ele>30.200000762939</ele>
        <time>2016-02-01T19:57:37Z</time>
      </trkpt>
      <trkpt lat="48.82827" lon="2.26843">
        <ele>30.200000762939</ele>
        <time>2016-02-01T19:57:40Z</time>
      </trkpt>
      <trkpt lat="48.82819" lon="2.26836">
        <ele>30</ele>
        <time>2016-02-01T19:57:43Z</time>
      </trkpt>
      <trkpt lat="48.82817" lon="2.26835">
        <ele>30</ele>
        <time>2016-02-01T19:57:45Z</time>
      </trkpt>
      <trkpt lat="48.82812" lon="2.26832">
        <ele>30</ele>
        <time>2016-02-01T19:57:49Z</time>
      </trkpt>
      <trkpt lat="48.82798" lon="2.26825">
        <ele>29.60000038147</ele>
        <time>2016-02-01T19:58:21Z</time>
      </trkpt>
      <trkpt lat="48.82794" lon="2.26795">
        <ele>30</ele>
        <time>2016-02-01T19:58:28Z</time>
      </trkpt>
      <trkpt lat="48.82792" lon="2.26767">
        <ele>30.200000762939</ele>
        <time>2016-02-01T19:58:32Z</time>
      </trkpt>
      <trkpt lat="48.82785" lon="2.26743">
        <ele>30.39999961853</ele>
        <time>2016-02-01T19:58:38Z</time>
      </trkpt>
      <trkpt lat="48.82766" lon="2.26753">
        <ele>30</ele>
        <time>2016-02-01T19:58:46Z</time>
      </trkpt>
      <trkpt lat="48.82748" lon="2.26757">
        <ele>30.39999961853</ele>
        <time>2016-02-01T19:58:50Z</time>
      </trkpt>
      <trkpt lat="48.82727" lon="2.2676">
        <ele>31</ele>
        <time>2016-02-01T19:58:53Z</time>
      </trkpt>
      <trkpt lat="48.82706" lon="2.26761">
        <ele>31.39999961853</ele>
        <time>2016-02-01T19:58:58Z</time>
      </trkpt>
      <trkpt lat="48.82686" lon="2.26762">
        <ele>31.39999961853</ele>
        <time>2016-02-01T19:59:01Z</time>
      </trkpt>
      <trkpt lat="48.82662" lon="2.26766">
        <ele>31</ele>
        <time>2016-02-01T19:59:06Z</time>
      </trkpt>
      <trkpt lat="48.82639" lon="2.26768">
        <ele>30.60000038147</ele>
        <time>2016-02-01T19:59:11Z</time>
      </trkpt>
      <trkpt lat="48.82626" lon="2.26768">
        <ele>30.60000038147</ele>
        <time>2016-02-01T19:59:12Z</time>
      </trkpt>
      <trkpt lat="48.82602" lon="2.2677">
        <ele>31</ele>
        <time>2016-02-01T19:59:17Z</time>
      </trkpt>
      <trkpt lat="48.82579" lon="2.26777">
        <ele>31.39999961853</ele>
        <time>2016-02-01T19:59:21Z</time>
      </trkpt>
      <trkpt lat="48.82564" lon="2.26775">
        <ele>31.60000038147</ele>
        <time>2016-02-01T19:59:24Z</time>
      </trkpt>
      <trkpt lat="48.82544" lon="2.26775">
        <ele>31.799999237061</ele>
        <time>2016-02-01T19:59:28Z</time>
      </trkpt>
      <trkpt lat="48.82542" lon="2.26775">
        <ele>31.799999237061</ele>
        <time>2016-02-01T19:59:29Z</time>
      </trkpt>
      <trkpt lat="48.82533" lon="2.26773">
        <ele>32</ele>
        <time>2016-02-01T19:59:32Z</time>
      </trkpt>
      <trkpt lat="48.82521" lon="2.26748">
        <ele>32</ele>
        <time>2016-02-01T19:59:38Z</time>
      </trkpt>
      <trkpt lat="48.8252" lon="2.26743">
        <ele>32</ele>
        <time>2016-02-01T19:59:39Z</time>
      </trkpt>
      <trkpt lat="48.82514" lon="2.26714">
        <ele>32</ele>
        <time>2016-02-01T19:59:44Z</time>
      </trkpt>
      <trkpt lat="48.82508" lon="2.26688">
        <ele>32</ele>
        <time>2016-02-01T19:59:48Z</time>
      </trkpt>
      <trkpt lat="48.82501" lon="2.26657">
        <ele>32</ele>
        <time>2016-02-01T19:59:52Z</time>
      </trkpt>
      <trkpt lat="48.82494" lon="2.26624">
        <ele>32.599998474121</ele>
        <time>2016-02-01T19:59:56Z</time>
      </trkpt>
      <trkpt lat="48.82489" lon="2.2659">
        <ele>33.400001525879</ele>
        <time>2016-02-01T20:00:00Z</time>
      </trkpt>
      <trkpt lat="48.82484" lon="2.2656">
        <ele>33.400001525879</ele>
        <time>2016-02-01T20:00:04Z</time>
      </trkpt>
      <trkpt lat="48.8248" lon="2.26532">
        <ele>33</ele>
        <time>2016-02-01T20:00:08Z</time>
      </trkpt>
      <trkpt lat="48.82475" lon="2.26499">
        <ele>32.400001525879</ele>
        <time>2016-02-01T20:00:12Z</time>
      </trkpt>
      <trkpt lat="48.82468" lon="2.26471">
        <ele>32</ele>
        <time>2016-02-01T20:00:16Z</time>
      </trkpt>
      <trkpt lat="48.8246" lon="2.26442">
        <ele>31.60000038147</ele>
        <time>2016-02-01T20:00:20Z</time>
      </trkpt>
      <trkpt lat="48.82457" lon="2.26434">
        <ele>31.39999961853</ele>
        <time>2016-02-01T20:00:21Z</time>
      </trkpt>
      <trkpt lat="48.82446" lon="2.26401">
        <ele>31.39999961853</ele>
        <time>2016-02-01T20:00:25Z</time>
      </trkpt>
      <trkpt lat="48.82444" lon="2.26383">
        <ele>32</ele>
        <time>2016-02-01T20:00:27Z</time>
      </trkpt>
      <trkpt lat="48.82442" lon="2.26361">
        <ele>32.79999923706</ele>
        <time>2016-02-01T20:00:30Z</time>
      </trkpt>
      <trkpt lat="48.82437" lon="2.26329">
        <ele>34.20000076294</ele>
        <time>2016-02-01T20:00:34Z</time>
      </trkpt>
      <trkpt lat="48.82429" lon="2.26301">
        <ele>34.20000076294</ele>
        <time>2016-02-01T20:00:37Z</time>
      </trkpt>
      <trkpt lat="48.82423" lon="2.26286">
        <ele>34.20000076294</ele>
        <time>2016-02-01T20:00:39Z</time>
      </trkpt>
      <trkpt lat="48.82419" lon="2.26256">
        <ele>34.20000076294</ele>
        <time>2016-02-01T20:00:44Z</time>
      </trkpt>
      <trkpt lat="48.8242" lon="2.26234">
        <ele>34.599998474121</ele>
        <time>2016-02-01T20:00:49Z</time>
      </trkpt>
      <trkpt lat="48.8242" lon="2.26231">
        <ele>34.599998474121</ele>
        <time>2016-02-01T20:00:50Z</time>
      </trkpt>
      <trkpt lat="48.82415" lon="2.26225">
        <ele>34.79999923706</ele>
        <time>2016-02-01T20:00:56Z</time>
      </trkpt>
      <trkpt lat="48.82412" lon="2.26227">
        <ele>34.79999923706</ele>
        <time>2016-02-01T20:00:57Z</time>
      </trkpt>
      <trkpt lat="48.82392" lon="2.26239">
        <ele>34.79999923706</ele>
        <time>2016-02-01T20:01:04Z</time>
      </trkpt>
      <trkpt lat="48.82381" lon="2.26237">
        <ele>34.79999923706</ele>
        <time>2016-02-01T20:01:06Z</time>
      </trkpt>
      <trkpt lat="48.82376" lon="2.26236">
        <ele>35</ele>
        <time>2016-02-01T20:01:07Z</time>
      </trkpt>
      <trkpt lat="48.82355" lon="2.26228">
        <ele>35.400001525879</ele>
        <time>2016-02-01T20:01:11Z</time>
      </trkpt>
      <trkpt lat="48.82336" lon="2.26221">
        <ele>35.79999923706</ele>
        <time>2016-02-01T20:01:14Z</time>
      </trkpt>
      <trkpt lat="48.82311" lon="2.26207">
        <ele>36.599998474121</ele>
        <time>2016-02-01T20:01:18Z</time>
      </trkpt>
      <trkpt lat="48.82303" lon="2.26204">
        <ele>36.79999923706</ele>
        <time>2016-02-01T20:01:20Z</time>
      </trkpt>
      <trkpt lat="48.82282" lon="2.26199">
        <ele>37.400001525879</ele>
        <time>2016-02-01T20:01:25Z</time>
      </trkpt>
      <trkpt lat="48.82274" lon="2.26195">
        <ele>37.599998474121</ele>
        <time>2016-02-01T20:01:27Z</time>
      </trkpt>
      <trkpt lat="48.82254" lon="2.26187">
        <ele>38.400001525879</ele>
        <time>2016-02-01T20:01:31Z</time>
      </trkpt>
      <trkpt lat="48.82244" lon="2.26183">
        <ele>38.79999923706</ele>
        <time>2016-02-01T20:01:33Z</time>
      </trkpt>
      <trkpt lat="48.82224" lon="2.26173">
        <ele>39.599998474121</ele>
        <time>2016-02-01T20:01:37Z</time>
      </trkpt>
      <trkpt lat="48.82203" lon="2.26162">
        <ele>40.400001525879</ele>
        <time>2016-02-01T20:01:41Z</time>
      </trkpt>
      <trkpt lat="48.82186" lon="2.26152">
        <ele>40.79999923706</ele>
        <time>2016-02-01T20:01:44Z</time>
      </trkpt>
      <trkpt lat="48.82168" lon="2.26142">
        <ele>41.599998474121</ele>
        <time>2016-02-01T20:01:47Z</time>
      </trkpt>
      <trkpt lat="48.8215" lon="2.26131">
        <ele>42</ele>
        <time>2016-02-01T20:01:50Z</time>
      </trkpt>
      <trkpt lat="48.82134" lon="2.26117">
        <ele>42.400001525879</ele>
        <time>2016-02-01T20:01:53Z</time>
      </trkpt>
      <trkpt lat="48.82126" lon="2.2609">
        <ele>42.20000076294</ele>
        <time>2016-02-01T20:01:57Z</time>
      </trkpt>
      <trkpt lat="48.82116" lon="2.26066">
        <ele>42</ele>
        <time>2016-02-01T20:02:00Z</time>
      </trkpt>
      <trkpt lat="48.82105" lon="2.26037">
        <ele>41.400001525879</ele>
        <time>2016-02-01T20:02:05Z</time>
      </trkpt>
      <trkpt lat="48.82101" lon="2.26028">
        <ele>41.79999923706</ele>
        <time>2016-02-01T20:02:07Z</time>
      </trkpt>
      <trkpt lat="48.82096" lon="2.26016">
        <ele>42</ele>
        <time>2016-02-01T20:02:12Z</time>
      </trkpt>
      <trkpt lat="48.82084" lon="2.26023">
        <ele>43.79999923706</ele>
        <time>2016-02-01T20:02:59Z</time>
      </trkpt>
      <trkpt lat="48.82073" lon="2.26034">
        <ele>45.79999923706</ele>
        <time>2016-02-01T20:03:07Z</time>
      </trkpt>
      <trkpt lat="48.82061" lon="2.26014">
        <ele>46.599998474121</ele>
        <time>2016-02-01T20:03:22Z</time>
      </trkpt>
      <trkpt lat="48.82049" lon="2.25991">
        <ele>47.20000076294</ele>
        <time>2016-02-01T20:03:29Z</time>
      </trkpt>
      <trkpt lat="48.82036" lon="2.25966">
        <ele>48.400001525879</ele>
        <time>2016-02-01T20:03:36Z</time>
      </trkpt>
      <trkpt lat="48.82019" lon="2.25949">
        <ele>50.20000076294</ele>
        <time>2016-02-01T20:03:43Z</time>
      </trkpt>
      <trkpt lat="48.82015" lon="2.25946">
        <ele>50.79999923706</ele>
        <time>2016-02-01T20:03:46Z</time>
      </trkpt>
      <trkpt lat="48.82003" lon="2.25948">
        <ele>52.599998474121</ele>
        <time>2016-02-01T20:03:54Z</time>
      </trkpt>
      <trkpt lat="48.81993" lon="2.25942">
        <ele>54</ele>
        <time>2016-02-01T20:04:28Z</time>
      </trkpt>
      <trkpt lat="48.81977" lon="2.25946">
        <ele>56.20000076294</ele>
        <time>2016-02-01T20:04:43Z</time>
      </trkpt>
      <trkpt lat="48.81959" lon="2.25955">
        <ele>60.400001525879</ele>
        <time>2016-02-01T20:04:56Z</time>
      </trkpt>
      <trkpt lat="48.81942" lon="2.25955">
        <ele>63.79999923706</ele>
        <time>2016-02-01T20:05:33Z</time>
      </trkpt>
      <trkpt lat="48.81931" lon="2.25935">
        <ele>65</ele>
        <time>2016-02-01T20:06:36Z</time>
      </trkpt>
      <trkpt lat="48.81928" lon="2.25929">
        <ele>65.199996948242</ele>
        <time>2016-02-01T20:06:38Z</time>
      </trkpt>
      <trkpt lat="48.81913" lon="2.25908">
        <ele>67.199996948242</ele>
        <time>2016-02-01T20:06:54Z</time>
      </trkpt>
      <trkpt lat="48.8191" lon="2.25905">
        <ele>67.800003051758</ele>
        <time>2016-02-01T20:06:58Z</time>
      </trkpt>
      <trkpt lat="48.81908" lon="2.25904">
        <ele>68.199996948242</ele>
        <time>2016-02-01T20:07:00Z</time>
      </trkpt>
      <trkpt lat="48.81892" lon="2.25902">
        <ele>71.800003051758</ele>
        <time>2016-02-01T20:07:42Z</time>
      </trkpt>
      <trkpt lat="48.81898" lon="2.25904">
        <ele>70.800003051758</ele>
        <time>2016-02-01T20:07:51Z</time>
      </trkpt>
      <trkpt lat="48.81903" lon="2.25904">
        <ele>69.400001525879</ele>
        <time>2016-02-01T20:07:55Z</time>
      </trkpt>
      <trkpt lat="48.8189" lon="2.25916">
        <ele>73.400001525879</ele>
        <time>2016-02-01T20:08:18Z</time>
      </trkpt>
      <trkpt lat="48.81887" lon="2.25921">
        <ele>74.800003051758</ele>
        <time>2016-02-01T20:08:23Z</time>
      </trkpt>
      <trkpt lat="48.8187" lon="2.25932">
        <ele>79.800003051758</ele>
        <time>2016-02-01T20:08:49Z</time>
      </trkpt>
      <trkpt lat="48.81856" lon="2.25925">
        <ele>82.599998474121</ele>
        <time>2016-02-01T20:09:36Z</time>
      </trkpt>
      <trkpt lat="48.81857" lon="2.25951">
        <ele>84.199996948242</ele>
        <time>2016-02-01T20:09:55Z</time>
      </trkpt>
      <trkpt lat="48.81867" lon="2.25979">
        <ele>84</ele>
        <time>2016-02-01T20:10:04Z</time>
      </trkpt>
      <trkpt lat="48.81868" lon="2.26009">
        <ele>86.199996948242</ele>
        <time>2016-02-01T20:10:13Z</time>
      </trkpt>
      <trkpt lat="48.81855" lon="2.26031">
        <ele>88.800003051758</ele>
        <time>2016-02-01T20:10:21Z</time>
      </trkpt>
      <trkpt lat="48.81837" lon="2.26045">
        <ele>90.599998474121</ele>
        <time>2016-02-01T20:10:27Z</time>
      </trkpt>
      <trkpt lat="48.81818" lon="2.26062">
        <ele>92.199996948242</ele>
        <time>2016-02-01T20:10:31Z</time>
      </trkpt>
      <trkpt lat="48.81814" lon="2.26067">
        <ele>92.800003051758</ele>
        <time>2016-02-01T20:10:32Z</time>
      </trkpt>
      <trkpt lat="48.818" lon="2.2608">
        <ele>94</ele>
        <time>2016-02-01T20:10:35Z</time>
      </trkpt>
      <trkpt lat="48.81779" lon="2.26098">
        <ele>94.800003051758</ele>
        <time>2016-02-01T20:10:39Z</time>
      </trkpt>
      <trkpt lat="48.81758" lon="2.26115">
        <ele>94</ele>
        <time>2016-02-01T20:10:43Z</time>
      </trkpt>
      <trkpt lat="48.81747" lon="2.26122">
        <ele>93.400001525879</ele>
        <time>2016-02-01T20:10:46Z</time>
      </trkpt>
      <trkpt lat="48.81735" lon="2.26124">
        <ele>93</ele>
        <time>2016-02-01T20:10:52Z</time>
      </trkpt>
      <trkpt lat="48.81732" lon="2.26125">
        <ele>93</ele>
        <time>2016-02-01T20:10:56Z</time>
      </trkpt>
      <trkpt lat="48.81736" lon="2.26105">
        <ele>94</ele>
        <time>2016-02-01T20:11:46Z</time>
      </trkpt>
      <trkpt lat="48.81754" lon="2.26094">
        <ele>94.800003051758</ele>
        <time>2016-02-01T20:11:55Z</time>
      </trkpt>
      <trkpt lat="48.81774" lon="2.26078">
        <ele>95.800003051758</ele>
        <time>2016-02-01T20:12:01Z</time>
      </trkpt>
      <trkpt lat="48.81793" lon="2.26063">
        <ele>94</ele>
        <time>2016-02-01T20:12:06Z</time>
      </trkpt>
      <trkpt lat="48.81807" lon="2.26054">
        <ele>92.800003051758</ele>
        <time>2016-02-01T20:12:09Z</time>
      </trkpt>
      <trkpt lat="48.81822" lon="2.26038">
        <ele>91.400001525879</ele>
        <time>2016-02-01T20:12:15Z</time>
      </trkpt>
      <trkpt lat="48.81822" lon="2.26037">
        <ele>91.400001525879</ele>
        <time>2016-02-01T20:12:16Z</time>
      </trkpt>
      <trkpt lat="48.81808" lon="2.2606">
        <ele>93</ele>
        <time>2016-02-01T20:12:29Z</time>
      </trkpt>
      <trkpt lat="48.81791" lon="2.26076">
        <ele>94.599998474121</ele>
        <time>2016-02-01T20:12:34Z</time>
      </trkpt>
      <trkpt lat="48.81774" lon="2.26089">
        <ele>95.400001525879</ele>
        <time>2016-02-01T20:12:37Z</time>
      </trkpt>
      <trkpt lat="48.81763" lon="2.26098">
        <ele>94.800003051758</ele>
        <time>2016-02-01T20:12:39Z</time>
      </trkpt>
      <trkpt lat="48.81743" lon="2.26113">
        <ele>93.599998474121</ele>
        <time>2016-02-01T20:12:43Z</time>
      </trkpt>
      <trkpt lat="48.8173" lon="2.26107">
        <ele>93.599998474121</ele>
        <time>2016-02-01T20:12:54Z</time>
      </trkpt>
      <trkpt lat="48.81733" lon="2.26134">
        <ele>92.599998474121</ele>
        <time>2016-02-01T20:13:31Z</time>
      </trkpt>
      <trkpt lat="48.81737" lon="2.26162">
        <ele>92</ele>
        <time>2016-02-01T20:13:41Z</time>
      </trkpt>
      <trkpt lat="48.81743" lon="2.26188">
        <ele>91.599998474121</ele>
        <time>2016-02-01T20:13:48Z</time>
      </trkpt>
      <trkpt lat="48.81751" lon="2.26216">
        <ele>91.400001525879</ele>
        <time>2016-02-01T20:13:54Z</time>
      </trkpt>
      <trkpt lat="48.81758" lon="2.26241">
        <ele>91.199996948242</ele>
        <time>2016-02-01T20:13:59Z</time>
      </trkpt>
      <trkpt lat="48.81766" lon="2.2627">
        <ele>91.599998474121</ele>
        <time>2016-02-01T20:14:04Z</time>
      </trkpt>
      <trkpt lat="48.81776" lon="2.26299">
        <ele>92.199996948242</ele>
        <time>2016-02-01T20:14:09Z</time>
      </trkpt>
      <trkpt lat="48.81785" lon="2.26327">
        <ele>92.599998474121</ele>
        <time>2016-02-01T20:14:14Z</time>
      </trkpt>
      <trkpt lat="48.81794" lon="2.26352">
        <ele>92</ele>
        <time>2016-02-01T20:14:18Z</time>
      </trkpt>
      <trkpt lat="48.81804" lon="2.26378">
        <ele>91.199996948242</ele>
        <time>2016-02-01T20:14:22Z</time>
      </trkpt>
      <trkpt lat="48.81815" lon="2.26404">
        <ele>90.599998474121</ele>
        <time>2016-02-01T20:14:26Z</time>
      </trkpt>
      <trkpt lat="48.81823" lon="2.26423">
        <ele>90</ele>
        <time>2016-02-01T20:14:29Z</time>
      </trkpt>
      <trkpt lat="48.81834" lon="2.26449">
        <ele>89.400001525879</ele>
        <time>2016-02-01T20:14:33Z</time>
      </trkpt>
      <trkpt lat="48.8184" lon="2.26475">
        <ele>88.800003051758</ele>
        <time>2016-02-01T20:14:38Z</time>
      </trkpt>
      <trkpt lat="48.81841" lon="2.26482">
        <ele>88.599998474121</ele>
        <time>2016-02-01T20:14:40Z</time>
      </trkpt>
      <trkpt lat="48.8184" lon="2.2649">
        <ele>88.800003051758</ele>
        <time>2016-02-01T20:14:44Z</time>
      </trkpt>
      <trkpt lat="48.81839" lon="2.2649">
        <ele>89</ele>
        <time>2016-02-01T20:14:45Z</time>
      </trkpt>
      <trkpt lat="48.81851" lon="2.26481">
        <ele>88.400001525879</ele>
        <time>2016-02-01T20:15:31Z</time>
      </trkpt>
      <trkpt lat="48.8187" lon="2.26474">
        <ele>87.400001525879</ele>
        <time>2016-02-01T20:15:37Z</time>
      </trkpt>
      <trkpt lat="48.81887" lon="2.26466">
        <ele>86.400001525879</ele>
        <time>2016-02-01T20:15:42Z</time>
      </trkpt>
      <trkpt lat="48.81906" lon="2.26455">
        <ele>85.400001525879</ele>
        <time>2016-02-01T20:15:49Z</time>
      </trkpt>
      <trkpt lat="48.81924" lon="2.26455">
        <ele>84</ele>
        <time>2016-02-01T20:15:57Z</time>
      </trkpt>
      <trkpt lat="48.81931" lon="2.26483">
        <ele>83.599998474121</ele>
        <time>2016-02-01T20:16:03Z</time>
      </trkpt>
      <trkpt lat="48.81936" lon="2.26514">
        <ele>83.400001525879</ele>
        <time>2016-02-01T20:16:08Z</time>
      </trkpt>
      <trkpt lat="48.81942" lon="2.26544">
        <ele>83.199996948242</ele>
        <time>2016-02-01T20:16:12Z</time>
      </trkpt>
      <trkpt lat="48.81947" lon="2.26573">
        <ele>82.800003051758</ele>
        <time>2016-02-01T20:16:16Z</time>
      </trkpt>
      <trkpt lat="48.81953" lon="2.266">
        <ele>82.800003051758</ele>
        <time>2016-02-01T20:16:20Z</time>
      </trkpt>
      <trkpt lat="48.81956" lon="2.26631">
        <ele>82.199996948242</ele>
        <time>2016-02-01T20:16:24Z</time>
      </trkpt>
      <trkpt lat="48.81962" lon="2.26661">
        <ele>81.400001525879</ele>
        <time>2016-02-01T20:16:28Z</time>
      </trkpt>
      <trkpt lat="48.81966" lon="2.26683">
        <ele>80.599998474121</ele>
        <time>2016-02-01T20:16:33Z</time>
      </trkpt>
      <trkpt lat="48.81966" lon="2.26685">
        <ele>80.400001525879</ele>
        <time>2016-02-01T20:16:35Z</time>
      </trkpt>
      <trkpt lat="48.81957" lon="2.26681">
        <ele>81.199996948242</ele>
        <time>2016-02-01T20:16:45Z</time>
      </trkpt>
      <trkpt lat="48.81951" lon="2.26708">
        <ele>81.400001525879</ele>
        <time>2016-02-01T20:16:51Z</time>
      </trkpt>
      <trkpt lat="48.81949" lon="2.26736">
        <ele>81.199996948242</ele>
        <time>2016-02-01T20:16:55Z</time>
      </trkpt>
      <trkpt lat="48.81946" lon="2.26768">
        <ele>81.400001525879</ele>
        <time>2016-02-01T20:16:59Z</time>
      </trkpt>
      <trkpt lat="48.81943" lon="2.26801">
        <ele>81.599998474121</ele>
        <time>2016-02-01T20:17:03Z</time>
      </trkpt>
      <trkpt lat="48.81941" lon="2.26834">
        <ele>82</ele>
        <time>2016-02-01T20:17:07Z</time>
      </trkpt>
      <trkpt lat="48.81939" lon="2.26851">
        <ele>82.199996948242</ele>
        <time>2016-02-01T20:17:09Z</time>
      </trkpt>
      <trkpt lat="48.81936" lon="2.26885">
        <ele>82.800003051758</ele>
        <time>2016-02-01T20:17:13Z</time>
      </trkpt>
      <trkpt lat="48.81933" lon="2.26919">
        <ele>83.199996948242</ele>
        <time>2016-02-01T20:17:17Z</time>
      </trkpt>
      <trkpt lat="48.81929" lon="2.26942">
        <ele>83.400001525879</ele>
        <time>2016-02-01T20:17:20Z</time>
      </trkpt>
      <trkpt lat="48.81923" lon="2.26974">
        <ele>83.800003051758</ele>
        <time>2016-02-01T20:17:24Z</time>
      </trkpt>
      <trkpt lat="48.8192" lon="2.26982">
        <ele>83.800003051758</ele>
        <time>2016-02-01T20:17:25Z</time>
      </trkpt>
      <trkpt lat="48.81913" lon="2.27017">
        <ele>83.400001525879</ele>
        <time>2016-02-01T20:17:29Z</time>
      </trkpt>
      <trkpt lat="48.81909" lon="2.27036">
        <ele>83.400001525879</ele>
        <time>2016-02-01T20:17:31Z</time>
      </trkpt>
      <trkpt lat="48.81901" lon="2.27063">
        <ele>83.400001525879</ele>
        <time>2016-02-01T20:17:34Z</time>
      </trkpt>
      <trkpt lat="48.81891" lon="2.27088">
        <ele>83.599998474121</ele>
        <time>2016-02-01T20:17:37Z</time>
      </trkpt>
      <trkpt lat="48.81881" lon="2.27112">
        <ele>83.599998474121</ele>
        <time>2016-02-01T20:17:40Z</time>
      </trkpt>
      <trkpt lat="48.8187" lon="2.27137">
        <ele>83.800003051758</ele>
        <time>2016-02-01T20:17:43Z</time>
      </trkpt>
      <trkpt lat="48.81857" lon="2.2716">
        <ele>84</ele>
        <time>2016-02-01T20:17:46Z</time>
      </trkpt>
      <trkpt lat="48.81844" lon="2.27182">
        <ele>84.599998474121</ele>
        <time>2016-02-01T20:17:50Z</time>
      </trkpt>
      <trkpt lat="48.81839" lon="2.27195">
        <ele>84.800003051758</ele>
        <time>2016-02-01T20:17:54Z</time>
      </trkpt>
      <trkpt lat="48.81829" lon="2.27218">
        <ele>85.199996948242</ele>
        <time>2016-02-01T20:18:01Z</time>
      </trkpt>
      <trkpt lat="48.81825" lon="2.27229">
        <ele>84.599998474121</ele>
        <time>2016-02-01T20:18:05Z</time>
      </trkpt>
      <trkpt lat="48.81824" lon="2.27239">
        <ele>84</ele>
        <time>2016-02-01T20:18:08Z</time>
      </trkpt>
      <trkpt lat="48.81822" lon="2.27245">
        <ele>83.599998474121</ele>
        <time>2016-02-01T20:18:10Z</time>
      </trkpt>
      <trkpt lat="48.81808" lon="2.27261">
        <ele>82.800003051758</ele>
        <time>2016-02-01T20:18:19Z</time>
      </trkpt>
      <trkpt lat="48.81807" lon="2.27259">
        <ele>82.800003051758</ele>
        <time>2016-02-01T20:18:20Z</time>
      </trkpt>
      <trkpt lat="48.81808" lon="2.2725">
        <ele>83.199996948242</ele>
        <time>2016-02-01T20:18:28Z</time>
      </trkpt>
      <trkpt lat="48.81806" lon="2.27256">
        <ele>83</ele>
        <time>2016-02-01T20:18:32Z</time>
      </trkpt>
      <trkpt lat="48.81791" lon="2.27276">
        <ele>82.400001525879</ele>
        <time>2016-02-01T20:18:48Z</time>
      </trkpt>
      <trkpt lat="48.81778" lon="2.27299">
        <ele>83.400001525879</ele>
        <time>2016-02-01T20:18:53Z</time>
      </trkpt>
      <trkpt lat="48.81764" lon="2.27323">
        <ele>84</ele>
        <time>2016-02-01T20:18:58Z</time>
      </trkpt>
      <trkpt lat="48.81751" lon="2.27344">
        <ele>83.199996948242</ele>
        <time>2016-02-01T20:19:02Z</time>
      </trkpt>
      <trkpt lat="48.81738" lon="2.27366">
        <ele>82.199996948242</ele>
        <time>2016-02-01T20:19:06Z</time>
      </trkpt>
      <trkpt lat="48.8173" lon="2.27379">
        <ele>81.599998474121</ele>
        <time>2016-02-01T20:19:09Z</time>
      </trkpt>
      <trkpt lat="48.81717" lon="2.27403">
        <ele>80.599998474121</ele>
        <time>2016-02-01T20:19:14Z</time>
      </trkpt>
      <trkpt lat="48.81704" lon="2.27425">
        <ele>79.599998474121</ele>
        <time>2016-02-01T20:19:18Z</time>
      </trkpt>
      <trkpt lat="48.8169" lon="2.27449">
        <ele>78.599998474121</ele>
        <time>2016-02-01T20:19:22Z</time>
      </trkpt>
      <trkpt lat="48.81681" lon="2.27464">
        <ele>78</ele>
        <time>2016-02-01T20:19:25Z</time>
      </trkpt>
      <trkpt lat="48.81668" lon="2.27488">
        <ele>76.800003051758</ele>
        <time>2016-02-01T20:19:30Z</time>
      </trkpt>
      <trkpt lat="48.81654" lon="2.27513">
        <ele>75.400001525879</ele>
        <time>2016-02-01T20:19:35Z</time>
      </trkpt>
      <trkpt lat="48.81642" lon="2.27534">
        <ele>74</ele>
        <time>2016-02-01T20:19:39Z</time>
      </trkpt>
      <trkpt lat="48.8163" lon="2.27557">
        <ele>72.599998474121</ele>
        <time>2016-02-01T20:19:44Z</time>
      </trkpt>
      <trkpt lat="48.81617" lon="2.27578">
        <ele>71.400001525879</ele>
        <time>2016-02-01T20:19:48Z</time>
      </trkpt>
      <trkpt lat="48.81603" lon="2.27601">
        <ele>70.199996948242</ele>
        <time>2016-02-01T20:19:52Z</time>
      </trkpt>
      <trkpt lat="48.81587" lon="2.27629">
        <ele>68.800003051758</ele>
        <time>2016-02-01T20:19:56Z</time>
      </trkpt>
      <trkpt lat="48.81572" lon="2.27654">
        <ele>67.800003051758</ele>
        <time>2016-02-01T20:20:00Z</time>
      </trkpt>
      <trkpt lat="48.81559" lon="2.27676">
        <ele>67.199996948242</ele>
        <time>2016-02-01T20:20:03Z</time>
      </trkpt>
      <trkpt lat="48.81547" lon="2.27697">
        <ele>66.800003051758</ele>
        <time>2016-02-01T20:20:06Z</time>
      </trkpt>
      <trkpt lat="48.81532" lon="2.27724">
        <ele>66.400001525879</ele>
        <time>2016-02-01T20:20:10Z</time>
      </trkpt>
      <trkpt lat="48.81521" lon="2.27742">
        <ele>66</ele>
        <time>2016-02-01T20:20:13Z</time>
      </trkpt>
      <trkpt lat="48.8151" lon="2.27764">
        <ele>66.599998474121</ele>
        <time>2016-02-01T20:20:17Z</time>
      </trkpt>
      <trkpt lat="48.81506" lon="2.27772">
        <ele>66.800003051758</ele>
        <time>2016-02-01T20:20:19Z</time>
      </trkpt>
      <trkpt lat="48.81502" lon="2.27779">
        <ele>67.199996948242</ele>
        <time>2016-02-01T20:20:21Z</time>
      </trkpt>
      <trkpt lat="48.81494" lon="2.27796">
        <ele>67.599998474121</ele>
        <time>2016-02-01T20:20:26Z</time>
      </trkpt>
      <trkpt lat="48.81488" lon="2.27805">
        <ele>67.800003051758</ele>
        <time>2016-02-01T20:20:30Z</time>
      </trkpt>
      <trkpt lat="48.81475" lon="2.27806">
        <ele>68.199996948242</ele>
        <time>2016-02-01T20:20:35Z</time>
      </trkpt>
      <trkpt lat="48.81466" lon="2.27809">
        <ele>68.400001525879</ele>
        <time>2016-02-01T20:20:39Z</time>
      </trkpt>
      <trkpt lat="48.8146" lon="2.27812">
        <ele>68.400001525879</ele>
        <time>2016-02-01T20:20:43Z</time>
      </trkpt>
      <trkpt lat="48.8144" lon="2.27817">
        <ele>69</ele>
        <time>2016-02-01T20:20:49Z</time>
      </trkpt>
      <trkpt lat="48.81423" lon="2.27812">
        <ele>70.199996948242</ele>
        <time>2016-02-01T20:20:59Z</time>
      </trkpt>
      <trkpt lat="48.81414" lon="2.27835">
        <ele>70.199996948242</ele>
        <time>2016-02-01T20:21:14Z</time>
      </trkpt>
      <trkpt lat="48.81399" lon="2.27851">
        <ele>71.199996948242</ele>
        <time>2016-02-01T20:21:19Z</time>
      </trkpt>
      <trkpt lat="48.81387" lon="2.27864">
        <ele>71.800003051758</ele>
        <time>2016-02-01T20:21:22Z</time>
      </trkpt>
      <trkpt lat="48.81377" lon="2.27873">
        <ele>71.199996948242</ele>
        <time>2016-02-01T20:21:24Z</time>
      </trkpt>
      <trkpt lat="48.81361" lon="2.2789">
        <ele>70.199996948242</ele>
        <time>2016-02-01T20:21:27Z</time>
      </trkpt>
      <trkpt lat="48.81346" lon="2.27905">
        <ele>69.800003051758</ele>
        <time>2016-02-01T20:21:30Z</time>
      </trkpt>
      <trkpt lat="48.81329" lon="2.2792">
        <ele>71.599998474121</ele>
        <time>2016-02-01T20:21:33Z</time>
      </trkpt>
      <trkpt lat="48.81324" lon="2.27926">
        <ele>72.400001525879</ele>
        <time>2016-02-01T20:21:34Z</time>
      </trkpt>
      <trkpt lat="48.81308" lon="2.27945">
        <ele>75</ele>
        <time>2016-02-01T20:21:37Z</time>
      </trkpt>
      <trkpt lat="48.81301" lon="2.2795">
        <ele>75.199996948242</ele>
        <time>2016-02-01T20:21:38Z</time>
      </trkpt>
      <trkpt lat="48.81284" lon="2.27966">
        <ele>75.800003051758</ele>
        <time>2016-02-01T20:21:41Z</time>
      </trkpt>
      <trkpt lat="48.81279" lon="2.27973">
        <ele>75.800003051758</ele>
        <time>2016-02-01T20:21:42Z</time>
      </trkpt>
      <trkpt lat="48.81262" lon="2.2799">
        <ele>76.400001525879</ele>
        <time>2016-02-01T20:21:45Z</time>
      </trkpt>
      <trkpt lat="48.81253" lon="2.28001">
        <ele>76.800003051758</ele>
        <time>2016-02-01T20:21:47Z</time>
      </trkpt>
      <trkpt lat="48.81238" lon="2.2802">
        <ele>77.400001525879</ele>
        <time>2016-02-01T20:21:50Z</time>
      </trkpt>
      <trkpt lat="48.81227" lon="2.28031">
        <ele>78</ele>
        <time>2016-02-01T20:21:52Z</time>
      </trkpt>
      <trkpt lat="48.81213" lon="2.28047">
        <ele>78.400001525879</ele>
        <time>2016-02-01T20:21:55Z</time>
      </trkpt>
      <trkpt lat="48.81194" lon="2.28066">
        <ele>78.800003051758</ele>
        <time>2016-02-01T20:21:59Z</time>
      </trkpt>
      <trkpt lat="48.81183" lon="2.28074">
        <ele>79.199996948242</ele>
        <time>2016-02-01T20:22:02Z</time>
      </trkpt>
      <trkpt lat="48.81173" lon="2.28075">
        <ele>79.599998474121</ele>
        <time>2016-02-01T20:22:07Z</time>
      </trkpt>
      <trkpt lat="48.81174" lon="2.28079">
        <ele>79.599998474121</ele>
        <time>2016-02-01T20:22:35Z</time>
      </trkpt>
      <trkpt lat="48.81156" lon="2.28095">
        <ele>80.599998474121</ele>
        <time>2016-02-01T20:22:41Z</time>
      </trkpt>
      <trkpt lat="48.81139" lon="2.2811">
        <ele>81.599998474121</ele>
        <time>2016-02-01T20:22:47Z</time>
      </trkpt>
      <trkpt lat="48.81122" lon="2.28126">
        <ele>81.800003051758</ele>
        <time>2016-02-01T20:22:53Z</time>
      </trkpt>
      <trkpt lat="48.81106" lon="2.28144">
        <ele>82</ele>
        <time>2016-02-01T20:22:59Z</time>
      </trkpt>
      <trkpt lat="48.81091" lon="2.28162">
        <ele>82.599998474121</ele>
        <time>2016-02-01T20:23:05Z</time>
      </trkpt>
      <trkpt lat="48.81075" lon="2.28176">
        <ele>83.199996948242</ele>
        <time>2016-02-01T20:23:11Z</time>
      </trkpt>
      <trkpt lat="48.81058" lon="2.28192">
        <ele>83.800003051758</ele>
        <time>2016-02-01T20:23:17Z</time>
      </trkpt>
      <trkpt lat="48.81043" lon="2.28209">
        <ele>84</ele>
        <time>2016-02-01T20:23:23Z</time>
      </trkpt>
      <trkpt lat="48.81026" lon="2.28224">
        <ele>84.199996948242</ele>
        <time>2016-02-01T20:23:29Z</time>
      </trkpt>
      <trkpt lat="48.8101" lon="2.28241">
        <ele>84</ele>
        <time>2016-02-01T20:23:35Z</time>
      </trkpt>
      <trkpt lat="48.80995" lon="2.28255">
        <ele>84.199996948242</ele>
        <time>2016-02-01T20:23:41Z</time>
      </trkpt>
      <trkpt lat="48.80979" lon="2.2827">
        <ele>84.199996948242</ele>
        <time>2016-02-01T20:23:47Z</time>
      </trkpt>
      <trkpt lat="48.80962" lon="2.28289">
        <ele>84</ele>
        <time>2016-02-01T20:23:54Z</time>
      </trkpt>
      <trkpt lat="48.80946" lon="2.28307">
        <ele>83.400001525879</ele>
        <time>2016-02-01T20:24:00Z</time>
      </trkpt>
      <trkpt lat="48.80928" lon="2.28323">
        <ele>83</ele>
        <time>2016-02-01T20:24:06Z</time>
      </trkpt>
      <trkpt lat="48.80913" lon="2.28339">
        <ele>83.400001525879</ele>
        <time>2016-02-01T20:24:12Z</time>
      </trkpt>
      <trkpt lat="48.80897" lon="2.28356">
        <ele>83.800003051758</ele>
        <time>2016-02-01T20:24:18Z</time>
      </trkpt>
      <trkpt lat="48.80881" lon="2.28374">
        <ele>84.199996948242</ele>
        <time>2016-02-01T20:24:25Z</time>
      </trkpt>
      <trkpt lat="48.80864" lon="2.28391">
        <ele>84.599998474121</ele>
        <time>2016-02-01T20:24:32Z</time>
      </trkpt>
      <trkpt lat="48.80848" lon="2.28407">
        <ele>85</ele>
        <time>2016-02-01T20:24:38Z</time>
      </trkpt>
      <trkpt lat="48.8083" lon="2.28423">
        <ele>85.599998474121</ele>
        <time>2016-02-01T20:24:45Z</time>
      </trkpt>
      <trkpt lat="48.80815" lon="2.28439">
        <ele>86.199996948242</ele>
        <time>2016-02-01T20:24:51Z</time>
      </trkpt>
      <trkpt lat="48.80799" lon="2.28455">
        <ele>86.599998474121</ele>
        <time>2016-02-01T20:24:57Z</time>
      </trkpt>
      <trkpt lat="48.80784" lon="2.28471">
        <ele>87.199996948242</ele>
        <time>2016-02-01T20:25:03Z</time>
      </trkpt>
      <trkpt lat="48.80767" lon="2.28486">
        <ele>88</ele>
        <time>2016-02-01T20:25:09Z</time>
      </trkpt>
      <trkpt lat="48.80751" lon="2.28502">
        <ele>88.599998474121</ele>
        <time>2016-02-01T20:25:15Z</time>
      </trkpt>
      <trkpt lat="48.80735" lon="2.2852">
        <ele>89.400001525879</ele>
        <time>2016-02-01T20:25:21Z</time>
      </trkpt>
      <trkpt lat="48.80719" lon="2.28536">
        <ele>90</ele>
        <time>2016-02-01T20:25:27Z</time>
      </trkpt>
      <trkpt lat="48.80703" lon="2.28553">
        <ele>90</ele>
        <time>2016-02-01T20:25:33Z</time>
      </trkpt>
      <trkpt lat="48.80685" lon="2.28568">
        <ele>90.199996948242</ele>
        <time>2016-02-01T20:25:39Z</time>
      </trkpt>
      <trkpt lat="48.8067" lon="2.28585">
        <ele>90.800003051758</ele>
        <time>2016-02-01T20:25:45Z</time>
      </trkpt>
      <trkpt lat="48.80654" lon="2.28601">
        <ele>91.400001525879</ele>
        <time>2016-02-01T20:25:51Z</time>
      </trkpt>
      <trkpt lat="48.80635" lon="2.28616">
        <ele>91.800003051758</ele>
        <time>2016-02-01T20:25:57Z</time>
      </trkpt>
      <trkpt lat="48.80617" lon="2.28635">
        <ele>90.599998474121</ele>
        <time>2016-02-01T20:26:02Z</time>
      </trkpt>
      <trkpt lat="48.806" lon="2.28651">
        <ele>89.599998474121</ele>
        <time>2016-02-01T20:26:07Z</time>
      </trkpt>
      <trkpt lat="48.80583" lon="2.28667">
        <ele>89.199996948242</ele>
        <time>2016-02-01T20:26:12Z</time>
      </trkpt>
      <trkpt lat="48.80567" lon="2.28683">
        <ele>89.400001525879</ele>
        <time>2016-02-01T20:26:17Z</time>
      </trkpt>
      <trkpt lat="48.80553" lon="2.28699">
        <ele>89.599998474121</ele>
        <time>2016-02-01T20:26:22Z</time>
      </trkpt>
      <trkpt lat="48.80536" lon="2.28716">
        <ele>90.199996948242</ele>
        <time>2016-02-01T20:26:28Z</time>
      </trkpt>
      <trkpt lat="48.80521" lon="2.28733">
        <ele>90.800003051758</ele>
        <time>2016-02-01T20:26:34Z</time>
      </trkpt>
      <trkpt lat="48.80504" lon="2.2875">
        <ele>92.199996948242</ele>
        <time>2016-02-01T20:26:41Z</time>
      </trkpt>
      <trkpt lat="48.80488" lon="2.28766">
        <ele>93.599998474121</ele>
        <time>2016-02-01T20:26:47Z</time>
      </trkpt>
      <trkpt lat="48.80473" lon="2.28783">
        <ele>94.800003051758</ele>
        <time>2016-02-01T20:26:53Z</time>
      </trkpt>
      <trkpt lat="48.80458" lon="2.28801">
        <ele>96.599998474121</ele>
        <time>2016-02-01T20:26:59Z</time>
      </trkpt>
      <trkpt lat="48.80443" lon="2.28816">
        <ele>98.199996948242</ele>
        <time>2016-02-01T20:27:05Z</time>
      </trkpt>
      <trkpt lat="48.80426" lon="2.28828">
        <ele>99</ele>
        <time>2016-02-01T20:27:11Z</time>
      </trkpt>
      <trkpt lat="48.8041" lon="2.28843">
        <ele>98.599998474121</ele>
        <time>2016-02-01T20:27:18Z</time>
      </trkpt>
      <trkpt lat="48.80404" lon="2.28848">
        <ele>98.599998474121</ele>
        <time>2016-02-01T20:27:21Z</time>
      </trkpt>
      <trkpt lat="48.80396" lon="2.28852">
        <ele>98.400001525879</ele>
        <time>2016-02-01T20:27:26Z</time>
      </trkpt>
      <trkpt lat="48.80385" lon="2.28858">
        <ele>98.400001525879</ele>
        <time>2016-02-01T20:27:34Z</time>
      </trkpt>
      <trkpt lat="48.80379" lon="2.28866">
        <ele>98.800003051758</ele>
        <time>2016-02-01T20:29:16Z</time>
      </trkpt>
      <trkpt lat="48.80364" lon="2.28873">
        <ele>100</ele>
        <time>2016-02-01T20:29:37Z</time>
      </trkpt>
      <trkpt lat="48.80346" lon="2.28858">
        <ele>100.59999847412</ele>
        <time>2016-02-01T20:29:45Z</time>
      </trkpt>
      <trkpt lat="48.80329" lon="2.28846">
        <ele>101.19999694824</ele>
        <time>2016-02-01T20:29:53Z</time>
      </trkpt>
      <trkpt lat="48.8031" lon="2.28836">
        <ele>102</ele>
        <time>2016-02-01T20:30:03Z</time>
      </trkpt>
      <trkpt lat="48.80292" lon="2.28822">
        <ele>102.59999847412</ele>
        <time>2016-02-01T20:30:10Z</time>
      </trkpt>
      <trkpt lat="48.80273" lon="2.2881">
        <ele>103.19999694824</ele>
        <time>2016-02-01T20:30:17Z</time>
      </trkpt>
      <trkpt lat="48.80256" lon="2.28792">
        <ele>103.40000152588</ele>
        <time>2016-02-01T20:30:23Z</time>
      </trkpt>
      <trkpt lat="48.80237" lon="2.28778">
        <ele>103.80000305176</ele>
        <time>2016-02-01T20:30:29Z</time>
      </trkpt>
      <trkpt lat="48.80219" lon="2.28766">
        <ele>104.19999694824</ele>
        <time>2016-02-01T20:30:34Z</time>
      </trkpt>
      <trkpt lat="48.80201" lon="2.28756">
        <ele>104.80000305176</ele>
        <time>2016-02-01T20:30:39Z</time>
      </trkpt>
      <trkpt lat="48.80182" lon="2.28744">
        <ele>105.40000152588</ele>
        <time>2016-02-01T20:30:45Z</time>
      </trkpt>
      <trkpt lat="48.80165" lon="2.28733">
        <ele>106</ele>
        <time>2016-02-01T20:30:50Z</time>
      </trkpt>
      <trkpt lat="48.80146" lon="2.28719">
        <ele>106.80000305176</ele>
        <time>2016-02-01T20:30:55Z</time>
      </trkpt>
      <trkpt lat="48.8013" lon="2.28704">
        <ele>107.40000152588</ele>
        <time>2016-02-01T20:30:59Z</time>
      </trkpt>
      <trkpt lat="48.80112" lon="2.28693">
        <ele>108.19999694824</ele>
        <time>2016-02-01T20:31:03Z</time>
      </trkpt>
      <trkpt lat="48.80095" lon="2.2868">
        <ele>108.80000305176</ele>
        <time>2016-02-01T20:31:07Z</time>
      </trkpt>
      <trkpt lat="48.80091" lon="2.28677">
        <ele>109</ele>
        <time>2016-02-01T20:31:08Z</time>
      </trkpt>
      <trkpt lat="48.80078" lon="2.28667">
        <ele>109.40000152588</ele>
        <time>2016-02-01T20:31:12Z</time>
      </trkpt>
      <trkpt lat="48.80061" lon="2.28654">
        <ele>110</ele>
        <time>2016-02-01T20:31:17Z</time>
      </trkpt>
      <trkpt lat="48.80053" lon="2.28648">
        <ele>110.40000152588</ele>
        <time>2016-02-01T20:31:20Z</time>
      </trkpt>
      <trkpt lat="48.80036" lon="2.28631">
        <ele>111</ele>
        <time>2016-02-01T20:31:26Z</time>
      </trkpt>
      <trkpt lat="48.8003" lon="2.28624">
        <ele>111.19999694824</ele>
        <time>2016-02-01T20:31:28Z</time>
      </trkpt>
      <trkpt lat="48.80014" lon="2.28606">
        <ele>111.80000305176</ele>
        <time>2016-02-01T20:31:33Z</time>
      </trkpt>
      <trkpt lat="48.79997" lon="2.2859">
        <ele>112.80000305176</ele>
        <time>2016-02-01T20:31:39Z</time>
      </trkpt>
      <trkpt lat="48.79982" lon="2.2857">
        <ele>113.80000305176</ele>
        <time>2016-02-01T20:31:47Z</time>
      </trkpt>
      <trkpt lat="48.79979" lon="2.28568">
        <ele>114</ele>
        <time>2016-02-01T20:31:50Z</time>
      </trkpt>
      <trkpt lat="48.79975" lon="2.28583">
        <ele>114.40000152588</ele>
        <time>2016-02-01T20:32:40Z</time>
      </trkpt>
      <trkpt lat="48.79965" lon="2.28599">
        <ele>115.40000152588</ele>
        <time>2016-02-01T20:33:08Z</time>
      </trkpt>
      <trkpt lat="48.79953" lon="2.28623">
        <ele>117.19999694824</ele>
        <time>2016-02-01T20:33:14Z</time>
      </trkpt>
      <trkpt lat="48.7994" lon="2.28645">
        <ele>119.19999694824</ele>
        <time>2016-02-01T20:33:19Z</time>
      </trkpt>
      <trkpt lat="48.79925" lon="2.28668">
        <ele>119.59999847412</ele>
        <time>2016-02-01T20:33:24Z</time>
      </trkpt>
      <trkpt lat="48.79908" lon="2.2868">
        <ele>119.19999694824</ele>
        <time>2016-02-01T20:33:28Z</time>
      </trkpt>
      <trkpt lat="48.7989" lon="2.28691">
        <ele>118.59999847412</ele>
        <time>2016-02-01T20:33:32Z</time>
      </trkpt>
      <trkpt lat="48.79874" lon="2.28704">
        <ele>118.19999694824</ele>
        <time>2016-02-01T20:33:36Z</time>
      </trkpt>
      <trkpt lat="48.79857" lon="2.28725">
        <ele>117.80000305176</ele>
        <time>2016-02-01T20:33:41Z</time>
      </trkpt>
      <trkpt lat="48.79854" lon="2.28729">
        <ele>118</ele>
        <time>2016-02-01T20:33:42Z</time>
      </trkpt>
      <trkpt lat="48.79842" lon="2.28741">
        <ele>119</ele>
        <time>2016-02-01T20:33:46Z</time>
      </trkpt>
      <trkpt lat="48.79835" lon="2.28749">
        <ele>119.19999694824</ele>
        <time>2016-02-01T20:33:51Z</time>
      </trkpt>
      <trkpt lat="48.79833" lon="2.28749">
        <ele>119.40000152588</ele>
        <time>2016-02-01T20:33:53Z</time>
      </trkpt>
      <trkpt lat="48.79822" lon="2.28758">
        <ele>120</ele>
        <time>2016-02-01T20:34:41Z</time>
      </trkpt>
      <trkpt lat="48.79804" lon="2.28769">
        <ele>121</ele>
        <time>2016-02-01T20:34:50Z</time>
      </trkpt>
      <trkpt lat="48.79786" lon="2.28777">
        <ele>121.80000305176</ele>
        <time>2016-02-01T20:34:58Z</time>
      </trkpt>
      <trkpt lat="48.79767" lon="2.28786">
        <ele>122</ele>
        <time>2016-02-01T20:35:06Z</time>
      </trkpt>
      <trkpt lat="48.79746" lon="2.28791">
        <ele>121.40000152588</ele>
        <time>2016-02-01T20:35:13Z</time>
      </trkpt>
      <trkpt lat="48.79726" lon="2.28797">
        <ele>120.19999694824</ele>
        <time>2016-02-01T20:35:19Z</time>
      </trkpt>
      <trkpt lat="48.79707" lon="2.288">
        <ele>119</ele>
        <time>2016-02-01T20:35:24Z</time>
      </trkpt>
      <trkpt lat="48.79685" lon="2.28804">
        <ele>117.40000152588</ele>
        <time>2016-02-01T20:35:28Z</time>
      </trkpt>
      <trkpt lat="48.7968" lon="2.28803">
        <ele>117.19999694824</ele>
        <time>2016-02-01T20:35:29Z</time>
      </trkpt>
      <trkpt lat="48.79658" lon="2.28802">
        <ele>116.59999847412</ele>
        <time>2016-02-01T20:35:33Z</time>
      </trkpt>
      <trkpt lat="48.79636" lon="2.28803">
        <ele>116</ele>
        <time>2016-02-01T20:35:37Z</time>
      </trkpt>
      <trkpt lat="48.79618" lon="2.288">
        <ele>115.80000305176</ele>
        <time>2016-02-01T20:35:40Z</time>
      </trkpt>
      <trkpt lat="48.79607" lon="2.28798">
        <ele>115.59999847412</ele>
        <time>2016-02-01T20:35:42Z</time>
      </trkpt>
      <trkpt lat="48.79584" lon="2.28796">
        <ele>115.40000152588</ele>
        <time>2016-02-01T20:35:46Z</time>
      </trkpt>
      <trkpt lat="48.79579" lon="2.28793">
        <ele>115.40000152588</ele>
        <time>2016-02-01T20:35:47Z</time>
      </trkpt>
      <trkpt lat="48.79558" lon="2.28793">
        <ele>115.40000152588</ele>
        <time>2016-02-01T20:35:51Z</time>
      </trkpt>
      <trkpt lat="48.79536" lon="2.28791">
        <ele>115.40000152588</ele>
        <time>2016-02-01T20:35:55Z</time>
      </trkpt>
      <trkpt lat="48.79526" lon="2.2879">
        <ele>115.40000152588</ele>
        <time>2016-02-01T20:35:57Z</time>
      </trkpt>
      <trkpt lat="48.79505" lon="2.28789">
        <ele>115.40000152588</ele>
        <time>2016-02-01T20:36:01Z</time>
      </trkpt>
      <trkpt lat="48.79495" lon="2.28792">
        <ele>115.40000152588</ele>
        <time>2016-02-01T20:36:03Z</time>
      </trkpt>
      <trkpt lat="48.79474" lon="2.28799">
        <ele>115.19999694824</ele>
        <time>2016-02-01T20:36:07Z</time>
      </trkpt>
      <trkpt lat="48.79453" lon="2.28803">
        <ele>115</ele>
        <time>2016-02-01T20:36:12Z</time>
      </trkpt>
      <trkpt lat="48.79439" lon="2.28808">
        <ele>114.80000305176</ele>
        <time>2016-02-01T20:36:16Z</time>
      </trkpt>
      <trkpt lat="48.79423" lon="2.28814">
        <ele>115</ele>
        <time>2016-02-01T20:36:21Z</time>
      </trkpt>
      <trkpt lat="48.79403" lon="2.28826">
        <ele>115.40000152588</ele>
        <time>2016-02-01T20:36:27Z</time>
      </trkpt>
      <trkpt lat="48.79383" lon="2.28832">
        <ele>116</ele>
        <time>2016-02-01T20:36:32Z</time>
      </trkpt>
      <trkpt lat="48.79363" lon="2.28843">
        <ele>116.40000152588</ele>
        <time>2016-02-01T20:36:37Z</time>
      </trkpt>
      <trkpt lat="48.79344" lon="2.28854">
        <ele>117</ele>
        <time>2016-02-01T20:36:42Z</time>
      </trkpt>
      <trkpt lat="48.79326" lon="2.28864">
        <ele>117.80000305176</ele>
        <time>2016-02-01T20:36:49Z</time>
      </trkpt>
      <trkpt lat="48.79317" lon="2.28875">
        <ele>118.19999694824</ele>
        <time>2016-02-01T20:37:06Z</time>
      </trkpt>
      <trkpt lat="48.79302" lon="2.28892">
        <ele>117.59999847412</ele>
        <time>2016-02-01T20:37:11Z</time>
      </trkpt>
      <trkpt lat="48.79284" lon="2.28912">
        <ele>116.80000305176</ele>
        <time>2016-02-01T20:37:16Z</time>
      </trkpt>
      <trkpt lat="48.79268" lon="2.28928">
        <ele>116</ele>
        <time>2016-02-01T20:37:20Z</time>
      </trkpt>
      <trkpt lat="48.79253" lon="2.28944">
        <ele>114.80000305176</ele>
        <time>2016-02-01T20:37:24Z</time>
      </trkpt>
      <trkpt lat="48.79235" lon="2.28962">
        <ele>113.40000152588</ele>
        <time>2016-02-01T20:37:29Z</time>
      </trkpt>
      <trkpt lat="48.79217" lon="2.28978">
        <ele>114.40000152588</ele>
        <time>2016-02-01T20:37:34Z</time>
      </trkpt>
      <trkpt lat="48.79212" lon="2.28992">
        <ele>114.80000305176</ele>
        <time>2016-02-01T20:37:40Z</time>
      </trkpt>
      <trkpt lat="48.79229" lon="2.29009">
        <ele>113.59999847412</ele>
        <time>2016-02-01T20:37:47Z</time>
      </trkpt>
      <trkpt lat="48.79249" lon="2.29019">
        <ele>112.19999694824</ele>
        <time>2016-02-01T20:37:52Z</time>
      </trkpt>
      <trkpt lat="48.79269" lon="2.29032">
        <ele>110.80000305176</ele>
        <time>2016-02-01T20:37:57Z</time>
      </trkpt>
      <trkpt lat="48.79288" lon="2.29045">
        <ele>109.80000305176</ele>
        <time>2016-02-01T20:38:02Z</time>
      </trkpt>
      <trkpt lat="48.79306" lon="2.29062">
        <ele>108.80000305176</ele>
        <time>2016-02-01T20:38:07Z</time>
      </trkpt>
      <trkpt lat="48.79324" lon="2.29075">
        <ele>108</ele>
        <time>2016-02-01T20:38:11Z</time>
      </trkpt>
      <trkpt lat="48.79342" lon="2.29079">
        <ele>107.40000152588</ele>
        <time>2016-02-01T20:38:14Z</time>
      </trkpt>
      <trkpt lat="48.79365" lon="2.29091">
        <ele>106.40000152588</ele>
        <time>2016-02-01T20:38:18Z</time>
      </trkpt>
      <trkpt lat="48.79382" lon="2.29102">
        <ele>105.59999847412</ele>
        <time>2016-02-01T20:38:21Z</time>
      </trkpt>
      <trkpt lat="48.794" lon="2.29112">
        <ele>105</ele>
        <time>2016-02-01T20:38:24Z</time>
      </trkpt>
      <trkpt lat="48.79422" lon="2.29123">
        <ele>104.19999694824</ele>
        <time>2016-02-01T20:38:28Z</time>
      </trkpt>
      <trkpt lat="48.79444" lon="2.29136">
        <ele>103.40000152588</ele>
        <time>2016-02-01T20:38:32Z</time>
      </trkpt>
      <trkpt lat="48.79465" lon="2.2915">
        <ele>102.59999847412</ele>
        <time>2016-02-01T20:38:36Z</time>
      </trkpt>
      <trkpt lat="48.79486" lon="2.29164">
        <ele>102</ele>
        <time>2016-02-01T20:38:40Z</time>
      </trkpt>
      <trkpt lat="48.79508" lon="2.29174">
        <ele>101.40000152588</ele>
        <time>2016-02-01T20:38:44Z</time>
      </trkpt>
      <trkpt lat="48.79514" lon="2.29177">
        <ele>101.40000152588</ele>
        <time>2016-02-01T20:38:45Z</time>
      </trkpt>
      <trkpt lat="48.79536" lon="2.29191">
        <ele>101</ele>
        <time>2016-02-01T20:38:49Z</time>
      </trkpt>
      <trkpt lat="48.79552" lon="2.29202">
        <ele>100.80000305176</ele>
        <time>2016-02-01T20:38:52Z</time>
      </trkpt>
      <trkpt lat="48.7957" lon="2.29212">
        <ele>100.80000305176</ele>
        <time>2016-02-01T20:38:55Z</time>
      </trkpt>
      <trkpt lat="48.79587" lon="2.2922">
        <ele>100.59999847412</ele>
        <time>2016-02-01T20:38:58Z</time>
      </trkpt>
      <trkpt lat="48.79608" lon="2.29233">
        <ele>100.40000152588</ele>
        <time>2016-02-01T20:39:02Z</time>
      </trkpt>
      <trkpt lat="48.7963" lon="2.29246">
        <ele>100</ele>
        <time>2016-02-01T20:39:06Z</time>
      </trkpt>
      <trkpt lat="48.79648" lon="2.29256">
        <ele>100</ele>
        <time>2016-02-01T20:39:09Z</time>
      </trkpt>
      <trkpt lat="48.79665" lon="2.29266">
        <ele>100</ele>
        <time>2016-02-01T20:39:12Z</time>
      </trkpt>
      <trkpt lat="48.79688" lon="2.29278">
        <ele>100</ele>
        <time>2016-02-01T20:39:16Z</time>
      </trkpt>
      <trkpt lat="48.79708" lon="2.2929">
        <ele>101</ele>
        <time>2016-02-01T20:39:20Z</time>
      </trkpt>
      <trkpt lat="48.79722" lon="2.29303">
        <ele>101.59999847412</ele>
        <time>2016-02-01T20:39:23Z</time>
      </trkpt>
      <trkpt lat="48.7974" lon="2.29324">
        <ele>102.40000152588</ele>
        <time>2016-02-01T20:39:27Z</time>
      </trkpt>
      <trkpt lat="48.79755" lon="2.29341">
        <ele>103</ele>
        <time>2016-02-01T20:39:30Z</time>
      </trkpt>
      <trkpt lat="48.79771" lon="2.29366">
        <ele>103.19999694824</ele>
        <time>2016-02-01T20:39:34Z</time>
      </trkpt>
      <trkpt lat="48.79784" lon="2.29386">
        <ele>102.40000152588</ele>
        <time>2016-02-01T20:39:37Z</time>
      </trkpt>
      <trkpt lat="48.79801" lon="2.29411">
        <ele>101.40000152588</ele>
        <time>2016-02-01T20:39:41Z</time>
      </trkpt>
      <trkpt lat="48.79809" lon="2.29421">
        <ele>101</ele>
        <time>2016-02-01T20:39:43Z</time>
      </trkpt>
      <trkpt lat="48.79823" lon="2.2944">
        <ele>100.80000305176</ele>
        <time>2016-02-01T20:39:48Z</time>
      </trkpt>
      <trkpt lat="48.79831" lon="2.29452">
        <ele>100.59999847412</ele>
        <time>2016-02-01T20:39:52Z</time>
      </trkpt>
      <trkpt lat="48.79837" lon="2.29459">
        <ele>100.40000152588</ele>
        <time>2016-02-01T20:39:55Z</time>
      </trkpt>
      <trkpt lat="48.79845" lon="2.29465">
        <ele>100.19999694824</ele>
        <time>2016-02-01T20:39:58Z</time>
      </trkpt>
      <trkpt lat="48.79863" lon="2.29482">
        <ele>99.800003051758</ele>
        <time>2016-02-01T20:40:03Z</time>
      </trkpt>
      <trkpt lat="48.79875" lon="2.29498">
        <ele>99.400001525879</ele>
        <time>2016-02-01T20:40:06Z</time>
      </trkpt>
      <trkpt lat="48.79894" lon="2.29519">
        <ele>98</ele>
        <time>2016-02-01T20:40:10Z</time>
      </trkpt>
      <trkpt lat="48.7991" lon="2.29533">
        <ele>97</ele>
        <time>2016-02-01T20:40:13Z</time>
      </trkpt>
      <trkpt lat="48.79922" lon="2.2954">
        <ele>96.400001525879</ele>
        <time>2016-02-01T20:40:15Z</time>
      </trkpt>
      <trkpt lat="48.79941" lon="2.29549">
        <ele>95.400001525879</ele>
        <time>2016-02-01T20:40:18Z</time>
      </trkpt>
      <trkpt lat="48.79961" lon="2.29556">
        <ele>95.400001525879</ele>
        <time>2016-02-01T20:40:21Z</time>
      </trkpt>
      <trkpt lat="48.79968" lon="2.29559">
        <ele>95.400001525879</ele>
        <time>2016-02-01T20:40:22Z</time>
      </trkpt>
      <trkpt lat="48.7998" lon="2.29567">
        <ele>95.199996948242</ele>
        <time>2016-02-01T20:40:24Z</time>
      </trkpt>
      <trkpt lat="48.8" lon="2.29573">
        <ele>95</ele>
        <time>2016-02-01T20:40:27Z</time>
      </trkpt>
      <trkpt lat="48.80007" lon="2.29576">
        <ele>95</ele>
        <time>2016-02-01T20:40:28Z</time>
      </trkpt>
      <trkpt lat="48.80027" lon="2.29584">
        <ele>95</ele>
        <time>2016-02-01T20:40:31Z</time>
      </trkpt>
      <trkpt lat="48.80046" lon="2.29593">
        <ele>95</ele>
        <time>2016-02-01T20:40:34Z</time>
      </trkpt>
      <trkpt lat="48.80067" lon="2.29607">
        <ele>94.800003051758</ele>
        <time>2016-02-01T20:40:38Z</time>
      </trkpt>
      <trkpt lat="48.80084" lon="2.29613">
        <ele>95</ele>
        <time>2016-02-01T20:40:41Z</time>
      </trkpt>
      <trkpt lat="48.80103" lon="2.29618">
        <ele>95.199996948242</ele>
        <time>2016-02-01T20:40:44Z</time>
      </trkpt>
      <trkpt lat="48.80125" lon="2.29625">
        <ele>95.400001525879</ele>
        <time>2016-02-01T20:40:47Z</time>
      </trkpt>
      <trkpt lat="48.80145" lon="2.29634">
        <ele>95.400001525879</ele>
        <time>2016-02-01T20:40:50Z</time>
      </trkpt>
      <trkpt lat="48.80166" lon="2.29645">
        <ele>95.400001525879</ele>
        <time>2016-02-01T20:40:53Z</time>
      </trkpt>
      <trkpt lat="48.80188" lon="2.29656">
        <ele>95.400001525879</ele>
        <time>2016-02-01T20:40:56Z</time>
      </trkpt>
      <trkpt lat="48.8021" lon="2.29666">
        <ele>95.199996948242</ele>
        <time>2016-02-01T20:40:59Z</time>
      </trkpt>
      <trkpt lat="48.8023" lon="2.29674">
        <ele>95.199996948242</ele>
        <time>2016-02-01T20:41:02Z</time>
      </trkpt>
      <trkpt lat="48.80249" lon="2.29683">
        <ele>95.199996948242</ele>
        <time>2016-02-01T20:41:05Z</time>
      </trkpt>
      <trkpt lat="48.80267" lon="2.29692">
        <ele>95.199996948242</ele>
        <time>2016-02-01T20:41:08Z</time>
      </trkpt>
      <trkpt lat="48.80286" lon="2.29701">
        <ele>95</ele>
        <time>2016-02-01T20:41:11Z</time>
      </trkpt>
      <trkpt lat="48.80305" lon="2.29712">
        <ele>94.400001525879</ele>
        <time>2016-02-01T20:41:14Z</time>
      </trkpt>
      <trkpt lat="48.80324" lon="2.29723">
        <ele>94</ele>
        <time>2016-02-01T20:41:17Z</time>
      </trkpt>
      <trkpt lat="48.80342" lon="2.29733">
        <ele>93.400001525879</ele>
        <time>2016-02-01T20:41:20Z</time>
      </trkpt>
      <trkpt lat="48.8036" lon="2.29746">
        <ele>93</ele>
        <time>2016-02-01T20:41:23Z</time>
      </trkpt>
      <trkpt lat="48.80377" lon="2.29758">
        <ele>92.800003051758</ele>
        <time>2016-02-01T20:41:26Z</time>
      </trkpt>
      <trkpt lat="48.80398" lon="2.29773">
        <ele>92.599998474121</ele>
        <time>2016-02-01T20:41:30Z</time>
      </trkpt>
      <trkpt lat="48.80403" lon="2.29775">
        <ele>92.599998474121</ele>
        <time>2016-02-01T20:41:31Z</time>
      </trkpt>
      <trkpt lat="48.80427" lon="2.29779">
        <ele>92.599998474121</ele>
        <time>2016-02-01T20:41:35Z</time>
      </trkpt>
      <trkpt lat="48.80445" lon="2.2978">
        <ele>92.800003051758</ele>
        <time>2016-02-01T20:41:38Z</time>
      </trkpt>
      <trkpt lat="48.80463" lon="2.29782">
        <ele>92.400001525879</ele>
        <time>2016-02-01T20:41:41Z</time>
      </trkpt>
      <trkpt lat="48.80483" lon="2.29787">
        <ele>92</ele>
        <time>2016-02-01T20:41:44Z</time>
      </trkpt>
      <trkpt lat="48.80504" lon="2.2979">
        <ele>91.599998474121</ele>
        <time>2016-02-01T20:41:47Z</time>
      </trkpt>
      <trkpt lat="48.80524" lon="2.29792">
        <ele>91.400001525879</ele>
        <time>2016-02-01T20:41:50Z</time>
      </trkpt>
      <trkpt lat="48.80543" lon="2.29796">
        <ele>90.800003051758</ele>
        <time>2016-02-01T20:41:53Z</time>
      </trkpt>
      <trkpt lat="48.80562" lon="2.298">
        <ele>90.199996948242</ele>
        <time>2016-02-01T20:41:56Z</time>
      </trkpt>
      <trkpt lat="48.80582" lon="2.29801">
        <ele>89.599998474121</ele>
        <time>2016-02-01T20:41:59Z</time>
      </trkpt>
      <trkpt lat="48.80588" lon="2.29802">
        <ele>89.400001525879</ele>
        <time>2016-02-01T20:42:00Z</time>
      </trkpt>
      <trkpt lat="48.80612" lon="2.29807">
        <ele>89</ele>
        <time>2016-02-01T20:42:04Z</time>
      </trkpt>
      <trkpt lat="48.80634" lon="2.29814">
        <ele>89</ele>
        <time>2016-02-01T20:42:08Z</time>
      </trkpt>
      <trkpt lat="48.80658" lon="2.29819">
        <ele>89</ele>
        <time>2016-02-01T20:42:12Z</time>
      </trkpt>
      <trkpt lat="48.80663" lon="2.29819">
        <ele>89</ele>
        <time>2016-02-01T20:42:13Z</time>
      </trkpt>
      <trkpt lat="48.80686" lon="2.29822">
        <ele>89.199996948242</ele>
        <time>2016-02-01T20:42:17Z</time>
      </trkpt>
      <trkpt lat="48.80698" lon="2.29829">
        <ele>89.199996948242</ele>
        <time>2016-02-01T20:42:19Z</time>
      </trkpt>
      <trkpt lat="48.80714" lon="2.2985">
        <ele>88.599998474121</ele>
        <time>2016-02-01T20:42:23Z</time>
      </trkpt>
      <trkpt lat="48.80722" lon="2.29856">
        <ele>88.599998474121</ele>
        <time>2016-02-01T20:42:26Z</time>
      </trkpt>
      <trkpt lat="48.80729" lon="2.29866">
        <ele>88.199996948242</ele>
        <time>2016-02-01T20:42:42Z</time>
      </trkpt>
      <trkpt lat="48.8074" lon="2.29875">
        <ele>88</ele>
        <time>2016-02-01T20:42:46Z</time>
      </trkpt>
      <trkpt lat="48.80758" lon="2.29892">
        <ele>87.599998474121</ele>
        <time>2016-02-01T20:42:51Z</time>
      </trkpt>
      <trkpt lat="48.80776" lon="2.29909">
        <ele>87.400001525879</ele>
        <time>2016-02-01T20:42:55Z</time>
      </trkpt>
      <trkpt lat="48.80794" lon="2.29928">
        <ele>87.400001525879</ele>
        <time>2016-02-01T20:42:59Z</time>
      </trkpt>
      <trkpt lat="48.80811" lon="2.29946">
        <ele>87.599998474121</ele>
        <time>2016-02-01T20:43:03Z</time>
      </trkpt>
      <trkpt lat="48.80829" lon="2.29965">
        <ele>87.800003051758</ele>
        <time>2016-02-01T20:43:07Z</time>
      </trkpt>
      <trkpt lat="48.80843" lon="2.29981">
        <ele>88</ele>
        <time>2016-02-01T20:43:10Z</time>
      </trkpt>
      <trkpt lat="48.8086" lon="2.30002">
        <ele>88</ele>
        <time>2016-02-01T20:43:13Z</time>
      </trkpt>
      <trkpt lat="48.80865" lon="2.30009">
        <ele>88</ele>
        <time>2016-02-01T20:43:14Z</time>
      </trkpt>
      <trkpt lat="48.80879" lon="2.30032">
        <ele>87.800003051758</ele>
        <time>2016-02-01T20:43:17Z</time>
      </trkpt>
      <trkpt lat="48.80895" lon="2.30052">
        <ele>87.599998474121</ele>
        <time>2016-02-01T20:43:20Z</time>
      </trkpt>
      <trkpt lat="48.80901" lon="2.30058">
        <ele>87.599998474121</ele>
        <time>2016-02-01T20:43:21Z</time>
      </trkpt>
      <trkpt lat="48.80915" lon="2.30079">
        <ele>87.400001525879</ele>
        <time>2016-02-01T20:43:24Z</time>
      </trkpt>
      <trkpt lat="48.80931" lon="2.30099">
        <ele>87.199996948242</ele>
        <time>2016-02-01T20:43:27Z</time>
      </trkpt>
      <trkpt lat="48.80941" lon="2.30113">
        <ele>86.800003051758</ele>
        <time>2016-02-01T20:43:29Z</time>
      </trkpt>
      <trkpt lat="48.80954" lon="2.30134">
        <ele>85.599998474121</ele>
        <time>2016-02-01T20:43:32Z</time>
      </trkpt>
      <trkpt lat="48.8097" lon="2.30158">
        <ele>84.400001525879</ele>
        <time>2016-02-01T20:43:36Z</time>
      </trkpt>
      <trkpt lat="48.8099" lon="2.3017">
        <ele>83.599998474121</ele>
        <time>2016-02-01T20:43:40Z</time>
      </trkpt>
      <trkpt lat="48.81011" lon="2.30174">
        <ele>83</ele>
        <time>2016-02-01T20:43:43Z</time>
      </trkpt>
      <trkpt lat="48.81037" lon="2.30183">
        <ele>82</ele>
        <time>2016-02-01T20:43:46Z</time>
      </trkpt>
      <trkpt lat="48.8105" lon="2.30213">
        <ele>80.800003051758</ele>
        <time>2016-02-01T20:43:49Z</time>
      </trkpt>
      <trkpt lat="48.81064" lon="2.30232">
        <ele>79.800003051758</ele>
        <time>2016-02-01T20:43:52Z</time>
      </trkpt>
      <trkpt lat="48.81084" lon="2.3025">
        <ele>78.800003051758</ele>
        <time>2016-02-01T20:43:56Z</time>
      </trkpt>
      <trkpt lat="48.81102" lon="2.30265">
        <ele>78.599998474121</ele>
        <time>2016-02-01T20:44:00Z</time>
      </trkpt>
      <trkpt lat="48.81106" lon="2.30269">
        <ele>78.400001525879</ele>
        <time>2016-02-01T20:44:01Z</time>
      </trkpt>
      <trkpt lat="48.81122" lon="2.30283">
        <ele>78</ele>
        <time>2016-02-01T20:44:05Z</time>
      </trkpt>
      <trkpt lat="48.8113" lon="2.30288">
        <ele>77.800003051758</ele>
        <time>2016-02-01T20:44:07Z</time>
      </trkpt>
      <trkpt lat="48.81144" lon="2.30307">
        <ele>77.599998474121</ele>
        <time>2016-02-01T20:44:11Z</time>
      </trkpt>
      <trkpt lat="48.81157" lon="2.30331">
        <ele>77.599998474121</ele>
        <time>2016-02-01T20:44:15Z</time>
      </trkpt>
      <trkpt lat="48.81171" lon="2.30357">
        <ele>77.800003051758</ele>
        <time>2016-02-01T20:44:19Z</time>
      </trkpt>
      <trkpt lat="48.81184" lon="2.30382">
        <ele>78.199996948242</ele>
        <time>2016-02-01T20:44:23Z</time>
      </trkpt>
      <trkpt lat="48.81199" lon="2.30405">
        <ele>78.400001525879</ele>
        <time>2016-02-01T20:44:27Z</time>
      </trkpt>
      <trkpt lat="48.81212" lon="2.30429">
        <ele>78.599998474121</ele>
        <time>2016-02-01T20:44:31Z</time>
      </trkpt>
      <trkpt lat="48.81228" lon="2.30447">
        <ele>78.400001525879</ele>
        <time>2016-02-01T20:44:35Z</time>
      </trkpt>
      <trkpt lat="48.81232" lon="2.30453">
        <ele>78.400001525879</ele>
        <time>2016-02-01T20:44:36Z</time>
      </trkpt>
      <trkpt lat="48.81248" lon="2.30478">
        <ele>78.400001525879</ele>
        <time>2016-02-01T20:44:40Z</time>
      </trkpt>
      <trkpt lat="48.81256" lon="2.30488">
        <ele>78.199996948242</ele>
        <time>2016-02-01T20:44:42Z</time>
      </trkpt>
      <trkpt lat="48.8127" lon="2.30512">
        <ele>78.400001525879</ele>
        <time>2016-02-01T20:44:46Z</time>
      </trkpt>
      <trkpt lat="48.81281" lon="2.30529">
        <ele>78.599998474121</ele>
        <time>2016-02-01T20:44:49Z</time>
      </trkpt>
      <trkpt lat="48.81294" lon="2.30556">
        <ele>78.800003051758</ele>
        <time>2016-02-01T20:44:53Z</time>
      </trkpt>
      <trkpt lat="48.81308" lon="2.3058">
        <ele>79.199996948242</ele>
        <time>2016-02-01T20:44:57Z</time>
      </trkpt>
      <trkpt lat="48.81322" lon="2.30603">
        <ele>78.199996948242</ele>
        <time>2016-02-01T20:45:01Z</time>
      </trkpt>
      <trkpt lat="48.8134" lon="2.30623">
        <ele>77.400001525879</ele>
        <time>2016-02-01T20:45:05Z</time>
      </trkpt>
      <trkpt lat="48.81346" lon="2.30628">
        <ele>77</ele>
        <time>2016-02-01T20:45:06Z</time>
      </trkpt>
      <trkpt lat="48.8136" lon="2.30648">
        <ele>76.199996948242</ele>
        <time>2016-02-01T20:45:09Z</time>
      </trkpt>
      <trkpt lat="48.81369" lon="2.30663">
        <ele>75.599998474121</ele>
        <time>2016-02-01T20:45:11Z</time>
      </trkpt>
      <trkpt lat="48.81384" lon="2.30688">
        <ele>75.599998474121</ele>
        <time>2016-02-01T20:45:15Z</time>
      </trkpt>
      <trkpt lat="48.81397" lon="2.30708">
        <ele>75.599998474121</ele>
        <time>2016-02-01T20:45:18Z</time>
      </trkpt>
      <trkpt lat="48.81413" lon="2.30734">
        <ele>76</ele>
        <time>2016-02-01T20:45:22Z</time>
      </trkpt>
      <trkpt lat="48.81424" lon="2.30755">
        <ele>76.199996948242</ele>
        <time>2016-02-01T20:45:25Z</time>
      </trkpt>
      <trkpt lat="48.8144" lon="2.30782">
        <ele>76.599998474121</ele>
        <time>2016-02-01T20:45:29Z</time>
      </trkpt>
      <trkpt lat="48.81453" lon="2.30809">
        <ele>78.199996948242</ele>
        <time>2016-02-01T20:45:33Z</time>
      </trkpt>
      <trkpt lat="48.81466" lon="2.30834">
        <ele>79.400001525879</ele>
        <time>2016-02-01T20:45:37Z</time>
      </trkpt>
      <trkpt lat="48.81479" lon="2.30863">
        <ele>79.800003051758</ele>
        <time>2016-02-01T20:45:41Z</time>
      </trkpt>
      <trkpt lat="48.81487" lon="2.30882">
        <ele>80.199996948242</ele>
        <time>2016-02-01T20:45:44Z</time>
      </trkpt>
      <trkpt lat="48.81506" lon="2.30907">
        <ele>80.400001525879</ele>
        <time>2016-02-01T20:45:48Z</time>
      </trkpt>
      <trkpt lat="48.81514" lon="2.30918">
        <ele>80.599998474121</ele>
        <time>2016-02-01T20:45:50Z</time>
      </trkpt>
      <trkpt lat="48.81528" lon="2.30942">
        <ele>79.400001525879</ele>
        <time>2016-02-01T20:45:54Z</time>
      </trkpt>
      <trkpt lat="48.81535" lon="2.30955">
        <ele>78.599998474121</ele>
        <time>2016-02-01T20:45:56Z</time>
      </trkpt>
      <trkpt lat="48.81542" lon="2.30967">
        <ele>77.599998474121</ele>
        <time>2016-02-01T20:45:58Z</time>
      </trkpt>
      <trkpt lat="48.81555" lon="2.30993">
        <ele>76</ele>
        <time>2016-02-01T20:46:02Z</time>
      </trkpt>
      <trkpt lat="48.81568" lon="2.31021">
        <ele>75.599998474121</ele>
        <time>2016-02-01T20:46:06Z</time>
      </trkpt>
      <trkpt lat="48.8158" lon="2.31046">
        <ele>75.599998474121</ele>
        <time>2016-02-01T20:46:10Z</time>
      </trkpt>
      <trkpt lat="48.81594" lon="2.31075">
        <ele>75.199996948242</ele>
        <time>2016-02-01T20:46:14Z</time>
      </trkpt>
      <trkpt lat="48.81599" lon="2.31085">
        <ele>74.800003051758</ele>
        <time>2016-02-01T20:46:15Z</time>
      </trkpt>
      <trkpt lat="48.81607" lon="2.31116">
        <ele>73.800003051758</ele>
        <time>2016-02-01T20:46:19Z</time>
      </trkpt>
      <trkpt lat="48.81608" lon="2.31132">
        <ele>73.199996948242</ele>
        <time>2016-02-01T20:46:21Z</time>
      </trkpt>
      <trkpt lat="48.81615" lon="2.31153">
        <ele>72.599998474121</ele>
        <time>2016-02-01T20:46:25Z</time>
      </trkpt>
      <trkpt lat="48.81616" lon="2.31155">
        <ele>72.400001525879</ele>
        <time>2016-02-01T20:46:26Z</time>
      </trkpt>
      <trkpt lat="48.81618" lon="2.31158">
        <ele>72.400001525879</ele>
        <time>2016-02-01T20:46:28Z</time>
      </trkpt>
      <trkpt lat="48.81632" lon="2.31173">
        <ele>72.199996948242</ele>
        <time>2016-02-01T20:46:57Z</time>
      </trkpt>
      <trkpt lat="48.81636" lon="2.31179">
        <ele>72.199996948242</ele>
        <time>2016-02-01T20:47:00Z</time>
      </trkpt>
      <trkpt lat="48.81648" lon="2.31194">
        <ele>72.199996948242</ele>
        <time>2016-02-01T20:47:07Z</time>
      </trkpt>
      <trkpt lat="48.81659" lon="2.31216">
        <ele>72</ele>
        <time>2016-02-01T20:47:12Z</time>
      </trkpt>
      <trkpt lat="48.81663" lon="2.31243">
        <ele>71.800003051758</ele>
        <time>2016-02-01T20:47:16Z</time>
      </trkpt>
      <trkpt lat="48.81668" lon="2.31248">
        <ele>71.800003051758</ele>
        <time>2016-02-01T20:47:17Z</time>
      </trkpt>
      <trkpt lat="48.81676" lon="2.3128">
        <ele>71.400001525879</ele>
        <time>2016-02-01T20:47:22Z</time>
      </trkpt>
      <trkpt lat="48.81678" lon="2.31288">
        <ele>71.400001525879</ele>
        <time>2016-02-01T20:47:23Z</time>
      </trkpt>
      <trkpt lat="48.81684" lon="2.31315">
        <ele>71.199996948242</ele>
        <time>2016-02-01T20:47:27Z</time>
      </trkpt>
      <trkpt lat="48.8169" lon="2.31346">
        <ele>70.800003051758</ele>
        <time>2016-02-01T20:47:32Z</time>
      </trkpt>
      <trkpt lat="48.81698" lon="2.31378">
        <ele>70.599998474121</ele>
        <time>2016-02-01T20:47:37Z</time>
      </trkpt>
      <trkpt lat="48.81701" lon="2.31399">
        <ele>70.400001525879</ele>
        <time>2016-02-01T20:47:40Z</time>
      </trkpt>
      <trkpt lat="48.81706" lon="2.31421">
        <ele>70.199996948242</ele>
        <time>2016-02-01T20:47:43Z</time>
      </trkpt>
      <trkpt lat="48.81711" lon="2.31435">
        <ele>70</ele>
        <time>2016-02-01T20:47:45Z</time>
      </trkpt>
      <trkpt lat="48.81718" lon="2.31463">
        <ele>70</ele>
        <time>2016-02-01T20:47:49Z</time>
      </trkpt>
      <trkpt lat="48.81723" lon="2.31484">
        <ele>70</ele>
        <time>2016-02-01T20:47:52Z</time>
      </trkpt>
      <trkpt lat="48.81732" lon="2.3151">
        <ele>70.400001525879</ele>
        <time>2016-02-01T20:47:56Z</time>
      </trkpt>
      <trkpt lat="48.81734" lon="2.31516">
        <ele>70.599998474121</ele>
        <time>2016-02-01T20:47:57Z</time>
      </trkpt>
      <trkpt lat="48.81743" lon="2.31541">
        <ele>71.599998474121</ele>
        <time>2016-02-01T20:48:01Z</time>
      </trkpt>
      <trkpt lat="48.81751" lon="2.31569">
        <ele>72.400001525879</ele>
        <time>2016-02-01T20:48:05Z</time>
      </trkpt>
      <trkpt lat="48.8176" lon="2.31596">
        <ele>72.599998474121</ele>
        <time>2016-02-01T20:48:09Z</time>
      </trkpt>
      <trkpt lat="48.8177" lon="2.31625">
        <ele>72.400001525879</ele>
        <time>2016-02-01T20:48:13Z</time>
      </trkpt>
      <trkpt lat="48.81774" lon="2.31638">
        <ele>72.400001525879</ele>
        <time>2016-02-01T20:48:15Z</time>
      </trkpt>
      <trkpt lat="48.81783" lon="2.31668">
        <ele>72.199996948242</ele>
        <time>2016-02-01T20:48:19Z</time>
      </trkpt>
      <trkpt lat="48.81788" lon="2.31687">
        <ele>72.599998474121</ele>
        <time>2016-02-01T20:48:21Z</time>
      </trkpt>
      <trkpt lat="48.81792" lon="2.31715">
        <ele>73.599998474121</ele>
        <time>2016-02-01T20:48:24Z</time>
      </trkpt>
      <trkpt lat="48.81798" lon="2.31742">
        <ele>74.599998474121</ele>
        <time>2016-02-01T20:48:27Z</time>
      </trkpt>
      <trkpt lat="48.81805" lon="2.31769">
        <ele>75.199996948242</ele>
        <time>2016-02-01T20:48:30Z</time>
      </trkpt>
      <trkpt lat="48.81812" lon="2.31795">
        <ele>75.599998474121</ele>
        <time>2016-02-01T20:48:33Z</time>
      </trkpt>
      <trkpt lat="48.81819" lon="2.31821">
        <ele>76.199996948242</ele>
        <time>2016-02-01T20:48:36Z</time>
      </trkpt>
      <trkpt lat="48.81827" lon="2.31846">
        <ele>76.599998474121</ele>
        <time>2016-02-01T20:48:39Z</time>
      </trkpt>
      <trkpt lat="48.81834" lon="2.31871">
        <ele>76.800003051758</ele>
        <time>2016-02-01T20:48:42Z</time>
      </trkpt>
      <trkpt lat="48.81845" lon="2.31902">
        <ele>77</ele>
        <time>2016-02-01T20:48:46Z</time>
      </trkpt>
      <trkpt lat="48.81848" lon="2.31933">
        <ele>77.199996948242</ele>
        <time>2016-02-01T20:48:50Z</time>
      </trkpt>
      <trkpt lat="48.81848" lon="2.31951">
        <ele>77.400001525879</ele>
        <time>2016-02-01T20:48:54Z</time>
      </trkpt>
      <trkpt lat="48.81847" lon="2.31956">
        <ele>77.599998474121</ele>
        <time>2016-02-01T20:48:56Z</time>
      </trkpt>
      <trkpt lat="48.81844" lon="2.3196">
        <ele>77.599998474121</ele>
        <time>2016-02-01T20:49:00Z</time>
      </trkpt>
      <trkpt lat="48.81846" lon="2.31979">
        <ele>77.800003051758</ele>
        <time>2016-02-01T20:49:52Z</time>
      </trkpt>
      <trkpt lat="48.81842" lon="2.31993">
        <ele>77.800003051758</ele>
        <time>2016-02-01T20:49:58Z</time>
      </trkpt>
      <trkpt lat="48.81842" lon="2.32004">
        <ele>77.599998474121</ele>
        <time>2016-02-01T20:50:02Z</time>
      </trkpt>
      <trkpt lat="48.81838" lon="2.32033">
        <ele>77.599998474121</ele>
        <time>2016-02-01T20:50:09Z</time>
      </trkpt>
      <trkpt lat="48.81837" lon="2.32064">
        <ele>77.599998474121</ele>
        <time>2016-02-01T20:50:16Z</time>
      </trkpt>
      <trkpt lat="48.81837" lon="2.32087">
        <ele>78</ele>
        <time>2016-02-01T20:50:20Z</time>
      </trkpt>
      <trkpt lat="48.8183" lon="2.32119">
        <ele>78</ele>
        <time>2016-02-01T20:50:25Z</time>
      </trkpt>
      <trkpt lat="48.81826" lon="2.32146">
        <ele>78.199996948242</ele>
        <time>2016-02-01T20:50:29Z</time>
      </trkpt>
      <trkpt lat="48.81822" lon="2.32175">
        <ele>78.800003051758</ele>
        <time>2016-02-01T20:50:34Z</time>
      </trkpt>
      <trkpt lat="48.81813" lon="2.32202">
        <ele>79</ele>
        <time>2016-02-01T20:50:39Z</time>
      </trkpt>
      <trkpt lat="48.81808" lon="2.32234">
        <ele>78.400001525879</ele>
        <time>2016-02-01T20:50:44Z</time>
      </trkpt>
      <trkpt lat="48.81808" lon="2.32262">
        <ele>78.400001525879</ele>
        <time>2016-02-01T20:50:48Z</time>
      </trkpt>
      <trkpt lat="48.81808" lon="2.32293">
        <ele>79.199996948242</ele>
        <time>2016-02-01T20:50:52Z</time>
      </trkpt>
      <trkpt lat="48.81807" lon="2.32325">
        <ele>79.800003051758</ele>
        <time>2016-02-01T20:50:56Z</time>
      </trkpt>
      <trkpt lat="48.81803" lon="2.32357">
        <ele>80.599998474121</ele>
        <time>2016-02-01T20:51:00Z</time>
      </trkpt>
      <trkpt lat="48.81796" lon="2.32388">
        <ele>80.599998474121</ele>
        <time>2016-02-01T20:51:04Z</time>
      </trkpt>
      <trkpt lat="48.81788" lon="2.32417">
        <ele>80.400001525879</ele>
        <time>2016-02-01T20:51:08Z</time>
      </trkpt>
      <trkpt lat="48.81782" lon="2.32446">
        <ele>79.400001525879</ele>
        <time>2016-02-01T20:51:12Z</time>
      </trkpt>
      <trkpt lat="48.81776" lon="2.32478">
        <ele>78.599998474121</ele>
        <time>2016-02-01T20:51:16Z</time>
      </trkpt>
      <trkpt lat="48.81767" lon="2.32508">
        <ele>78.400001525879</ele>
        <time>2016-02-01T20:51:20Z</time>
      </trkpt>
      <trkpt lat="48.81763" lon="2.32524">
        <ele>78.599998474121</ele>
        <time>2016-02-01T20:51:22Z</time>
      </trkpt>
      <trkpt lat="48.81754" lon="2.32549">
        <ele>79.199996948242</ele>
        <time>2016-02-01T20:51:26Z</time>
      </trkpt>
      <trkpt lat="48.81753" lon="2.32553">
        <ele>79.400001525879</ele>
        <time>2016-02-01T20:51:27Z</time>
      </trkpt>
      <trkpt lat="48.81753" lon="2.32561">
        <ele>79.400001525879</ele>
        <time>2016-02-01T20:51:31Z</time>
      </trkpt>
      <trkpt lat="48.8175" lon="2.3258">
        <ele>79.599998474121</ele>
        <time>2016-02-01T20:52:00Z</time>
      </trkpt>
      <trkpt lat="48.81748" lon="2.32613">
        <ele>78.800003051758</ele>
        <time>2016-02-01T20:52:05Z</time>
      </trkpt>
      <trkpt lat="48.81746" lon="2.32644">
        <ele>78.199996948242</ele>
        <time>2016-02-01T20:52:09Z</time>
      </trkpt>
      <trkpt lat="48.81744" lon="2.32674">
        <ele>77.599998474121</ele>
        <time>2016-02-01T20:52:13Z</time>
      </trkpt>
      <trkpt lat="48.81744" lon="2.32681">
        <ele>77.599998474121</ele>
        <time>2016-02-01T20:52:14Z</time>
      </trkpt>
      <trkpt lat="48.81743" lon="2.32696">
        <ele>77.599998474121</ele>
        <time>2016-02-01T20:52:16Z</time>
      </trkpt>
      <trkpt lat="48.81739" lon="2.32728">
        <ele>77.599998474121</ele>
        <time>2016-02-01T20:52:20Z</time>
      </trkpt>
      <trkpt lat="48.81739" lon="2.32745">
        <ele>77.400001525879</ele>
        <time>2016-02-01T20:52:22Z</time>
      </trkpt>
      <trkpt lat="48.81742" lon="2.32772">
        <ele>78</ele>
        <time>2016-02-01T20:52:25Z</time>
      </trkpt>
      <trkpt lat="48.81742" lon="2.32803">
        <ele>78.599998474121</ele>
        <time>2016-02-01T20:52:28Z</time>
      </trkpt>
      <trkpt lat="48.81739" lon="2.32837">
        <ele>78.199996948242</ele>
        <time>2016-02-01T20:52:31Z</time>
      </trkpt>
      <trkpt lat="48.81733" lon="2.32869">
        <ele>77.599998474121</ele>
        <time>2016-02-01T20:52:34Z</time>
      </trkpt>
      <trkpt lat="48.8173" lon="2.32902">
        <ele>77.199996948242</ele>
        <time>2016-02-01T20:52:37Z</time>
      </trkpt>
      <trkpt lat="48.81728" lon="2.32923">
        <ele>77</ele>
        <time>2016-02-01T20:52:39Z</time>
      </trkpt>
      <trkpt lat="48.81724" lon="2.32955">
        <ele>77.199996948242</ele>
        <time>2016-02-01T20:52:42Z</time>
      </trkpt>
      <trkpt lat="48.81722" lon="2.32966">
        <ele>77.199996948242</ele>
        <time>2016-02-01T20:52:43Z</time>
      </trkpt>
      <trkpt lat="48.81721" lon="2.33">
        <ele>77.199996948242</ele>
        <time>2016-02-01T20:52:46Z</time>
      </trkpt>
      <trkpt lat="48.81722" lon="2.33033">
        <ele>77.199996948242</ele>
        <time>2016-02-01T20:52:49Z</time>
      </trkpt>
      <trkpt lat="48.8172" lon="2.33065">
        <ele>77.199996948242</ele>
        <time>2016-02-01T20:52:52Z</time>
      </trkpt>
      <trkpt lat="48.81718" lon="2.33095">
        <ele>78</ele>
        <time>2016-02-01T20:52:55Z</time>
      </trkpt>
      <trkpt lat="48.81714" lon="2.33123">
        <ele>79.199996948242</ele>
        <time>2016-02-01T20:52:58Z</time>
      </trkpt>
      <trkpt lat="48.81709" lon="2.33157">
        <ele>80.599998474121</ele>
        <time>2016-02-01T20:53:02Z</time>
      </trkpt>
      <trkpt lat="48.81706" lon="2.33185">
        <ele>81.199996948242</ele>
        <time>2016-02-01T20:53:06Z</time>
      </trkpt>
      <trkpt lat="48.81705" lon="2.33192">
        <ele>81.199996948242</ele>
        <time>2016-02-01T20:53:07Z</time>
      </trkpt>
      <trkpt lat="48.81701" lon="2.33216">
        <ele>81.599998474121</ele>
        <time>2016-02-01T20:53:11Z</time>
      </trkpt>
      <trkpt lat="48.817" lon="2.33233">
        <ele>82</ele>
        <time>2016-02-01T20:53:14Z</time>
      </trkpt>
      <trkpt lat="48.81697" lon="2.33255">
        <ele>82</ele>
        <time>2016-02-01T20:53:18Z</time>
      </trkpt>
      <trkpt lat="48.81694" lon="2.33284">
        <ele>82</ele>
        <time>2016-02-01T20:53:23Z</time>
      </trkpt>
      <trkpt lat="48.81695" lon="2.33315">
        <ele>82</ele>
        <time>2016-02-01T20:53:28Z</time>
      </trkpt>
      <trkpt lat="48.81692" lon="2.33344">
        <ele>81.599998474121</ele>
        <time>2016-02-01T20:53:33Z</time>
      </trkpt>
      <trkpt lat="48.81688" lon="2.33371">
        <ele>81</ele>
        <time>2016-02-01T20:53:38Z</time>
      </trkpt>
      <trkpt lat="48.81687" lon="2.33377">
        <ele>80.800003051758</ele>
        <time>2016-02-01T20:53:42Z</time>
      </trkpt>
      <trkpt lat="48.81688" lon="2.33385">
        <ele>80.599998474121</ele>
        <time>2016-02-01T20:53:46Z</time>
      </trkpt>
      <trkpt lat="48.81687" lon="2.33412">
        <ele>80</ele>
        <time>2016-02-01T20:53:53Z</time>
      </trkpt>
      <trkpt lat="48.81685" lon="2.33444">
        <ele>79.400001525879</ele>
        <time>2016-02-01T20:53:59Z</time>
      </trkpt>
      <trkpt lat="48.81684" lon="2.33473">
        <ele>78.599998474121</ele>
        <time>2016-02-01T20:54:05Z</time>
      </trkpt>
      <trkpt lat="48.8168" lon="2.33504">
        <ele>78.199996948242</ele>
        <time>2016-02-01T20:54:12Z</time>
      </trkpt>
      <trkpt lat="48.81675" lon="2.33534">
        <ele>78</ele>
        <time>2016-02-01T20:54:20Z</time>
      </trkpt>
      <trkpt lat="48.8167" lon="2.33567">
        <ele>77.800003051758</ele>
        <time>2016-02-01T20:54:26Z</time>
      </trkpt>
      <trkpt lat="48.81667" lon="2.33598">
        <ele>77.199996948242</ele>
        <time>2016-02-01T20:54:31Z</time>
      </trkpt>
      <trkpt lat="48.81662" lon="2.33631">
        <ele>77.400001525879</ele>
        <time>2016-02-01T20:54:36Z</time>
      </trkpt>
      <trkpt lat="48.81658" lon="2.33662">
        <ele>76.599998474121</ele>
        <time>2016-02-01T20:54:40Z</time>
      </trkpt>
      <trkpt lat="48.81656" lon="2.33696">
        <ele>75.400001525879</ele>
        <time>2016-02-01T20:54:44Z</time>
      </trkpt>
      <trkpt lat="48.81655" lon="2.33733">
        <ele>74.400001525879</ele>
        <time>2016-02-01T20:54:48Z</time>
      </trkpt>
      <trkpt lat="48.81653" lon="2.33761">
        <ele>74</ele>
        <time>2016-02-01T20:54:51Z</time>
      </trkpt>
      <trkpt lat="48.81652" lon="2.3379">
        <ele>74</ele>
        <time>2016-02-01T20:54:54Z</time>
      </trkpt>
      <trkpt lat="48.81649" lon="2.33818">
        <ele>74.400001525879</ele>
        <time>2016-02-01T20:54:57Z</time>
      </trkpt>
      <trkpt lat="48.81648" lon="2.33846">
        <ele>73.800003051758</ele>
        <time>2016-02-01T20:55:00Z</time>
      </trkpt>
      <trkpt lat="48.81646" lon="2.33882">
        <ele>72.400001525879</ele>
        <time>2016-02-01T20:55:04Z</time>
      </trkpt>
      <trkpt lat="48.81644" lon="2.3391">
        <ele>71.599998474121</ele>
        <time>2016-02-01T20:55:07Z</time>
      </trkpt>
      <trkpt lat="48.81643" lon="2.3394">
        <ele>71.599998474121</ele>
        <time>2016-02-01T20:55:10Z</time>
      </trkpt>
      <trkpt lat="48.81641" lon="2.3397">
        <ele>71</ele>
        <time>2016-02-01T20:55:13Z</time>
      </trkpt>
      <trkpt lat="48.81639" lon="2.34">
        <ele>70</ele>
        <time>2016-02-01T20:55:16Z</time>
      </trkpt>
      <trkpt lat="48.81637" lon="2.34029">
        <ele>70</ele>
        <time>2016-02-01T20:55:19Z</time>
      </trkpt>
      <trkpt lat="48.81636" lon="2.34063">
        <ele>69.599998474121</ele>
        <time>2016-02-01T20:55:23Z</time>
      </trkpt>
      <trkpt lat="48.81634" lon="2.34096">
        <ele>68.800003051758</ele>
        <time>2016-02-01T20:55:27Z</time>
      </trkpt>
      <trkpt lat="48.81632" lon="2.3413">
        <ele>67.199996948242</ele>
        <time>2016-02-01T20:55:31Z</time>
      </trkpt>
      <trkpt lat="48.81631" lon="2.34166">
        <ele>65.599998474121</ele>
        <time>2016-02-01T20:55:35Z</time>
      </trkpt>
      <trkpt lat="48.81627" lon="2.342">
        <ele>65.199996948242</ele>
        <time>2016-02-01T20:55:39Z</time>
      </trkpt>
      <trkpt lat="48.81622" lon="2.34228">
        <ele>66.400001525879</ele>
        <time>2016-02-01T20:55:42Z</time>
      </trkpt>
      <trkpt lat="48.81617" lon="2.34255">
        <ele>67.199996948242</ele>
        <time>2016-02-01T20:55:45Z</time>
      </trkpt>
      <trkpt lat="48.81611" lon="2.34283">
        <ele>67.599998474121</ele>
        <time>2016-02-01T20:55:48Z</time>
      </trkpt>
      <trkpt lat="48.81605" lon="2.3431">
        <ele>68</ele>
        <time>2016-02-01T20:55:51Z</time>
      </trkpt>
      <trkpt lat="48.81597" lon="2.34335">
        <ele>67.800003051758</ele>
        <time>2016-02-01T20:55:54Z</time>
      </trkpt>
      <trkpt lat="48.81588" lon="2.34363">
        <ele>66.599998474121</ele>
        <time>2016-02-01T20:55:58Z</time>
      </trkpt>
      <trkpt lat="48.81587" lon="2.3437">
        <ele>66.400001525879</ele>
        <time>2016-02-01T20:55:59Z</time>
      </trkpt>
      <trkpt lat="48.81587" lon="2.34388">
        <ele>65.800003051758</ele>
        <time>2016-02-01T20:56:02Z</time>
      </trkpt>
      <trkpt lat="48.81582" lon="2.34409">
        <ele>65</ele>
        <time>2016-02-01T20:56:07Z</time>
      </trkpt>
      <trkpt lat="48.8158" lon="2.34419">
        <ele>64.599998474121</ele>
        <time>2016-02-01T20:56:11Z</time>
      </trkpt>
      <trkpt lat="48.81579" lon="2.3442">
        <ele>64.599998474121</ele>
        <time>2016-02-01T20:56:12Z</time>
      </trkpt>
      <trkpt lat="48.81581" lon="2.34429">
        <ele>64.400001525879</ele>
        <time>2016-02-01T20:56:21Z</time>
      </trkpt>
      <trkpt lat="48.81596" lon="2.34437">
        <ele>64.400001525879</ele>
        <time>2016-02-01T20:56:30Z</time>
      </trkpt>
      <trkpt lat="48.81597" lon="2.34437">
        <ele>64.400001525879</ele>
        <time>2016-02-01T20:56:31Z</time>
      </trkpt>
      <trkpt lat="48.81614" lon="2.34428">
        <ele>64.400001525879</ele>
        <time>2016-02-01T20:56:45Z</time>
      </trkpt>
      <trkpt lat="48.81633" lon="2.34414">
        <ele>63</ele>
        <time>2016-02-01T20:56:51Z</time>
      </trkpt>
      <trkpt lat="48.81642" lon="2.34412">
        <ele>62.400001525879</ele>
        <time>2016-02-01T20:56:53Z</time>
      </trkpt>
      <trkpt lat="48.81659" lon="2.34413">
        <ele>61.20000076294</ele>
        <time>2016-02-01T20:56:56Z</time>
      </trkpt>
      <trkpt lat="48.81677" lon="2.34416">
        <ele>59.79999923706</ele>
        <time>2016-02-01T20:57:02Z</time>
      </trkpt>
      <trkpt lat="48.81698" lon="2.34418">
        <ele>59.20000076294</ele>
        <time>2016-02-01T20:57:10Z</time>
      </trkpt>
      <trkpt lat="48.81719" lon="2.34419">
        <ele>60</ele>
        <time>2016-02-01T20:57:16Z</time>
      </trkpt>
      <trkpt lat="48.81738" lon="2.3442">
        <ele>60.599998474121</ele>
        <time>2016-02-01T20:57:20Z</time>
      </trkpt>
      <trkpt lat="48.81757" lon="2.34423">
        <ele>61.400001525879</ele>
        <time>2016-02-01T20:57:24Z</time>
      </trkpt>
      <trkpt lat="48.81779" lon="2.34421">
        <ele>62.20000076294</ele>
        <time>2016-02-01T20:57:28Z</time>
      </trkpt>
      <trkpt lat="48.818" lon="2.34421">
        <ele>63.20000076294</ele>
        <time>2016-02-01T20:57:32Z</time>
      </trkpt>
      <trkpt lat="48.81811" lon="2.3442">
        <ele>63.79999923706</ele>
        <time>2016-02-01T20:57:34Z</time>
      </trkpt>
      <trkpt lat="48.81835" lon="2.34419">
        <ele>65</ele>
        <time>2016-02-01T20:57:38Z</time>
      </trkpt>
      <trkpt lat="48.81853" lon="2.3442">
        <ele>65.800003051758</ele>
        <time>2016-02-01T20:57:41Z</time>
      </trkpt>
      <trkpt lat="48.81859" lon="2.3442">
        <ele>65.800003051758</ele>
        <time>2016-02-01T20:57:42Z</time>
      </trkpt>
      <trkpt lat="48.81882" lon="2.34425">
        <ele>65.599998474121</ele>
        <time>2016-02-01T20:57:46Z</time>
      </trkpt>
      <trkpt lat="48.81901" lon="2.34443">
        <ele>65</ele>
        <time>2016-02-01T20:57:51Z</time>
      </trkpt>
      <trkpt lat="48.81911" lon="2.34458">
        <ele>64.400001525879</ele>
        <time>2016-02-01T20:57:55Z</time>
      </trkpt>
      <trkpt lat="48.81916" lon="2.34461">
        <ele>64.400001525879</ele>
        <time>2016-02-01T20:57:57Z</time>
      </trkpt>
      <trkpt lat="48.81927" lon="2.34468">
        <ele>64</ele>
        <time>2016-02-01T20:58:01Z</time>
      </trkpt>
      <trkpt lat="48.81933" lon="2.34471">
        <ele>64</ele>
        <time>2016-02-01T20:58:05Z</time>
      </trkpt>
      <trkpt lat="48.81945" lon="2.34466">
        <ele>64</ele>
        <time>2016-02-01T20:58:24Z</time>
      </trkpt>
      <trkpt lat="48.81957" lon="2.34463">
        <ele>63.79999923706</ele>
        <time>2016-02-01T20:59:05Z</time>
      </trkpt>
      <trkpt lat="48.81973" lon="2.34449">
        <ele>64</ele>
        <time>2016-02-01T20:59:12Z</time>
      </trkpt>
      <trkpt lat="48.81989" lon="2.34433">
        <ele>63.79999923706</ele>
        <time>2016-02-01T20:59:17Z</time>
      </trkpt>
      <trkpt lat="48.82008" lon="2.34417">
        <ele>63.400001525879</ele>
        <time>2016-02-01T20:59:22Z</time>
      </trkpt>
      <trkpt lat="48.82025" lon="2.34403">
        <ele>63.400001525879</ele>
        <time>2016-02-01T20:59:27Z</time>
      </trkpt>
      <trkpt lat="48.82041" lon="2.3439">
        <ele>62.79999923706</ele>
        <time>2016-02-01T20:59:32Z</time>
      </trkpt>
      <trkpt lat="48.82061" lon="2.34372">
        <ele>62.20000076294</ele>
        <time>2016-02-01T20:59:37Z</time>
      </trkpt>
      <trkpt lat="48.82078" lon="2.3435">
        <ele>60.20000076294</ele>
        <time>2016-02-01T20:59:41Z</time>
      </trkpt>
      <trkpt lat="48.82092" lon="2.3433">
        <ele>58.599998474121</ele>
        <time>2016-02-01T20:59:44Z</time>
      </trkpt>
      <trkpt lat="48.82104" lon="2.34309">
        <ele>58.400001525879</ele>
        <time>2016-02-01T20:59:47Z</time>
      </trkpt>
      <trkpt lat="48.82116" lon="2.34288">
        <ele>59.20000076294</ele>
        <time>2016-02-01T20:59:50Z</time>
      </trkpt>
      <trkpt lat="48.82134" lon="2.34264">
        <ele>59.79999923706</ele>
        <time>2016-02-01T20:59:54Z</time>
      </trkpt>
      <trkpt lat="48.82151" lon="2.34245">
        <ele>60</ele>
        <time>2016-02-01T20:59:58Z</time>
      </trkpt>
      <trkpt lat="48.8217" lon="2.34227">
        <ele>59.79999923706</ele>
        <time>2016-02-01T21:00:02Z</time>
      </trkpt>
      <trkpt lat="48.82191" lon="2.34213">
        <ele>58.79999923706</ele>
        <time>2016-02-01T21:00:06Z</time>
      </trkpt>
      <trkpt lat="48.82211" lon="2.342">
        <ele>58.79999923706</ele>
        <time>2016-02-01T21:00:10Z</time>
      </trkpt>
      <trkpt lat="48.82228" lon="2.34186">
        <ele>58.79999923706</ele>
        <time>2016-02-01T21:00:13Z</time>
      </trkpt>
      <trkpt lat="48.82245" lon="2.34176">
        <ele>58.400001525879</ele>
        <time>2016-02-01T21:00:16Z</time>
      </trkpt>
      <trkpt lat="48.82265" lon="2.34165">
        <ele>58.20000076294</ele>
        <time>2016-02-01T21:00:19Z</time>
      </trkpt>
      <trkpt lat="48.82284" lon="2.34156">
        <ele>58.20000076294</ele>
        <time>2016-02-01T21:00:22Z</time>
      </trkpt>
      <trkpt lat="48.82303" lon="2.34147">
        <ele>58.599998474121</ele>
        <time>2016-02-01T21:00:25Z</time>
      </trkpt>
      <trkpt lat="48.82323" lon="2.34137">
        <ele>59</ele>
        <time>2016-02-01T21:00:28Z</time>
      </trkpt>
      <trkpt lat="48.82342" lon="2.34132">
        <ele>58.79999923706</ele>
        <time>2016-02-01T21:00:31Z</time>
      </trkpt>
      <trkpt lat="48.82364" lon="2.34128">
        <ele>58</ele>
        <time>2016-02-01T21:00:35Z</time>
      </trkpt>
      <trkpt lat="48.82383" lon="2.34126">
        <ele>56.599998474121</ele>
        <time>2016-02-01T21:00:38Z</time>
      </trkpt>
      <trkpt lat="48.82402" lon="2.34126">
        <ele>55.20000076294</ele>
        <time>2016-02-01T21:00:41Z</time>
      </trkpt>
      <trkpt lat="48.82424" lon="2.34129">
        <ele>54.20000076294</ele>
        <time>2016-02-01T21:00:45Z</time>
      </trkpt>
      <trkpt lat="48.82446" lon="2.34135">
        <ele>53</ele>
        <time>2016-02-01T21:00:49Z</time>
      </trkpt>
      <trkpt lat="48.82469" lon="2.34138">
        <ele>51.400001525879</ele>
        <time>2016-02-01T21:00:53Z</time>
      </trkpt>
      <trkpt lat="48.82492" lon="2.34143">
        <ele>50</ele>
        <time>2016-02-01T21:00:57Z</time>
      </trkpt>
      <trkpt lat="48.8251" lon="2.34148">
        <ele>49.20000076294</ele>
        <time>2016-02-01T21:01:00Z</time>
      </trkpt>
      <trkpt lat="48.82533" lon="2.3415">
        <ele>49.400001525879</ele>
        <time>2016-02-01T21:01:04Z</time>
      </trkpt>
      <trkpt lat="48.82553" lon="2.34156">
        <ele>49.20000076294</ele>
        <time>2016-02-01T21:01:08Z</time>
      </trkpt>
      <trkpt lat="48.82573" lon="2.34155">
        <ele>49.400001525879</ele>
        <time>2016-02-01T21:01:12Z</time>
      </trkpt>
      <trkpt lat="48.82587" lon="2.34155">
        <ele>49.599998474121</ele>
        <time>2016-02-01T21:01:15Z</time>
      </trkpt>
      <trkpt lat="48.82606" lon="2.34149">
        <ele>50.400001525879</ele>
        <time>2016-02-01T21:01:19Z</time>
      </trkpt>
      <trkpt lat="48.82615" lon="2.34147">
        <ele>50.599998474121</ele>
        <time>2016-02-01T21:01:21Z</time>
      </trkpt>
      <trkpt lat="48.82619" lon="2.34147">
        <ele>50.79999923706</ele>
        <time>2016-02-01T21:01:22Z</time>
      </trkpt>
      <trkpt lat="48.82635" lon="2.3415">
        <ele>50.79999923706</ele>
        <time>2016-02-01T21:01:27Z</time>
      </trkpt>
      <trkpt lat="48.82643" lon="2.34161">
        <ele>50.20000076294</ele>
        <time>2016-02-01T21:01:33Z</time>
      </trkpt>
      <trkpt lat="48.82661" lon="2.34162">
        <ele>50.400001525879</ele>
        <time>2016-02-01T21:01:38Z</time>
      </trkpt>
      <trkpt lat="48.82664" lon="2.34163">
        <ele>50.599998474121</ele>
        <time>2016-02-01T21:01:39Z</time>
      </trkpt>
      <trkpt lat="48.82686" lon="2.34168">
        <ele>50.79999923706</ele>
        <time>2016-02-01T21:01:44Z</time>
      </trkpt>
      <trkpt lat="48.82696" lon="2.34169">
        <ele>50.79999923706</ele>
        <time>2016-02-01T21:01:46Z</time>
      </trkpt>
      <trkpt lat="48.82714" lon="2.34173">
        <ele>50.599998474121</ele>
        <time>2016-02-01T21:01:49Z</time>
      </trkpt>
      <trkpt lat="48.82738" lon="2.34175">
        <ele>50.400001525879</ele>
        <time>2016-02-01T21:01:52Z</time>
      </trkpt>
      <trkpt lat="48.82764" lon="2.34174">
        <ele>50.599998474121</ele>
        <time>2016-02-01T21:01:55Z</time>
      </trkpt>
      <trkpt lat="48.82788" lon="2.34173">
        <ele>50.79999923706</ele>
        <time>2016-02-01T21:01:58Z</time>
      </trkpt>
      <trkpt lat="48.82807" lon="2.34178">
        <ele>50.79999923706</ele>
        <time>2016-02-01T21:02:01Z</time>
      </trkpt>
      <trkpt lat="48.82826" lon="2.34186">
        <ele>50.79999923706</ele>
        <time>2016-02-01T21:02:04Z</time>
      </trkpt>
      <trkpt lat="48.82842" lon="2.34203">
        <ele>50.599998474121</ele>
        <time>2016-02-01T21:02:06Z</time>
      </trkpt>
      <trkpt lat="48.82858" lon="2.34229">
        <ele>50.20000076294</ele>
        <time>2016-02-01T21:02:08Z</time>
      </trkpt>
      <trkpt lat="48.82873" lon="2.34248">
        <ele>49.599998474121</ele>
        <time>2016-02-01T21:02:11Z</time>
      </trkpt>
      <trkpt lat="48.82888" lon="2.34266">
        <ele>48.599998474121</ele>
        <time>2016-02-01T21:02:14Z</time>
      </trkpt>
      <trkpt lat="48.82893" lon="2.34271">
        <ele>48.20000076294</ele>
        <time>2016-02-01T21:02:15Z</time>
      </trkpt>
      <trkpt lat="48.82911" lon="2.34289">
        <ele>47.20000076294</ele>
        <time>2016-02-01T21:02:19Z</time>
      </trkpt>
      <trkpt lat="48.82931" lon="2.34303">
        <ele>46.20000076294</ele>
        <time>2016-02-01T21:02:23Z</time>
      </trkpt>
      <trkpt lat="48.82951" lon="2.34317">
        <ele>45.400001525879</ele>
        <time>2016-02-01T21:02:27Z</time>
      </trkpt>
      <trkpt lat="48.82957" lon="2.3432">
        <ele>45.20000076294</ele>
        <time>2016-02-01T21:02:28Z</time>
      </trkpt>
      <trkpt lat="48.82968" lon="2.34327">
        <ele>44.79999923706</ele>
        <time>2016-02-01T21:02:30Z</time>
      </trkpt>
      <trkpt lat="48.8299" lon="2.3434">
        <ele>44.400001525879</ele>
        <time>2016-02-01T21:02:34Z</time>
      </trkpt>
      <trkpt lat="48.83008" lon="2.34349">
        <ele>44.20000076294</ele>
        <time>2016-02-01T21:02:37Z</time>
      </trkpt>
      <trkpt lat="48.83027" lon="2.34362">
        <ele>44.20000076294</ele>
        <time>2016-02-01T21:02:41Z</time>
      </trkpt>
      <trkpt lat="48.83045" lon="2.34375">
        <ele>45.400001525879</ele>
        <time>2016-02-01T21:02:45Z</time>
      </trkpt>
      <trkpt lat="48.83062" lon="2.34384">
        <ele>46.400001525879</ele>
        <time>2016-02-01T21:02:49Z</time>
      </trkpt>
      <trkpt lat="48.83077" lon="2.34391">
        <ele>47.20000076294</ele>
        <time>2016-02-01T21:02:53Z</time>
      </trkpt>
      <trkpt lat="48.83087" lon="2.34397">
        <ele>47.79999923706</ele>
        <time>2016-02-01T21:02:57Z</time>
      </trkpt>
      <trkpt lat="48.83099" lon="2.34397">
        <ele>48.599998474121</ele>
        <time>2016-02-01T21:03:02Z</time>
      </trkpt>
      <trkpt lat="48.83109" lon="2.34415">
        <ele>49</ele>
        <time>2016-02-01T21:03:18Z</time>
      </trkpt>
      <trkpt lat="48.83127" lon="2.34418">
        <ele>49</ele>
        <time>2016-02-01T21:03:25Z</time>
      </trkpt>
      <trkpt lat="48.83145" lon="2.34427">
        <ele>49.20000076294</ele>
        <time>2016-02-01T21:03:31Z</time>
      </trkpt>
      <trkpt lat="48.83157" lon="2.34431">
        <ele>49.20000076294</ele>
        <time>2016-02-01T21:03:34Z</time>
      </trkpt>
      <trkpt lat="48.83179" lon="2.34438">
        <ele>49.20000076294</ele>
        <time>2016-02-01T21:03:38Z</time>
      </trkpt>
      <trkpt lat="48.83198" lon="2.34443">
        <ele>49.400001525879</ele>
        <time>2016-02-01T21:03:41Z</time>
      </trkpt>
      <trkpt lat="48.83211" lon="2.34446">
        <ele>49.400001525879</ele>
        <time>2016-02-01T21:03:43Z</time>
      </trkpt>
      <trkpt lat="48.83231" lon="2.34446">
        <ele>49.20000076294</ele>
        <time>2016-02-01T21:03:46Z</time>
      </trkpt>
      <trkpt lat="48.83251" lon="2.34448">
        <ele>49</ele>
        <time>2016-02-01T21:03:50Z</time>
      </trkpt>
      <trkpt lat="48.83269" lon="2.34451">
        <ele>49</ele>
        <time>2016-02-01T21:03:54Z</time>
      </trkpt>
      <trkpt lat="48.83292" lon="2.34455">
        <ele>49.20000076294</ele>
        <time>2016-02-01T21:03:59Z</time>
      </trkpt>
      <trkpt lat="48.83311" lon="2.34458">
        <ele>49.599998474121</ele>
        <time>2016-02-01T21:04:03Z</time>
      </trkpt>
      <trkpt lat="48.83329" lon="2.34462">
        <ele>50</ele>
        <time>2016-02-01T21:04:07Z</time>
      </trkpt>
      <trkpt lat="48.83338" lon="2.34464">
        <ele>50.400001525879</ele>
        <time>2016-02-01T21:04:09Z</time>
      </trkpt>
      <trkpt lat="48.83359" lon="2.34467">
        <ele>51</ele>
        <time>2016-02-01T21:04:14Z</time>
      </trkpt>
      <trkpt lat="48.83364" lon="2.34467">
        <ele>50.79999923706</ele>
        <time>2016-02-01T21:04:15Z</time>
      </trkpt>
      <trkpt lat="48.83384" lon="2.34465">
        <ele>50.400001525879</ele>
        <time>2016-02-01T21:04:19Z</time>
      </trkpt>
      <trkpt lat="48.83405" lon="2.34463">
        <ele>49.79999923706</ele>
        <time>2016-02-01T21:04:23Z</time>
      </trkpt>
      <trkpt lat="48.83415" lon="2.34465">
        <ele>49.79999923706</ele>
        <time>2016-02-01T21:04:25Z</time>
      </trkpt>
      <trkpt lat="48.83433" lon="2.34473">
        <ele>49.79999923706</ele>
        <time>2016-02-01T21:04:29Z</time>
      </trkpt>
      <trkpt lat="48.83452" lon="2.3448">
        <ele>50.20000076294</ele>
        <time>2016-02-01T21:04:34Z</time>
      </trkpt>
      <trkpt lat="48.83455" lon="2.34482">
        <ele>50.20000076294</ele>
        <time>2016-02-01T21:04:35Z</time>
      </trkpt>
      <trkpt lat="48.83471" lon="2.34478">
        <ele>50.79999923706</ele>
        <time>2016-02-01T21:04:39Z</time>
      </trkpt>
      <trkpt lat="48.83478" lon="2.34482">
        <ele>51</ele>
        <time>2016-02-01T21:04:41Z</time>
      </trkpt>
      <trkpt lat="48.83497" lon="2.34478">
        <ele>51.79999923706</ele>
        <time>2016-02-01T21:04:46Z</time>
      </trkpt>
      <trkpt lat="48.83501" lon="2.34479">
        <ele>52</ele>
        <time>2016-02-01T21:04:47Z</time>
      </trkpt>
      <trkpt lat="48.83519" lon="2.34488">
        <ele>52.20000076294</ele>
        <time>2016-02-01T21:04:52Z</time>
      </trkpt>
      <trkpt lat="48.83538" lon="2.34496">
        <ele>51.599998474121</ele>
        <time>2016-02-01T21:04:56Z</time>
      </trkpt>
      <trkpt lat="48.83558" lon="2.34503">
        <ele>51</ele>
        <time>2016-02-01T21:05:00Z</time>
      </trkpt>
      <trkpt lat="48.83578" lon="2.34512">
        <ele>50.400001525879</ele>
        <time>2016-02-01T21:05:03Z</time>
      </trkpt>
      <trkpt lat="48.83601" lon="2.34519">
        <ele>49.79999923706</ele>
        <time>2016-02-01T21:05:06Z</time>
      </trkpt>
      <trkpt lat="48.83626" lon="2.34528">
        <ele>48.599998474121</ele>
        <time>2016-02-01T21:05:09Z</time>
      </trkpt>
      <trkpt lat="48.83651" lon="2.34532">
        <ele>48.20000076294</ele>
        <time>2016-02-01T21:05:12Z</time>
      </trkpt>
      <trkpt lat="48.83677" lon="2.34536">
        <ele>48.400001525879</ele>
        <time>2016-02-01T21:05:15Z</time>
      </trkpt>
      <trkpt lat="48.837" lon="2.3454">
        <ele>49</ele>
        <time>2016-02-01T21:05:18Z</time>
      </trkpt>
      <trkpt lat="48.83718" lon="2.34544">
        <ele>49.599998474121</ele>
        <time>2016-02-01T21:05:21Z</time>
      </trkpt>
      <trkpt lat="48.83731" lon="2.34547">
        <ele>49.79999923706</ele>
        <time>2016-02-01T21:05:23Z</time>
      </trkpt>
      <trkpt lat="48.83747" lon="2.34547">
        <ele>50.20000076294</ele>
        <time>2016-02-01T21:05:26Z</time>
      </trkpt>
      <trkpt lat="48.83753" lon="2.34553">
        <ele>50</ele>
        <time>2016-02-01T21:05:28Z</time>
      </trkpt>
      <trkpt lat="48.83761" lon="2.34559">
        <ele>49.79999923706</ele>
        <time>2016-02-01T21:05:32Z</time>
      </trkpt>
      <trkpt lat="48.83765" lon="2.34563">
        <ele>49.79999923706</ele>
        <time>2016-02-01T21:05:35Z</time>
      </trkpt>
      <trkpt lat="48.8378" lon="2.3455">
        <ele>50.79999923706</ele>
        <time>2016-02-01T21:05:57Z</time>
      </trkpt>
      <trkpt lat="48.83802" lon="2.34553">
        <ele>51.79999923706</ele>
        <time>2016-02-01T21:06:02Z</time>
      </trkpt>
      <trkpt lat="48.83823" lon="2.34557">
        <ele>52.599998474121</ele>
        <time>2016-02-01T21:06:06Z</time>
      </trkpt>
      <trkpt lat="48.83843" lon="2.34558">
        <ele>52.79999923706</ele>
        <time>2016-02-01T21:06:10Z</time>
      </trkpt>
      <trkpt lat="48.83863" lon="2.34564">
        <ele>52.599998474121</ele>
        <time>2016-02-01T21:06:15Z</time>
      </trkpt>
      <trkpt lat="48.83884" lon="2.34571">
        <ele>52.79999923706</ele>
        <time>2016-02-01T21:06:19Z</time>
      </trkpt>
      <trkpt lat="48.83908" lon="2.34578">
        <ele>53</ele>
        <time>2016-02-01T21:06:23Z</time>
      </trkpt>
      <trkpt lat="48.83928" lon="2.34585">
        <ele>52.79999923706</ele>
        <time>2016-02-01T21:06:26Z</time>
      </trkpt>
      <trkpt lat="48.83949" lon="2.34587">
        <ele>53.20000076294</ele>
        <time>2016-02-01T21:06:29Z</time>
      </trkpt>
      <trkpt lat="48.83968" lon="2.34588">
        <ele>53.79999923706</ele>
        <time>2016-02-01T21:06:32Z</time>
      </trkpt>
      <trkpt lat="48.83989" lon="2.34591">
        <ele>54.599998474121</ele>
        <time>2016-02-01T21:06:35Z</time>
      </trkpt>
      <trkpt lat="48.84012" lon="2.34594">
        <ele>55.400001525879</ele>
        <time>2016-02-01T21:06:39Z</time>
      </trkpt>
      <trkpt lat="48.8402" lon="2.34591">
        <ele>55.599998474121</ele>
        <time>2016-02-01T21:06:44Z</time>
      </trkpt>
      <trkpt lat="48.84032" lon="2.34584">
        <ele>56.20000076294</ele>
        <time>2016-02-01T21:07:00Z</time>
      </trkpt>
      <trkpt lat="48.84044" lon="2.34558">
        <ele>55.599998474121</ele>
        <time>2016-02-01T21:07:08Z</time>
      </trkpt>
      <trkpt lat="48.84056" lon="2.34532">
        <ele>55</ele>
        <time>2016-02-01T21:07:13Z</time>
      </trkpt>
      <trkpt lat="48.84069" lon="2.34506">
        <ele>55.400001525879</ele>
        <time>2016-02-01T21:07:17Z</time>
      </trkpt>
      <trkpt lat="48.84081" lon="2.34481">
        <ele>55.599998474121</ele>
        <time>2016-02-01T21:07:20Z</time>
      </trkpt>
      <trkpt lat="48.84093" lon="2.34454">
        <ele>56.599998474121</ele>
        <time>2016-02-01T21:07:23Z</time>
      </trkpt>
      <trkpt lat="48.84105" lon="2.34425">
        <ele>57.79999923706</ele>
        <time>2016-02-01T21:07:27Z</time>
      </trkpt>
      <trkpt lat="48.84116" lon="2.34398">
        <ele>58.400001525879</ele>
        <time>2016-02-01T21:07:31Z</time>
      </trkpt>
      <trkpt lat="48.8412" lon="2.34391">
        <ele>58.599998474121</ele>
        <time>2016-02-01T21:07:32Z</time>
      </trkpt>
      <trkpt lat="48.84126" lon="2.3438">
        <ele>58.79999923706</ele>
        <time>2016-02-01T21:07:34Z</time>
      </trkpt>
      <trkpt lat="48.84137" lon="2.34366">
        <ele>59.400001525879</ele>
        <time>2016-02-01T21:07:37Z</time>
      </trkpt>
      <trkpt lat="48.84154" lon="2.34354">
        <ele>59.79999923706</ele>
        <time>2016-02-01T21:07:41Z</time>
      </trkpt>
      <trkpt lat="48.84169" lon="2.3434">
        <ele>60.400001525879</ele>
        <time>2016-02-01T21:07:45Z</time>
      </trkpt>
      <trkpt lat="48.84186" lon="2.34332">
        <ele>61</ele>
        <time>2016-02-01T21:07:49Z</time>
      </trkpt>
      <trkpt lat="48.84197" lon="2.34321">
        <ele>61.20000076294</ele>
        <time>2016-02-01T21:07:52Z</time>
      </trkpt>
      <trkpt lat="48.84214" lon="2.34312">
        <ele>61.599998474121</ele>
        <time>2016-02-01T21:07:57Z</time>
      </trkpt>
      <trkpt lat="48.84235" lon="2.34297">
        <ele>62</ele>
        <time>2016-02-01T21:08:03Z</time>
      </trkpt>
      <trkpt lat="48.8424" lon="2.34292">
        <ele>62.20000076294</ele>
        <time>2016-02-01T21:08:04Z</time>
      </trkpt>
      <trkpt lat="48.84258" lon="2.34276">
        <ele>63</ele>
        <time>2016-02-01T21:08:08Z</time>
      </trkpt>
      <trkpt lat="48.84278" lon="2.34263">
        <ele>63.79999923706</ele>
        <time>2016-02-01T21:08:13Z</time>
      </trkpt>
      <trkpt lat="48.84288" lon="2.34257">
        <ele>63.79999923706</ele>
        <time>2016-02-01T21:08:15Z</time>
      </trkpt>
      <trkpt lat="48.84306" lon="2.34246">
        <ele>63.20000076294</ele>
        <time>2016-02-01T21:08:19Z</time>
      </trkpt>
      <trkpt lat="48.84316" lon="2.34244">
        <ele>63</ele>
        <time>2016-02-01T21:08:22Z</time>
      </trkpt>
      <trkpt lat="48.84336" lon="2.3424">
        <ele>62.599998474121</ele>
        <time>2016-02-01T21:08:28Z</time>
      </trkpt>
      <trkpt lat="48.84339" lon="2.34239">
        <ele>62.599998474121</ele>
        <time>2016-02-01T21:08:29Z</time>
      </trkpt>
      <trkpt lat="48.84349" lon="2.34236">
        <ele>62.20000076294</ele>
        <time>2016-02-01T21:08:32Z</time>
      </trkpt>
      <trkpt lat="48.84368" lon="2.34228">
        <ele>62.400001525879</ele>
        <time>2016-02-01T21:08:37Z</time>
      </trkpt>
      <trkpt lat="48.84388" lon="2.34219">
        <ele>63.20000076294</ele>
        <time>2016-02-01T21:08:42Z</time>
      </trkpt>
      <trkpt lat="48.84408" lon="2.3421">
        <ele>63.79999923706</ele>
        <time>2016-02-01T21:08:48Z</time>
      </trkpt>
      <trkpt lat="48.84431" lon="2.34199">
        <ele>63.79999923706</ele>
        <time>2016-02-01T21:09:21Z</time>
      </trkpt>
      <trkpt lat="48.84451" lon="2.34191">
        <ele>64.199996948242</ele>
        <time>2016-02-01T21:09:29Z</time>
      </trkpt>
      <trkpt lat="48.84471" lon="2.34179">
        <ele>65</ele>
        <time>2016-02-01T21:09:35Z</time>
      </trkpt>
      <trkpt lat="48.8449" lon="2.3417">
        <ele>65.599998474121</ele>
        <time>2016-02-01T21:09:41Z</time>
      </trkpt>
      <trkpt lat="48.8451" lon="2.3416">
        <ele>66.400001525879</ele>
        <time>2016-02-01T21:09:46Z</time>
      </trkpt>
      <trkpt lat="48.8453" lon="2.34151">
        <ele>67</ele>
        <time>2016-02-01T21:09:50Z</time>
      </trkpt>
      <trkpt lat="48.84549" lon="2.3414">
        <ele>67</ele>
        <time>2016-02-01T21:09:54Z</time>
      </trkpt>
      <trkpt lat="48.84571" lon="2.34126">
        <ele>67</ele>
        <time>2016-02-01T21:09:58Z</time>
      </trkpt>
      <trkpt lat="48.84589" lon="2.34116">
        <ele>66.199996948242</ele>
        <time>2016-02-01T21:10:02Z</time>
      </trkpt>
      <trkpt lat="48.84611" lon="2.34105">
        <ele>65</ele>
        <time>2016-02-01T21:10:07Z</time>
      </trkpt>
      <trkpt lat="48.84628" lon="2.34096">
        <ele>64.199996948242</ele>
        <time>2016-02-01T21:10:11Z</time>
      </trkpt>
      <trkpt lat="48.84632" lon="2.34094">
        <ele>63.79999923706</ele>
        <time>2016-02-01T21:10:12Z</time>
      </trkpt>
      <trkpt lat="48.84652" lon="2.34083">
        <ele>62.400001525879</ele>
        <time>2016-02-01T21:10:17Z</time>
      </trkpt>
      <trkpt lat="48.84669" lon="2.34073">
        <ele>61.599998474121</ele>
        <time>2016-02-01T21:10:21Z</time>
      </trkpt>
      <trkpt lat="48.8469" lon="2.34063">
        <ele>59</ele>
        <time>2016-02-01T21:10:26Z</time>
      </trkpt>
      <trkpt lat="48.84699" lon="2.3406">
        <ele>58.400001525879</ele>
        <time>2016-02-01T21:10:28Z</time>
      </trkpt>
      <trkpt lat="48.84719" lon="2.34067">
        <ele>58.599998474121</ele>
        <time>2016-02-01T21:10:33Z</time>
      </trkpt>
      <trkpt lat="48.84733" lon="2.34082">
        <ele>59.400001525879</ele>
        <time>2016-02-01T21:10:39Z</time>
      </trkpt>
      <trkpt lat="48.84735" lon="2.34084">
        <ele>59.400001525879</ele>
        <time>2016-02-01T21:10:40Z</time>
      </trkpt>
      <trkpt lat="48.8474" lon="2.34086">
        <ele>59.20000076294</ele>
        <time>2016-02-01T21:10:42Z</time>
      </trkpt>
      <trkpt lat="48.8476" lon="2.34098">
        <ele>58.79999923706</ele>
        <time>2016-02-01T21:10:48Z</time>
      </trkpt>
      <trkpt lat="48.84779" lon="2.34106">
        <ele>58.599998474121</ele>
        <time>2016-02-01T21:10:52Z</time>
      </trkpt>
      <trkpt lat="48.84799" lon="2.34115">
        <ele>59.20000076294</ele>
        <time>2016-02-01T21:10:56Z</time>
      </trkpt>
      <trkpt lat="48.84823" lon="2.34123">
        <ele>59.79999923706</ele>
        <time>2016-02-01T21:11:00Z</time>
      </trkpt>
      <trkpt lat="48.84841" lon="2.3413">
        <ele>60.20000076294</ele>
        <time>2016-02-01T21:11:03Z</time>
      </trkpt>
      <trkpt lat="48.8486" lon="2.34136">
        <ele>60.400001525879</ele>
        <time>2016-02-01T21:11:06Z</time>
      </trkpt>
      <trkpt lat="48.84877" lon="2.3415">
        <ele>59.599998474121</ele>
        <time>2016-02-01T21:11:09Z</time>
      </trkpt>
      <trkpt lat="48.84894" lon="2.34164">
        <ele>58.79999923706</ele>
        <time>2016-02-01T21:11:12Z</time>
      </trkpt>
      <trkpt lat="48.84916" lon="2.34175">
        <ele>57.599998474121</ele>
        <time>2016-02-01T21:11:15Z</time>
      </trkpt>
      <trkpt lat="48.84941" lon="2.34187">
        <ele>56.20000076294</ele>
        <time>2016-02-01T21:11:18Z</time>
      </trkpt>
      <trkpt lat="48.84964" lon="2.34199">
        <ele>55.20000076294</ele>
        <time>2016-02-01T21:11:21Z</time>
      </trkpt>
      <trkpt lat="48.84985" lon="2.34213">
        <ele>54.400001525879</ele>
        <time>2016-02-01T21:11:24Z</time>
      </trkpt>
      <trkpt lat="48.85005" lon="2.34223">
        <ele>53.400001525879</ele>
        <time>2016-02-01T21:11:27Z</time>
      </trkpt>
      <trkpt lat="48.85021" lon="2.34238">
        <ele>52.79999923706</ele>
        <time>2016-02-01T21:11:30Z</time>
      </trkpt>
      <trkpt lat="48.8504" lon="2.34253">
        <ele>52</ele>
        <time>2016-02-01T21:11:33Z</time>
      </trkpt>
      <trkpt lat="48.85059" lon="2.34266">
        <ele>50.79999923706</ele>
        <time>2016-02-01T21:11:36Z</time>
      </trkpt>
      <trkpt lat="48.85077" lon="2.34283">
        <ele>49.599998474121</ele>
        <time>2016-02-01T21:11:39Z</time>
      </trkpt>
      <trkpt lat="48.85097" lon="2.34294">
        <ele>48.400001525879</ele>
        <time>2016-02-01T21:11:42Z</time>
      </trkpt>
      <trkpt lat="48.85114" lon="2.34305">
        <ele>47.79999923706</ele>
        <time>2016-02-01T21:11:45Z</time>
      </trkpt>
      <trkpt lat="48.85132" lon="2.34316">
        <ele>48</ele>
        <time>2016-02-01T21:11:48Z</time>
      </trkpt>
      <trkpt lat="48.8515" lon="2.34326">
        <ele>48.20000076294</ele>
        <time>2016-02-01T21:11:51Z</time>
      </trkpt>
      <trkpt lat="48.8517" lon="2.34335">
        <ele>48.599998474121</ele>
        <time>2016-02-01T21:11:54Z</time>
      </trkpt>
      <trkpt lat="48.85191" lon="2.34343">
        <ele>49</ele>
        <time>2016-02-01T21:11:57Z</time>
      </trkpt>
      <trkpt lat="48.85213" lon="2.3435">
        <ele>49.400001525879</ele>
        <time>2016-02-01T21:12:00Z</time>
      </trkpt>
      <trkpt lat="48.85234" lon="2.34357">
        <ele>49.599998474121</ele>
        <time>2016-02-01T21:12:03Z</time>
      </trkpt>
      <trkpt lat="48.85252" lon="2.34364">
        <ele>49.79999923706</ele>
        <time>2016-02-01T21:12:06Z</time>
      </trkpt>
      <trkpt lat="48.85275" lon="2.34371">
        <ele>49.79999923706</ele>
        <time>2016-02-01T21:12:10Z</time>
      </trkpt>
      <trkpt lat="48.85298" lon="2.34377">
        <ele>48</ele>
        <time>2016-02-01T21:12:14Z</time>
      </trkpt>
      <trkpt lat="48.85318" lon="2.34386">
        <ele>46.599998474121</ele>
        <time>2016-02-01T21:12:18Z</time>
      </trkpt>
      <trkpt lat="48.85336" lon="2.34396">
        <ele>45.20000076294</ele>
        <time>2016-02-01T21:12:22Z</time>
      </trkpt>
      <trkpt lat="48.8534" lon="2.34399">
        <ele>45</ele>
        <time>2016-02-01T21:12:23Z</time>
      </trkpt>
      <trkpt lat="48.85355" lon="2.34415">
        <ele>44</ele>
        <time>2016-02-01T21:12:28Z</time>
      </trkpt>
      <trkpt lat="48.85368" lon="2.34429">
        <ele>43.599998474121</ele>
        <time>2016-02-01T21:12:34Z</time>
      </trkpt>
      <trkpt lat="48.85377" lon="2.34448">
        <ele>43.20000076294</ele>
        <time>2016-02-01T21:13:12Z</time>
      </trkpt>
      <trkpt lat="48.85394" lon="2.34461">
        <ele>42.599998474121</ele>
        <time>2016-02-01T21:13:17Z</time>
      </trkpt>
      <trkpt lat="48.8541" lon="2.34475">
        <ele>42</ele>
        <time>2016-02-01T21:13:21Z</time>
      </trkpt>
      <trkpt lat="48.85429" lon="2.34493">
        <ele>41.400001525879</ele>
        <time>2016-02-01T21:13:25Z</time>
      </trkpt>
      <trkpt lat="48.85449" lon="2.34512">
        <ele>41.599998474121</ele>
        <time>2016-02-01T21:13:29Z</time>
      </trkpt>
      <trkpt lat="48.85466" lon="2.34524">
        <ele>42.79999923706</ele>
        <time>2016-02-01T21:13:32Z</time>
      </trkpt>
      <trkpt lat="48.85482" lon="2.34536">
        <ele>44</ele>
        <time>2016-02-01T21:13:35Z</time>
      </trkpt>
      <trkpt lat="48.855" lon="2.34552">
        <ele>45.20000076294</ele>
        <time>2016-02-01T21:13:38Z</time>
      </trkpt>
      <trkpt lat="48.85517" lon="2.34567">
        <ele>46.400001525879</ele>
        <time>2016-02-01T21:13:41Z</time>
      </trkpt>
      <trkpt lat="48.85536" lon="2.34582">
        <ele>47.20000076294</ele>
        <time>2016-02-01T21:13:44Z</time>
      </trkpt>
      <trkpt lat="48.85554" lon="2.34597">
        <ele>47.400001525879</ele>
        <time>2016-02-01T21:13:47Z</time>
      </trkpt>
      <trkpt lat="48.85573" lon="2.3461">
        <ele>47.599998474121</ele>
        <time>2016-02-01T21:13:50Z</time>
      </trkpt>
      <trkpt lat="48.85592" lon="2.34619">
        <ele>47.79999923706</ele>
        <time>2016-02-01T21:13:53Z</time>
      </trkpt>
      <trkpt lat="48.85614" lon="2.34626">
        <ele>47.400001525879</ele>
        <time>2016-02-01T21:13:57Z</time>
      </trkpt>
      <trkpt lat="48.85629" lon="2.34628">
        <ele>46</ele>
        <time>2016-02-01T21:14:01Z</time>
      </trkpt>
      <trkpt lat="48.85635" lon="2.34629">
        <ele>45.599998474121</ele>
        <time>2016-02-01T21:14:03Z</time>
      </trkpt>
      <trkpt lat="48.8565" lon="2.34642">
        <ele>44.20000076294</ele>
        <time>2016-02-01T21:14:08Z</time>
      </trkpt>
      <trkpt lat="48.85654" lon="2.34645">
        <ele>44</ele>
        <time>2016-02-01T21:14:09Z</time>
      </trkpt>
      <trkpt lat="48.85671" lon="2.34656">
        <ele>42.599998474121</ele>
        <time>2016-02-01T21:14:14Z</time>
      </trkpt>
      <trkpt lat="48.85688" lon="2.3467">
        <ele>41</ele>
        <time>2016-02-01T21:14:19Z</time>
      </trkpt>
      <trkpt lat="48.85708" lon="2.34682">
        <ele>40.79999923706</ele>
        <time>2016-02-01T21:14:24Z</time>
      </trkpt>
      <trkpt lat="48.85715" lon="2.34685">
        <ele>40.400001525879</ele>
        <time>2016-02-01T21:14:26Z</time>
      </trkpt>
      <trkpt lat="48.85736" lon="2.34686">
        <ele>39.599998474121</ele>
        <time>2016-02-01T21:14:32Z</time>
      </trkpt>
      <trkpt lat="48.85743" lon="2.34689">
        <ele>39.400001525879</ele>
        <time>2016-02-01T21:14:34Z</time>
      </trkpt>
      <trkpt lat="48.85757" lon="2.34695">
        <ele>38.79999923706</ele>
        <time>2016-02-01T21:14:38Z</time>
      </trkpt>
      <trkpt lat="48.85776" lon="2.34705">
        <ele>38.79999923706</ele>
        <time>2016-02-01T21:14:43Z</time>
      </trkpt>
      <trkpt lat="48.85795" lon="2.34718">
        <ele>40.79999923706</ele>
        <time>2016-02-01T21:14:48Z</time>
      </trkpt>
      <trkpt lat="48.85817" lon="2.34722">
        <ele>42.79999923706</ele>
        <time>2016-02-01T21:14:52Z</time>
      </trkpt>
      <trkpt lat="48.85838" lon="2.34724">
        <ele>45</ele>
        <time>2016-02-01T21:14:55Z</time>
      </trkpt>
      <trkpt lat="48.85857" lon="2.34726">
        <ele>47.400001525879</ele>
        <time>2016-02-01T21:14:58Z</time>
      </trkpt>
      <trkpt lat="48.85875" lon="2.34729">
        <ele>46.79999923706</ele>
        <time>2016-02-01T21:15:01Z</time>
      </trkpt>
      <trkpt lat="48.85891" lon="2.34729">
        <ele>46.20000076294</ele>
        <time>2016-02-01T21:15:04Z</time>
      </trkpt>
      <trkpt lat="48.8591" lon="2.34719">
        <ele>45.79999923706</ele>
        <time>2016-02-01T21:15:08Z</time>
      </trkpt>
      <trkpt lat="48.85928" lon="2.34706">
        <ele>45.79999923706</ele>
        <time>2016-02-01T21:15:12Z</time>
      </trkpt>
      <trkpt lat="48.85941" lon="2.34695">
        <ele>46</ele>
        <time>2016-02-01T21:15:16Z</time>
      </trkpt>
      <trkpt lat="48.85955" lon="2.34705">
        <ele>45.79999923706</ele>
        <time>2016-02-01T21:15:23Z</time>
      </trkpt>
      <trkpt lat="48.85956" lon="2.34706">
        <ele>45.599998474121</ele>
        <time>2016-02-01T21:15:24Z</time>
      </trkpt>
      <trkpt lat="48.85958" lon="2.34708">
        <ele>45.599998474121</ele>
        <time>2016-02-01T21:15:26Z</time>
      </trkpt>
      <trkpt lat="48.85963" lon="2.34715">
        <ele>45.400001525879</ele>
        <time>2016-02-01T21:15:54Z</time>
      </trkpt>
    </trkseg>
  </trk>
</gpx>